<?xml version="1.0" encoding="UTF-8" standalone="no" ?><gpx xmlns="http://www.topografix.com/GPX/1/1" xmlns:gpxx="http://www.garmin.com/xmlschemas/GpxExtensions/v3" xmlns:wptx1="http://www.garmin.com/xmlschemas/WaypointExtension/v1" xmlns:gpxtpx="http://www.garmin.com/xmlschemas/TrackPointExtension/v1" creator="GuideVTT.com" version="1.1" xmlns:xsi="http://www.w3.org/2001/XMLSchema-instance" xsi:schemaLocation="http://www.topografix.com/GPX/1/1 http://www.topografix.com/GPX/1/1/gpx.xsd http://www.garmin.com/xmlschemas/GpxExtensions/v3 http://www8.garmin.com/xmlschemas/GpxExtensionsv3.xsd http://www.garmin.com/xmlschemas/WaypointExtension/v1 http://www8.garmin.com/xmlschemas/WaypointExtensionv1.xsd http://www.garmin.com/xmlschemas/TrackPointExtension/v1 http://www.garmin.com/xmlschemas/TrackPointExtensionv1.xsd">
<metadata><link href="http://www.garmin.com"><text>Garmin International</text></link><time>2013-06-22T15:13:50Z</time></metadata>
<trk><name>couraduque.gpx</name><extensions><gpxx:TrackExtension><gpxx:DisplayColor>Cyan</gpxx:DisplayColor></gpxx:TrackExtension></extensions><trkseg>
<trkpt lat="42.99054200" lon="-0.20195200"><ele></ele><time>2014-6-23T7:24:52Z</time></trkpt>
<trkpt lat="42.99039800" lon="-0.20181000"><ele></ele><time>2014-6-23T7:24:55Z</time></trkpt>
<trkpt lat="42.99028300" lon="-0.20194700"><ele></ele><time>2014-6-23T7:24:58Z</time></trkpt>
<trkpt lat="42.99045300" lon="-0.20223500"><ele></ele><time>2014-6-23T7:25:1Z</time></trkpt>
<trkpt lat="42.99060800" lon="-0.20223700"><ele></ele><time>2014-6-23T7:25:4Z</time></trkpt>
<trkpt lat="42.99060300" lon="-0.20224000"><ele></ele><time>2014-6-23T7:25:7Z</time></trkpt>
<trkpt lat="42.99059800" lon="-0.20224300"><ele></ele><time>2014-6-23T7:25:10Z</time></trkpt>
<trkpt lat="42.99060000" lon="-0.20224700"><ele></ele><time>2014-6-23T7:25:13Z</time></trkpt>
<trkpt lat="42.99061300" lon="-0.20224800"><ele></ele><time>2014-6-23T7:25:16Z</time></trkpt>
<trkpt lat="42.99062300" lon="-0.20224800"><ele></ele><time>2014-6-23T7:25:19Z</time></trkpt>
<trkpt lat="42.99062000" lon="-0.20224800"><ele></ele><time>2014-6-23T7:25:22Z</time></trkpt>
<trkpt lat="42.99062300" lon="-0.20225300"><ele></ele><time>2014-6-23T7:25:25Z</time></trkpt>
<trkpt lat="42.99062200" lon="-0.20226300"><ele></ele><time>2014-6-23T7:25:28Z</time></trkpt>
<trkpt lat="42.99061200" lon="-0.20226700"><ele></ele><time>2014-6-23T7:25:31Z</time></trkpt>
<trkpt lat="42.99060300" lon="-0.20226700"><ele></ele><time>2014-6-23T7:25:34Z</time></trkpt>
<trkpt lat="42.99059300" lon="-0.20227700"><ele></ele><time>2014-6-23T7:25:37Z</time></trkpt>
<trkpt lat="42.99060500" lon="-0.20225800"><ele></ele><time>2014-6-23T7:25:40Z</time></trkpt>
<trkpt lat="42.99061000" lon="-0.20225700"><ele></ele><time>2014-6-23T7:25:43Z</time></trkpt>
<trkpt lat="42.99061000" lon="-0.20226800"><ele></ele><time>2014-6-23T7:25:46Z</time></trkpt>
<trkpt lat="42.99060800" lon="-0.20227300"><ele></ele><time>2014-6-23T7:25:49Z</time></trkpt>
<trkpt lat="42.99061000" lon="-0.20226200"><ele></ele><time>2014-6-23T7:25:52Z</time></trkpt>
<trkpt lat="42.99060700" lon="-0.20225800"><ele></ele><time>2014-6-23T7:25:55Z</time></trkpt>
<trkpt lat="42.99061000" lon="-0.20225700"><ele></ele><time>2014-6-23T7:25:58Z</time></trkpt>
<trkpt lat="42.99061300" lon="-0.20226200"><ele></ele><time>2014-6-23T7:26:1Z</time></trkpt>
<trkpt lat="42.99061300" lon="-0.20226200"><ele></ele><time>2014-6-23T7:26:4Z</time></trkpt>
<trkpt lat="42.99061300" lon="-0.20226000"><ele></ele><time>2014-6-23T7:26:7Z</time></trkpt>
<trkpt lat="42.99062500" lon="-0.20226200"><ele></ele><time>2014-6-23T7:26:10Z</time></trkpt>
<trkpt lat="42.99062800" lon="-0.20226500"><ele></ele><time>2014-6-23T7:26:13Z</time></trkpt>
<trkpt lat="42.99062200" lon="-0.20225700"><ele></ele><time>2014-6-23T7:26:16Z</time></trkpt>
<trkpt lat="42.99061300" lon="-0.20224200"><ele></ele><time>2014-6-23T7:26:19Z</time></trkpt>
<trkpt lat="42.99060200" lon="-0.20224200"><ele></ele><time>2014-6-23T7:26:22Z</time></trkpt>
<trkpt lat="42.99059800" lon="-0.20224500"><ele></ele><time>2014-6-23T7:26:25Z</time></trkpt>
<trkpt lat="42.99059800" lon="-0.20225300"><ele></ele><time>2014-6-23T7:26:28Z</time></trkpt>
<trkpt lat="42.99059800" lon="-0.20225300"><ele></ele><time>2014-6-23T7:26:31Z</time></trkpt>
<trkpt lat="42.99059500" lon="-0.20226200"><ele></ele><time>2014-6-23T7:26:34Z</time></trkpt>
<trkpt lat="42.99060200" lon="-0.20226300"><ele></ele><time>2014-6-23T7:26:37Z</time></trkpt>
<trkpt lat="42.99061000" lon="-0.20227200"><ele></ele><time>2014-6-23T7:26:40Z</time></trkpt>
<trkpt lat="42.99061800" lon="-0.20227000"><ele></ele><time>2014-6-23T7:26:43Z</time></trkpt>
<trkpt lat="42.99062200" lon="-0.20225800"><ele></ele><time>2014-6-23T7:26:46Z</time></trkpt>
<trkpt lat="42.99061200" lon="-0.20227200"><ele></ele><time>2014-6-23T7:26:49Z</time></trkpt>
<trkpt lat="42.99060500" lon="-0.20227800"><ele></ele><time>2014-6-23T7:26:52Z</time></trkpt>
<trkpt lat="42.99059200" lon="-0.20229200"><ele></ele><time>2014-6-23T7:26:55Z</time></trkpt>
<trkpt lat="42.99059200" lon="-0.20229300"><ele></ele><time>2014-6-23T7:26:58Z</time></trkpt>
<trkpt lat="42.99060500" lon="-0.20236000"><ele></ele><time>2014-6-23T7:27:1Z</time></trkpt>
<trkpt lat="42.99066300" lon="-0.20248700"><ele></ele><time>2014-6-23T7:27:4Z</time></trkpt>
<trkpt lat="42.99075800" lon="-0.20259500"><ele></ele><time>2014-6-23T7:27:7Z</time></trkpt>
<trkpt lat="42.99088700" lon="-0.20270200"><ele></ele><time>2014-6-23T7:27:10Z</time></trkpt>
<trkpt lat="42.99101300" lon="-0.20281700"><ele></ele><time>2014-6-23T7:27:13Z</time></trkpt>
<trkpt lat="42.99113200" lon="-0.20286000"><ele></ele><time>2014-6-23T7:27:16Z</time></trkpt>
<trkpt lat="42.99126800" lon="-0.20286800"><ele></ele><time>2014-6-23T7:27:19Z</time></trkpt>
<trkpt lat="42.99141800" lon="-0.20280500"><ele></ele><time>2014-6-23T7:27:22Z</time></trkpt>
<trkpt lat="42.99153200" lon="-0.20258300"><ele></ele><time>2014-6-23T7:27:25Z</time></trkpt>
<trkpt lat="42.99167000" lon="-0.20235300"><ele></ele><time>2014-6-23T7:27:28Z</time></trkpt>
<trkpt lat="42.99180700" lon="-0.20207700"><ele></ele><time>2014-6-23T7:27:31Z</time></trkpt>
<trkpt lat="42.99192200" lon="-0.20174800"><ele></ele><time>2014-6-23T7:27:34Z</time></trkpt>
<trkpt lat="42.99196200" lon="-0.20138200"><ele></ele><time>2014-6-23T7:27:37Z</time></trkpt>
<trkpt lat="42.99188200" lon="-0.20097800"><ele></ele><time>2014-6-23T7:27:40Z</time></trkpt>
<trkpt lat="42.99184500" lon="-0.20051000"><ele></ele><time>2014-6-23T7:27:43Z</time></trkpt>
<trkpt lat="42.99190200" lon="-0.20004200"><ele></ele><time>2014-6-23T7:27:46Z</time></trkpt>
<trkpt lat="42.99199500" lon="-0.19960300"><ele></ele><time>2014-6-23T7:27:49Z</time></trkpt>
<trkpt lat="42.99210200" lon="-0.19932200"><ele></ele><time>2014-6-23T7:27:52Z</time></trkpt>
<trkpt lat="42.99223800" lon="-0.19907800"><ele></ele><time>2014-6-23T7:27:55Z</time></trkpt>
<trkpt lat="42.99236700" lon="-0.19879800"><ele></ele><time>2014-6-23T7:27:58Z</time></trkpt>
<trkpt lat="42.99245700" lon="-0.19842800"><ele></ele><time>2014-6-23T7:28:1Z</time></trkpt>
<trkpt lat="42.99250800" lon="-0.19806300"><ele></ele><time>2014-6-23T7:28:4Z</time></trkpt>
<trkpt lat="42.99249800" lon="-0.19758700"><ele></ele><time>2014-6-23T7:28:7Z</time></trkpt>
<trkpt lat="42.99243000" lon="-0.19709800"><ele></ele><time>2014-6-23T7:28:10Z</time></trkpt>
<trkpt lat="42.99238000" lon="-0.19664800"><ele></ele><time>2014-6-23T7:28:13Z</time></trkpt>
<trkpt lat="42.99234200" lon="-0.19617500"><ele></ele><time>2014-6-23T7:28:16Z</time></trkpt>
<trkpt lat="42.99229800" lon="-0.19571800"><ele></ele><time>2014-6-23T7:28:19Z</time></trkpt>
<trkpt lat="42.99220700" lon="-0.19531700"><ele></ele><time>2014-6-23T7:28:22Z</time></trkpt>
<trkpt lat="42.99215200" lon="-0.19498000"><ele></ele><time>2014-6-23T7:28:25Z</time></trkpt>
<trkpt lat="42.99210500" lon="-0.19476200"><ele></ele><time>2014-6-23T7:28:28Z</time></trkpt>
<trkpt lat="42.99206800" lon="-0.19458300"><ele></ele><time>2014-6-23T7:28:31Z</time></trkpt>
<trkpt lat="42.99200800" lon="-0.19441800"><ele></ele><time>2014-6-23T7:28:34Z</time></trkpt>
<trkpt lat="42.99192200" lon="-0.19434000"><ele></ele><time>2014-6-23T7:28:37Z</time></trkpt>
<trkpt lat="42.99183300" lon="-0.19426700"><ele></ele><time>2014-6-23T7:28:40Z</time></trkpt>
<trkpt lat="42.99181200" lon="-0.19424300"><ele></ele><time>2014-6-23T7:28:43Z</time></trkpt>
<trkpt lat="42.99181300" lon="-0.19424300"><ele></ele><time>2014-6-23T7:28:46Z</time></trkpt>
<trkpt lat="42.99181300" lon="-0.19425200"><ele></ele><time>2014-6-23T7:28:49Z</time></trkpt>
<trkpt lat="42.99180300" lon="-0.19426300"><ele></ele><time>2014-6-23T7:28:52Z</time></trkpt>
<trkpt lat="42.99181300" lon="-0.19425200"><ele></ele><time>2014-6-23T7:28:55Z</time></trkpt>
<trkpt lat="42.99181800" lon="-0.19424700"><ele></ele><time>2014-6-23T7:28:58Z</time></trkpt>
<trkpt lat="42.99182200" lon="-0.19424800"><ele></ele><time>2014-6-23T7:29:1Z</time></trkpt>
<trkpt lat="42.99182200" lon="-0.19423800"><ele></ele><time>2014-6-23T7:29:4Z</time></trkpt>
<trkpt lat="42.99181800" lon="-0.19424200"><ele></ele><time>2014-6-23T7:29:7Z</time></trkpt>
<trkpt lat="42.99182500" lon="-0.19424800"><ele></ele><time>2014-6-23T7:29:10Z</time></trkpt>
<trkpt lat="42.99180800" lon="-0.19423200"><ele></ele><time>2014-6-23T7:29:13Z</time></trkpt>
<trkpt lat="42.99180500" lon="-0.19422700"><ele></ele><time>2014-6-23T7:29:16Z</time></trkpt>
<trkpt lat="42.99179300" lon="-0.19422800"><ele></ele><time>2014-6-23T7:29:19Z</time></trkpt>
<trkpt lat="42.99179300" lon="-0.19421300"><ele></ele><time>2014-6-23T7:29:22Z</time></trkpt>
<trkpt lat="42.99180000" lon="-0.19422200"><ele></ele><time>2014-6-23T7:29:25Z</time></trkpt>
<trkpt lat="42.99179200" lon="-0.19426200"><ele></ele><time>2014-6-23T7:29:28Z</time></trkpt>
<trkpt lat="42.99179200" lon="-0.19427300"><ele></ele><time>2014-6-23T7:29:31Z</time></trkpt>
<trkpt lat="42.99178700" lon="-0.19424700"><ele></ele><time>2014-6-23T7:29:34Z</time></trkpt>
<trkpt lat="42.99178300" lon="-0.19424200"><ele></ele><time>2014-6-23T7:29:37Z</time></trkpt>
<trkpt lat="42.99178300" lon="-0.19424000"><ele></ele><time>2014-6-23T7:29:40Z</time></trkpt>
<trkpt lat="42.99178700" lon="-0.19424200"><ele></ele><time>2014-6-23T7:29:43Z</time></trkpt>
<trkpt lat="42.99179700" lon="-0.19424200"><ele></ele><time>2014-6-23T7:29:46Z</time></trkpt>
<trkpt lat="42.99179700" lon="-0.19424800"><ele></ele><time>2014-6-23T7:29:49Z</time></trkpt>
<trkpt lat="42.99179700" lon="-0.19425500"><ele></ele><time>2014-6-23T7:29:52Z</time></trkpt>
<trkpt lat="42.99179500" lon="-0.19425300"><ele></ele><time>2014-6-23T7:29:55Z</time></trkpt>
<trkpt lat="42.99179800" lon="-0.19424800"><ele></ele><time>2014-6-23T7:29:58Z</time></trkpt>
<trkpt lat="42.99179300" lon="-0.19426200"><ele></ele><time>2014-6-23T7:30:1Z</time></trkpt>
<trkpt lat="42.99178300" lon="-0.19427200"><ele></ele><time>2014-6-23T7:30:4Z</time></trkpt>
<trkpt lat="42.99178300" lon="-0.19428300"><ele></ele><time>2014-6-23T7:30:7Z</time></trkpt>
<trkpt lat="42.99179500" lon="-0.19428700"><ele></ele><time>2014-6-23T7:30:10Z</time></trkpt>
<trkpt lat="42.99180500" lon="-0.19427700"><ele></ele><time>2014-6-23T7:30:13Z</time></trkpt>
<trkpt lat="42.99180300" lon="-0.19426500"><ele></ele><time>2014-6-23T7:30:16Z</time></trkpt>
<trkpt lat="42.99180200" lon="-0.19426700"><ele></ele><time>2014-6-23T7:30:19Z</time></trkpt>
<trkpt lat="42.99180300" lon="-0.19426200"><ele></ele><time>2014-6-23T7:30:22Z</time></trkpt>
<trkpt lat="42.99180300" lon="-0.19424500"><ele></ele><time>2014-6-23T7:30:25Z</time></trkpt>
<trkpt lat="42.99180300" lon="-0.19424000"><ele></ele><time>2014-6-23T7:30:28Z</time></trkpt>
<trkpt lat="42.99180000" lon="-0.19423700"><ele></ele><time>2014-6-23T7:30:31Z</time></trkpt>
<trkpt lat="42.99179300" lon="-0.19421700"><ele></ele><time>2014-6-23T7:30:34Z</time></trkpt>
<trkpt lat="42.99179800" lon="-0.19423700"><ele></ele><time>2014-6-23T7:30:37Z</time></trkpt>
<trkpt lat="42.99180200" lon="-0.19425500"><ele></ele><time>2014-6-23T7:30:40Z</time></trkpt>
<trkpt lat="42.99180800" lon="-0.19425200"><ele></ele><time>2014-6-23T7:30:43Z</time></trkpt>
<trkpt lat="42.99182000" lon="-0.19426800"><ele></ele><time>2014-6-23T7:30:46Z</time></trkpt>
<trkpt lat="42.99181700" lon="-0.19428000"><ele></ele><time>2014-6-23T7:30:49Z</time></trkpt>
<trkpt lat="42.99181000" lon="-0.19427800"><ele></ele><time>2014-6-23T7:30:52Z</time></trkpt>
<trkpt lat="42.99181300" lon="-0.19427200"><ele></ele><time>2014-6-23T7:30:55Z</time></trkpt>
<trkpt lat="42.99180800" lon="-0.19426500"><ele></ele><time>2014-6-23T7:30:58Z</time></trkpt>
<trkpt lat="42.99181200" lon="-0.19426800"><ele></ele><time>2014-6-23T7:31:1Z</time></trkpt>
<trkpt lat="42.99181700" lon="-0.19426200"><ele></ele><time>2014-6-23T7:31:4Z</time></trkpt>
<trkpt lat="42.99181200" lon="-0.19424700"><ele></ele><time>2014-6-23T7:31:7Z</time></trkpt>
<trkpt lat="42.99180200" lon="-0.19424300"><ele></ele><time>2014-6-23T7:31:10Z</time></trkpt>
<trkpt lat="42.99180700" lon="-0.19425800"><ele></ele><time>2014-6-23T7:31:13Z</time></trkpt>
<trkpt lat="42.99181500" lon="-0.19425300"><ele></ele><time>2014-6-23T7:31:16Z</time></trkpt>
<trkpt lat="42.99182300" lon="-0.19425200"><ele></ele><time>2014-6-23T7:31:19Z</time></trkpt>
<trkpt lat="42.99181700" lon="-0.19425300"><ele></ele><time>2014-6-23T7:31:22Z</time></trkpt>
<trkpt lat="42.99181300" lon="-0.19426200"><ele></ele><time>2014-6-23T7:31:25Z</time></trkpt>
<trkpt lat="42.99181200" lon="-0.19426700"><ele></ele><time>2014-6-23T7:31:28Z</time></trkpt>
<trkpt lat="42.99181000" lon="-0.19427000"><ele></ele><time>2014-6-23T7:31:31Z</time></trkpt>
<trkpt lat="42.99181000" lon="-0.19426700"><ele></ele><time>2014-6-23T7:31:34Z</time></trkpt>
<trkpt lat="42.99180800" lon="-0.19425300"><ele></ele><time>2014-6-23T7:31:37Z</time></trkpt>
<trkpt lat="42.99180000" lon="-0.19425800"><ele></ele><time>2014-6-23T7:31:40Z</time></trkpt>
<trkpt lat="42.99179500" lon="-0.19426700"><ele></ele><time>2014-6-23T7:31:43Z</time></trkpt>
<trkpt lat="42.99179200" lon="-0.19427800"><ele></ele><time>2014-6-23T7:31:46Z</time></trkpt>
<trkpt lat="42.99180700" lon="-0.19426800"><ele></ele><time>2014-6-23T7:31:49Z</time></trkpt>
<trkpt lat="42.99181200" lon="-0.19426700"><ele></ele><time>2014-6-23T7:31:52Z</time></trkpt>
<trkpt lat="42.99180800" lon="-0.19424300"><ele></ele><time>2014-6-23T7:31:55Z</time></trkpt>
<trkpt lat="42.99178700" lon="-0.19420300"><ele></ele><time>2014-6-23T7:31:58Z</time></trkpt>
<trkpt lat="42.99178800" lon="-0.19420800"><ele></ele><time>2014-6-23T7:32:1Z</time></trkpt>
<trkpt lat="42.99179300" lon="-0.19421800"><ele></ele><time>2014-6-23T7:32:4Z</time></trkpt>
<trkpt lat="42.99180000" lon="-0.19423200"><ele></ele><time>2014-6-23T7:32:7Z</time></trkpt>
<trkpt lat="42.99180700" lon="-0.19422700"><ele></ele><time>2014-6-23T7:32:10Z</time></trkpt>
<trkpt lat="42.99180200" lon="-0.19424200"><ele></ele><time>2014-6-23T7:32:13Z</time></trkpt>
<trkpt lat="42.99181500" lon="-0.19425700"><ele></ele><time>2014-6-23T7:32:16Z</time></trkpt>
<trkpt lat="42.99180800" lon="-0.19425300"><ele></ele><time>2014-6-23T7:32:19Z</time></trkpt>
<trkpt lat="42.99184300" lon="-0.19427300"><ele></ele><time>2014-6-23T7:32:22Z</time></trkpt>
<trkpt lat="42.99185300" lon="-0.19427800"><ele></ele><time>2014-6-23T7:32:25Z</time></trkpt>
<trkpt lat="42.99186700" lon="-0.19427000"><ele></ele><time>2014-6-23T7:32:28Z</time></trkpt>
<trkpt lat="42.99187300" lon="-0.19427800"><ele></ele><time>2014-6-23T7:32:31Z</time></trkpt>
<trkpt lat="42.99193700" lon="-0.19432800"><ele></ele><time>2014-6-23T7:32:34Z</time></trkpt>
<trkpt lat="42.99202500" lon="-0.19442500"><ele></ele><time>2014-6-23T7:32:37Z</time></trkpt>
<trkpt lat="42.99208300" lon="-0.19461200"><ele></ele><time>2014-6-23T7:32:40Z</time></trkpt>
<trkpt lat="42.99212700" lon="-0.19485300"><ele></ele><time>2014-6-23T7:32:43Z</time></trkpt>
<trkpt lat="42.99217300" lon="-0.19509800"><ele></ele><time>2014-6-23T7:32:46Z</time></trkpt>
<trkpt lat="42.99221300" lon="-0.19535200"><ele></ele><time>2014-6-23T7:32:49Z</time></trkpt>
<trkpt lat="42.99226200" lon="-0.19558200"><ele></ele><time>2014-6-23T7:32:52Z</time></trkpt>
<trkpt lat="42.99230700" lon="-0.19581000"><ele></ele><time>2014-6-23T7:32:55Z</time></trkpt>
<trkpt lat="42.99234700" lon="-0.19606300"><ele></ele><time>2014-6-23T7:32:58Z</time></trkpt>
<trkpt lat="42.99236000" lon="-0.19632200"><ele></ele><time>2014-6-23T7:33:1Z</time></trkpt>
<trkpt lat="42.99237300" lon="-0.19657200"><ele></ele><time>2014-6-23T7:33:4Z</time></trkpt>
<trkpt lat="42.99239800" lon="-0.19684700"><ele></ele><time>2014-6-23T7:33:7Z</time></trkpt>
<trkpt lat="42.99243200" lon="-0.19710300"><ele></ele><time>2014-6-23T7:33:10Z</time></trkpt>
<trkpt lat="42.99244700" lon="-0.19736700"><ele></ele><time>2014-6-23T7:33:13Z</time></trkpt>
<trkpt lat="42.99247700" lon="-0.19761800"><ele></ele><time>2014-6-23T7:33:16Z</time></trkpt>
<trkpt lat="42.99249700" lon="-0.19786800"><ele></ele><time>2014-6-23T7:33:19Z</time></trkpt>
<trkpt lat="42.99248300" lon="-0.19810800"><ele></ele><time>2014-6-23T7:33:22Z</time></trkpt>
<trkpt lat="42.99244800" lon="-0.19835200"><ele></ele><time>2014-6-23T7:33:25Z</time></trkpt>
<trkpt lat="42.99241800" lon="-0.19858800"><ele></ele><time>2014-6-23T7:33:28Z</time></trkpt>
<trkpt lat="42.99237500" lon="-0.19881200"><ele></ele><time>2014-6-23T7:33:31Z</time></trkpt>
<trkpt lat="42.99227700" lon="-0.19902500"><ele></ele><time>2014-6-23T7:33:34Z</time></trkpt>
<trkpt lat="42.99217300" lon="-0.19920500"><ele></ele><time>2014-6-23T7:33:37Z</time></trkpt>
<trkpt lat="42.99206800" lon="-0.19939800"><ele></ele><time>2014-6-23T7:33:40Z</time></trkpt>
<trkpt lat="42.99198700" lon="-0.19964200"><ele></ele><time>2014-6-23T7:33:43Z</time></trkpt>
<trkpt lat="42.99189300" lon="-0.19988700"><ele></ele><time>2014-6-23T7:33:46Z</time></trkpt>
<trkpt lat="42.99184300" lon="-0.20015500"><ele></ele><time>2014-6-23T7:33:49Z</time></trkpt>
<trkpt lat="42.99180500" lon="-0.20039200"><ele></ele><time>2014-6-23T7:33:52Z</time></trkpt>
<trkpt lat="42.99179500" lon="-0.20061000"><ele></ele><time>2014-6-23T7:33:55Z</time></trkpt>
<trkpt lat="42.99180500" lon="-0.20088800"><ele></ele><time>2014-6-23T7:33:58Z</time></trkpt>
<trkpt lat="42.99186700" lon="-0.20116000"><ele></ele><time>2014-6-23T7:34:1Z</time></trkpt>
<trkpt lat="42.99191300" lon="-0.20139500"><ele></ele><time>2014-6-23T7:34:4Z</time></trkpt>
<trkpt lat="42.99191700" lon="-0.20161800"><ele></ele><time>2014-6-23T7:34:7Z</time></trkpt>
<trkpt lat="42.99186800" lon="-0.20181000"><ele></ele><time>2014-6-23T7:34:10Z</time></trkpt>
<trkpt lat="42.99179000" lon="-0.20200500"><ele></ele><time>2014-6-23T7:34:13Z</time></trkpt>
<trkpt lat="42.99170700" lon="-0.20219000"><ele></ele><time>2014-6-23T7:34:16Z</time></trkpt>
<trkpt lat="42.99163700" lon="-0.20236000"><ele></ele><time>2014-6-23T7:34:19Z</time></trkpt>
<trkpt lat="42.99155500" lon="-0.20249500"><ele></ele><time>2014-6-23T7:34:22Z</time></trkpt>
<trkpt lat="42.99149300" lon="-0.20261200"><ele></ele><time>2014-6-23T7:34:25Z</time></trkpt>
<trkpt lat="42.99144500" lon="-0.20270700"><ele></ele><time>2014-6-23T7:34:28Z</time></trkpt>
<trkpt lat="42.99138700" lon="-0.20281700"><ele></ele><time>2014-6-23T7:34:31Z</time></trkpt>
<trkpt lat="42.99134700" lon="-0.20293800"><ele></ele><time>2014-6-23T7:34:34Z</time></trkpt>
<trkpt lat="42.99130000" lon="-0.20307700"><ele></ele><time>2014-6-23T7:34:37Z</time></trkpt>
<trkpt lat="42.99125700" lon="-0.20319000"><ele></ele><time>2014-6-23T7:34:40Z</time></trkpt>
<trkpt lat="42.99122300" lon="-0.20328500"><ele></ele><time>2014-6-23T7:34:43Z</time></trkpt>
<trkpt lat="42.99121700" lon="-0.20336700"><ele></ele><time>2014-6-23T7:34:46Z</time></trkpt>
<trkpt lat="42.99128500" lon="-0.20339800"><ele></ele><time>2014-6-23T7:34:49Z</time></trkpt>
<trkpt lat="42.99136300" lon="-0.20345700"><ele></ele><time>2014-6-23T7:34:52Z</time></trkpt>
<trkpt lat="42.99144700" lon="-0.20348300"><ele></ele><time>2014-6-23T7:34:55Z</time></trkpt>
<trkpt lat="42.99153200" lon="-0.20351300"><ele></ele><time>2014-6-23T7:34:58Z</time></trkpt>
<trkpt lat="42.99161200" lon="-0.20355800"><ele></ele><time>2014-6-23T7:35:1Z</time></trkpt>
<trkpt lat="42.99168000" lon="-0.20360300"><ele></ele><time>2014-6-23T7:35:4Z</time></trkpt>
<trkpt lat="42.99174200" lon="-0.20364700"><ele></ele><time>2014-6-23T7:35:7Z</time></trkpt>
<trkpt lat="42.99180300" lon="-0.20371500"><ele></ele><time>2014-6-23T7:35:10Z</time></trkpt>
<trkpt lat="42.99186000" lon="-0.20377800"><ele></ele><time>2014-6-23T7:35:13Z</time></trkpt>
<trkpt lat="42.99191000" lon="-0.20383800"><ele></ele><time>2014-6-23T7:35:16Z</time></trkpt>
<trkpt lat="42.99196300" lon="-0.20387800"><ele></ele><time>2014-6-23T7:35:19Z</time></trkpt>
<trkpt lat="42.99200800" lon="-0.20392700"><ele></ele><time>2014-6-23T7:35:22Z</time></trkpt>
<trkpt lat="42.99207800" lon="-0.20397300"><ele></ele><time>2014-6-23T7:35:25Z</time></trkpt>
<trkpt lat="42.99214500" lon="-0.20400700"><ele></ele><time>2014-6-23T7:35:28Z</time></trkpt>
<trkpt lat="42.99221800" lon="-0.20403800"><ele></ele><time>2014-6-23T7:35:31Z</time></trkpt>
<trkpt lat="42.99228800" lon="-0.20407000"><ele></ele><time>2014-6-23T7:35:34Z</time></trkpt>
<trkpt lat="42.99233000" lon="-0.20409300"><ele></ele><time>2014-6-23T7:35:37Z</time></trkpt>
<trkpt lat="42.99237200" lon="-0.20414300"><ele></ele><time>2014-6-23T7:35:40Z</time></trkpt>
<trkpt lat="42.99242300" lon="-0.20420200"><ele></ele><time>2014-6-23T7:35:43Z</time></trkpt>
<trkpt lat="42.99246700" lon="-0.20426000"><ele></ele><time>2014-6-23T7:35:46Z</time></trkpt>
<trkpt lat="42.99251500" lon="-0.20430700"><ele></ele><time>2014-6-23T7:35:49Z</time></trkpt>
<trkpt lat="42.99257300" lon="-0.20437200"><ele></ele><time>2014-6-23T7:35:52Z</time></trkpt>
<trkpt lat="42.99262200" lon="-0.20443200"><ele></ele><time>2014-6-23T7:35:55Z</time></trkpt>
<trkpt lat="42.99266700" lon="-0.20448300"><ele></ele><time>2014-6-23T7:35:58Z</time></trkpt>
<trkpt lat="42.99272200" lon="-0.20453200"><ele></ele><time>2014-6-23T7:36:1Z</time></trkpt>
<trkpt lat="42.99277200" lon="-0.20458300"><ele></ele><time>2014-6-23T7:36:4Z</time></trkpt>
<trkpt lat="42.99282800" lon="-0.20461800"><ele></ele><time>2014-6-23T7:36:7Z</time></trkpt>
<trkpt lat="42.99288800" lon="-0.20464500"><ele></ele><time>2014-6-23T7:36:10Z</time></trkpt>
<trkpt lat="42.99294700" lon="-0.20465300"><ele></ele><time>2014-6-23T7:36:13Z</time></trkpt>
<trkpt lat="42.99300500" lon="-0.20466000"><ele></ele><time>2014-6-23T7:36:16Z</time></trkpt>
<trkpt lat="42.99306300" lon="-0.20466700"><ele></ele><time>2014-6-23T7:36:19Z</time></trkpt>
<trkpt lat="42.99306700" lon="-0.20468800"><ele></ele><time>2014-6-23T7:36:22Z</time></trkpt>
<trkpt lat="42.99313200" lon="-0.20466700"><ele></ele><time>2014-6-23T7:36:25Z</time></trkpt>
<trkpt lat="42.99324500" lon="-0.20464000"><ele></ele><time>2014-6-23T7:36:28Z</time></trkpt>
<trkpt lat="42.99335300" lon="-0.20463000"><ele></ele><time>2014-6-23T7:36:31Z</time></trkpt>
<trkpt lat="42.99343800" lon="-0.20465300"><ele></ele><time>2014-6-23T7:36:34Z</time></trkpt>
<trkpt lat="42.99353000" lon="-0.20472500"><ele></ele><time>2014-6-23T7:36:37Z</time></trkpt>
<trkpt lat="42.99362000" lon="-0.20482200"><ele></ele><time>2014-6-23T7:36:40Z</time></trkpt>
<trkpt lat="42.99373200" lon="-0.20495000"><ele></ele><time>2014-6-23T7:36:43Z</time></trkpt>
<trkpt lat="42.99378300" lon="-0.20510200"><ele></ele><time>2014-6-23T7:36:46Z</time></trkpt>
<trkpt lat="42.99382000" lon="-0.20524000"><ele></ele><time>2014-6-23T7:36:49Z</time></trkpt>
<trkpt lat="42.99386300" lon="-0.20537800"><ele></ele><time>2014-6-23T7:36:52Z</time></trkpt>
<trkpt lat="42.99392700" lon="-0.20551300"><ele></ele><time>2014-6-23T7:36:55Z</time></trkpt>
<trkpt lat="42.99398200" lon="-0.20563500"><ele></ele><time>2014-6-23T7:36:58Z</time></trkpt>
<trkpt lat="42.99407200" lon="-0.20574200"><ele></ele><time>2014-6-23T7:37:1Z</time></trkpt>
<trkpt lat="42.99428800" lon="-0.20585200"><ele></ele><time>2014-6-23T7:37:4Z</time></trkpt>
<trkpt lat="42.99441800" lon="-0.20594500"><ele></ele><time>2014-6-23T7:37:7Z</time></trkpt>
<trkpt lat="42.99455300" lon="-0.20600800"><ele></ele><time>2014-6-23T7:37:10Z</time></trkpt>
<trkpt lat="42.99472800" lon="-0.20604000"><ele></ele><time>2014-6-23T7:37:13Z</time></trkpt>
<trkpt lat="42.99488800" lon="-0.20601000"><ele></ele><time>2014-6-23T7:37:16Z</time></trkpt>
<trkpt lat="42.99498300" lon="-0.20597800"><ele></ele><time>2014-6-23T7:37:19Z</time></trkpt>
<trkpt lat="42.99498300" lon="-0.20597200"><ele></ele><time>2014-6-23T7:37:22Z</time></trkpt>
<trkpt lat="42.99507800" lon="-0.20596200"><ele></ele><time>2014-6-23T7:37:25Z</time></trkpt>
<trkpt lat="42.99518500" lon="-0.20591500"><ele></ele><time>2014-6-23T7:37:28Z</time></trkpt>
<trkpt lat="42.99527200" lon="-0.20581700"><ele></ele><time>2014-6-23T7:37:31Z</time></trkpt>
<trkpt lat="42.99534000" lon="-0.20574200"><ele></ele><time>2014-6-23T7:37:34Z</time></trkpt>
<trkpt lat="42.99541700" lon="-0.20565500"><ele></ele><time>2014-6-23T7:37:37Z</time></trkpt>
<trkpt lat="42.99547700" lon="-0.20555300"><ele></ele><time>2014-6-23T7:37:40Z</time></trkpt>
<trkpt lat="42.99552800" lon="-0.20545700"><ele></ele><time>2014-6-23T7:37:43Z</time></trkpt>
<trkpt lat="42.99557300" lon="-0.20530200"><ele></ele><time>2014-6-23T7:37:46Z</time></trkpt>
<trkpt lat="42.99563300" lon="-0.20515300"><ele></ele><time>2014-6-23T7:37:49Z</time></trkpt>
<trkpt lat="42.99590000" lon="-0.20494000"><ele></ele><time>2014-6-23T7:37:52Z</time></trkpt>
<trkpt lat="42.99620800" lon="-0.20466300"><ele></ele><time>2014-6-23T7:37:55Z</time></trkpt>
<trkpt lat="42.99643800" lon="-0.20436200"><ele></ele><time>2014-6-23T7:37:58Z</time></trkpt>
<trkpt lat="42.99664300" lon="-0.20442200"><ele></ele><time>2014-6-23T7:38:1Z</time></trkpt>
<trkpt lat="42.99681700" lon="-0.20456200"><ele></ele><time>2014-6-23T7:38:4Z</time></trkpt>
<trkpt lat="42.99714000" lon="-0.20473800"><ele></ele><time>2014-6-23T7:38:7Z</time></trkpt>
<trkpt lat="42.99741700" lon="-0.20487700"><ele></ele><time>2014-6-23T7:38:10Z</time></trkpt>
<trkpt lat="42.99764300" lon="-0.20491700"><ele></ele><time>2014-6-23T7:38:13Z</time></trkpt>
<trkpt lat="42.99782700" lon="-0.20497700"><ele></ele><time>2014-6-23T7:38:16Z</time></trkpt>
<trkpt lat="42.99797700" lon="-0.20503200"><ele></ele><time>2014-6-23T7:38:19Z</time></trkpt>
<trkpt lat="42.99813300" lon="-0.20509800"><ele></ele><time>2014-6-23T7:38:22Z</time></trkpt>
<trkpt lat="42.99833800" lon="-0.20514700"><ele></ele><time>2014-6-23T7:38:25Z</time></trkpt>
<trkpt lat="42.99848300" lon="-0.20514800"><ele></ele><time>2014-6-23T7:38:28Z</time></trkpt>
<trkpt lat="42.99866200" lon="-0.20509200"><ele></ele><time>2014-6-23T7:38:31Z</time></trkpt>
<trkpt lat="42.99876200" lon="-0.20499800"><ele></ele><time>2014-6-23T7:38:34Z</time></trkpt>
<trkpt lat="42.99883800" lon="-0.20496800"><ele></ele><time>2014-6-23T7:38:37Z</time></trkpt>
<trkpt lat="42.99895800" lon="-0.20503300"><ele></ele><time>2014-6-23T7:38:40Z</time></trkpt>
<trkpt lat="42.99899300" lon="-0.20516500"><ele></ele><time>2014-6-23T7:38:43Z</time></trkpt>
<trkpt lat="42.99896800" lon="-0.20526700"><ele></ele><time>2014-6-23T7:38:46Z</time></trkpt>
<trkpt lat="42.99892700" lon="-0.20536500"><ele></ele><time>2014-6-23T7:38:49Z</time></trkpt>
<trkpt lat="42.99889700" lon="-0.20547000"><ele></ele><time>2014-6-23T7:38:52Z</time></trkpt>
<trkpt lat="42.99889200" lon="-0.20557700"><ele></ele><time>2014-6-23T7:38:55Z</time></trkpt>
<trkpt lat="42.99887800" lon="-0.20566800"><ele></ele><time>2014-6-23T7:38:58Z</time></trkpt>
<trkpt lat="42.99886700" lon="-0.20578700"><ele></ele><time>2014-6-23T7:39:1Z</time></trkpt>
<trkpt lat="42.99883300" lon="-0.20598500"><ele></ele><time>2014-6-23T7:39:4Z</time></trkpt>
<trkpt lat="42.99876700" lon="-0.20628700"><ele></ele><time>2014-6-23T7:39:7Z</time></trkpt>
<trkpt lat="42.99867200" lon="-0.20674300"><ele></ele><time>2014-6-23T7:39:10Z</time></trkpt>
<trkpt lat="42.99869200" lon="-0.20728300"><ele></ele><time>2014-6-23T7:39:13Z</time></trkpt>
<trkpt lat="42.99869300" lon="-0.20781300"><ele></ele><time>2014-6-23T7:39:16Z</time></trkpt>
<trkpt lat="42.99869700" lon="-0.20819800"><ele></ele><time>2014-6-23T7:39:19Z</time></trkpt>
<trkpt lat="42.99872200" lon="-0.20849700"><ele></ele><time>2014-6-23T7:39:22Z</time></trkpt>
<trkpt lat="42.99874200" lon="-0.20868500"><ele></ele><time>2014-6-23T7:39:25Z</time></trkpt>
<trkpt lat="42.99875000" lon="-0.20880000"><ele></ele><time>2014-6-23T7:39:28Z</time></trkpt>
<trkpt lat="42.99875800" lon="-0.20888800"><ele></ele><time>2014-6-23T7:39:31Z</time></trkpt>
<trkpt lat="42.99876800" lon="-0.20897800"><ele></ele><time>2014-6-23T7:39:34Z</time></trkpt>
<trkpt lat="42.99876800" lon="-0.20897800"><ele></ele><time>2014-6-23T7:39:37Z</time></trkpt>
<trkpt lat="42.99877200" lon="-0.20906800"><ele></ele><time>2014-6-23T7:39:40Z</time></trkpt>
<trkpt lat="42.99879200" lon="-0.20915200"><ele></ele><time>2014-6-23T7:39:43Z</time></trkpt>
<trkpt lat="42.99881800" lon="-0.20924800"><ele></ele><time>2014-6-23T7:39:46Z</time></trkpt>
<trkpt lat="42.99886500" lon="-0.20933300"><ele></ele><time>2014-6-23T7:39:49Z</time></trkpt>
<trkpt lat="42.99888500" lon="-0.20941700"><ele></ele><time>2014-6-23T7:39:52Z</time></trkpt>
<trkpt lat="42.99889200" lon="-0.20949700"><ele></ele><time>2014-6-23T7:39:55Z</time></trkpt>
<trkpt lat="42.99888200" lon="-0.20958800"><ele></ele><time>2014-6-23T7:39:58Z</time></trkpt>
<trkpt lat="42.99881700" lon="-0.20965300"><ele></ele><time>2014-6-23T7:40:1Z</time></trkpt>
<trkpt lat="42.99873700" lon="-0.20971700"><ele></ele><time>2014-6-23T7:40:4Z</time></trkpt>
<trkpt lat="42.99873700" lon="-0.20980200"><ele></ele><time>2014-6-23T7:40:7Z</time></trkpt>
<trkpt lat="42.99867000" lon="-0.20989200"><ele></ele><time>2014-6-23T7:40:10Z</time></trkpt>
<trkpt lat="42.99858500" lon="-0.21003000"><ele></ele><time>2014-6-23T7:40:13Z</time></trkpt>
<trkpt lat="42.99847200" lon="-0.21015500"><ele></ele><time>2014-6-23T7:40:16Z</time></trkpt>
<trkpt lat="42.99836300" lon="-0.21025800"><ele></ele><time>2014-6-23T7:40:19Z</time></trkpt>
<trkpt lat="42.99824700" lon="-0.21034300"><ele></ele><time>2014-6-23T7:40:22Z</time></trkpt>
<trkpt lat="42.99805800" lon="-0.21044500"><ele></ele><time>2014-6-23T7:40:25Z</time></trkpt>
<trkpt lat="42.99792500" lon="-0.21049300"><ele></ele><time>2014-6-23T7:40:28Z</time></trkpt>
<trkpt lat="42.99782800" lon="-0.21052000"><ele></ele><time>2014-6-23T7:40:31Z</time></trkpt>
<trkpt lat="42.99776800" lon="-0.21055300"><ele></ele><time>2014-6-23T7:40:34Z</time></trkpt>
<trkpt lat="42.99768200" lon="-0.21059500"><ele></ele><time>2014-6-23T7:40:37Z</time></trkpt>
<trkpt lat="42.99761200" lon="-0.21063200"><ele></ele><time>2014-6-23T7:40:40Z</time></trkpt>
<trkpt lat="42.99753700" lon="-0.21066300"><ele></ele><time>2014-6-23T7:40:43Z</time></trkpt>
<trkpt lat="42.99746200" lon="-0.21069200"><ele></ele><time>2014-6-23T7:40:46Z</time></trkpt>
<trkpt lat="42.99740800" lon="-0.21073500"><ele></ele><time>2014-6-23T7:40:49Z</time></trkpt>
<trkpt lat="42.99730200" lon="-0.21077200"><ele></ele><time>2014-6-23T7:40:52Z</time></trkpt>
<trkpt lat="42.99722500" lon="-0.21081200"><ele></ele><time>2014-6-23T7:40:55Z</time></trkpt>
<trkpt lat="42.99716700" lon="-0.21085700"><ele></ele><time>2014-6-23T7:40:58Z</time></trkpt>
<trkpt lat="42.99711500" lon="-0.21091700"><ele></ele><time>2014-6-23T7:41:1Z</time></trkpt>
<trkpt lat="42.99705300" lon="-0.21097500"><ele></ele><time>2014-6-23T7:41:4Z</time></trkpt>
<trkpt lat="42.99701200" lon="-0.21102200"><ele></ele><time>2014-6-23T7:41:7Z</time></trkpt>
<trkpt lat="42.99695300" lon="-0.21106200"><ele></ele><time>2014-6-23T7:41:10Z</time></trkpt>
<trkpt lat="42.99687700" lon="-0.21111700"><ele></ele><time>2014-6-23T7:41:13Z</time></trkpt>
<trkpt lat="42.99681300" lon="-0.21117200"><ele></ele><time>2014-6-23T7:41:16Z</time></trkpt>
<trkpt lat="42.99678700" lon="-0.21128000"><ele></ele><time>2014-6-23T7:41:19Z</time></trkpt>
<trkpt lat="42.99674800" lon="-0.21141000"><ele></ele><time>2014-6-23T7:41:22Z</time></trkpt>
<trkpt lat="42.99668700" lon="-0.21154000"><ele></ele><time>2014-6-23T7:41:25Z</time></trkpt>
<trkpt lat="42.99660300" lon="-0.21165700"><ele></ele><time>2014-6-23T7:41:28Z</time></trkpt>
<trkpt lat="42.99651700" lon="-0.21172800"><ele></ele><time>2014-6-23T7:41:31Z</time></trkpt>
<trkpt lat="42.99642700" lon="-0.21177500"><ele></ele><time>2014-6-23T7:41:34Z</time></trkpt>
<trkpt lat="42.99634300" lon="-0.21180200"><ele></ele><time>2014-6-23T7:41:37Z</time></trkpt>
<trkpt lat="42.99625300" lon="-0.21182200"><ele></ele><time>2014-6-23T7:41:40Z</time></trkpt>
<trkpt lat="42.99617000" lon="-0.21181800"><ele></ele><time>2014-6-23T7:41:43Z</time></trkpt>
<trkpt lat="42.99608700" lon="-0.21179800"><ele></ele><time>2014-6-23T7:41:46Z</time></trkpt>
<trkpt lat="42.99601700" lon="-0.21179200"><ele></ele><time>2014-6-23T7:41:49Z</time></trkpt>
<trkpt lat="42.99593800" lon="-0.21177800"><ele></ele><time>2014-6-23T7:41:52Z</time></trkpt>
<trkpt lat="42.99586700" lon="-0.21177000"><ele></ele><time>2014-6-23T7:41:55Z</time></trkpt>
<trkpt lat="42.99579700" lon="-0.21175800"><ele></ele><time>2014-6-23T7:41:58Z</time></trkpt>
<trkpt lat="42.99573800" lon="-0.21172200"><ele></ele><time>2014-6-23T7:42:1Z</time></trkpt>
<trkpt lat="42.99568200" lon="-0.21169800"><ele></ele><time>2014-6-23T7:42:4Z</time></trkpt>
<trkpt lat="42.99561800" lon="-0.21167800"><ele></ele><time>2014-6-23T7:42:7Z</time></trkpt>
<trkpt lat="42.99556000" lon="-0.21165800"><ele></ele><time>2014-6-23T7:42:10Z</time></trkpt>
<trkpt lat="42.99551800" lon="-0.21166200"><ele></ele><time>2014-6-23T7:42:13Z</time></trkpt>
<trkpt lat="42.99546700" lon="-0.21164200"><ele></ele><time>2014-6-23T7:42:16Z</time></trkpt>
<trkpt lat="42.99539500" lon="-0.21162800"><ele></ele><time>2014-6-23T7:42:19Z</time></trkpt>
<trkpt lat="42.99531800" lon="-0.21161800"><ele></ele><time>2014-6-23T7:42:22Z</time></trkpt>
<trkpt lat="42.99526000" lon="-0.21159700"><ele></ele><time>2014-6-23T7:42:25Z</time></trkpt>
<trkpt lat="42.99519200" lon="-0.21157200"><ele></ele><time>2014-6-23T7:42:28Z</time></trkpt>
<trkpt lat="42.99513300" lon="-0.21154200"><ele></ele><time>2014-6-23T7:42:31Z</time></trkpt>
<trkpt lat="42.99508800" lon="-0.21152700"><ele></ele><time>2014-6-23T7:42:34Z</time></trkpt>
<trkpt lat="42.99502300" lon="-0.21150700"><ele></ele><time>2014-6-23T7:42:37Z</time></trkpt>
<trkpt lat="42.99497300" lon="-0.21146700"><ele></ele><time>2014-6-23T7:42:40Z</time></trkpt>
<trkpt lat="42.99498200" lon="-0.21147500"><ele></ele><time>2014-6-23T7:42:43Z</time></trkpt>
<trkpt lat="42.99499800" lon="-0.21148700"><ele></ele><time>2014-6-23T7:42:46Z</time></trkpt>
<trkpt lat="42.99499200" lon="-0.21148800"><ele></ele><time>2014-6-23T7:42:49Z</time></trkpt>
<trkpt lat="42.99499800" lon="-0.21148200"><ele></ele><time>2014-6-23T7:42:52Z</time></trkpt>
<trkpt lat="42.99500700" lon="-0.21147500"><ele></ele><time>2014-6-23T7:42:55Z</time></trkpt>
<trkpt lat="42.99502000" lon="-0.21147700"><ele></ele><time>2014-6-23T7:42:58Z</time></trkpt>
<trkpt lat="42.99497700" lon="-0.21146000"><ele></ele><time>2014-6-23T7:43:1Z</time></trkpt>
<trkpt lat="42.99491800" lon="-0.21141200"><ele></ele><time>2014-6-23T7:43:4Z</time></trkpt>
<trkpt lat="42.99484200" lon="-0.21136500"><ele></ele><time>2014-6-23T7:43:7Z</time></trkpt>
<trkpt lat="42.99478700" lon="-0.21133200"><ele></ele><time>2014-6-23T7:43:10Z</time></trkpt>
<trkpt lat="42.99470300" lon="-0.21129800"><ele></ele><time>2014-6-23T7:43:13Z</time></trkpt>
<trkpt lat="42.99463300" lon="-0.21129300"><ele></ele><time>2014-6-23T7:43:16Z</time></trkpt>
<trkpt lat="42.99460000" lon="-0.21131800"><ele></ele><time>2014-6-23T7:43:19Z</time></trkpt>
<trkpt lat="42.99455000" lon="-0.21133500"><ele></ele><time>2014-6-23T7:43:22Z</time></trkpt>
<trkpt lat="42.99449800" lon="-0.21131200"><ele></ele><time>2014-6-23T7:43:25Z</time></trkpt>
<trkpt lat="42.99444700" lon="-0.21131800"><ele></ele><time>2014-6-23T7:43:28Z</time></trkpt>
<trkpt lat="42.99437700" lon="-0.21127800"><ele></ele><time>2014-6-23T7:43:31Z</time></trkpt>
<trkpt lat="42.99426300" lon="-0.21122800"><ele></ele><time>2014-6-23T7:43:34Z</time></trkpt>
<trkpt lat="42.99417700" lon="-0.21121000"><ele></ele><time>2014-6-23T7:43:37Z</time></trkpt>
<trkpt lat="42.99409700" lon="-0.21118800"><ele></ele><time>2014-6-23T7:43:40Z</time></trkpt>
<trkpt lat="42.99404300" lon="-0.21118700"><ele></ele><time>2014-6-23T7:43:43Z</time></trkpt>
<trkpt lat="42.99397700" lon="-0.21117300"><ele></ele><time>2014-6-23T7:43:46Z</time></trkpt>
<trkpt lat="42.99393200" lon="-0.21115800"><ele></ele><time>2014-6-23T7:43:49Z</time></trkpt>
<trkpt lat="42.99386800" lon="-0.21113700"><ele></ele><time>2014-6-23T7:43:52Z</time></trkpt>
<trkpt lat="42.99378300" lon="-0.21110800"><ele></ele><time>2014-6-23T7:43:55Z</time></trkpt>
<trkpt lat="42.99372700" lon="-0.21107800"><ele></ele><time>2014-6-23T7:43:58Z</time></trkpt>
<trkpt lat="42.99366300" lon="-0.21104500"><ele></ele><time>2014-6-23T7:44:1Z</time></trkpt>
<trkpt lat="42.99359700" lon="-0.21101500"><ele></ele><time>2014-6-23T7:44:4Z</time></trkpt>
<trkpt lat="42.99353200" lon="-0.21098000"><ele></ele><time>2014-6-23T7:44:7Z</time></trkpt>
<trkpt lat="42.99348200" lon="-0.21093700"><ele></ele><time>2014-6-23T7:44:10Z</time></trkpt>
<trkpt lat="42.99347300" lon="-0.21093200"><ele></ele><time>2014-6-23T7:44:13Z</time></trkpt>
<trkpt lat="42.99347500" lon="-0.21093700"><ele></ele><time>2014-6-23T7:44:16Z</time></trkpt>
<trkpt lat="42.99346200" lon="-0.21092300"><ele></ele><time>2014-6-23T7:44:19Z</time></trkpt>
<trkpt lat="42.99345500" lon="-0.21092500"><ele></ele><time>2014-6-23T7:44:22Z</time></trkpt>
<trkpt lat="42.99344300" lon="-0.21092300"><ele></ele><time>2014-6-23T7:44:25Z</time></trkpt>
<trkpt lat="42.99344200" lon="-0.21091200"><ele></ele><time>2014-6-23T7:44:28Z</time></trkpt>
<trkpt lat="42.99344300" lon="-0.21090800"><ele></ele><time>2014-6-23T7:44:31Z</time></trkpt>
<trkpt lat="42.99344700" lon="-0.21090000"><ele></ele><time>2014-6-23T7:44:34Z</time></trkpt>
<trkpt lat="42.99346000" lon="-0.21087700"><ele></ele><time>2014-6-23T7:44:37Z</time></trkpt>
<trkpt lat="42.99346000" lon="-0.21085800"><ele></ele><time>2014-6-23T7:44:40Z</time></trkpt>
<trkpt lat="42.99344800" lon="-0.21084200"><ele></ele><time>2014-6-23T7:44:43Z</time></trkpt>
<trkpt lat="42.99344200" lon="-0.21083500"><ele></ele><time>2014-6-23T7:44:46Z</time></trkpt>
<trkpt lat="42.99343800" lon="-0.21083200"><ele></ele><time>2014-6-23T7:44:49Z</time></trkpt>
<trkpt lat="42.99343300" lon="-0.21084300"><ele></ele><time>2014-6-23T7:44:52Z</time></trkpt>
<trkpt lat="42.99343200" lon="-0.21088200"><ele></ele><time>2014-6-23T7:44:55Z</time></trkpt>
<trkpt lat="42.99343300" lon="-0.21087000"><ele></ele><time>2014-6-23T7:44:58Z</time></trkpt>
<trkpt lat="42.99342500" lon="-0.21086300"><ele></ele><time>2014-6-23T7:45:1Z</time></trkpt>
<trkpt lat="42.99341200" lon="-0.21088200"><ele></ele><time>2014-6-23T7:45:4Z</time></trkpt>
<trkpt lat="42.99341200" lon="-0.21086200"><ele></ele><time>2014-6-23T7:45:7Z</time></trkpt>
<trkpt lat="42.99340800" lon="-0.21083800"><ele></ele><time>2014-6-23T7:45:10Z</time></trkpt>
<trkpt lat="42.99340800" lon="-0.21082300"><ele></ele><time>2014-6-23T7:45:13Z</time></trkpt>
<trkpt lat="42.99342800" lon="-0.21078200"><ele></ele><time>2014-6-23T7:45:16Z</time></trkpt>
<trkpt lat="42.99343300" lon="-0.21077500"><ele></ele><time>2014-6-23T7:45:19Z</time></trkpt>
<trkpt lat="42.99342700" lon="-0.21077000"><ele></ele><time>2014-6-23T7:45:22Z</time></trkpt>
<trkpt lat="42.99340500" lon="-0.21078200"><ele></ele><time>2014-6-23T7:45:25Z</time></trkpt>
<trkpt lat="42.99339800" lon="-0.21082300"><ele></ele><time>2014-6-23T7:45:28Z</time></trkpt>
<trkpt lat="42.99342300" lon="-0.21079200"><ele></ele><time>2014-6-23T7:45:31Z</time></trkpt>
<trkpt lat="42.99339800" lon="-0.21084500"><ele></ele><time>2014-6-23T7:45:34Z</time></trkpt>
<trkpt lat="42.99338200" lon="-0.21086300"><ele></ele><time>2014-6-23T7:45:37Z</time></trkpt>
<trkpt lat="42.99337500" lon="-0.21087800"><ele></ele><time>2014-6-23T7:45:40Z</time></trkpt>
<trkpt lat="42.99338300" lon="-0.21088300"><ele></ele><time>2014-6-23T7:45:43Z</time></trkpt>
<trkpt lat="42.99337200" lon="-0.21092300"><ele></ele><time>2014-6-23T7:45:46Z</time></trkpt>
<trkpt lat="42.99337800" lon="-0.21093200"><ele></ele><time>2014-6-23T7:45:49Z</time></trkpt>
<trkpt lat="42.99336300" lon="-0.21090300"><ele></ele><time>2014-6-23T7:45:52Z</time></trkpt>
<trkpt lat="42.99334300" lon="-0.21087700"><ele></ele><time>2014-6-23T7:45:55Z</time></trkpt>
<trkpt lat="42.99336500" lon="-0.21085800"><ele></ele><time>2014-6-23T7:45:58Z</time></trkpt>
<trkpt lat="42.99341300" lon="-0.21086300"><ele></ele><time>2014-6-23T7:46:1Z</time></trkpt>
<trkpt lat="42.99343700" lon="-0.21085800"><ele></ele><time>2014-6-23T7:46:4Z</time></trkpt>
<trkpt lat="42.99345700" lon="-0.21083700"><ele></ele><time>2014-6-23T7:46:7Z</time></trkpt>
<trkpt lat="42.99348200" lon="-0.21080200"><ele></ele><time>2014-6-23T7:46:10Z</time></trkpt>
<trkpt lat="42.99349700" lon="-0.21078500"><ele></ele><time>2014-6-23T7:46:13Z</time></trkpt>
<trkpt lat="42.99350300" lon="-0.21078800"><ele></ele><time>2014-6-23T7:46:16Z</time></trkpt>
<trkpt lat="42.99350500" lon="-0.21080800"><ele></ele><time>2014-6-23T7:46:19Z</time></trkpt>
<trkpt lat="42.99350700" lon="-0.21079700"><ele></ele><time>2014-6-23T7:46:22Z</time></trkpt>
<trkpt lat="42.99350500" lon="-0.21076800"><ele></ele><time>2014-6-23T7:46:25Z</time></trkpt>
<trkpt lat="42.99349800" lon="-0.21076700"><ele></ele><time>2014-6-23T7:46:28Z</time></trkpt>
<trkpt lat="42.99349500" lon="-0.21077200"><ele></ele><time>2014-6-23T7:46:31Z</time></trkpt>
<trkpt lat="42.99349500" lon="-0.21077200"><ele></ele><time>2014-6-23T7:46:34Z</time></trkpt>
<trkpt lat="42.99349300" lon="-0.21077800"><ele></ele><time>2014-6-23T7:46:37Z</time></trkpt>
<trkpt lat="42.99348800" lon="-0.21078300"><ele></ele><time>2014-6-23T7:46:40Z</time></trkpt>
<trkpt lat="42.99348500" lon="-0.21078700"><ele></ele><time>2014-6-23T7:46:43Z</time></trkpt>
<trkpt lat="42.99348200" lon="-0.21077700"><ele></ele><time>2014-6-23T7:46:46Z</time></trkpt>
<trkpt lat="42.99348000" lon="-0.21076200"><ele></ele><time>2014-6-23T7:46:49Z</time></trkpt>
<trkpt lat="42.99348200" lon="-0.21074800"><ele></ele><time>2014-6-23T7:46:52Z</time></trkpt>
<trkpt lat="42.99348300" lon="-0.21073700"><ele></ele><time>2014-6-23T7:46:55Z</time></trkpt>
<trkpt lat="42.99345700" lon="-0.21079200"><ele></ele><time>2014-6-23T7:46:58Z</time></trkpt>
<trkpt lat="42.99340800" lon="-0.21083300"><ele></ele><time>2014-6-23T7:47:1Z</time></trkpt>
<trkpt lat="42.99339700" lon="-0.21086300"><ele></ele><time>2014-6-23T7:47:4Z</time></trkpt>
<trkpt lat="42.99336500" lon="-0.21089800"><ele></ele><time>2014-6-23T7:47:7Z</time></trkpt>
<trkpt lat="42.99333200" lon="-0.21089300"><ele></ele><time>2014-6-23T7:47:10Z</time></trkpt>
<trkpt lat="42.99327800" lon="-0.21084800"><ele></ele><time>2014-6-23T7:47:13Z</time></trkpt>
<trkpt lat="42.99321700" lon="-0.21081300"><ele></ele><time>2014-6-23T7:47:16Z</time></trkpt>
<trkpt lat="42.99315200" lon="-0.21079000"><ele></ele><time>2014-6-23T7:47:19Z</time></trkpt>
<trkpt lat="42.99307300" lon="-0.21075700"><ele></ele><time>2014-6-23T7:47:22Z</time></trkpt>
<trkpt lat="42.99298200" lon="-0.21070800"><ele></ele><time>2014-6-23T7:47:25Z</time></trkpt>
<trkpt lat="42.99290200" lon="-0.21066800"><ele></ele><time>2014-6-23T7:47:28Z</time></trkpt>
<trkpt lat="42.99285300" lon="-0.21065000"><ele></ele><time>2014-6-23T7:47:31Z</time></trkpt>
<trkpt lat="42.99276700" lon="-0.21060500"><ele></ele><time>2014-6-23T7:47:34Z</time></trkpt>
<trkpt lat="42.99271700" lon="-0.21060200"><ele></ele><time>2014-6-23T7:47:37Z</time></trkpt>
<trkpt lat="42.99267800" lon="-0.21057800"><ele></ele><time>2014-6-23T7:47:40Z</time></trkpt>
<trkpt lat="42.99264300" lon="-0.21054800"><ele></ele><time>2014-6-23T7:47:43Z</time></trkpt>
<trkpt lat="42.99258300" lon="-0.21055800"><ele></ele><time>2014-6-23T7:47:46Z</time></trkpt>
<trkpt lat="42.99251800" lon="-0.21051200"><ele></ele><time>2014-6-23T7:47:49Z</time></trkpt>
<trkpt lat="42.99246500" lon="-0.21049200"><ele></ele><time>2014-6-23T7:47:52Z</time></trkpt>
<trkpt lat="42.99239200" lon="-0.21047000"><ele></ele><time>2014-6-23T7:47:55Z</time></trkpt>
<trkpt lat="42.99231800" lon="-0.21046200"><ele></ele><time>2014-6-23T7:47:58Z</time></trkpt>
<trkpt lat="42.99226300" lon="-0.21046300"><ele></ele><time>2014-6-23T7:48:1Z</time></trkpt>
<trkpt lat="42.99220800" lon="-0.21046800"><ele></ele><time>2014-6-23T7:48:4Z</time></trkpt>
<trkpt lat="42.99215000" lon="-0.21048700"><ele></ele><time>2014-6-23T7:48:7Z</time></trkpt>
<trkpt lat="42.99209700" lon="-0.21050800"><ele></ele><time>2014-6-23T7:48:10Z</time></trkpt>
<trkpt lat="42.99204700" lon="-0.21051500"><ele></ele><time>2014-6-23T7:48:13Z</time></trkpt>
<trkpt lat="42.99199300" lon="-0.21053200"><ele></ele><time>2014-6-23T7:48:16Z</time></trkpt>
<trkpt lat="42.99193200" lon="-0.21055200"><ele></ele><time>2014-6-23T7:48:19Z</time></trkpt>
<trkpt lat="42.99187800" lon="-0.21059200"><ele></ele><time>2014-6-23T7:48:22Z</time></trkpt>
<trkpt lat="42.99183300" lon="-0.21065500"><ele></ele><time>2014-6-23T7:48:25Z</time></trkpt>
<trkpt lat="42.99174300" lon="-0.21070500"><ele></ele><time>2014-6-23T7:48:28Z</time></trkpt>
<trkpt lat="42.99167200" lon="-0.21077700"><ele></ele><time>2014-6-23T7:48:31Z</time></trkpt>
<trkpt lat="42.99160300" lon="-0.21083800"><ele></ele><time>2014-6-23T7:48:34Z</time></trkpt>
<trkpt lat="42.99151300" lon="-0.21086200"><ele></ele><time>2014-6-23T7:48:37Z</time></trkpt>
<trkpt lat="42.99143000" lon="-0.21082800"><ele></ele><time>2014-6-23T7:48:40Z</time></trkpt>
<trkpt lat="42.99136700" lon="-0.21081800"><ele></ele><time>2014-6-23T7:48:43Z</time></trkpt>
<trkpt lat="42.99129300" lon="-0.21084800"><ele></ele><time>2014-6-23T7:48:46Z</time></trkpt>
<trkpt lat="42.99122500" lon="-0.21091700"><ele></ele><time>2014-6-23T7:48:49Z</time></trkpt>
<trkpt lat="42.99117700" lon="-0.21094800"><ele></ele><time>2014-6-23T7:48:52Z</time></trkpt>
<trkpt lat="42.99113300" lon="-0.21097700"><ele></ele><time>2014-6-23T7:48:55Z</time></trkpt>
<trkpt lat="42.99106300" lon="-0.21097300"><ele></ele><time>2014-6-23T7:48:58Z</time></trkpt>
<trkpt lat="42.99097300" lon="-0.21102800"><ele></ele><time>2014-6-23T7:49:1Z</time></trkpt>
<trkpt lat="42.99096200" lon="-0.21109000"><ele></ele><time>2014-6-23T7:49:4Z</time></trkpt>
<trkpt lat="42.99095700" lon="-0.21109300"><ele></ele><time>2014-6-23T7:49:7Z</time></trkpt>
<trkpt lat="42.99095700" lon="-0.21110500"><ele></ele><time>2014-6-23T7:49:10Z</time></trkpt>
<trkpt lat="42.99104200" lon="-0.21109800"><ele></ele><time>2014-6-23T7:49:13Z</time></trkpt>
<trkpt lat="42.99114200" lon="-0.21107500"><ele></ele><time>2014-6-23T7:49:16Z</time></trkpt>
<trkpt lat="42.99121700" lon="-0.21104700"><ele></ele><time>2014-6-23T7:49:19Z</time></trkpt>
<trkpt lat="42.99113700" lon="-0.21096800"><ele></ele><time>2014-6-23T7:49:22Z</time></trkpt>
<trkpt lat="42.99105300" lon="-0.21099000"><ele></ele><time>2014-6-23T7:49:25Z</time></trkpt>
<trkpt lat="42.99097700" lon="-0.21099300"><ele></ele><time>2014-6-23T7:49:28Z</time></trkpt>
<trkpt lat="42.99096000" lon="-0.21099000"><ele></ele><time>2014-6-23T7:49:31Z</time></trkpt>
<trkpt lat="42.99097000" lon="-0.21099500"><ele></ele><time>2014-6-23T7:49:34Z</time></trkpt>
<trkpt lat="42.99100800" lon="-0.21101200"><ele></ele><time>2014-6-23T7:49:37Z</time></trkpt>
<trkpt lat="42.99099800" lon="-0.21101800"><ele></ele><time>2014-6-23T7:49:40Z</time></trkpt>
<trkpt lat="42.99098000" lon="-0.21097700"><ele></ele><time>2014-6-23T7:49:43Z</time></trkpt>
<trkpt lat="42.99098200" lon="-0.21097200"><ele></ele><time>2014-6-23T7:49:46Z</time></trkpt>
<trkpt lat="42.99098500" lon="-0.21095700"><ele></ele><time>2014-6-23T7:49:49Z</time></trkpt>
<trkpt lat="42.99098800" lon="-0.21094800"><ele></ele><time>2014-6-23T7:49:52Z</time></trkpt>
<trkpt lat="42.99097800" lon="-0.21093700"><ele></ele><time>2014-6-23T7:49:55Z</time></trkpt>
<trkpt lat="42.99098700" lon="-0.21094500"><ele></ele><time>2014-6-23T7:49:58Z</time></trkpt>
<trkpt lat="42.99099000" lon="-0.21097500"><ele></ele><time>2014-6-23T7:50:1Z</time></trkpt>
<trkpt lat="42.99096300" lon="-0.21096700"><ele></ele><time>2014-6-23T7:50:4Z</time></trkpt>
<trkpt lat="42.99095800" lon="-0.21095200"><ele></ele><time>2014-6-23T7:50:7Z</time></trkpt>
<trkpt lat="42.99096200" lon="-0.21095200"><ele></ele><time>2014-6-23T7:50:10Z</time></trkpt>
<trkpt lat="42.99096800" lon="-0.21097200"><ele></ele><time>2014-6-23T7:50:13Z</time></trkpt>
<trkpt lat="42.99097200" lon="-0.21097300"><ele></ele><time>2014-6-23T7:50:16Z</time></trkpt>
<trkpt lat="42.99096300" lon="-0.21096500"><ele></ele><time>2014-6-23T7:50:19Z</time></trkpt>
<trkpt lat="42.99096700" lon="-0.21097800"><ele></ele><time>2014-6-23T7:50:22Z</time></trkpt>
<trkpt lat="42.99096300" lon="-0.21098500"><ele></ele><time>2014-6-23T7:50:25Z</time></trkpt>
<trkpt lat="42.99094700" lon="-0.21096500"><ele></ele><time>2014-6-23T7:50:28Z</time></trkpt>
<trkpt lat="42.99093200" lon="-0.21097200"><ele></ele><time>2014-6-23T7:50:31Z</time></trkpt>
<trkpt lat="42.99096200" lon="-0.21096700"><ele></ele><time>2014-6-23T7:50:34Z</time></trkpt>
<trkpt lat="42.99097800" lon="-0.21098200"><ele></ele><time>2014-6-23T7:50:37Z</time></trkpt>
<trkpt lat="42.99090800" lon="-0.21109800"><ele></ele><time>2014-6-23T7:50:40Z</time></trkpt>
<trkpt lat="42.99097300" lon="-0.21104500"><ele></ele><time>2014-6-23T7:50:43Z</time></trkpt>
<trkpt lat="42.99098000" lon="-0.21104800"><ele></ele><time>2014-6-23T7:50:46Z</time></trkpt>
<trkpt lat="42.99097700" lon="-0.21104700"><ele></ele><time>2014-6-23T7:50:49Z</time></trkpt>
<trkpt lat="42.99096300" lon="-0.21103700"><ele></ele><time>2014-6-23T7:50:52Z</time></trkpt>
<trkpt lat="42.99098200" lon="-0.21102200"><ele></ele><time>2014-6-23T7:50:55Z</time></trkpt>
<trkpt lat="42.99100200" lon="-0.21102200"><ele></ele><time>2014-6-23T7:50:58Z</time></trkpt>
<trkpt lat="42.99099700" lon="-0.21101200"><ele></ele><time>2014-6-23T7:51:1Z</time></trkpt>
<trkpt lat="42.99098800" lon="-0.21101800"><ele></ele><time>2014-6-23T7:51:4Z</time></trkpt>
<trkpt lat="42.99098800" lon="-0.21100200"><ele></ele><time>2014-6-23T7:51:7Z</time></trkpt>
<trkpt lat="42.99099800" lon="-0.21099200"><ele></ele><time>2014-6-23T7:51:10Z</time></trkpt>
<trkpt lat="42.99100700" lon="-0.21098500"><ele></ele><time>2014-6-23T7:51:13Z</time></trkpt>
<trkpt lat="42.99098300" lon="-0.21099300"><ele></ele><time>2014-6-23T7:51:16Z</time></trkpt>
<trkpt lat="42.99099700" lon="-0.21101200"><ele></ele><time>2014-6-23T7:51:19Z</time></trkpt>
<trkpt lat="42.99101800" lon="-0.21100800"><ele></ele><time>2014-6-23T7:51:22Z</time></trkpt>
<trkpt lat="42.99102800" lon="-0.21101200"><ele></ele><time>2014-6-23T7:51:25Z</time></trkpt>
<trkpt lat="42.99102500" lon="-0.21101800"><ele></ele><time>2014-6-23T7:51:28Z</time></trkpt>
<trkpt lat="42.99100300" lon="-0.21101200"><ele></ele><time>2014-6-23T7:51:31Z</time></trkpt>
<trkpt lat="42.99098000" lon="-0.21099200"><ele></ele><time>2014-6-23T7:51:34Z</time></trkpt>
<trkpt lat="42.99098000" lon="-0.21099000"><ele></ele><time>2014-6-23T7:51:37Z</time></trkpt>
<trkpt lat="42.99097700" lon="-0.21100200"><ele></ele><time>2014-6-23T7:51:40Z</time></trkpt>
<trkpt lat="42.99097200" lon="-0.21098800"><ele></ele><time>2014-6-23T7:51:43Z</time></trkpt>
<trkpt lat="42.99096800" lon="-0.21099700"><ele></ele><time>2014-6-23T7:51:46Z</time></trkpt>
<trkpt lat="42.99096500" lon="-0.21099700"><ele></ele><time>2014-6-23T7:51:49Z</time></trkpt>
<trkpt lat="42.99095500" lon="-0.21098300"><ele></ele><time>2014-6-23T7:51:52Z</time></trkpt>
<trkpt lat="42.99095300" lon="-0.21098800"><ele></ele><time>2014-6-23T7:51:55Z</time></trkpt>
<trkpt lat="42.99095300" lon="-0.21098700"><ele></ele><time>2014-6-23T7:51:58Z</time></trkpt>
<trkpt lat="42.99095300" lon="-0.21098200"><ele></ele><time>2014-6-23T7:52:1Z</time></trkpt>
<trkpt lat="42.99094200" lon="-0.21097500"><ele></ele><time>2014-6-23T7:52:4Z</time></trkpt>
<trkpt lat="42.99093200" lon="-0.21097300"><ele></ele><time>2014-6-23T7:52:7Z</time></trkpt>
<trkpt lat="42.99094000" lon="-0.21097800"><ele></ele><time>2014-6-23T7:52:10Z</time></trkpt>
<trkpt lat="42.99094800" lon="-0.21099800"><ele></ele><time>2014-6-23T7:52:13Z</time></trkpt>
<trkpt lat="42.99096500" lon="-0.21100500"><ele></ele><time>2014-6-23T7:52:16Z</time></trkpt>
<trkpt lat="42.99097200" lon="-0.21100200"><ele></ele><time>2014-6-23T7:52:19Z</time></trkpt>
<trkpt lat="42.99099800" lon="-0.21101800"><ele></ele><time>2014-6-23T7:52:22Z</time></trkpt>
<trkpt lat="42.99101300" lon="-0.21102000"><ele></ele><time>2014-6-23T7:52:25Z</time></trkpt>
<trkpt lat="42.99102800" lon="-0.21101800"><ele></ele><time>2014-6-23T7:52:28Z</time></trkpt>
<trkpt lat="42.99101500" lon="-0.21101700"><ele></ele><time>2014-6-23T7:52:31Z</time></trkpt>
<trkpt lat="42.99099300" lon="-0.21101700"><ele></ele><time>2014-6-23T7:52:34Z</time></trkpt>
<trkpt lat="42.99098200" lon="-0.21101800"><ele></ele><time>2014-6-23T7:52:37Z</time></trkpt>
<trkpt lat="42.99094800" lon="-0.21100200"><ele></ele><time>2014-6-23T7:52:40Z</time></trkpt>
<trkpt lat="42.99095800" lon="-0.21099800"><ele></ele><time>2014-6-23T7:52:43Z</time></trkpt>
<trkpt lat="42.99094800" lon="-0.21099000"><ele></ele><time>2014-6-23T7:52:46Z</time></trkpt>
<trkpt lat="42.99094800" lon="-0.21098800"><ele></ele><time>2014-6-23T7:52:49Z</time></trkpt>
<trkpt lat="42.99097200" lon="-0.21101700"><ele></ele><time>2014-6-23T7:52:52Z</time></trkpt>
<trkpt lat="42.99098300" lon="-0.21100700"><ele></ele><time>2014-6-23T7:52:55Z</time></trkpt>
<trkpt lat="42.99096700" lon="-0.21099700"><ele></ele><time>2014-6-23T7:52:58Z</time></trkpt>
<trkpt lat="42.99096200" lon="-0.21098800"><ele></ele><time>2014-6-23T7:53:1Z</time></trkpt>
<trkpt lat="42.99096300" lon="-0.21098300"><ele></ele><time>2014-6-23T7:53:4Z</time></trkpt>
<trkpt lat="42.99096300" lon="-0.21099200"><ele></ele><time>2014-6-23T7:53:7Z</time></trkpt>
<trkpt lat="42.99095800" lon="-0.21098200"><ele></ele><time>2014-6-23T7:53:10Z</time></trkpt>
<trkpt lat="42.99093800" lon="-0.21097000"><ele></ele><time>2014-6-23T7:53:13Z</time></trkpt>
<trkpt lat="42.99094200" lon="-0.21098300"><ele></ele><time>2014-6-23T7:53:16Z</time></trkpt>
<trkpt lat="42.99093300" lon="-0.21098000"><ele></ele><time>2014-6-23T7:53:19Z</time></trkpt>
<trkpt lat="42.99094800" lon="-0.21099500"><ele></ele><time>2014-6-23T7:53:22Z</time></trkpt>
<trkpt lat="42.99097200" lon="-0.21100200"><ele></ele><time>2014-6-23T7:53:25Z</time></trkpt>
<trkpt lat="42.99100300" lon="-0.21100800"><ele></ele><time>2014-6-23T7:53:28Z</time></trkpt>
<trkpt lat="42.99103300" lon="-0.21102200"><ele></ele><time>2014-6-23T7:53:31Z</time></trkpt>
<trkpt lat="42.99104700" lon="-0.21101200"><ele></ele><time>2014-6-23T7:53:34Z</time></trkpt>
<trkpt lat="42.99103700" lon="-0.21100200"><ele></ele><time>2014-6-23T7:53:37Z</time></trkpt>
<trkpt lat="42.99096200" lon="-0.21099500"><ele></ele><time>2014-6-23T7:53:40Z</time></trkpt>
<trkpt lat="42.99094500" lon="-0.21099500"><ele></ele><time>2014-6-23T7:53:43Z</time></trkpt>
<trkpt lat="42.99097200" lon="-0.21100800"><ele></ele><time>2014-6-23T7:53:46Z</time></trkpt>
<trkpt lat="42.99102300" lon="-0.21101700"><ele></ele><time>2014-6-23T7:53:49Z</time></trkpt>
<trkpt lat="42.99103000" lon="-0.21101000"><ele></ele><time>2014-6-23T7:53:52Z</time></trkpt>
<trkpt lat="42.99101000" lon="-0.21100000"><ele></ele><time>2014-6-23T7:53:55Z</time></trkpt>
<trkpt lat="42.99098000" lon="-0.21098800"><ele></ele><time>2014-6-23T7:53:58Z</time></trkpt>
<trkpt lat="42.99098800" lon="-0.21098800"><ele></ele><time>2014-6-23T7:54:1Z</time></trkpt>
<trkpt lat="42.99099000" lon="-0.21100800"><ele></ele><time>2014-6-23T7:54:4Z</time></trkpt>
<trkpt lat="42.99105700" lon="-0.21105500"><ele></ele><time>2014-6-23T7:54:7Z</time></trkpt>
<trkpt lat="42.99111800" lon="-0.21099300"><ele></ele><time>2014-6-23T7:54:10Z</time></trkpt>
<trkpt lat="42.99117800" lon="-0.21100000"><ele></ele><time>2014-6-23T7:54:13Z</time></trkpt>
<trkpt lat="42.99126200" lon="-0.21086800"><ele></ele><time>2014-6-23T7:54:16Z</time></trkpt>
<trkpt lat="42.99122000" lon="-0.21073200"><ele></ele><time>2014-6-23T7:54:19Z</time></trkpt>
<trkpt lat="42.99116000" lon="-0.21075300"><ele></ele><time>2014-6-23T7:54:22Z</time></trkpt>
<trkpt lat="42.99111200" lon="-0.21079800"><ele></ele><time>2014-6-23T7:54:25Z</time></trkpt>
<trkpt lat="42.99109300" lon="-0.21085500"><ele></ele><time>2014-6-23T7:54:28Z</time></trkpt>
<trkpt lat="42.99108800" lon="-0.21085200"><ele></ele><time>2014-6-23T7:54:31Z</time></trkpt>
<trkpt lat="42.99108300" lon="-0.21081800"><ele></ele><time>2014-6-23T7:54:34Z</time></trkpt>
<trkpt lat="42.99108200" lon="-0.21082200"><ele></ele><time>2014-6-23T7:54:37Z</time></trkpt>
<trkpt lat="42.99107300" lon="-0.21083300"><ele></ele><time>2014-6-23T7:54:40Z</time></trkpt>
<trkpt lat="42.99108300" lon="-0.21086500"><ele></ele><time>2014-6-23T7:54:43Z</time></trkpt>
<trkpt lat="42.99108800" lon="-0.21087800"><ele></ele><time>2014-6-23T7:54:46Z</time></trkpt>
<trkpt lat="42.99108800" lon="-0.21086700"><ele></ele><time>2014-6-23T7:54:49Z</time></trkpt>
<trkpt lat="42.99108700" lon="-0.21085800"><ele></ele><time>2014-6-23T7:54:52Z</time></trkpt>
<trkpt lat="42.99109800" lon="-0.21088700"><ele></ele><time>2014-6-23T7:54:55Z</time></trkpt>
<trkpt lat="42.99108300" lon="-0.21097500"><ele></ele><time>2014-6-23T7:54:58Z</time></trkpt>
<trkpt lat="42.99100200" lon="-0.21097800"><ele></ele><time>2014-6-23T7:55:1Z</time></trkpt>
<trkpt lat="42.99095200" lon="-0.21103800"><ele></ele><time>2014-6-23T7:55:4Z</time></trkpt>
<trkpt lat="42.99096300" lon="-0.21108200"><ele></ele><time>2014-6-23T7:55:7Z</time></trkpt>
<trkpt lat="42.99101200" lon="-0.21111800"><ele></ele><time>2014-6-23T7:55:10Z</time></trkpt>
<trkpt lat="42.99103200" lon="-0.21107200"><ele></ele><time>2014-6-23T7:55:13Z</time></trkpt>
<trkpt lat="42.99101800" lon="-0.21104800"><ele></ele><time>2014-6-23T7:55:16Z</time></trkpt>
<trkpt lat="42.99095300" lon="-0.21103700"><ele></ele><time>2014-6-23T7:55:19Z</time></trkpt>
<trkpt lat="42.99092200" lon="-0.21106800"><ele></ele><time>2014-6-23T7:55:22Z</time></trkpt>
<trkpt lat="42.99095200" lon="-0.21104800"><ele></ele><time>2014-6-23T7:55:25Z</time></trkpt>
<trkpt lat="42.99097800" lon="-0.21102500"><ele></ele><time>2014-6-23T7:55:28Z</time></trkpt>
<trkpt lat="42.99100300" lon="-0.21107200"><ele></ele><time>2014-6-23T7:55:31Z</time></trkpt>
<trkpt lat="42.99096500" lon="-0.21105700"><ele></ele><time>2014-6-23T7:55:34Z</time></trkpt>
<trkpt lat="42.99096700" lon="-0.21102800"><ele></ele><time>2014-6-23T7:55:37Z</time></trkpt>
<trkpt lat="42.99098000" lon="-0.21103800"><ele></ele><time>2014-6-23T7:55:40Z</time></trkpt>
<trkpt lat="42.99099000" lon="-0.21104300"><ele></ele><time>2014-6-23T7:55:43Z</time></trkpt>
<trkpt lat="42.99098500" lon="-0.21103800"><ele></ele><time>2014-6-23T7:55:46Z</time></trkpt>
<trkpt lat="42.99097800" lon="-0.21106200"><ele></ele><time>2014-6-23T7:55:49Z</time></trkpt>
<trkpt lat="42.99097200" lon="-0.21106200"><ele></ele><time>2014-6-23T7:55:52Z</time></trkpt>
<trkpt lat="42.99097200" lon="-0.21105700"><ele></ele><time>2014-6-23T7:55:55Z</time></trkpt>
<trkpt lat="42.99094000" lon="-0.21107800"><ele></ele><time>2014-6-23T7:55:58Z</time></trkpt>
<trkpt lat="42.99095200" lon="-0.21107000"><ele></ele><time>2014-6-23T7:56:1Z</time></trkpt>
<trkpt lat="42.99102200" lon="-0.21099300"><ele></ele><time>2014-6-23T7:56:4Z</time></trkpt>
<trkpt lat="42.99103000" lon="-0.21099700"><ele></ele><time>2014-6-23T7:56:7Z</time></trkpt>
<trkpt lat="42.99103700" lon="-0.21098700"><ele></ele><time>2014-6-23T7:56:10Z</time></trkpt>
<trkpt lat="42.99101000" lon="-0.21102000"><ele></ele><time>2014-6-23T7:56:13Z</time></trkpt>
<trkpt lat="42.99100800" lon="-0.21102200"><ele></ele><time>2014-6-23T7:56:16Z</time></trkpt>
<trkpt lat="42.99098700" lon="-0.21105200"><ele></ele><time>2014-6-23T7:56:19Z</time></trkpt>
<trkpt lat="42.99097200" lon="-0.21107200"><ele></ele><time>2014-6-23T7:56:22Z</time></trkpt>
<trkpt lat="42.99096200" lon="-0.21106700"><ele></ele><time>2014-6-23T7:56:25Z</time></trkpt>
<trkpt lat="42.99096700" lon="-0.21105300"><ele></ele><time>2014-6-23T7:56:28Z</time></trkpt>
<trkpt lat="42.99096700" lon="-0.21105800"><ele></ele><time>2014-6-23T7:56:31Z</time></trkpt>
<trkpt lat="42.99096700" lon="-0.21104000"><ele></ele><time>2014-6-23T7:56:34Z</time></trkpt>
<trkpt lat="42.99096300" lon="-0.21103800"><ele></ele><time>2014-6-23T7:56:37Z</time></trkpt>
<trkpt lat="42.99096200" lon="-0.21108200"><ele></ele><time>2014-6-23T7:56:40Z</time></trkpt>
<trkpt lat="42.99095700" lon="-0.21108800"><ele></ele><time>2014-6-23T7:56:43Z</time></trkpt>
<trkpt lat="42.99094800" lon="-0.21107700"><ele></ele><time>2014-6-23T7:56:46Z</time></trkpt>
<trkpt lat="42.99093700" lon="-0.21106700"><ele></ele><time>2014-6-23T7:56:49Z</time></trkpt>
<trkpt lat="42.99092700" lon="-0.21107800"><ele></ele><time>2014-6-23T7:56:52Z</time></trkpt>
<trkpt lat="42.99092800" lon="-0.21108000"><ele></ele><time>2014-6-23T7:56:55Z</time></trkpt>
<trkpt lat="42.99094000" lon="-0.21106200"><ele></ele><time>2014-6-23T7:56:58Z</time></trkpt>
<trkpt lat="42.99092800" lon="-0.21106700"><ele></ele><time>2014-6-23T7:57:1Z</time></trkpt>
<trkpt lat="42.99092500" lon="-0.21106300"><ele></ele><time>2014-6-23T7:57:4Z</time></trkpt>
<trkpt lat="42.99101200" lon="-0.21098000"><ele></ele><time>2014-6-23T7:57:7Z</time></trkpt>
<trkpt lat="42.99103700" lon="-0.21096700"><ele></ele><time>2014-6-23T7:57:10Z</time></trkpt>
<trkpt lat="42.99103300" lon="-0.21099700"><ele></ele><time>2014-6-23T7:57:13Z</time></trkpt>
<trkpt lat="42.99096500" lon="-0.21106800"><ele></ele><time>2014-6-23T7:57:16Z</time></trkpt>
<trkpt lat="42.99090200" lon="-0.21113000"><ele></ele><time>2014-6-23T7:57:19Z</time></trkpt>
<trkpt lat="42.99086800" lon="-0.21117700"><ele></ele><time>2014-6-23T7:57:22Z</time></trkpt>
<trkpt lat="42.99085800" lon="-0.21118000"><ele></ele><time>2014-6-23T7:57:25Z</time></trkpt>
<trkpt lat="42.99084200" lon="-0.21117700"><ele></ele><time>2014-6-23T7:57:28Z</time></trkpt>
<trkpt lat="42.99082200" lon="-0.21115000"><ele></ele><time>2014-6-23T7:57:31Z</time></trkpt>
<trkpt lat="42.99082800" lon="-0.21111800"><ele></ele><time>2014-6-23T7:57:34Z</time></trkpt>
<trkpt lat="42.99085000" lon="-0.21112300"><ele></ele><time>2014-6-23T7:57:37Z</time></trkpt>
<trkpt lat="42.99091300" lon="-0.21114700"><ele></ele><time>2014-6-23T7:57:40Z</time></trkpt>
<trkpt lat="42.99090800" lon="-0.21114800"><ele></ele><time>2014-6-23T7:57:43Z</time></trkpt>
<trkpt lat="42.99090800" lon="-0.21112200"><ele></ele><time>2014-6-23T7:57:46Z</time></trkpt>
<trkpt lat="42.99090700" lon="-0.21111000"><ele></ele><time>2014-6-23T7:57:49Z</time></trkpt>
<trkpt lat="42.99090300" lon="-0.21110300"><ele></ele><time>2014-6-23T7:57:52Z</time></trkpt>
<trkpt lat="42.99090500" lon="-0.21109700"><ele></ele><time>2014-6-23T7:57:55Z</time></trkpt>
<trkpt lat="42.99090800" lon="-0.21109200"><ele></ele><time>2014-6-23T7:57:58Z</time></trkpt>
<trkpt lat="42.99090300" lon="-0.21108300"><ele></ele><time>2014-6-23T7:58:1Z</time></trkpt>
<trkpt lat="42.99090300" lon="-0.21108300"><ele></ele><time>2014-6-23T7:58:4Z</time></trkpt>
<trkpt lat="42.99097200" lon="-0.21101700"><ele></ele><time>2014-6-23T7:58:7Z</time></trkpt>
<trkpt lat="42.99094500" lon="-0.21102000"><ele></ele><time>2014-6-23T7:58:10Z</time></trkpt>
<trkpt lat="42.99091700" lon="-0.21104500"><ele></ele><time>2014-6-23T7:58:13Z</time></trkpt>
<trkpt lat="42.99090000" lon="-0.21104300"><ele></ele><time>2014-6-23T7:58:16Z</time></trkpt>
<trkpt lat="42.99091800" lon="-0.21103200"><ele></ele><time>2014-6-23T7:58:19Z</time></trkpt>
<trkpt lat="42.99091200" lon="-0.21104300"><ele></ele><time>2014-6-23T7:58:22Z</time></trkpt>
<trkpt lat="42.99090200" lon="-0.21106800"><ele></ele><time>2014-6-23T7:58:25Z</time></trkpt>
<trkpt lat="42.99089800" lon="-0.21108500"><ele></ele><time>2014-6-23T7:58:28Z</time></trkpt>
<trkpt lat="42.99085000" lon="-0.21113800"><ele></ele><time>2014-6-23T7:58:31Z</time></trkpt>
<trkpt lat="42.99082200" lon="-0.21116800"><ele></ele><time>2014-6-23T7:58:34Z</time></trkpt>
<trkpt lat="42.99081000" lon="-0.21117200"><ele></ele><time>2014-6-23T7:58:37Z</time></trkpt>
<trkpt lat="42.99080700" lon="-0.21117500"><ele></ele><time>2014-6-23T7:58:40Z</time></trkpt>
<trkpt lat="42.99080300" lon="-0.21117800"><ele></ele><time>2014-6-23T7:58:43Z</time></trkpt>
<trkpt lat="42.99080700" lon="-0.21118200"><ele></ele><time>2014-6-23T7:58:46Z</time></trkpt>
<trkpt lat="42.99081800" lon="-0.21117200"><ele></ele><time>2014-6-23T7:58:49Z</time></trkpt>
<trkpt lat="42.99083300" lon="-0.21116800"><ele></ele><time>2014-6-23T7:58:52Z</time></trkpt>
<trkpt lat="42.99084700" lon="-0.21116200"><ele></ele><time>2014-6-23T7:58:55Z</time></trkpt>
<trkpt lat="42.99085800" lon="-0.21115300"><ele></ele><time>2014-6-23T7:58:58Z</time></trkpt>
<trkpt lat="42.99086200" lon="-0.21113700"><ele></ele><time>2014-6-23T7:59:1Z</time></trkpt>
<trkpt lat="42.99086500" lon="-0.21112300"><ele></ele><time>2014-6-23T7:59:4Z</time></trkpt>
<trkpt lat="42.99085800" lon="-0.21112700"><ele></ele><time>2014-6-23T7:59:7Z</time></trkpt>
<trkpt lat="42.99088800" lon="-0.21108800"><ele></ele><time>2014-6-23T7:59:10Z</time></trkpt>
<trkpt lat="42.99089300" lon="-0.21107700"><ele></ele><time>2014-6-23T7:59:13Z</time></trkpt>
<trkpt lat="42.99089300" lon="-0.21107300"><ele></ele><time>2014-6-23T7:59:16Z</time></trkpt>
<trkpt lat="42.99089700" lon="-0.21107000"><ele></ele><time>2014-6-23T7:59:19Z</time></trkpt>
<trkpt lat="42.99091700" lon="-0.21106200"><ele></ele><time>2014-6-23T7:59:22Z</time></trkpt>
<trkpt lat="42.99095800" lon="-0.21103300"><ele></ele><time>2014-6-23T7:59:25Z</time></trkpt>
<trkpt lat="42.99099200" lon="-0.21101000"><ele></ele><time>2014-6-23T7:59:28Z</time></trkpt>
<trkpt lat="42.99100500" lon="-0.21100300"><ele></ele><time>2014-6-23T7:59:31Z</time></trkpt>
<trkpt lat="42.99098700" lon="-0.21102200"><ele></ele><time>2014-6-23T7:59:34Z</time></trkpt>
<trkpt lat="42.99096500" lon="-0.21105300"><ele></ele><time>2014-6-23T7:59:37Z</time></trkpt>
<trkpt lat="42.99096300" lon="-0.21105200"><ele></ele><time>2014-6-23T7:59:40Z</time></trkpt>
<trkpt lat="42.99101700" lon="-0.21103800"><ele></ele><time>2014-6-23T7:59:43Z</time></trkpt>
<trkpt lat="42.99101300" lon="-0.21111300"><ele></ele><time>2014-6-23T7:59:46Z</time></trkpt>
<trkpt lat="42.99099800" lon="-0.21120200"><ele></ele><time>2014-6-23T7:59:49Z</time></trkpt>
<trkpt lat="42.99097500" lon="-0.21127300"><ele></ele><time>2014-6-23T7:59:52Z</time></trkpt>
<trkpt lat="42.99095000" lon="-0.21133000"><ele></ele><time>2014-6-23T7:59:55Z</time></trkpt>
<trkpt lat="42.99093200" lon="-0.21140200"><ele></ele><time>2014-6-23T7:59:58Z</time></trkpt>
<trkpt lat="42.99090800" lon="-0.21145300"><ele></ele><time>2014-6-23T8:0:1Z</time></trkpt>
<trkpt lat="42.99088800" lon="-0.21152800"><ele></ele><time>2014-6-23T8:0:4Z</time></trkpt>
<trkpt lat="42.99085300" lon="-0.21159700"><ele></ele><time>2014-6-23T8:0:7Z</time></trkpt>
<trkpt lat="42.99080700" lon="-0.21166000"><ele></ele><time>2014-6-23T8:0:10Z</time></trkpt>
<trkpt lat="42.99076500" lon="-0.21172500"><ele></ele><time>2014-6-23T8:0:13Z</time></trkpt>
<trkpt lat="42.99072800" lon="-0.21180200"><ele></ele><time>2014-6-23T8:0:16Z</time></trkpt>
<trkpt lat="42.99068500" lon="-0.21184800"><ele></ele><time>2014-6-23T8:0:19Z</time></trkpt>
<trkpt lat="42.99064700" lon="-0.21191000"><ele></ele><time>2014-6-23T8:0:22Z</time></trkpt>
<trkpt lat="42.99060000" lon="-0.21196700"><ele></ele><time>2014-6-23T8:0:25Z</time></trkpt>
<trkpt lat="42.99054200" lon="-0.21205200"><ele></ele><time>2014-6-23T8:0:28Z</time></trkpt>
<trkpt lat="42.99050200" lon="-0.21211300"><ele></ele><time>2014-6-23T8:0:31Z</time></trkpt>
<trkpt lat="42.99046200" lon="-0.21218200"><ele></ele><time>2014-6-23T8:0:34Z</time></trkpt>
<trkpt lat="42.99043000" lon="-0.21223700"><ele></ele><time>2014-6-23T8:0:37Z</time></trkpt>
<trkpt lat="42.99037300" lon="-0.21229700"><ele></ele><time>2014-6-23T8:0:40Z</time></trkpt>
<trkpt lat="42.99032200" lon="-0.21239300"><ele></ele><time>2014-6-23T8:0:43Z</time></trkpt>
<trkpt lat="42.99025700" lon="-0.21253300"><ele></ele><time>2014-6-23T8:0:46Z</time></trkpt>
<trkpt lat="42.99020500" lon="-0.21264300"><ele></ele><time>2014-6-23T8:0:49Z</time></trkpt>
<trkpt lat="42.99015500" lon="-0.21276700"><ele></ele><time>2014-6-23T8:0:52Z</time></trkpt>
<trkpt lat="42.99012200" lon="-0.21286200"><ele></ele><time>2014-6-23T8:0:55Z</time></trkpt>
<trkpt lat="42.99010700" lon="-0.21296500"><ele></ele><time>2014-6-23T8:0:58Z</time></trkpt>
<trkpt lat="42.99009700" lon="-0.21303800"><ele></ele><time>2014-6-23T8:1:1Z</time></trkpt>
<trkpt lat="42.99007500" lon="-0.21313800"><ele></ele><time>2014-6-23T8:1:4Z</time></trkpt>
<trkpt lat="42.99004800" lon="-0.21323500"><ele></ele><time>2014-6-23T8:1:7Z</time></trkpt>
<trkpt lat="42.99001200" lon="-0.21330800"><ele></ele><time>2014-6-23T8:1:10Z</time></trkpt>
<trkpt lat="42.99000200" lon="-0.21341500"><ele></ele><time>2014-6-23T8:1:13Z</time></trkpt>
<trkpt lat="42.98995700" lon="-0.21348300"><ele></ele><time>2014-6-23T8:1:16Z</time></trkpt>
<trkpt lat="42.98992000" lon="-0.21352700"><ele></ele><time>2014-6-23T8:1:19Z</time></trkpt>
<trkpt lat="42.98986300" lon="-0.21358800"><ele></ele><time>2014-6-23T8:1:22Z</time></trkpt>
<trkpt lat="42.98981300" lon="-0.21365300"><ele></ele><time>2014-6-23T8:1:25Z</time></trkpt>
<trkpt lat="42.98976200" lon="-0.21370700"><ele></ele><time>2014-6-23T8:1:28Z</time></trkpt>
<trkpt lat="42.98968800" lon="-0.21371300"><ele></ele><time>2014-6-23T8:1:31Z</time></trkpt>
<trkpt lat="42.98962000" lon="-0.21371800"><ele></ele><time>2014-6-23T8:1:34Z</time></trkpt>
<trkpt lat="42.98956800" lon="-0.21374800"><ele></ele><time>2014-6-23T8:1:37Z</time></trkpt>
<trkpt lat="42.98950200" lon="-0.21376700"><ele></ele><time>2014-6-23T8:1:40Z</time></trkpt>
<trkpt lat="42.98944800" lon="-0.21380500"><ele></ele><time>2014-6-23T8:1:43Z</time></trkpt>
<trkpt lat="42.98940300" lon="-0.21385300"><ele></ele><time>2014-6-23T8:1:46Z</time></trkpt>
<trkpt lat="42.98937000" lon="-0.21392800"><ele></ele><time>2014-6-23T8:1:49Z</time></trkpt>
<trkpt lat="42.98934500" lon="-0.21400000"><ele></ele><time>2014-6-23T8:1:52Z</time></trkpt>
<trkpt lat="42.98931500" lon="-0.21407300"><ele></ele><time>2014-6-23T8:1:55Z</time></trkpt>
<trkpt lat="42.98929500" lon="-0.21415800"><ele></ele><time>2014-6-23T8:1:58Z</time></trkpt>
<trkpt lat="42.98927000" lon="-0.21425300"><ele></ele><time>2014-6-23T8:2:1Z</time></trkpt>
<trkpt lat="42.98925700" lon="-0.21434300"><ele></ele><time>2014-6-23T8:2:4Z</time></trkpt>
<trkpt lat="42.98918700" lon="-0.21450200"><ele></ele><time>2014-6-23T8:2:7Z</time></trkpt>
<trkpt lat="42.98913500" lon="-0.21458000"><ele></ele><time>2014-6-23T8:2:10Z</time></trkpt>
<trkpt lat="42.98909800" lon="-0.21465800"><ele></ele><time>2014-6-23T8:2:13Z</time></trkpt>
<trkpt lat="42.98906800" lon="-0.21475200"><ele></ele><time>2014-6-23T8:2:16Z</time></trkpt>
<trkpt lat="42.98903300" lon="-0.21484300"><ele></ele><time>2014-6-23T8:2:19Z</time></trkpt>
<trkpt lat="42.98900000" lon="-0.21493500"><ele></ele><time>2014-6-23T8:2:22Z</time></trkpt>
<trkpt lat="42.98897200" lon="-0.21503200"><ele></ele><time>2014-6-23T8:2:25Z</time></trkpt>
<trkpt lat="42.98893700" lon="-0.21513500"><ele></ele><time>2014-6-23T8:2:28Z</time></trkpt>
<trkpt lat="42.98890800" lon="-0.21522700"><ele></ele><time>2014-6-23T8:2:31Z</time></trkpt>
<trkpt lat="42.98887500" lon="-0.21531300"><ele></ele><time>2014-6-23T8:2:34Z</time></trkpt>
<trkpt lat="42.98884200" lon="-0.21539700"><ele></ele><time>2014-6-23T8:2:37Z</time></trkpt>
<trkpt lat="42.98880200" lon="-0.21548800"><ele></ele><time>2014-6-23T8:2:40Z</time></trkpt>
<trkpt lat="42.98876000" lon="-0.21557300"><ele></ele><time>2014-6-23T8:2:43Z</time></trkpt>
<trkpt lat="42.98868000" lon="-0.21565200"><ele></ele><time>2014-6-23T8:2:46Z</time></trkpt>
<trkpt lat="42.98863700" lon="-0.21571300"><ele></ele><time>2014-6-23T8:2:49Z</time></trkpt>
<trkpt lat="42.98857800" lon="-0.21575800"><ele></ele><time>2014-6-23T8:2:52Z</time></trkpt>
<trkpt lat="42.98851200" lon="-0.21580300"><ele></ele><time>2014-6-23T8:2:55Z</time></trkpt>
<trkpt lat="42.98845000" lon="-0.21585200"><ele></ele><time>2014-6-23T8:2:58Z</time></trkpt>
<trkpt lat="42.98838800" lon="-0.21592000"><ele></ele><time>2014-6-23T8:3:1Z</time></trkpt>
<trkpt lat="42.98833700" lon="-0.21599300"><ele></ele><time>2014-6-23T8:3:4Z</time></trkpt>
<trkpt lat="42.98826200" lon="-0.21607500"><ele></ele><time>2014-6-23T8:3:7Z</time></trkpt>
<trkpt lat="42.98821200" lon="-0.21613700"><ele></ele><time>2014-6-23T8:3:10Z</time></trkpt>
<trkpt lat="42.98814800" lon="-0.21618700"><ele></ele><time>2014-6-23T8:3:13Z</time></trkpt>
<trkpt lat="42.98809200" lon="-0.21623700"><ele></ele><time>2014-6-23T8:3:16Z</time></trkpt>
<trkpt lat="42.98803700" lon="-0.21625300"><ele></ele><time>2014-6-23T8:3:19Z</time></trkpt>
<trkpt lat="42.98797300" lon="-0.21626800"><ele></ele><time>2014-6-23T8:3:22Z</time></trkpt>
<trkpt lat="42.98791300" lon="-0.21630700"><ele></ele><time>2014-6-23T8:3:25Z</time></trkpt>
<trkpt lat="42.98785200" lon="-0.21633000"><ele></ele><time>2014-6-23T8:3:28Z</time></trkpt>
<trkpt lat="42.98777800" lon="-0.21634000"><ele></ele><time>2014-6-23T8:3:31Z</time></trkpt>
<trkpt lat="42.98770800" lon="-0.21635300"><ele></ele><time>2014-6-23T8:3:34Z</time></trkpt>
<trkpt lat="42.98764200" lon="-0.21637300"><ele></ele><time>2014-6-23T8:3:37Z</time></trkpt>
<trkpt lat="42.98756300" lon="-0.21637700"><ele></ele><time>2014-6-23T8:3:40Z</time></trkpt>
<trkpt lat="42.98749500" lon="-0.21636000"><ele></ele><time>2014-6-23T8:3:43Z</time></trkpt>
<trkpt lat="42.98742300" lon="-0.21636700"><ele></ele><time>2014-6-23T8:3:46Z</time></trkpt>
<trkpt lat="42.98733800" lon="-0.21635800"><ele></ele><time>2014-6-23T8:3:49Z</time></trkpt>
<trkpt lat="42.98726800" lon="-0.21633300"><ele></ele><time>2014-6-23T8:3:52Z</time></trkpt>
<trkpt lat="42.98720700" lon="-0.21630700"><ele></ele><time>2014-6-23T8:3:55Z</time></trkpt>
<trkpt lat="42.98714200" lon="-0.21629700"><ele></ele><time>2014-6-23T8:3:58Z</time></trkpt>
<trkpt lat="42.98706800" lon="-0.21627200"><ele></ele><time>2014-6-23T8:4:1Z</time></trkpt>
<trkpt lat="42.98699500" lon="-0.21624300"><ele></ele><time>2014-6-23T8:4:4Z</time></trkpt>
<trkpt lat="42.98687700" lon="-0.21622800"><ele></ele><time>2014-6-23T8:4:7Z</time></trkpt>
<trkpt lat="42.98664300" lon="-0.21629200"><ele></ele><time>2014-6-23T8:4:10Z</time></trkpt>
<trkpt lat="42.98644200" lon="-0.21638300"><ele></ele><time>2014-6-23T8:4:13Z</time></trkpt>
<trkpt lat="42.98630700" lon="-0.21641700"><ele></ele><time>2014-6-23T8:4:16Z</time></trkpt>
<trkpt lat="42.98624700" lon="-0.21650500"><ele></ele><time>2014-6-23T8:4:19Z</time></trkpt>
<trkpt lat="42.98626500" lon="-0.21659700"><ele></ele><time>2014-6-23T8:4:22Z</time></trkpt>
<trkpt lat="42.98633200" lon="-0.21662700"><ele></ele><time>2014-6-23T8:4:25Z</time></trkpt>
<trkpt lat="42.98641200" lon="-0.21661500"><ele></ele><time>2014-6-23T8:4:28Z</time></trkpt>
<trkpt lat="42.98645700" lon="-0.21658300"><ele></ele><time>2014-6-23T8:4:31Z</time></trkpt>
<trkpt lat="42.98646200" lon="-0.21658700"><ele></ele><time>2014-6-23T8:4:34Z</time></trkpt>
<trkpt lat="42.98644500" lon="-0.21658500"><ele></ele><time>2014-6-23T8:4:37Z</time></trkpt>
<trkpt lat="42.98646300" lon="-0.21658200"><ele></ele><time>2014-6-23T8:4:40Z</time></trkpt>
<trkpt lat="42.98648300" lon="-0.21660000"><ele></ele><time>2014-6-23T8:4:43Z</time></trkpt>
<trkpt lat="42.98649800" lon="-0.21658500"><ele></ele><time>2014-6-23T8:4:46Z</time></trkpt>
<trkpt lat="42.98650700" lon="-0.21656700"><ele></ele><time>2014-6-23T8:4:49Z</time></trkpt>
<trkpt lat="42.98649800" lon="-0.21660800"><ele></ele><time>2014-6-23T8:4:52Z</time></trkpt>
<trkpt lat="42.98651200" lon="-0.21658500"><ele></ele><time>2014-6-23T8:4:55Z</time></trkpt>
<trkpt lat="42.98661300" lon="-0.21653500"><ele></ele><time>2014-6-23T8:4:58Z</time></trkpt>
<trkpt lat="42.98674500" lon="-0.21647200"><ele></ele><time>2014-6-23T8:5:1Z</time></trkpt>
<trkpt lat="42.98687700" lon="-0.21646200"><ele></ele><time>2014-6-23T8:5:4Z</time></trkpt>
<trkpt lat="42.98701800" lon="-0.21649800"><ele></ele><time>2014-6-23T8:5:7Z</time></trkpt>
<trkpt lat="42.98714300" lon="-0.21657700"><ele></ele><time>2014-6-23T8:5:10Z</time></trkpt>
<trkpt lat="42.98724000" lon="-0.21662200"><ele></ele><time>2014-6-23T8:5:13Z</time></trkpt>
<trkpt lat="42.98736300" lon="-0.21668200"><ele></ele><time>2014-6-23T8:5:16Z</time></trkpt>
<trkpt lat="42.98747700" lon="-0.21671800"><ele></ele><time>2014-6-23T8:5:19Z</time></trkpt>
<trkpt lat="42.98758700" lon="-0.21674500"><ele></ele><time>2014-6-23T8:5:22Z</time></trkpt>
<trkpt lat="42.98768300" lon="-0.21675700"><ele></ele><time>2014-6-23T8:5:25Z</time></trkpt>
<trkpt lat="42.98778200" lon="-0.21675000"><ele></ele><time>2014-6-23T8:5:28Z</time></trkpt>
<trkpt lat="42.98788300" lon="-0.21672800"><ele></ele><time>2014-6-23T8:5:31Z</time></trkpt>
<trkpt lat="42.98797800" lon="-0.21670800"><ele></ele><time>2014-6-23T8:5:34Z</time></trkpt>
<trkpt lat="42.98807200" lon="-0.21667500"><ele></ele><time>2014-6-23T8:5:37Z</time></trkpt>
<trkpt lat="42.98816300" lon="-0.21663200"><ele></ele><time>2014-6-23T8:5:40Z</time></trkpt>
<trkpt lat="42.98825500" lon="-0.21658500"><ele></ele><time>2014-6-23T8:5:43Z</time></trkpt>
<trkpt lat="42.98833500" lon="-0.21654500"><ele></ele><time>2014-6-23T8:5:46Z</time></trkpt>
<trkpt lat="42.98842800" lon="-0.21653200"><ele></ele><time>2014-6-23T8:5:49Z</time></trkpt>
<trkpt lat="42.98851300" lon="-0.21652300"><ele></ele><time>2014-6-23T8:5:52Z</time></trkpt>
<trkpt lat="42.98858300" lon="-0.21655300"><ele></ele><time>2014-6-23T8:5:55Z</time></trkpt>
<trkpt lat="42.98865200" lon="-0.21658700"><ele></ele><time>2014-6-23T8:5:58Z</time></trkpt>
<trkpt lat="42.98870700" lon="-0.21662200"><ele></ele><time>2014-6-23T8:6:1Z</time></trkpt>
<trkpt lat="42.98874800" lon="-0.21672700"><ele></ele><time>2014-6-23T8:6:4Z</time></trkpt>
<trkpt lat="42.98879700" lon="-0.21683000"><ele></ele><time>2014-6-23T8:6:7Z</time></trkpt>
<trkpt lat="42.98883200" lon="-0.21693500"><ele></ele><time>2014-6-23T8:6:10Z</time></trkpt>
<trkpt lat="42.98886300" lon="-0.21704200"><ele></ele><time>2014-6-23T8:6:13Z</time></trkpt>
<trkpt lat="42.98887800" lon="-0.21715700"><ele></ele><time>2014-6-23T8:6:16Z</time></trkpt>
<trkpt lat="42.98889200" lon="-0.21728200"><ele></ele><time>2014-6-23T8:6:19Z</time></trkpt>
<trkpt lat="42.98890700" lon="-0.21737200"><ele></ele><time>2014-6-23T8:6:22Z</time></trkpt>
<trkpt lat="42.98890300" lon="-0.21745300"><ele></ele><time>2014-6-23T8:6:25Z</time></trkpt>
<trkpt lat="42.98890200" lon="-0.21753300"><ele></ele><time>2014-6-23T8:6:28Z</time></trkpt>
<trkpt lat="42.98890200" lon="-0.21762300"><ele></ele><time>2014-6-23T8:6:31Z</time></trkpt>
<trkpt lat="42.98889800" lon="-0.21769800"><ele></ele><time>2014-6-23T8:6:34Z</time></trkpt>
<trkpt lat="42.98890000" lon="-0.21779300"><ele></ele><time>2014-6-23T8:6:37Z</time></trkpt>
<trkpt lat="42.98890500" lon="-0.21789800"><ele></ele><time>2014-6-23T8:6:40Z</time></trkpt>
<trkpt lat="42.98891200" lon="-0.21800700"><ele></ele><time>2014-6-23T8:6:43Z</time></trkpt>
<trkpt lat="42.98892700" lon="-0.21810800"><ele></ele><time>2014-6-23T8:6:46Z</time></trkpt>
<trkpt lat="42.98894200" lon="-0.21821800"><ele></ele><time>2014-6-23T8:6:49Z</time></trkpt>
<trkpt lat="42.98895500" lon="-0.21832300"><ele></ele><time>2014-6-23T8:6:52Z</time></trkpt>
<trkpt lat="42.98896300" lon="-0.21841700"><ele></ele><time>2014-6-23T8:6:55Z</time></trkpt>
<trkpt lat="42.98897200" lon="-0.21851000"><ele></ele><time>2014-6-23T8:6:58Z</time></trkpt>
<trkpt lat="42.98897300" lon="-0.21859200"><ele></ele><time>2014-6-23T8:7:1Z</time></trkpt>
<trkpt lat="42.98895000" lon="-0.21868700"><ele></ele><time>2014-6-23T8:7:4Z</time></trkpt>
<trkpt lat="42.98891800" lon="-0.21878200"><ele></ele><time>2014-6-23T8:7:7Z</time></trkpt>
<trkpt lat="42.98889300" lon="-0.21888800"><ele></ele><time>2014-6-23T8:7:10Z</time></trkpt>
<trkpt lat="42.98887700" lon="-0.21896700"><ele></ele><time>2014-6-23T8:7:13Z</time></trkpt>
<trkpt lat="42.98884000" lon="-0.21904700"><ele></ele><time>2014-6-23T8:7:16Z</time></trkpt>
<trkpt lat="42.98881800" lon="-0.21911200"><ele></ele><time>2014-6-23T8:7:19Z</time></trkpt>
<trkpt lat="42.98879500" lon="-0.21919200"><ele></ele><time>2014-6-23T8:7:22Z</time></trkpt>
<trkpt lat="42.98877300" lon="-0.21930300"><ele></ele><time>2014-6-23T8:7:25Z</time></trkpt>
<trkpt lat="42.98877300" lon="-0.21928700"><ele></ele><time>2014-6-23T8:7:28Z</time></trkpt>
<trkpt lat="42.98876800" lon="-0.21929700"><ele></ele><time>2014-6-23T8:7:31Z</time></trkpt>
<trkpt lat="42.98876000" lon="-0.21932800"><ele></ele><time>2014-6-23T8:7:34Z</time></trkpt>
<trkpt lat="42.98875300" lon="-0.21934800"><ele></ele><time>2014-6-23T8:7:37Z</time></trkpt>
<trkpt lat="42.98874700" lon="-0.21933700"><ele></ele><time>2014-6-23T8:7:40Z</time></trkpt>
<trkpt lat="42.98875000" lon="-0.21934000"><ele></ele><time>2014-6-23T8:7:43Z</time></trkpt>
<trkpt lat="42.98876000" lon="-0.21930000"><ele></ele><time>2014-6-23T8:7:46Z</time></trkpt>
<trkpt lat="42.98876300" lon="-0.21930800"><ele></ele><time>2014-6-23T8:7:49Z</time></trkpt>
<trkpt lat="42.98876500" lon="-0.21931800"><ele></ele><time>2014-6-23T8:7:52Z</time></trkpt>
<trkpt lat="42.98875800" lon="-0.21930700"><ele></ele><time>2014-6-23T8:7:55Z</time></trkpt>
<trkpt lat="42.98876200" lon="-0.21938200"><ele></ele><time>2014-6-23T8:7:58Z</time></trkpt>
<trkpt lat="42.98874500" lon="-0.21950300"><ele></ele><time>2014-6-23T8:8:1Z</time></trkpt>
<trkpt lat="42.98871800" lon="-0.21963800"><ele></ele><time>2014-6-23T8:8:4Z</time></trkpt>
<trkpt lat="42.98870000" lon="-0.21973800"><ele></ele><time>2014-6-23T8:8:7Z</time></trkpt>
<trkpt lat="42.98867800" lon="-0.21986800"><ele></ele><time>2014-6-23T8:8:10Z</time></trkpt>
<trkpt lat="42.98864700" lon="-0.22004700"><ele></ele><time>2014-6-23T8:8:13Z</time></trkpt>
<trkpt lat="42.98862000" lon="-0.22016300"><ele></ele><time>2014-6-23T8:8:16Z</time></trkpt>
<trkpt lat="42.98860300" lon="-0.22031000"><ele></ele><time>2014-6-23T8:8:19Z</time></trkpt>
<trkpt lat="42.98859700" lon="-0.22052700"><ele></ele><time>2014-6-23T8:8:22Z</time></trkpt>
<trkpt lat="42.98861000" lon="-0.22074800"><ele></ele><time>2014-6-23T8:8:25Z</time></trkpt>
<trkpt lat="42.98863000" lon="-0.22098300"><ele></ele><time>2014-6-23T8:8:28Z</time></trkpt>
<trkpt lat="42.98866500" lon="-0.22121300"><ele></ele><time>2014-6-23T8:8:31Z</time></trkpt>
<trkpt lat="42.98870700" lon="-0.22138700"><ele></ele><time>2014-6-23T8:8:34Z</time></trkpt>
<trkpt lat="42.98874800" lon="-0.22152300"><ele></ele><time>2014-6-23T8:8:37Z</time></trkpt>
<trkpt lat="42.98879700" lon="-0.22167000"><ele></ele><time>2014-6-23T8:8:40Z</time></trkpt>
<trkpt lat="42.98892500" lon="-0.22182300"><ele></ele><time>2014-6-23T8:8:43Z</time></trkpt>
<trkpt lat="42.98909800" lon="-0.22182200"><ele></ele><time>2014-6-23T8:8:46Z</time></trkpt>
<trkpt lat="42.98930700" lon="-0.22187200"><ele></ele><time>2014-6-23T8:8:49Z</time></trkpt>
<trkpt lat="42.98942300" lon="-0.22198700"><ele></ele><time>2014-6-23T8:8:52Z</time></trkpt>
<trkpt lat="42.98952000" lon="-0.22208300"><ele></ele><time>2014-6-23T8:8:55Z</time></trkpt>
<trkpt lat="42.98963000" lon="-0.22219800"><ele></ele><time>2014-6-23T8:8:58Z</time></trkpt>
<trkpt lat="42.98973000" lon="-0.22229800"><ele></ele><time>2014-6-23T8:9:1Z</time></trkpt>
<trkpt lat="42.98982200" lon="-0.22243200"><ele></ele><time>2014-6-23T8:9:4Z</time></trkpt>
<trkpt lat="42.98991800" lon="-0.22257300"><ele></ele><time>2014-6-23T8:9:7Z</time></trkpt>
<trkpt lat="42.99003300" lon="-0.22269300"><ele></ele><time>2014-6-23T8:9:10Z</time></trkpt>
<trkpt lat="42.99015300" lon="-0.22282700"><ele></ele><time>2014-6-23T8:9:13Z</time></trkpt>
<trkpt lat="42.99028500" lon="-0.22294800"><ele></ele><time>2014-6-23T8:9:16Z</time></trkpt>
<trkpt lat="42.99038700" lon="-0.22306700"><ele></ele><time>2014-6-23T8:9:19Z</time></trkpt>
<trkpt lat="42.99045800" lon="-0.22317300"><ele></ele><time>2014-6-23T8:9:22Z</time></trkpt>
<trkpt lat="42.99051800" lon="-0.22328800"><ele></ele><time>2014-6-23T8:9:25Z</time></trkpt>
<trkpt lat="42.99055500" lon="-0.22340200"><ele></ele><time>2014-6-23T8:9:28Z</time></trkpt>
<trkpt lat="42.99061200" lon="-0.22355300"><ele></ele><time>2014-6-23T8:9:31Z</time></trkpt>
<trkpt lat="42.99066800" lon="-0.22373000"><ele></ele><time>2014-6-23T8:9:34Z</time></trkpt>
<trkpt lat="42.99072200" lon="-0.22389000"><ele></ele><time>2014-6-23T8:9:37Z</time></trkpt>
<trkpt lat="42.99076700" lon="-0.22405800"><ele></ele><time>2014-6-23T8:9:40Z</time></trkpt>
<trkpt lat="42.99081300" lon="-0.22420000"><ele></ele><time>2014-6-23T8:9:43Z</time></trkpt>
<trkpt lat="42.99088500" lon="-0.22440800"><ele></ele><time>2014-6-23T8:9:46Z</time></trkpt>
<trkpt lat="42.99100700" lon="-0.22483700"><ele></ele><time>2014-6-23T8:9:49Z</time></trkpt>
<trkpt lat="42.99116200" lon="-0.22529800"><ele></ele><time>2014-6-23T8:9:52Z</time></trkpt>
<trkpt lat="42.99136300" lon="-0.22559200"><ele></ele><time>2014-6-23T8:9:55Z</time></trkpt>
<trkpt lat="42.99148700" lon="-0.22581700"><ele></ele><time>2014-6-23T8:9:58Z</time></trkpt>
<trkpt lat="42.99154700" lon="-0.22586700"><ele></ele><time>2014-6-23T8:10:1Z</time></trkpt>
<trkpt lat="42.99154200" lon="-0.22592800"><ele></ele><time>2014-6-23T8:10:4Z</time></trkpt>
<trkpt lat="42.99152700" lon="-0.22599000"><ele></ele><time>2014-6-23T8:10:7Z</time></trkpt>
<trkpt lat="42.99149800" lon="-0.22605300"><ele></ele><time>2014-6-23T8:10:10Z</time></trkpt>
<trkpt lat="42.99148700" lon="-0.22607000"><ele></ele><time>2014-6-23T8:10:13Z</time></trkpt>
<trkpt lat="42.99148700" lon="-0.22607800"><ele></ele><time>2014-6-23T8:10:16Z</time></trkpt>
<trkpt lat="42.99148500" lon="-0.22605200"><ele></ele><time>2014-6-23T8:10:19Z</time></trkpt>
<trkpt lat="42.99149000" lon="-0.22614200"><ele></ele><time>2014-6-23T8:10:22Z</time></trkpt>
<trkpt lat="42.99146800" lon="-0.22625500"><ele></ele><time>2014-6-23T8:10:25Z</time></trkpt>
<trkpt lat="42.99147200" lon="-0.22629500"><ele></ele><time>2014-6-23T8:10:28Z</time></trkpt>
<trkpt lat="42.99147700" lon="-0.22629800"><ele></ele><time>2014-6-23T8:10:31Z</time></trkpt>
<trkpt lat="42.99147700" lon="-0.22629800"><ele></ele><time>2014-6-23T8:10:34Z</time></trkpt>
<trkpt lat="42.99147200" lon="-0.22631200"><ele></ele><time>2014-6-23T8:10:37Z</time></trkpt>
<trkpt lat="42.99146700" lon="-0.22631800"><ele></ele><time>2014-6-23T8:10:40Z</time></trkpt>
<trkpt lat="42.99146700" lon="-0.22632300"><ele></ele><time>2014-6-23T8:10:43Z</time></trkpt>
<trkpt lat="42.99146000" lon="-0.22633800"><ele></ele><time>2014-6-23T8:10:46Z</time></trkpt>
<trkpt lat="42.99146500" lon="-0.22632300"><ele></ele><time>2014-6-23T8:10:49Z</time></trkpt>
<trkpt lat="42.99147000" lon="-0.22631800"><ele></ele><time>2014-6-23T8:10:52Z</time></trkpt>
<trkpt lat="42.99147700" lon="-0.22631500"><ele></ele><time>2014-6-23T8:10:55Z</time></trkpt>
<trkpt lat="42.99147300" lon="-0.22631200"><ele></ele><time>2014-6-23T8:10:58Z</time></trkpt>
<trkpt lat="42.99145700" lon="-0.22636700"><ele></ele><time>2014-6-23T8:11:1Z</time></trkpt>
<trkpt lat="42.99138200" lon="-0.22643700"><ele></ele><time>2014-6-23T8:11:4Z</time></trkpt>
<trkpt lat="42.99137800" lon="-0.22643700"><ele></ele><time>2014-6-23T8:11:7Z</time></trkpt>
<trkpt lat="42.99137800" lon="-0.22642700"><ele></ele><time>2014-6-23T8:11:10Z</time></trkpt>
<trkpt lat="42.99137500" lon="-0.22642200"><ele></ele><time>2014-6-23T8:11:13Z</time></trkpt>
<trkpt lat="42.99136300" lon="-0.22641800"><ele></ele><time>2014-6-23T8:11:16Z</time></trkpt>
<trkpt lat="42.99135700" lon="-0.22643200"><ele></ele><time>2014-6-23T8:11:19Z</time></trkpt>
<trkpt lat="42.99135200" lon="-0.22643300"><ele></ele><time>2014-6-23T8:11:22Z</time></trkpt>
<trkpt lat="42.99125700" lon="-0.22657300"><ele></ele><time>2014-6-23T8:11:25Z</time></trkpt>
<trkpt lat="42.99106300" lon="-0.22678700"><ele></ele><time>2014-6-23T8:11:28Z</time></trkpt>
<trkpt lat="42.99083000" lon="-0.22701200"><ele></ele><time>2014-6-23T8:11:31Z</time></trkpt>
<trkpt lat="42.99059000" lon="-0.22715000"><ele></ele><time>2014-6-23T8:11:34Z</time></trkpt>
<trkpt lat="42.99036000" lon="-0.22715800"><ele></ele><time>2014-6-23T8:11:37Z</time></trkpt>
<trkpt lat="42.99018700" lon="-0.22707500"><ele></ele><time>2014-6-23T8:11:40Z</time></trkpt>
<trkpt lat="42.99001300" lon="-0.22696800"><ele></ele><time>2014-6-23T8:11:43Z</time></trkpt>
<trkpt lat="42.98982300" lon="-0.22684500"><ele></ele><time>2014-6-23T8:11:46Z</time></trkpt>
<trkpt lat="42.98962700" lon="-0.22675700"><ele></ele><time>2014-6-23T8:11:49Z</time></trkpt>
<trkpt lat="42.98943800" lon="-0.22673300"><ele></ele><time>2014-6-23T8:11:52Z</time></trkpt>
<trkpt lat="42.98927800" lon="-0.22675200"><ele></ele><time>2014-6-23T8:11:55Z</time></trkpt>
<trkpt lat="42.98913700" lon="-0.22684000"><ele></ele><time>2014-6-23T8:11:58Z</time></trkpt>
<trkpt lat="42.98900200" lon="-0.22690000"><ele></ele><time>2014-6-23T8:12:1Z</time></trkpt>
<trkpt lat="42.98888300" lon="-0.22694300"><ele></ele><time>2014-6-23T8:12:4Z</time></trkpt>
<trkpt lat="42.98876200" lon="-0.22697700"><ele></ele><time>2014-6-23T8:12:7Z</time></trkpt>
<trkpt lat="42.98862300" lon="-0.22702000"><ele></ele><time>2014-6-23T8:12:10Z</time></trkpt>
<trkpt lat="42.98847700" lon="-0.22706700"><ele></ele><time>2014-6-23T8:12:13Z</time></trkpt>
<trkpt lat="42.98833700" lon="-0.22713700"><ele></ele><time>2014-6-23T8:12:16Z</time></trkpt>
<trkpt lat="42.98819700" lon="-0.22720700"><ele></ele><time>2014-6-23T8:12:19Z</time></trkpt>
<trkpt lat="42.98803800" lon="-0.22729300"><ele></ele><time>2014-6-23T8:12:22Z</time></trkpt>
<trkpt lat="42.98790700" lon="-0.22740000"><ele></ele><time>2014-6-23T8:12:25Z</time></trkpt>
<trkpt lat="42.98777200" lon="-0.22744800"><ele></ele><time>2014-6-23T8:12:28Z</time></trkpt>
<trkpt lat="42.98764200" lon="-0.22748700"><ele></ele><time>2014-6-23T8:12:31Z</time></trkpt>
<trkpt lat="42.98749300" lon="-0.22753200"><ele></ele><time>2014-6-23T8:12:34Z</time></trkpt>
<trkpt lat="42.98731700" lon="-0.22761700"><ele></ele><time>2014-6-23T8:12:37Z</time></trkpt>
<trkpt lat="42.98716700" lon="-0.22772800"><ele></ele><time>2014-6-23T8:12:40Z</time></trkpt>
<trkpt lat="42.98706700" lon="-0.22786000"><ele></ele><time>2014-6-23T8:12:43Z</time></trkpt>
<trkpt lat="42.98702700" lon="-0.22800700"><ele></ele><time>2014-6-23T8:12:46Z</time></trkpt>
<trkpt lat="42.98689700" lon="-0.22816200"><ele></ele><time>2014-6-23T8:12:49Z</time></trkpt>
<trkpt lat="42.98672000" lon="-0.22824800"><ele></ele><time>2014-6-23T8:12:52Z</time></trkpt>
<trkpt lat="42.98650300" lon="-0.22824700"><ele></ele><time>2014-6-23T8:12:55Z</time></trkpt>
<trkpt lat="42.98623200" lon="-0.22827300"><ele></ele><time>2014-6-23T8:12:58Z</time></trkpt>
<trkpt lat="42.98594000" lon="-0.22837500"><ele></ele><time>2014-6-23T8:13:1Z</time></trkpt>
<trkpt lat="42.98569000" lon="-0.22848700"><ele></ele><time>2014-6-23T8:13:4Z</time></trkpt>
<trkpt lat="42.98548200" lon="-0.22865300"><ele></ele><time>2014-6-23T8:13:7Z</time></trkpt>
<trkpt lat="42.98528300" lon="-0.22890200"><ele></ele><time>2014-6-23T8:13:10Z</time></trkpt>
<trkpt lat="42.98522300" lon="-0.22930700"><ele></ele><time>2014-6-23T8:13:13Z</time></trkpt>
<trkpt lat="42.98529700" lon="-0.22977800"><ele></ele><time>2014-6-23T8:13:16Z</time></trkpt>
<trkpt lat="42.98546200" lon="-0.23012800"><ele></ele><time>2014-6-23T8:13:19Z</time></trkpt>
<trkpt lat="42.98566500" lon="-0.23049800"><ele></ele><time>2014-6-23T8:13:22Z</time></trkpt>
<trkpt lat="42.98577000" lon="-0.23086000"><ele></ele><time>2014-6-23T8:13:25Z</time></trkpt>
<trkpt lat="42.98583800" lon="-0.23132800"><ele></ele><time>2014-6-23T8:13:28Z</time></trkpt>
<trkpt lat="42.98582800" lon="-0.23190700"><ele></ele><time>2014-6-23T8:13:31Z</time></trkpt>
<trkpt lat="42.98575800" lon="-0.23253300"><ele></ele><time>2014-6-23T8:13:34Z</time></trkpt>
<trkpt lat="42.98569200" lon="-0.23295700"><ele></ele><time>2014-6-23T8:13:37Z</time></trkpt>
<trkpt lat="42.98573800" lon="-0.23325000"><ele></ele><time>2014-6-23T8:13:40Z</time></trkpt>
<trkpt lat="42.98584200" lon="-0.23342800"><ele></ele><time>2014-6-23T8:13:43Z</time></trkpt>
<trkpt lat="42.98588200" lon="-0.23345700"><ele></ele><time>2014-6-23T8:13:46Z</time></trkpt>
<trkpt lat="42.98587800" lon="-0.23347300"><ele></ele><time>2014-6-23T8:13:49Z</time></trkpt>
<trkpt lat="42.98588000" lon="-0.23345700"><ele></ele><time>2014-6-23T8:13:52Z</time></trkpt>
<trkpt lat="42.98587700" lon="-0.23346500"><ele></ele><time>2014-6-23T8:13:55Z</time></trkpt>
<trkpt lat="42.98586300" lon="-0.23345800"><ele></ele><time>2014-6-23T8:13:58Z</time></trkpt>
<trkpt lat="42.98586800" lon="-0.23344300"><ele></ele><time>2014-6-23T8:14:1Z</time></trkpt>
<trkpt lat="42.98586000" lon="-0.23344800"><ele></ele><time>2014-6-23T8:14:4Z</time></trkpt>
<trkpt lat="42.98585300" lon="-0.23345700"><ele></ele><time>2014-6-23T8:14:7Z</time></trkpt>
<trkpt lat="42.98585800" lon="-0.23345300"><ele></ele><time>2014-6-23T8:14:10Z</time></trkpt>
<trkpt lat="42.98585800" lon="-0.23344200"><ele></ele><time>2014-6-23T8:14:13Z</time></trkpt>
<trkpt lat="42.98587700" lon="-0.23342800"><ele></ele><time>2014-6-23T8:14:16Z</time></trkpt>
<trkpt lat="42.98587500" lon="-0.23344700"><ele></ele><time>2014-6-23T8:14:19Z</time></trkpt>
<trkpt lat="42.98587200" lon="-0.23345300"><ele></ele><time>2014-6-23T8:14:22Z</time></trkpt>
<trkpt lat="42.98587800" lon="-0.23344700"><ele></ele><time>2014-6-23T8:14:25Z</time></trkpt>
<trkpt lat="42.98584200" lon="-0.23347200"><ele></ele><time>2014-6-23T8:14:28Z</time></trkpt>
<trkpt lat="42.98584200" lon="-0.23348200"><ele></ele><time>2014-6-23T8:14:31Z</time></trkpt>
<trkpt lat="42.98582500" lon="-0.23349200"><ele></ele><time>2014-6-23T8:14:34Z</time></trkpt>
<trkpt lat="42.98582300" lon="-0.23348700"><ele></ele><time>2014-6-23T8:14:37Z</time></trkpt>
<trkpt lat="42.98582800" lon="-0.23348300"><ele></ele><time>2014-6-23T8:14:40Z</time></trkpt>
<trkpt lat="42.98582700" lon="-0.23347000"><ele></ele><time>2014-6-23T8:14:43Z</time></trkpt>
<trkpt lat="42.98584200" lon="-0.23347200"><ele></ele><time>2014-6-23T8:14:46Z</time></trkpt>
<trkpt lat="42.98585200" lon="-0.23347000"><ele></ele><time>2014-6-23T8:14:49Z</time></trkpt>
<trkpt lat="42.98585700" lon="-0.23347200"><ele></ele><time>2014-6-23T8:14:52Z</time></trkpt>
<trkpt lat="42.98585300" lon="-0.23347000"><ele></ele><time>2014-6-23T8:14:55Z</time></trkpt>
<trkpt lat="42.98585500" lon="-0.23346700"><ele></ele><time>2014-6-23T8:14:58Z</time></trkpt>
<trkpt lat="42.98586200" lon="-0.23347000"><ele></ele><time>2014-6-23T8:15:1Z</time></trkpt>
<trkpt lat="42.98585300" lon="-0.23349300"><ele></ele><time>2014-6-23T8:15:4Z</time></trkpt>
<trkpt lat="42.98584800" lon="-0.23349800"><ele></ele><time>2014-6-23T8:15:7Z</time></trkpt>
<trkpt lat="42.98584500" lon="-0.23350500"><ele></ele><time>2014-6-23T8:15:10Z</time></trkpt>
<trkpt lat="42.98584300" lon="-0.23350800"><ele></ele><time>2014-6-23T8:15:13Z</time></trkpt>
<trkpt lat="42.98585300" lon="-0.23348700"><ele></ele><time>2014-6-23T8:15:16Z</time></trkpt>
<trkpt lat="42.98587000" lon="-0.23343800"><ele></ele><time>2014-6-23T8:15:19Z</time></trkpt>
<trkpt lat="42.98588800" lon="-0.23341000"><ele></ele><time>2014-6-23T8:15:22Z</time></trkpt>
<trkpt lat="42.98589000" lon="-0.23341000"><ele></ele><time>2014-6-23T8:15:25Z</time></trkpt>
<trkpt lat="42.98589200" lon="-0.23341800"><ele></ele><time>2014-6-23T8:15:28Z</time></trkpt>
<trkpt lat="42.98588300" lon="-0.23342200"><ele></ele><time>2014-6-23T8:15:31Z</time></trkpt>
<trkpt lat="42.98586700" lon="-0.23342200"><ele></ele><time>2014-6-23T8:15:34Z</time></trkpt>
<trkpt lat="42.98587800" lon="-0.23342500"><ele></ele><time>2014-6-23T8:15:37Z</time></trkpt>
<trkpt lat="42.98589800" lon="-0.23343200"><ele></ele><time>2014-6-23T8:15:40Z</time></trkpt>
<trkpt lat="42.98589700" lon="-0.23344200"><ele></ele><time>2014-6-23T8:15:43Z</time></trkpt>
<trkpt lat="42.98588800" lon="-0.23345200"><ele></ele><time>2014-6-23T8:15:46Z</time></trkpt>
<trkpt lat="42.98587700" lon="-0.23345200"><ele></ele><time>2014-6-23T8:15:49Z</time></trkpt>
<trkpt lat="42.98587800" lon="-0.23346800"><ele></ele><time>2014-6-23T8:15:52Z</time></trkpt>
<trkpt lat="42.98588300" lon="-0.23348500"><ele></ele><time>2014-6-23T8:15:55Z</time></trkpt>
<trkpt lat="42.98588800" lon="-0.23348800"><ele></ele><time>2014-6-23T8:15:58Z</time></trkpt>
<trkpt lat="42.98590300" lon="-0.23348700"><ele></ele><time>2014-6-23T8:16:1Z</time></trkpt>
<trkpt lat="42.98591300" lon="-0.23348500"><ele></ele><time>2014-6-23T8:16:4Z</time></trkpt>
<trkpt lat="42.98590300" lon="-0.23348700"><ele></ele><time>2014-6-23T8:16:7Z</time></trkpt>
<trkpt lat="42.98590000" lon="-0.23348700"><ele></ele><time>2014-6-23T8:16:10Z</time></trkpt>
<trkpt lat="42.98589800" lon="-0.23348000"><ele></ele><time>2014-6-23T8:16:13Z</time></trkpt>
<trkpt lat="42.98589300" lon="-0.23349300"><ele></ele><time>2014-6-23T8:16:16Z</time></trkpt>
<trkpt lat="42.98589000" lon="-0.23350300"><ele></ele><time>2014-6-23T8:16:19Z</time></trkpt>
<trkpt lat="42.98588300" lon="-0.23350500"><ele></ele><time>2014-6-23T8:16:22Z</time></trkpt>
<trkpt lat="42.98589300" lon="-0.23349300"><ele></ele><time>2014-6-23T8:16:25Z</time></trkpt>
<trkpt lat="42.98588500" lon="-0.23348300"><ele></ele><time>2014-6-23T8:16:28Z</time></trkpt>
<trkpt lat="42.98587700" lon="-0.23348300"><ele></ele><time>2014-6-23T8:16:31Z</time></trkpt>
<trkpt lat="42.98586500" lon="-0.23347800"><ele></ele><time>2014-6-23T8:16:34Z</time></trkpt>
<trkpt lat="42.98585700" lon="-0.23344200"><ele></ele><time>2014-6-23T8:16:37Z</time></trkpt>
<trkpt lat="42.98587000" lon="-0.23342200"><ele></ele><time>2014-6-23T8:16:40Z</time></trkpt>
<trkpt lat="42.98588000" lon="-0.23343700"><ele></ele><time>2014-6-23T8:16:43Z</time></trkpt>
<trkpt lat="42.98589500" lon="-0.23347000"><ele></ele><time>2014-6-23T8:16:46Z</time></trkpt>
<trkpt lat="42.98588700" lon="-0.23347700"><ele></ele><time>2014-6-23T8:16:49Z</time></trkpt>
<trkpt lat="42.98587300" lon="-0.23345300"><ele></ele><time>2014-6-23T8:16:52Z</time></trkpt>
<trkpt lat="42.98586800" lon="-0.23342300"><ele></ele><time>2014-6-23T8:16:55Z</time></trkpt>
<trkpt lat="42.98587000" lon="-0.23341500"><ele></ele><time>2014-6-23T8:16:58Z</time></trkpt>
<trkpt lat="42.98585800" lon="-0.23341800"><ele></ele><time>2014-6-23T8:17:1Z</time></trkpt>
<trkpt lat="42.98585200" lon="-0.23340800"><ele></ele><time>2014-6-23T8:17:4Z</time></trkpt>
<trkpt lat="42.98585800" lon="-0.23340200"><ele></ele><time>2014-6-23T8:17:7Z</time></trkpt>
<trkpt lat="42.98586700" lon="-0.23341000"><ele></ele><time>2014-6-23T8:17:10Z</time></trkpt>
<trkpt lat="42.98587000" lon="-0.23343200"><ele></ele><time>2014-6-23T8:17:13Z</time></trkpt>
<trkpt lat="42.98587200" lon="-0.23346200"><ele></ele><time>2014-6-23T8:17:16Z</time></trkpt>
<trkpt lat="42.98586000" lon="-0.23346300"><ele></ele><time>2014-6-23T8:17:19Z</time></trkpt>
<trkpt lat="42.98585700" lon="-0.23345000"><ele></ele><time>2014-6-23T8:17:22Z</time></trkpt>
<trkpt lat="42.98586700" lon="-0.23343300"><ele></ele><time>2014-6-23T8:17:25Z</time></trkpt>
<trkpt lat="42.98586500" lon="-0.23342700"><ele></ele><time>2014-6-23T8:17:28Z</time></trkpt>
<trkpt lat="42.98586700" lon="-0.23343700"><ele></ele><time>2014-6-23T8:17:31Z</time></trkpt>
<trkpt lat="42.98586500" lon="-0.23344700"><ele></ele><time>2014-6-23T8:17:34Z</time></trkpt>
<trkpt lat="42.98587200" lon="-0.23343300"><ele></ele><time>2014-6-23T8:17:37Z</time></trkpt>
<trkpt lat="42.98587700" lon="-0.23342500"><ele></ele><time>2014-6-23T8:17:40Z</time></trkpt>
<trkpt lat="42.98587700" lon="-0.23342200"><ele></ele><time>2014-6-23T8:17:43Z</time></trkpt>
<trkpt lat="42.98587300" lon="-0.23343000"><ele></ele><time>2014-6-23T8:17:46Z</time></trkpt>
<trkpt lat="42.98587300" lon="-0.23344700"><ele></ele><time>2014-6-23T8:17:49Z</time></trkpt>
<trkpt lat="42.98587200" lon="-0.23344300"><ele></ele><time>2014-6-23T8:17:52Z</time></trkpt>
<trkpt lat="42.98587200" lon="-0.23344300"><ele></ele><time>2014-6-23T8:17:55Z</time></trkpt>
<trkpt lat="42.98587300" lon="-0.23343800"><ele></ele><time>2014-6-23T8:17:58Z</time></trkpt>
<trkpt lat="42.98587300" lon="-0.23344800"><ele></ele><time>2014-6-23T8:18:1Z</time></trkpt>
<trkpt lat="42.98587300" lon="-0.23346200"><ele></ele><time>2014-6-23T8:18:4Z</time></trkpt>
<trkpt lat="42.98587800" lon="-0.23345200"><ele></ele><time>2014-6-23T8:18:7Z</time></trkpt>
<trkpt lat="42.98588200" lon="-0.23343800"><ele></ele><time>2014-6-23T8:18:10Z</time></trkpt>
<trkpt lat="42.98588000" lon="-0.23343300"><ele></ele><time>2014-6-23T8:18:13Z</time></trkpt>
<trkpt lat="42.98587800" lon="-0.23342700"><ele></ele><time>2014-6-23T8:18:16Z</time></trkpt>
<trkpt lat="42.98587800" lon="-0.23343300"><ele></ele><time>2014-6-23T8:18:19Z</time></trkpt>
<trkpt lat="42.98587700" lon="-0.23344200"><ele></ele><time>2014-6-23T8:18:22Z</time></trkpt>
<trkpt lat="42.98587500" lon="-0.23346000"><ele></ele><time>2014-6-23T8:18:25Z</time></trkpt>
<trkpt lat="42.98587500" lon="-0.23347700"><ele></ele><time>2014-6-23T8:18:28Z</time></trkpt>
<trkpt lat="42.98587300" lon="-0.23356200"><ele></ele><time>2014-6-23T8:18:31Z</time></trkpt>
<trkpt lat="42.98589000" lon="-0.23379300"><ele></ele><time>2014-6-23T8:18:34Z</time></trkpt>
<trkpt lat="42.98586000" lon="-0.23422500"><ele></ele><time>2014-6-23T8:18:37Z</time></trkpt>
<trkpt lat="42.98574200" lon="-0.23476200"><ele></ele><time>2014-6-23T8:18:40Z</time></trkpt>
<trkpt lat="42.98553700" lon="-0.23529300"><ele></ele><time>2014-6-23T8:18:43Z</time></trkpt>
<trkpt lat="42.98552800" lon="-0.23589700"><ele></ele><time>2014-6-23T8:18:46Z</time></trkpt>
<trkpt lat="42.98560300" lon="-0.23654500"><ele></ele><time>2014-6-23T8:18:49Z</time></trkpt>
<trkpt lat="42.98565700" lon="-0.23723700"><ele></ele><time>2014-6-23T8:18:52Z</time></trkpt>
<trkpt lat="42.98581200" lon="-0.23792200"><ele></ele><time>2014-6-23T8:18:55Z</time></trkpt>
<trkpt lat="42.98604800" lon="-0.23848200"><ele></ele><time>2014-6-23T8:18:58Z</time></trkpt>
<trkpt lat="42.98638200" lon="-0.23882300"><ele></ele><time>2014-6-23T8:19:1Z</time></trkpt>
<trkpt lat="42.98663000" lon="-0.23923300"><ele></ele><time>2014-6-23T8:19:4Z</time></trkpt>
<trkpt lat="42.98666200" lon="-0.23973200"><ele></ele><time>2014-6-23T8:19:7Z</time></trkpt>
<trkpt lat="42.98659800" lon="-0.24027800"><ele></ele><time>2014-6-23T8:19:10Z</time></trkpt>
<trkpt lat="42.98646000" lon="-0.24088700"><ele></ele><time>2014-6-23T8:19:13Z</time></trkpt>
<trkpt lat="42.98639000" lon="-0.24158200"><ele></ele><time>2014-6-23T8:19:16Z</time></trkpt>
<trkpt lat="42.98632800" lon="-0.24222200"><ele></ele><time>2014-6-23T8:19:19Z</time></trkpt>
<trkpt lat="42.98629300" lon="-0.24269200"><ele></ele><time>2014-6-23T8:19:22Z</time></trkpt>
<trkpt lat="42.98626200" lon="-0.24321200"><ele></ele><time>2014-6-23T8:19:25Z</time></trkpt>
<trkpt lat="42.98623800" lon="-0.24367300"><ele></ele><time>2014-6-23T8:19:28Z</time></trkpt>
<trkpt lat="42.98624300" lon="-0.24405200"><ele></ele><time>2014-6-23T8:19:31Z</time></trkpt>
<trkpt lat="42.98625800" lon="-0.24434700"><ele></ele><time>2014-6-23T8:19:34Z</time></trkpt>
<trkpt lat="42.98627300" lon="-0.24460800"><ele></ele><time>2014-6-23T8:19:37Z</time></trkpt>
<trkpt lat="42.98629800" lon="-0.24488800"><ele></ele><time>2014-6-23T8:19:40Z</time></trkpt>
<trkpt lat="42.98633300" lon="-0.24516700"><ele></ele><time>2014-6-23T8:19:43Z</time></trkpt>
<trkpt lat="42.98635300" lon="-0.24539300"><ele></ele><time>2014-6-23T8:19:46Z</time></trkpt>
<trkpt lat="42.98634700" lon="-0.24556800"><ele></ele><time>2014-6-23T8:19:49Z</time></trkpt>
<trkpt lat="42.98633200" lon="-0.24570700"><ele></ele><time>2014-6-23T8:19:52Z</time></trkpt>
<trkpt lat="42.98628200" lon="-0.24583700"><ele></ele><time>2014-6-23T8:19:55Z</time></trkpt>
<trkpt lat="42.98622800" lon="-0.24590300"><ele></ele><time>2014-6-23T8:19:58Z</time></trkpt>
<trkpt lat="42.98615500" lon="-0.24593300"><ele></ele><time>2014-6-23T8:20:1Z</time></trkpt>
<trkpt lat="42.98607200" lon="-0.24596300"><ele></ele><time>2014-6-23T8:20:4Z</time></trkpt>
<trkpt lat="42.98600200" lon="-0.24597300"><ele></ele><time>2014-6-23T8:20:7Z</time></trkpt>
<trkpt lat="42.98594200" lon="-0.24599800"><ele></ele><time>2014-6-23T8:20:10Z</time></trkpt>
<trkpt lat="42.98587700" lon="-0.24601800"><ele></ele><time>2014-6-23T8:20:13Z</time></trkpt>
<trkpt lat="42.98582000" lon="-0.24602200"><ele></ele><time>2014-6-23T8:20:16Z</time></trkpt>
<trkpt lat="42.98582300" lon="-0.24601500"><ele></ele><time>2014-6-23T8:20:19Z</time></trkpt>
<trkpt lat="42.98582300" lon="-0.24602300"><ele></ele><time>2014-6-23T8:20:22Z</time></trkpt>
<trkpt lat="42.98582800" lon="-0.24601700"><ele></ele><time>2014-6-23T8:20:25Z</time></trkpt>
<trkpt lat="42.98582700" lon="-0.24600000"><ele></ele><time>2014-6-23T8:20:28Z</time></trkpt>
<trkpt lat="42.98582500" lon="-0.24596800"><ele></ele><time>2014-6-23T8:20:31Z</time></trkpt>
<trkpt lat="42.98582700" lon="-0.24598200"><ele></ele><time>2014-6-23T8:20:34Z</time></trkpt>
<trkpt lat="42.98582800" lon="-0.24598800"><ele></ele><time>2014-6-23T8:20:37Z</time></trkpt>
<trkpt lat="42.98581800" lon="-0.24600000"><ele></ele><time>2014-6-23T8:20:40Z</time></trkpt>
<trkpt lat="42.98581700" lon="-0.24600800"><ele></ele><time>2014-6-23T8:20:43Z</time></trkpt>
<trkpt lat="42.98581700" lon="-0.24601200"><ele></ele><time>2014-6-23T8:20:46Z</time></trkpt>
<trkpt lat="42.98581000" lon="-0.24601700"><ele></ele><time>2014-6-23T8:20:49Z</time></trkpt>
<trkpt lat="42.98581200" lon="-0.24601200"><ele></ele><time>2014-6-23T8:20:52Z</time></trkpt>
<trkpt lat="42.98580500" lon="-0.24600700"><ele></ele><time>2014-6-23T8:20:55Z</time></trkpt>
<trkpt lat="42.98580300" lon="-0.24600500"><ele></ele><time>2014-6-23T8:20:58Z</time></trkpt>
<trkpt lat="42.98580300" lon="-0.24599800"><ele></ele><time>2014-6-23T8:21:1Z</time></trkpt>
<trkpt lat="42.98579000" lon="-0.24601500"><ele></ele><time>2014-6-23T8:21:4Z</time></trkpt>
<trkpt lat="42.98578200" lon="-0.24601800"><ele></ele><time>2014-6-23T8:21:7Z</time></trkpt>
<trkpt lat="42.98569800" lon="-0.24602800"><ele></ele><time>2014-6-23T8:21:10Z</time></trkpt>
<trkpt lat="42.98560800" lon="-0.24603500"><ele></ele><time>2014-6-23T8:21:13Z</time></trkpt>
<trkpt lat="42.98552200" lon="-0.24603200"><ele></ele><time>2014-6-23T8:21:16Z</time></trkpt>
<trkpt lat="42.98542700" lon="-0.24600500"><ele></ele><time>2014-6-23T8:21:19Z</time></trkpt>
<trkpt lat="42.98533700" lon="-0.24595200"><ele></ele><time>2014-6-23T8:21:22Z</time></trkpt>
<trkpt lat="42.98527300" lon="-0.24587700"><ele></ele><time>2014-6-23T8:21:25Z</time></trkpt>
<trkpt lat="42.98522700" lon="-0.24580200"><ele></ele><time>2014-6-23T8:21:28Z</time></trkpt>
<trkpt lat="42.98517200" lon="-0.24573300"><ele></ele><time>2014-6-23T8:21:31Z</time></trkpt>
<trkpt lat="42.98510800" lon="-0.24563300"><ele></ele><time>2014-6-23T8:21:34Z</time></trkpt>
<trkpt lat="42.98505300" lon="-0.24554500"><ele></ele><time>2014-6-23T8:21:37Z</time></trkpt>
<trkpt lat="42.98500700" lon="-0.24547700"><ele></ele><time>2014-6-23T8:21:40Z</time></trkpt>
<trkpt lat="42.98496000" lon="-0.24541300"><ele></ele><time>2014-6-23T8:21:43Z</time></trkpt>
<trkpt lat="42.98490700" lon="-0.24534300"><ele></ele><time>2014-6-23T8:21:46Z</time></trkpt>
<trkpt lat="42.98485800" lon="-0.24528300"><ele></ele><time>2014-6-23T8:21:49Z</time></trkpt>
<trkpt lat="42.98480200" lon="-0.24522800"><ele></ele><time>2014-6-23T8:21:52Z</time></trkpt>
<trkpt lat="42.98474200" lon="-0.24517700"><ele></ele><time>2014-6-23T8:21:55Z</time></trkpt>
<trkpt lat="42.98470000" lon="-0.24512300"><ele></ele><time>2014-6-23T8:21:58Z</time></trkpt>
<trkpt lat="42.98464800" lon="-0.24507800"><ele></ele><time>2014-6-23T8:22:1Z</time></trkpt>
<trkpt lat="42.98460300" lon="-0.24503300"><ele></ele><time>2014-6-23T8:22:4Z</time></trkpt>
<trkpt lat="42.98453700" lon="-0.24497200"><ele></ele><time>2014-6-23T8:22:7Z</time></trkpt>
<trkpt lat="42.98446700" lon="-0.24490800"><ele></ele><time>2014-6-23T8:22:10Z</time></trkpt>
<trkpt lat="42.98441200" lon="-0.24485700"><ele></ele><time>2014-6-23T8:22:13Z</time></trkpt>
<trkpt lat="42.98433700" lon="-0.24478000"><ele></ele><time>2014-6-23T8:22:16Z</time></trkpt>
<trkpt lat="42.98422800" lon="-0.24470800"><ele></ele><time>2014-6-23T8:22:19Z</time></trkpt>
<trkpt lat="42.98413800" lon="-0.24467700"><ele></ele><time>2014-6-23T8:22:22Z</time></trkpt>
<trkpt lat="42.98406200" lon="-0.24464500"><ele></ele><time>2014-6-23T8:22:25Z</time></trkpt>
<trkpt lat="42.98399200" lon="-0.24459500"><ele></ele><time>2014-6-23T8:22:28Z</time></trkpt>
<trkpt lat="42.98392200" lon="-0.24456300"><ele></ele><time>2014-6-23T8:22:31Z</time></trkpt>
<trkpt lat="42.98386200" lon="-0.24454500"><ele></ele><time>2014-6-23T8:22:34Z</time></trkpt>
<trkpt lat="42.98378800" lon="-0.24454000"><ele></ele><time>2014-6-23T8:22:37Z</time></trkpt>
<trkpt lat="42.98372800" lon="-0.24451300"><ele></ele><time>2014-6-23T8:22:40Z</time></trkpt>
<trkpt lat="42.98366300" lon="-0.24449500"><ele></ele><time>2014-6-23T8:22:43Z</time></trkpt>
<trkpt lat="42.98360500" lon="-0.24447000"><ele></ele><time>2014-6-23T8:22:46Z</time></trkpt>
<trkpt lat="42.98354800" lon="-0.24445300"><ele></ele><time>2014-6-23T8:22:49Z</time></trkpt>
<trkpt lat="42.98348700" lon="-0.24446700"><ele></ele><time>2014-6-23T8:22:52Z</time></trkpt>
<trkpt lat="42.98342200" lon="-0.24447800"><ele></ele><time>2014-6-23T8:22:55Z</time></trkpt>
<trkpt lat="42.98334000" lon="-0.24449700"><ele></ele><time>2014-6-23T8:22:58Z</time></trkpt>
<trkpt lat="42.98325700" lon="-0.24447300"><ele></ele><time>2014-6-23T8:23:1Z</time></trkpt>
<trkpt lat="42.98319700" lon="-0.24445000"><ele></ele><time>2014-6-23T8:23:4Z</time></trkpt>
<trkpt lat="42.98314300" lon="-0.24440800"><ele></ele><time>2014-6-23T8:23:7Z</time></trkpt>
<trkpt lat="42.98305800" lon="-0.24430000"><ele></ele><time>2014-6-23T8:23:10Z</time></trkpt>
<trkpt lat="42.98293200" lon="-0.24420300"><ele></ele><time>2014-6-23T8:23:13Z</time></trkpt>
<trkpt lat="42.98284800" lon="-0.24421300"><ele></ele><time>2014-6-23T8:23:16Z</time></trkpt>
<trkpt lat="42.98277700" lon="-0.24431200"><ele></ele><time>2014-6-23T8:23:19Z</time></trkpt>
<trkpt lat="42.98272200" lon="-0.24442300"><ele></ele><time>2014-6-23T8:23:22Z</time></trkpt>
<trkpt lat="42.98266300" lon="-0.24451700"><ele></ele><time>2014-6-23T8:23:25Z</time></trkpt>
<trkpt lat="42.98259800" lon="-0.24459000"><ele></ele><time>2014-6-23T8:23:28Z</time></trkpt>
<trkpt lat="42.98253200" lon="-0.24467300"><ele></ele><time>2014-6-23T8:23:31Z</time></trkpt>
<trkpt lat="42.98245200" lon="-0.24472800"><ele></ele><time>2014-6-23T8:23:34Z</time></trkpt>
<trkpt lat="42.98237300" lon="-0.24474800"><ele></ele><time>2014-6-23T8:23:37Z</time></trkpt>
<trkpt lat="42.98229000" lon="-0.24473200"><ele></ele><time>2014-6-23T8:23:40Z</time></trkpt>
<trkpt lat="42.98218300" lon="-0.24473300"><ele></ele><time>2014-6-23T8:23:43Z</time></trkpt>
<trkpt lat="42.98210200" lon="-0.24476200"><ele></ele><time>2014-6-23T8:23:46Z</time></trkpt>
<trkpt lat="42.98203200" lon="-0.24479700"><ele></ele><time>2014-6-23T8:23:49Z</time></trkpt>
<trkpt lat="42.98196300" lon="-0.24482700"><ele></ele><time>2014-6-23T8:23:52Z</time></trkpt>
<trkpt lat="42.98191200" lon="-0.24484700"><ele></ele><time>2014-6-23T8:23:55Z</time></trkpt>
<trkpt lat="42.98183800" lon="-0.24489700"><ele></ele><time>2014-6-23T8:23:58Z</time></trkpt>
<trkpt lat="42.98176700" lon="-0.24493700"><ele></ele><time>2014-6-23T8:24:1Z</time></trkpt>
<trkpt lat="42.98169700" lon="-0.24497300"><ele></ele><time>2014-6-23T8:24:4Z</time></trkpt>
<trkpt lat="42.98162200" lon="-0.24501200"><ele></ele><time>2014-6-23T8:24:7Z</time></trkpt>
<trkpt lat="42.98153300" lon="-0.24505200"><ele></ele><time>2014-6-23T8:24:10Z</time></trkpt>
<trkpt lat="42.98147000" lon="-0.24510200"><ele></ele><time>2014-6-23T8:24:13Z</time></trkpt>
<trkpt lat="42.98141500" lon="-0.24515200"><ele></ele><time>2014-6-23T8:24:16Z</time></trkpt>
<trkpt lat="42.98135800" lon="-0.24519800"><ele></ele><time>2014-6-23T8:24:19Z</time></trkpt>
<trkpt lat="42.98129800" lon="-0.24527700"><ele></ele><time>2014-6-23T8:24:22Z</time></trkpt>
<trkpt lat="42.98125300" lon="-0.24532700"><ele></ele><time>2014-6-23T8:24:25Z</time></trkpt>
<trkpt lat="42.98121300" lon="-0.24540700"><ele></ele><time>2014-6-23T8:24:28Z</time></trkpt>
<trkpt lat="42.98116300" lon="-0.24547200"><ele></ele><time>2014-6-23T8:24:31Z</time></trkpt>
<trkpt lat="42.98111700" lon="-0.24555300"><ele></ele><time>2014-6-23T8:24:34Z</time></trkpt>
<trkpt lat="42.98109300" lon="-0.24561500"><ele></ele><time>2014-6-23T8:24:37Z</time></trkpt>
<trkpt lat="42.98103700" lon="-0.24569700"><ele></ele><time>2014-6-23T8:24:40Z</time></trkpt>
<trkpt lat="42.98098500" lon="-0.24578000"><ele></ele><time>2014-6-23T8:24:43Z</time></trkpt>
<trkpt lat="42.98094300" lon="-0.24584500"><ele></ele><time>2014-6-23T8:24:46Z</time></trkpt>
<trkpt lat="42.98089500" lon="-0.24591200"><ele></ele><time>2014-6-23T8:24:49Z</time></trkpt>
<trkpt lat="42.98085200" lon="-0.24598000"><ele></ele><time>2014-6-23T8:24:52Z</time></trkpt>
<trkpt lat="42.98079700" lon="-0.24604700"><ele></ele><time>2014-6-23T8:24:55Z</time></trkpt>
<trkpt lat="42.98076300" lon="-0.24613200"><ele></ele><time>2014-6-23T8:24:58Z</time></trkpt>
<trkpt lat="42.98072500" lon="-0.24622200"><ele></ele><time>2014-6-23T8:25:1Z</time></trkpt>
<trkpt lat="42.98069200" lon="-0.24631200"><ele></ele><time>2014-6-23T8:25:4Z</time></trkpt>
<trkpt lat="42.98066800" lon="-0.24644700"><ele></ele><time>2014-6-23T8:25:7Z</time></trkpt>
<trkpt lat="42.98066500" lon="-0.24662300"><ele></ele><time>2014-6-23T8:25:10Z</time></trkpt>
<trkpt lat="42.98065300" lon="-0.24678800"><ele></ele><time>2014-6-23T8:25:13Z</time></trkpt>
<trkpt lat="42.98066300" lon="-0.24695200"><ele></ele><time>2014-6-23T8:25:16Z</time></trkpt>
<trkpt lat="42.98065700" lon="-0.24706300"><ele></ele><time>2014-6-23T8:25:19Z</time></trkpt>
<trkpt lat="42.98062000" lon="-0.24711000"><ele></ele><time>2014-6-23T8:25:22Z</time></trkpt>
<trkpt lat="42.98058300" lon="-0.24706700"><ele></ele><time>2014-6-23T8:25:25Z</time></trkpt>
<trkpt lat="42.98058000" lon="-0.24696800"><ele></ele><time>2014-6-23T8:25:28Z</time></trkpt>
<trkpt lat="42.98055500" lon="-0.24687200"><ele></ele><time>2014-6-23T8:25:31Z</time></trkpt>
<trkpt lat="42.98056200" lon="-0.24677500"><ele></ele><time>2014-6-23T8:25:34Z</time></trkpt>
<trkpt lat="42.98055700" lon="-0.24668800"><ele></ele><time>2014-6-23T8:25:37Z</time></trkpt>
<trkpt lat="42.98054200" lon="-0.24661800"><ele></ele><time>2014-6-23T8:25:40Z</time></trkpt>
<trkpt lat="42.98052700" lon="-0.24655300"><ele></ele><time>2014-6-23T8:25:43Z</time></trkpt>
<trkpt lat="42.98049200" lon="-0.24648000"><ele></ele><time>2014-6-23T8:25:46Z</time></trkpt>
<trkpt lat="42.98050200" lon="-0.24636300"><ele></ele><time>2014-6-23T8:25:49Z</time></trkpt>
<trkpt lat="42.98048300" lon="-0.24627500"><ele></ele><time>2014-6-23T8:25:52Z</time></trkpt>
<trkpt lat="42.98047800" lon="-0.24620000"><ele></ele><time>2014-6-23T8:25:55Z</time></trkpt>
<trkpt lat="42.98048800" lon="-0.24611700"><ele></ele><time>2014-6-23T8:25:58Z</time></trkpt>
<trkpt lat="42.98050300" lon="-0.24604300"><ele></ele><time>2014-6-23T8:26:1Z</time></trkpt>
<trkpt lat="42.98051300" lon="-0.24597200"><ele></ele><time>2014-6-23T8:26:4Z</time></trkpt>
<trkpt lat="42.98053200" lon="-0.24588800"><ele></ele><time>2014-6-23T8:26:7Z</time></trkpt>
<trkpt lat="42.98056200" lon="-0.24579500"><ele></ele><time>2014-6-23T8:26:10Z</time></trkpt>
<trkpt lat="42.98059800" lon="-0.24569700"><ele></ele><time>2014-6-23T8:26:13Z</time></trkpt>
<trkpt lat="42.98064300" lon="-0.24559200"><ele></ele><time>2014-6-23T8:26:16Z</time></trkpt>
<trkpt lat="42.98068000" lon="-0.24547200"><ele></ele><time>2014-6-23T8:26:19Z</time></trkpt>
<trkpt lat="42.98069800" lon="-0.24537800"><ele></ele><time>2014-6-23T8:26:22Z</time></trkpt>
<trkpt lat="42.98069800" lon="-0.24527300"><ele></ele><time>2014-6-23T8:26:25Z</time></trkpt>
<trkpt lat="42.98065700" lon="-0.24513800"><ele></ele><time>2014-6-23T8:26:28Z</time></trkpt>
<trkpt lat="42.98061800" lon="-0.24504200"><ele></ele><time>2014-6-23T8:26:31Z</time></trkpt>
<trkpt lat="42.98060300" lon="-0.24494700"><ele></ele><time>2014-6-23T8:26:34Z</time></trkpt>
<trkpt lat="42.98061800" lon="-0.24480200"><ele></ele><time>2014-6-23T8:26:37Z</time></trkpt>
<trkpt lat="42.98067200" lon="-0.24470800"><ele></ele><time>2014-6-23T8:26:40Z</time></trkpt>
<trkpt lat="42.98075800" lon="-0.24463200"><ele></ele><time>2014-6-23T8:26:43Z</time></trkpt>
<trkpt lat="42.98083000" lon="-0.24459300"><ele></ele><time>2014-6-23T8:26:46Z</time></trkpt>
<trkpt lat="42.98089700" lon="-0.24455300"><ele></ele><time>2014-6-23T8:26:49Z</time></trkpt>
<trkpt lat="42.98095700" lon="-0.24451000"><ele></ele><time>2014-6-23T8:26:52Z</time></trkpt>
<trkpt lat="42.98101800" lon="-0.24447700"><ele></ele><time>2014-6-23T8:26:55Z</time></trkpt>
<trkpt lat="42.98107700" lon="-0.24443800"><ele></ele><time>2014-6-23T8:26:58Z</time></trkpt>
<trkpt lat="42.98117200" lon="-0.24440500"><ele></ele><time>2014-6-23T8:27:1Z</time></trkpt>
<trkpt lat="42.98123800" lon="-0.24435300"><ele></ele><time>2014-6-23T8:27:4Z</time></trkpt>
<trkpt lat="42.98129800" lon="-0.24434200"><ele></ele><time>2014-6-23T8:27:7Z</time></trkpt>
<trkpt lat="42.98135800" lon="-0.24429200"><ele></ele><time>2014-6-23T8:27:10Z</time></trkpt>
<trkpt lat="42.98140800" lon="-0.24423300"><ele></ele><time>2014-6-23T8:27:13Z</time></trkpt>
<trkpt lat="42.98142700" lon="-0.24416300"><ele></ele><time>2014-6-23T8:27:16Z</time></trkpt>
<trkpt lat="42.98144500" lon="-0.24409300"><ele></ele><time>2014-6-23T8:27:19Z</time></trkpt>
<trkpt lat="42.98145300" lon="-0.24403000"><ele></ele><time>2014-6-23T8:27:22Z</time></trkpt>
<trkpt lat="42.98145300" lon="-0.24394800"><ele></ele><time>2014-6-23T8:27:25Z</time></trkpt>
<trkpt lat="42.98145700" lon="-0.24384800"><ele></ele><time>2014-6-23T8:27:28Z</time></trkpt>
<trkpt lat="42.98147300" lon="-0.24373500"><ele></ele><time>2014-6-23T8:27:31Z</time></trkpt>
<trkpt lat="42.98150800" lon="-0.24368200"><ele></ele><time>2014-6-23T8:27:34Z</time></trkpt>
<trkpt lat="42.98155800" lon="-0.24363000"><ele></ele><time>2014-6-23T8:27:37Z</time></trkpt>
<trkpt lat="42.98160200" lon="-0.24356200"><ele></ele><time>2014-6-23T8:27:40Z</time></trkpt>
<trkpt lat="42.98163500" lon="-0.24349800"><ele></ele><time>2014-6-23T8:27:43Z</time></trkpt>
<trkpt lat="42.98167200" lon="-0.24346200"><ele></ele><time>2014-6-23T8:27:46Z</time></trkpt>
<trkpt lat="42.98171300" lon="-0.24340700"><ele></ele><time>2014-6-23T8:27:49Z</time></trkpt>
<trkpt lat="42.98175000" lon="-0.24336200"><ele></ele><time>2014-6-23T8:27:52Z</time></trkpt>
<trkpt lat="42.98181300" lon="-0.24330200"><ele></ele><time>2014-6-23T8:27:55Z</time></trkpt>
<trkpt lat="42.98188000" lon="-0.24325700"><ele></ele><time>2014-6-23T8:27:58Z</time></trkpt>
<trkpt lat="42.98193000" lon="-0.24321200"><ele></ele><time>2014-6-23T8:28:1Z</time></trkpt>
<trkpt lat="42.98198000" lon="-0.24317200"><ele></ele><time>2014-6-23T8:28:4Z</time></trkpt>
<trkpt lat="42.98204200" lon="-0.24311700"><ele></ele><time>2014-6-23T8:28:7Z</time></trkpt>
<trkpt lat="42.98209000" lon="-0.24306200"><ele></ele><time>2014-6-23T8:28:10Z</time></trkpt>
<trkpt lat="42.98213500" lon="-0.24301800"><ele></ele><time>2014-6-23T8:28:13Z</time></trkpt>
<trkpt lat="42.98217800" lon="-0.24295700"><ele></ele><time>2014-6-23T8:28:16Z</time></trkpt>
<trkpt lat="42.98221300" lon="-0.24286500"><ele></ele><time>2014-6-23T8:28:19Z</time></trkpt>
<trkpt lat="42.98225200" lon="-0.24279500"><ele></ele><time>2014-6-23T8:28:22Z</time></trkpt>
<trkpt lat="42.98228300" lon="-0.24270200"><ele></ele><time>2014-6-23T8:28:25Z</time></trkpt>
<trkpt lat="42.98230800" lon="-0.24261500"><ele></ele><time>2014-6-23T8:28:28Z</time></trkpt>
<trkpt lat="42.98231700" lon="-0.24252800"><ele></ele><time>2014-6-23T8:28:31Z</time></trkpt>
<trkpt lat="42.98234500" lon="-0.24241300"><ele></ele><time>2014-6-23T8:28:34Z</time></trkpt>
<trkpt lat="42.98237300" lon="-0.24227700"><ele></ele><time>2014-6-23T8:28:37Z</time></trkpt>
<trkpt lat="42.98240200" lon="-0.24217500"><ele></ele><time>2014-6-23T8:28:40Z</time></trkpt>
<trkpt lat="42.98246300" lon="-0.24199700"><ele></ele><time>2014-6-23T8:28:43Z</time></trkpt>
<trkpt lat="42.98251700" lon="-0.24186300"><ele></ele><time>2014-6-23T8:28:46Z</time></trkpt>
<trkpt lat="42.98254800" lon="-0.24179800"><ele></ele><time>2014-6-23T8:28:49Z</time></trkpt>
<trkpt lat="42.98259000" lon="-0.24171500"><ele></ele><time>2014-6-23T8:28:52Z</time></trkpt>
<trkpt lat="42.98263000" lon="-0.24162700"><ele></ele><time>2014-6-23T8:28:55Z</time></trkpt>
<trkpt lat="42.98266700" lon="-0.24154000"><ele></ele><time>2014-6-23T8:28:58Z</time></trkpt>
<trkpt lat="42.98271300" lon="-0.24143700"><ele></ele><time>2014-6-23T8:29:1Z</time></trkpt>
<trkpt lat="42.98274800" lon="-0.24135300"><ele></ele><time>2014-6-23T8:29:4Z</time></trkpt>
<trkpt lat="42.98279000" lon="-0.24126000"><ele></ele><time>2014-6-23T8:29:7Z</time></trkpt>
<trkpt lat="42.98279700" lon="-0.24118300"><ele></ele><time>2014-6-23T8:29:10Z</time></trkpt>
<trkpt lat="42.98282800" lon="-0.24111200"><ele></ele><time>2014-6-23T8:29:13Z</time></trkpt>
<trkpt lat="42.98280200" lon="-0.24107500"><ele></ele><time>2014-6-23T8:29:16Z</time></trkpt>
<trkpt lat="42.98278800" lon="-0.24106800"><ele></ele><time>2014-6-23T8:29:19Z</time></trkpt>
<trkpt lat="42.98278800" lon="-0.24104800"><ele></ele><time>2014-6-23T8:29:22Z</time></trkpt>
<trkpt lat="42.98279300" lon="-0.24107500"><ele></ele><time>2014-6-23T8:29:25Z</time></trkpt>
<trkpt lat="42.98279700" lon="-0.24107800"><ele></ele><time>2014-6-23T8:29:28Z</time></trkpt>
<trkpt lat="42.98279800" lon="-0.24108300"><ele></ele><time>2014-6-23T8:29:31Z</time></trkpt>
<trkpt lat="42.98279000" lon="-0.24109000"><ele></ele><time>2014-6-23T8:29:34Z</time></trkpt>
<trkpt lat="42.98277700" lon="-0.24109000"><ele></ele><time>2014-6-23T8:29:37Z</time></trkpt>
<trkpt lat="42.98276300" lon="-0.24107500"><ele></ele><time>2014-6-23T8:29:40Z</time></trkpt>
<trkpt lat="42.98277800" lon="-0.24107200"><ele></ele><time>2014-6-23T8:29:43Z</time></trkpt>
<trkpt lat="42.98279700" lon="-0.24107300"><ele></ele><time>2014-6-23T8:29:46Z</time></trkpt>
<trkpt lat="42.98280300" lon="-0.24107500"><ele></ele><time>2014-6-23T8:29:49Z</time></trkpt>
<trkpt lat="42.98281000" lon="-0.24107200"><ele></ele><time>2014-6-23T8:29:52Z</time></trkpt>
<trkpt lat="42.98280300" lon="-0.24106300"><ele></ele><time>2014-6-23T8:29:55Z</time></trkpt>
<trkpt lat="42.98279200" lon="-0.24105300"><ele></ele><time>2014-6-23T8:29:58Z</time></trkpt>
<trkpt lat="42.98280200" lon="-0.24108200"><ele></ele><time>2014-6-23T8:30:1Z</time></trkpt>
<trkpt lat="42.98279700" lon="-0.24107800"><ele></ele><time>2014-6-23T8:30:4Z</time></trkpt>
<trkpt lat="42.98280800" lon="-0.24109300"><ele></ele><time>2014-6-23T8:30:7Z</time></trkpt>
<trkpt lat="42.98281200" lon="-0.24109300"><ele></ele><time>2014-6-23T8:30:10Z</time></trkpt>
<trkpt lat="42.98281800" lon="-0.24109300"><ele></ele><time>2014-6-23T8:30:13Z</time></trkpt>
<trkpt lat="42.98282300" lon="-0.24109500"><ele></ele><time>2014-6-23T8:30:16Z</time></trkpt>
<trkpt lat="42.98282300" lon="-0.24108700"><ele></ele><time>2014-6-23T8:30:19Z</time></trkpt>
<trkpt lat="42.98282700" lon="-0.24108300"><ele></ele><time>2014-6-23T8:30:22Z</time></trkpt>
<trkpt lat="42.98282700" lon="-0.24108500"><ele></ele><time>2014-6-23T8:30:25Z</time></trkpt>
<trkpt lat="42.98281700" lon="-0.24107800"><ele></ele><time>2014-6-23T8:30:28Z</time></trkpt>
<trkpt lat="42.98282000" lon="-0.24107500"><ele></ele><time>2014-6-23T8:30:31Z</time></trkpt>
<trkpt lat="42.98281800" lon="-0.24105800"><ele></ele><time>2014-6-23T8:30:34Z</time></trkpt>
<trkpt lat="42.98281500" lon="-0.24106300"><ele></ele><time>2014-6-23T8:30:37Z</time></trkpt>
<trkpt lat="42.98281700" lon="-0.24107700"><ele></ele><time>2014-6-23T8:30:40Z</time></trkpt>
<trkpt lat="42.98281800" lon="-0.24108300"><ele></ele><time>2014-6-23T8:30:43Z</time></trkpt>
<trkpt lat="42.98280800" lon="-0.24106300"><ele></ele><time>2014-6-23T8:30:46Z</time></trkpt>
<trkpt lat="42.98279200" lon="-0.24106300"><ele></ele><time>2014-6-23T8:30:49Z</time></trkpt>
<trkpt lat="42.98278800" lon="-0.24106800"><ele></ele><time>2014-6-23T8:30:52Z</time></trkpt>
<trkpt lat="42.98280300" lon="-0.24108800"><ele></ele><time>2014-6-23T8:30:55Z</time></trkpt>
<trkpt lat="42.98281500" lon="-0.24109300"><ele></ele><time>2014-6-23T8:30:58Z</time></trkpt>
<trkpt lat="42.98282800" lon="-0.24109500"><ele></ele><time>2014-6-23T8:31:1Z</time></trkpt>
<trkpt lat="42.98282200" lon="-0.24109200"><ele></ele><time>2014-6-23T8:31:4Z</time></trkpt>
<trkpt lat="42.98281200" lon="-0.24109800"><ele></ele><time>2014-6-23T8:31:7Z</time></trkpt>
<trkpt lat="42.98281300" lon="-0.24109300"><ele></ele><time>2014-6-23T8:31:10Z</time></trkpt>
<trkpt lat="42.98281200" lon="-0.24108300"><ele></ele><time>2014-6-23T8:31:13Z</time></trkpt>
<trkpt lat="42.98281000" lon="-0.24107700"><ele></ele><time>2014-6-23T8:31:16Z</time></trkpt>
<trkpt lat="42.98281200" lon="-0.24105700"><ele></ele><time>2014-6-23T8:31:19Z</time></trkpt>
<trkpt lat="42.98281500" lon="-0.24104700"><ele></ele><time>2014-6-23T8:31:22Z</time></trkpt>
<trkpt lat="42.98280800" lon="-0.24104300"><ele></ele><time>2014-6-23T8:31:25Z</time></trkpt>
<trkpt lat="42.98280300" lon="-0.24106300"><ele></ele><time>2014-6-23T8:31:28Z</time></trkpt>
<trkpt lat="42.98280700" lon="-0.24106200"><ele></ele><time>2014-6-23T8:31:31Z</time></trkpt>
<trkpt lat="42.98280200" lon="-0.24106700"><ele></ele><time>2014-6-23T8:31:34Z</time></trkpt>
<trkpt lat="42.98279700" lon="-0.24106500"><ele></ele><time>2014-6-23T8:31:37Z</time></trkpt>
<trkpt lat="42.98279000" lon="-0.24106700"><ele></ele><time>2014-6-23T8:31:40Z</time></trkpt>
<trkpt lat="42.98278800" lon="-0.24106200"><ele></ele><time>2014-6-23T8:31:43Z</time></trkpt>
<trkpt lat="42.98279700" lon="-0.24105200"><ele></ele><time>2014-6-23T8:31:46Z</time></trkpt>
<trkpt lat="42.98280800" lon="-0.24105800"><ele></ele><time>2014-6-23T8:31:49Z</time></trkpt>
<trkpt lat="42.98281300" lon="-0.24106700"><ele></ele><time>2014-6-23T8:31:52Z</time></trkpt>
<trkpt lat="42.98281000" lon="-0.24106700"><ele></ele><time>2014-6-23T8:31:55Z</time></trkpt>
<trkpt lat="42.98279800" lon="-0.24107700"><ele></ele><time>2014-6-23T8:31:58Z</time></trkpt>
<trkpt lat="42.98279200" lon="-0.24106700"><ele></ele><time>2014-6-23T8:32:1Z</time></trkpt>
<trkpt lat="42.98279300" lon="-0.24107800"><ele></ele><time>2014-6-23T8:32:4Z</time></trkpt>
<trkpt lat="42.98279700" lon="-0.24108300"><ele></ele><time>2014-6-23T8:32:7Z</time></trkpt>
<trkpt lat="42.98279200" lon="-0.24108200"><ele></ele><time>2014-6-23T8:32:10Z</time></trkpt>
<trkpt lat="42.98280200" lon="-0.24109000"><ele></ele><time>2014-6-23T8:32:13Z</time></trkpt>
<trkpt lat="42.98283300" lon="-0.24108300"><ele></ele><time>2014-6-23T8:32:16Z</time></trkpt>
<trkpt lat="42.98284700" lon="-0.24108500"><ele></ele><time>2014-6-23T8:32:19Z</time></trkpt>
<trkpt lat="42.98284700" lon="-0.24107700"><ele></ele><time>2014-6-23T8:32:22Z</time></trkpt>
<trkpt lat="42.98284800" lon="-0.24107800"><ele></ele><time>2014-6-23T8:32:25Z</time></trkpt>
<trkpt lat="42.98285200" lon="-0.24109200"><ele></ele><time>2014-6-23T8:32:28Z</time></trkpt>
<trkpt lat="42.98284700" lon="-0.24107500"><ele></ele><time>2014-6-23T8:32:31Z</time></trkpt>
<trkpt lat="42.98284300" lon="-0.24107700"><ele></ele><time>2014-6-23T8:32:34Z</time></trkpt>
<trkpt lat="42.98284800" lon="-0.24106800"><ele></ele><time>2014-6-23T8:32:37Z</time></trkpt>
<trkpt lat="42.98284800" lon="-0.24106800"><ele></ele><time>2014-6-23T8:32:40Z</time></trkpt>
<trkpt lat="42.98285700" lon="-0.24107700"><ele></ele><time>2014-6-23T8:32:43Z</time></trkpt>
<trkpt lat="42.98285500" lon="-0.24108300"><ele></ele><time>2014-6-23T8:32:46Z</time></trkpt>
<trkpt lat="42.98282500" lon="-0.24109200"><ele></ele><time>2014-6-23T8:32:49Z</time></trkpt>
<trkpt lat="42.98283200" lon="-0.24108300"><ele></ele><time>2014-6-23T8:32:52Z</time></trkpt>
<trkpt lat="42.98282800" lon="-0.24107800"><ele></ele><time>2014-6-23T8:32:55Z</time></trkpt>
<trkpt lat="42.98283200" lon="-0.24106500"><ele></ele><time>2014-6-23T8:32:58Z</time></trkpt>
<trkpt lat="42.98283000" lon="-0.24107000"><ele></ele><time>2014-6-23T8:33:1Z</time></trkpt>
<trkpt lat="42.98281300" lon="-0.24118200"><ele></ele><time>2014-6-23T8:33:4Z</time></trkpt>
<trkpt lat="42.98280700" lon="-0.24117200"><ele></ele><time>2014-6-23T8:33:7Z</time></trkpt>
<trkpt lat="42.98280200" lon="-0.24115000"><ele></ele><time>2014-6-23T8:33:10Z</time></trkpt>
<trkpt lat="42.98281200" lon="-0.24112300"><ele></ele><time>2014-6-23T8:33:13Z</time></trkpt>
<trkpt lat="42.98281300" lon="-0.24112200"><ele></ele><time>2014-6-23T8:33:16Z</time></trkpt>
<trkpt lat="42.98281000" lon="-0.24111800"><ele></ele><time>2014-6-23T8:33:19Z</time></trkpt>
<trkpt lat="42.98280800" lon="-0.24111800"><ele></ele><time>2014-6-23T8:33:22Z</time></trkpt>
<trkpt lat="42.98280700" lon="-0.24111300"><ele></ele><time>2014-6-23T8:33:25Z</time></trkpt>
<trkpt lat="42.98280200" lon="-0.24111200"><ele></ele><time>2014-6-23T8:33:28Z</time></trkpt>
<trkpt lat="42.98280200" lon="-0.24110700"><ele></ele><time>2014-6-23T8:33:31Z</time></trkpt>
<trkpt lat="42.98280200" lon="-0.24111200"><ele></ele><time>2014-6-23T8:33:34Z</time></trkpt>
<trkpt lat="42.98280000" lon="-0.24110800"><ele></ele><time>2014-6-23T8:33:37Z</time></trkpt>
<trkpt lat="42.98280200" lon="-0.24110000"><ele></ele><time>2014-6-23T8:33:40Z</time></trkpt>
<trkpt lat="42.98279300" lon="-0.24109200"><ele></ele><time>2014-6-23T8:33:43Z</time></trkpt>
<trkpt lat="42.98278800" lon="-0.24107800"><ele></ele><time>2014-6-23T8:33:46Z</time></trkpt>
<trkpt lat="42.98278800" lon="-0.24107700"><ele></ele><time>2014-6-23T8:33:49Z</time></trkpt>
<trkpt lat="42.98278800" lon="-0.24108300"><ele></ele><time>2014-6-23T8:33:52Z</time></trkpt>
<trkpt lat="42.98279000" lon="-0.24108000"><ele></ele><time>2014-6-23T8:33:55Z</time></trkpt>
<trkpt lat="42.98279200" lon="-0.24108200"><ele></ele><time>2014-6-23T8:33:58Z</time></trkpt>
<trkpt lat="42.98279300" lon="-0.24109000"><ele></ele><time>2014-6-23T8:34:1Z</time></trkpt>
<trkpt lat="42.98279300" lon="-0.24108700"><ele></ele><time>2014-6-23T8:34:4Z</time></trkpt>
<trkpt lat="42.98279500" lon="-0.24109200"><ele></ele><time>2014-6-23T8:34:7Z</time></trkpt>
<trkpt lat="42.98277700" lon="-0.24109300"><ele></ele><time>2014-6-23T8:34:10Z</time></trkpt>
<trkpt lat="42.98278000" lon="-0.24108500"><ele></ele><time>2014-6-23T8:34:13Z</time></trkpt>
<trkpt lat="42.98278700" lon="-0.24108500"><ele></ele><time>2014-6-23T8:34:16Z</time></trkpt>
<trkpt lat="42.98278300" lon="-0.24108300"><ele></ele><time>2014-6-23T8:34:19Z</time></trkpt>
<trkpt lat="42.98278200" lon="-0.24108800"><ele></ele><time>2014-6-23T8:34:22Z</time></trkpt>
<trkpt lat="42.98278000" lon="-0.24108500"><ele></ele><time>2014-6-23T8:34:25Z</time></trkpt>
<trkpt lat="42.98278300" lon="-0.24108200"><ele></ele><time>2014-6-23T8:34:28Z</time></trkpt>
<trkpt lat="42.98278300" lon="-0.24108200"><ele></ele><time>2014-6-23T8:34:31Z</time></trkpt>
<trkpt lat="42.98278700" lon="-0.24108300"><ele></ele><time>2014-6-23T8:34:34Z</time></trkpt>
<trkpt lat="42.98279300" lon="-0.24108200"><ele></ele><time>2014-6-23T8:34:37Z</time></trkpt>
<trkpt lat="42.98278800" lon="-0.24108300"><ele></ele><time>2014-6-23T8:34:40Z</time></trkpt>
<trkpt lat="42.98278800" lon="-0.24108300"><ele></ele><time>2014-6-23T8:34:43Z</time></trkpt>
<trkpt lat="42.98278700" lon="-0.24108700"><ele></ele><time>2014-6-23T8:34:46Z</time></trkpt>
<trkpt lat="42.98278800" lon="-0.24108500"><ele></ele><time>2014-6-23T8:34:49Z</time></trkpt>
<trkpt lat="42.98278800" lon="-0.24107700"><ele></ele><time>2014-6-23T8:34:52Z</time></trkpt>
<trkpt lat="42.98138700" lon="-0.24116500"><ele></ele><time>2014-6-23T8:34:55Z</time></trkpt>
<trkpt lat="42.98124800" lon="-0.24081700"><ele></ele><time>2014-6-23T8:34:58Z</time></trkpt>
<trkpt lat="42.98128800" lon="-0.24074300"><ele></ele><time>2014-6-23T8:35:1Z</time></trkpt>
<trkpt lat="42.98100000" lon="-0.24086500"><ele></ele><time>2014-6-23T8:35:4Z</time></trkpt>
<trkpt lat="42.98090500" lon="-0.24098700"><ele></ele><time>2014-6-23T8:35:7Z</time></trkpt>
<trkpt lat="42.98082700" lon="-0.24113300"><ele></ele><time>2014-6-23T8:35:10Z</time></trkpt>
<trkpt lat="42.98073000" lon="-0.24122000"><ele></ele><time>2014-6-23T8:35:13Z</time></trkpt>
<trkpt lat="42.98058200" lon="-0.24126800"><ele></ele><time>2014-6-23T8:35:16Z</time></trkpt>
<trkpt lat="42.98044200" lon="-0.24124000"><ele></ele><time>2014-6-23T8:35:19Z</time></trkpt>
<trkpt lat="42.98028000" lon="-0.24121500"><ele></ele><time>2014-6-23T8:35:22Z</time></trkpt>
<trkpt lat="42.98008300" lon="-0.24126000"><ele></ele><time>2014-6-23T8:35:25Z</time></trkpt>
<trkpt lat="42.97997200" lon="-0.24139500"><ele></ele><time>2014-6-23T8:35:28Z</time></trkpt>
<trkpt lat="42.97974800" lon="-0.24141000"><ele></ele><time>2014-6-23T8:35:31Z</time></trkpt>
<trkpt lat="42.97952500" lon="-0.24135700"><ele></ele><time>2014-6-23T8:35:34Z</time></trkpt>
<trkpt lat="42.97931700" lon="-0.24138700"><ele></ele><time>2014-6-23T8:35:37Z</time></trkpt>
<trkpt lat="42.97909700" lon="-0.24150000"><ele></ele><time>2014-6-23T8:35:40Z</time></trkpt>
<trkpt lat="42.97886500" lon="-0.24175200"><ele></ele><time>2014-6-23T8:35:43Z</time></trkpt>
<trkpt lat="42.97860800" lon="-0.24228500"><ele></ele><time>2014-6-23T8:35:46Z</time></trkpt>
<trkpt lat="42.97838700" lon="-0.24244800"><ele></ele><time>2014-6-23T8:35:49Z</time></trkpt>
<trkpt lat="42.97813700" lon="-0.24246700"><ele></ele><time>2014-6-23T8:35:52Z</time></trkpt>
<trkpt lat="42.97779000" lon="-0.24240200"><ele></ele><time>2014-6-23T8:35:55Z</time></trkpt>
<trkpt lat="42.97756700" lon="-0.24243200"><ele></ele><time>2014-6-23T8:35:58Z</time></trkpt>
<trkpt lat="42.97735200" lon="-0.24261700"><ele></ele><time>2014-6-23T8:36:1Z</time></trkpt>
<trkpt lat="42.97714800" lon="-0.24284300"><ele></ele><time>2014-6-23T8:36:4Z</time></trkpt>
<trkpt lat="42.97690800" lon="-0.24312200"><ele></ele><time>2014-6-23T8:36:7Z</time></trkpt>
<trkpt lat="42.97666300" lon="-0.24327800"><ele></ele><time>2014-6-23T8:36:10Z</time></trkpt>
<trkpt lat="42.97644500" lon="-0.24346500"><ele></ele><time>2014-6-23T8:36:13Z</time></trkpt>
<trkpt lat="42.97624500" lon="-0.24362700"><ele></ele><time>2014-6-23T8:36:16Z</time></trkpt>
<trkpt lat="42.97606800" lon="-0.24371800"><ele></ele><time>2014-6-23T8:36:19Z</time></trkpt>
<trkpt lat="42.97598200" lon="-0.24384800"><ele></ele><time>2014-6-23T8:36:22Z</time></trkpt>
<trkpt lat="42.97587700" lon="-0.24400000"><ele></ele><time>2014-6-23T8:36:25Z</time></trkpt>
<trkpt lat="42.97572200" lon="-0.24410700"><ele></ele><time>2014-6-23T8:36:28Z</time></trkpt>
<trkpt lat="42.97542200" lon="-0.24415800"><ele></ele><time>2014-6-23T8:36:31Z</time></trkpt>
<trkpt lat="42.97529300" lon="-0.24413800"><ele></ele><time>2014-6-23T8:36:34Z</time></trkpt>
<trkpt lat="42.97523800" lon="-0.24414000"><ele></ele><time>2014-6-23T8:36:37Z</time></trkpt>
<trkpt lat="42.97520700" lon="-0.24417200"><ele></ele><time>2014-6-23T8:36:40Z</time></trkpt>
<trkpt lat="42.97514300" lon="-0.24424700"><ele></ele><time>2014-6-23T8:36:43Z</time></trkpt>
<trkpt lat="42.97505200" lon="-0.24431800"><ele></ele><time>2014-6-23T8:36:46Z</time></trkpt>
<trkpt lat="42.97499000" lon="-0.24437000"><ele></ele><time>2014-6-23T8:36:49Z</time></trkpt>
<trkpt lat="42.97484300" lon="-0.24436300"><ele></ele><time>2014-6-23T8:36:52Z</time></trkpt>
<trkpt lat="42.97463200" lon="-0.24427300"><ele></ele><time>2014-6-23T8:36:55Z</time></trkpt>
<trkpt lat="42.97458500" lon="-0.24437200"><ele></ele><time>2014-6-23T8:36:58Z</time></trkpt>
<trkpt lat="42.97399000" lon="-0.24472200"><ele></ele><time>2014-6-23T8:37:1Z</time></trkpt>
<trkpt lat="42.97395000" lon="-0.24481200"><ele></ele><time>2014-6-23T8:37:4Z</time></trkpt>
<trkpt lat="42.97401200" lon="-0.24481200"><ele></ele><time>2014-6-23T8:37:7Z</time></trkpt>
<trkpt lat="42.97408000" lon="-0.24481300"><ele></ele><time>2014-6-23T8:37:10Z</time></trkpt>
<trkpt lat="42.97413700" lon="-0.24484700"><ele></ele><time>2014-6-23T8:37:13Z</time></trkpt>
<trkpt lat="42.97420000" lon="-0.24504500"><ele></ele><time>2014-6-23T8:37:16Z</time></trkpt>
<trkpt lat="42.97425300" lon="-0.24512200"><ele></ele><time>2014-6-23T8:37:19Z</time></trkpt>
<trkpt lat="42.97431500" lon="-0.24517500"><ele></ele><time>2014-6-23T8:37:22Z</time></trkpt>
<trkpt lat="42.97337000" lon="-0.24392700"><ele></ele><time>2014-6-23T8:37:25Z</time></trkpt>
<trkpt lat="42.97324700" lon="-0.24385700"><ele></ele><time>2014-6-23T8:37:28Z</time></trkpt>
<trkpt lat="42.97177800" lon="-0.24351700"><ele></ele><time>2014-6-23T8:37:31Z</time></trkpt>
<trkpt lat="42.97166800" lon="-0.24346300"><ele></ele><time>2014-6-23T8:37:34Z</time></trkpt>
<trkpt lat="42.97175800" lon="-0.24340000"><ele></ele><time>2014-6-23T8:37:37Z</time></trkpt>
<trkpt lat="42.97178700" lon="-0.24337200"><ele></ele><time>2014-6-23T8:37:40Z</time></trkpt>
<trkpt lat="42.97180800" lon="-0.24333700"><ele></ele><time>2014-6-23T8:37:43Z</time></trkpt>
<trkpt lat="42.97170000" lon="-0.24334000"><ele></ele><time>2014-6-23T8:37:46Z</time></trkpt>
<trkpt lat="42.97153700" lon="-0.24369800"><ele></ele><time>2014-6-23T8:37:49Z</time></trkpt>
<trkpt lat="42.97174200" lon="-0.24351800"><ele></ele><time>2014-6-23T8:37:52Z</time></trkpt>
<trkpt lat="42.97163800" lon="-0.24344300"><ele></ele><time>2014-6-23T8:37:55Z</time></trkpt>
<trkpt lat="42.97141700" lon="-0.24334200"><ele></ele><time>2014-6-23T8:37:58Z</time></trkpt>
<trkpt lat="42.97123300" lon="-0.24330300"><ele></ele><time>2014-6-23T8:38:1Z</time></trkpt>
<trkpt lat="42.97102800" lon="-0.24378500"><ele></ele><time>2014-6-23T8:38:4Z</time></trkpt>
<trkpt lat="42.97090200" lon="-0.24421200"><ele></ele><time>2014-6-23T8:38:7Z</time></trkpt>
<trkpt lat="42.97086300" lon="-0.24458200"><ele></ele><time>2014-6-23T8:38:10Z</time></trkpt>
<trkpt lat="42.97083000" lon="-0.24504200"><ele></ele><time>2014-6-23T8:38:13Z</time></trkpt>
<trkpt lat="42.97075700" lon="-0.24538500"><ele></ele><time>2014-6-23T8:38:16Z</time></trkpt>
<trkpt lat="42.97034800" lon="-0.24599300"><ele></ele><time>2014-6-23T8:38:19Z</time></trkpt>
<trkpt lat="42.97050800" lon="-0.24623700"><ele></ele><time>2014-6-23T8:38:22Z</time></trkpt>
<trkpt lat="42.97063300" lon="-0.24647200"><ele></ele><time>2014-6-23T8:38:25Z</time></trkpt>
<trkpt lat="42.97067000" lon="-0.24665300"><ele></ele><time>2014-6-23T8:38:28Z</time></trkpt>
<trkpt lat="42.97069200" lon="-0.24675300"><ele></ele><time>2014-6-23T8:38:31Z</time></trkpt>
<trkpt lat="42.97066200" lon="-0.24683300"><ele></ele><time>2014-6-23T8:38:34Z</time></trkpt>
<trkpt lat="42.97062800" lon="-0.24692700"><ele></ele><time>2014-6-23T8:38:37Z</time></trkpt>
<trkpt lat="42.97050500" lon="-0.24717800"><ele></ele><time>2014-6-23T8:38:40Z</time></trkpt>
<trkpt lat="42.97021700" lon="-0.24727300"><ele></ele><time>2014-6-23T8:38:43Z</time></trkpt>
<trkpt lat="42.97009200" lon="-0.24738300"><ele></ele><time>2014-6-23T8:38:46Z</time></trkpt>
<trkpt lat="42.96992000" lon="-0.24752700"><ele></ele><time>2014-6-23T8:38:49Z</time></trkpt>
<trkpt lat="42.96978300" lon="-0.24808200"><ele></ele><time>2014-6-23T8:38:52Z</time></trkpt>
<trkpt lat="42.96960800" lon="-0.24840300"><ele></ele><time>2014-6-23T8:38:55Z</time></trkpt>
<trkpt lat="42.96868500" lon="-0.24874300"><ele></ele><time>2014-6-23T8:38:58Z</time></trkpt>
<trkpt lat="42.96838800" lon="-0.24847700"><ele></ele><time>2014-6-23T8:39:1Z</time></trkpt>
<trkpt lat="42.96802700" lon="-0.24829800"><ele></ele><time>2014-6-23T8:39:4Z</time></trkpt>
<trkpt lat="42.96772800" lon="-0.24812700"><ele></ele><time>2014-6-23T8:39:7Z</time></trkpt>
<trkpt lat="42.96741700" lon="-0.24832700"><ele></ele><time>2014-6-23T8:39:10Z</time></trkpt>
<trkpt lat="42.96745500" lon="-0.24874700"><ele></ele><time>2014-6-23T8:39:13Z</time></trkpt>
<trkpt lat="42.96734500" lon="-0.24906800"><ele></ele><time>2014-6-23T8:39:16Z</time></trkpt>
<trkpt lat="42.96719300" lon="-0.24935500"><ele></ele><time>2014-6-23T8:39:19Z</time></trkpt>
<trkpt lat="42.96691800" lon="-0.24950800"><ele></ele><time>2014-6-23T8:39:22Z</time></trkpt>
<trkpt lat="42.96668800" lon="-0.24962200"><ele></ele><time>2014-6-23T8:39:25Z</time></trkpt>
<trkpt lat="42.96652700" lon="-0.24975000"><ele></ele><time>2014-6-23T8:39:28Z</time></trkpt>
<trkpt lat="42.96627800" lon="-0.24995200"><ele></ele><time>2014-6-23T8:39:31Z</time></trkpt>
<trkpt lat="42.96608200" lon="-0.25014800"><ele></ele><time>2014-6-23T8:39:34Z</time></trkpt>
<trkpt lat="42.96595800" lon="-0.25040300"><ele></ele><time>2014-6-23T8:39:37Z</time></trkpt>
<trkpt lat="42.96586700" lon="-0.25077700"><ele></ele><time>2014-6-23T8:39:40Z</time></trkpt>
<trkpt lat="42.96574800" lon="-0.25100800"><ele></ele><time>2014-6-23T8:39:43Z</time></trkpt>
<trkpt lat="42.96575200" lon="-0.25120200"><ele></ele><time>2014-6-23T8:39:46Z</time></trkpt>
<trkpt lat="42.96593800" lon="-0.25146200"><ele></ele><time>2014-6-23T8:39:49Z</time></trkpt>
<trkpt lat="42.96590800" lon="-0.25165700"><ele></ele><time>2014-6-23T8:39:52Z</time></trkpt>
<trkpt lat="42.96589800" lon="-0.25184300"><ele></ele><time>2014-6-23T8:39:55Z</time></trkpt>
<trkpt lat="42.96587800" lon="-0.25207800"><ele></ele><time>2014-6-23T8:39:58Z</time></trkpt>
<trkpt lat="42.96579700" lon="-0.25241000"><ele></ele><time>2014-6-23T8:40:1Z</time></trkpt>
<trkpt lat="42.96558800" lon="-0.25261800"><ele></ele><time>2014-6-23T8:40:4Z</time></trkpt>
<trkpt lat="42.96532800" lon="-0.25277300"><ele></ele><time>2014-6-23T8:40:7Z</time></trkpt>
<trkpt lat="42.96512500" lon="-0.25287300"><ele></ele><time>2014-6-23T8:40:10Z</time></trkpt>
<trkpt lat="42.96489500" lon="-0.25296200"><ele></ele><time>2014-6-23T8:40:13Z</time></trkpt>
<trkpt lat="42.96464200" lon="-0.25304800"><ele></ele><time>2014-6-23T8:40:16Z</time></trkpt>
<trkpt lat="42.96447800" lon="-0.25308000"><ele></ele><time>2014-6-23T8:40:19Z</time></trkpt>
<trkpt lat="42.96430200" lon="-0.25310500"><ele></ele><time>2014-6-23T8:40:22Z</time></trkpt>
<trkpt lat="42.96388700" lon="-0.25286700"><ele></ele><time>2014-6-23T8:40:25Z</time></trkpt>
<trkpt lat="42.96368200" lon="-0.25256300"><ele></ele><time>2014-6-23T8:40:28Z</time></trkpt>
<trkpt lat="42.96405500" lon="-0.25206200"><ele></ele><time>2014-6-23T8:40:31Z</time></trkpt>
<trkpt lat="42.96392300" lon="-0.25237700"><ele></ele><time>2014-6-23T8:40:34Z</time></trkpt>
<trkpt lat="42.96382500" lon="-0.25275200"><ele></ele><time>2014-6-23T8:40:37Z</time></trkpt>
<trkpt lat="42.96374000" lon="-0.25294700"><ele></ele><time>2014-6-23T8:40:40Z</time></trkpt>
<trkpt lat="42.96359500" lon="-0.25312000"><ele></ele><time>2014-6-23T8:40:43Z</time></trkpt>
<trkpt lat="42.96334800" lon="-0.25333800"><ele></ele><time>2014-6-23T8:40:46Z</time></trkpt>
<trkpt lat="42.96317200" lon="-0.25367700"><ele></ele><time>2014-6-23T8:40:49Z</time></trkpt>
<trkpt lat="42.96307800" lon="-0.25380200"><ele></ele><time>2014-6-23T8:40:52Z</time></trkpt>
<trkpt lat="42.96302700" lon="-0.25389700"><ele></ele><time>2014-6-23T8:40:55Z</time></trkpt>
<trkpt lat="42.96306000" lon="-0.25392700"><ele></ele><time>2014-6-23T8:40:58Z</time></trkpt>
<trkpt lat="42.96309000" lon="-0.25395700"><ele></ele><time>2014-6-23T8:41:1Z</time></trkpt>
<trkpt lat="42.96311700" lon="-0.25397200"><ele></ele><time>2014-6-23T8:41:4Z</time></trkpt>
<trkpt lat="42.96310000" lon="-0.25402200"><ele></ele><time>2014-6-23T8:41:7Z</time></trkpt>
<trkpt lat="42.96305500" lon="-0.25412300"><ele></ele><time>2014-6-23T8:41:10Z</time></trkpt>
<trkpt lat="42.96301300" lon="-0.25428200"><ele></ele><time>2014-6-23T8:41:13Z</time></trkpt>
<trkpt lat="42.96297300" lon="-0.25448700"><ele></ele><time>2014-6-23T8:41:16Z</time></trkpt>
<trkpt lat="42.96288700" lon="-0.25436800"><ele></ele><time>2014-6-23T8:41:19Z</time></trkpt>
<trkpt lat="42.96289300" lon="-0.25390200"><ele></ele><time>2014-6-23T8:41:22Z</time></trkpt>
<trkpt lat="42.96292800" lon="-0.25357700"><ele></ele><time>2014-6-23T8:41:25Z</time></trkpt>
<trkpt lat="42.96272000" lon="-0.25384800"><ele></ele><time>2014-6-23T8:41:28Z</time></trkpt>
<trkpt lat="42.96257800" lon="-0.25420000"><ele></ele><time>2014-6-23T8:41:31Z</time></trkpt>
<trkpt lat="42.96254200" lon="-0.25459800"><ele></ele><time>2014-6-23T8:41:34Z</time></trkpt>
<trkpt lat="42.96256700" lon="-0.25509700"><ele></ele><time>2014-6-23T8:41:37Z</time></trkpt>
<trkpt lat="42.96239000" lon="-0.25552200"><ele></ele><time>2014-6-23T8:41:40Z</time></trkpt>
<trkpt lat="42.96228700" lon="-0.25587800"><ele></ele><time>2014-6-23T8:41:43Z</time></trkpt>
<trkpt lat="42.96216500" lon="-0.25619700"><ele></ele><time>2014-6-23T8:41:46Z</time></trkpt>
<trkpt lat="42.96195700" lon="-0.25651300"><ele></ele><time>2014-6-23T8:41:49Z</time></trkpt>
<trkpt lat="42.96171000" lon="-0.25654300"><ele></ele><time>2014-6-23T8:41:52Z</time></trkpt>
<trkpt lat="42.96165700" lon="-0.25647200"><ele></ele><time>2014-6-23T8:41:55Z</time></trkpt>
<trkpt lat="42.96158000" lon="-0.25642200"><ele></ele><time>2014-6-23T8:41:58Z</time></trkpt>
<trkpt lat="42.96150700" lon="-0.25651300"><ele></ele><time>2014-6-23T8:42:1Z</time></trkpt>
<trkpt lat="42.96148200" lon="-0.25665000"><ele></ele><time>2014-6-23T8:42:4Z</time></trkpt>
<trkpt lat="42.96147200" lon="-0.25675300"><ele></ele><time>2014-6-23T8:42:7Z</time></trkpt>
<trkpt lat="42.96147200" lon="-0.25690300"><ele></ele><time>2014-6-23T8:42:10Z</time></trkpt>
<trkpt lat="42.96146200" lon="-0.25706800"><ele></ele><time>2014-6-23T8:42:13Z</time></trkpt>
<trkpt lat="42.96146800" lon="-0.25717500"><ele></ele><time>2014-6-23T8:42:16Z</time></trkpt>
<trkpt lat="42.96146300" lon="-0.25726800"><ele></ele><time>2014-6-23T8:42:19Z</time></trkpt>
<trkpt lat="42.96145300" lon="-0.25737200"><ele></ele><time>2014-6-23T8:42:22Z</time></trkpt>
<trkpt lat="42.96144000" lon="-0.25743700"><ele></ele><time>2014-6-23T8:42:25Z</time></trkpt>
<trkpt lat="42.96143300" lon="-0.25748700"><ele></ele><time>2014-6-23T8:42:28Z</time></trkpt>
<trkpt lat="42.96150500" lon="-0.25754200"><ele></ele><time>2014-6-23T8:42:31Z</time></trkpt>
<trkpt lat="42.96154700" lon="-0.25766700"><ele></ele><time>2014-6-23T8:42:34Z</time></trkpt>
<trkpt lat="42.96155700" lon="-0.25774800"><ele></ele><time>2014-6-23T8:42:37Z</time></trkpt>
<trkpt lat="42.96159700" lon="-0.25783700"><ele></ele><time>2014-6-23T8:42:40Z</time></trkpt>
<trkpt lat="42.96161700" lon="-0.25790700"><ele></ele><time>2014-6-23T8:42:43Z</time></trkpt>
<trkpt lat="42.96161300" lon="-0.25800200"><ele></ele><time>2014-6-23T8:42:46Z</time></trkpt>
<trkpt lat="42.96168200" lon="-0.25805700"><ele></ele><time>2014-6-23T8:42:49Z</time></trkpt>
<trkpt lat="42.96171300" lon="-0.25812800"><ele></ele><time>2014-6-23T8:42:52Z</time></trkpt>
<trkpt lat="42.96172300" lon="-0.25823700"><ele></ele><time>2014-6-23T8:42:55Z</time></trkpt>
<trkpt lat="42.96173700" lon="-0.25838800"><ele></ele><time>2014-6-23T8:42:58Z</time></trkpt>
<trkpt lat="42.96172200" lon="-0.25860500"><ele></ele><time>2014-6-23T8:43:1Z</time></trkpt>
<trkpt lat="42.96172700" lon="-0.25881000"><ele></ele><time>2014-6-23T8:43:4Z</time></trkpt>
<trkpt lat="42.96172000" lon="-0.25899000"><ele></ele><time>2014-6-23T8:43:7Z</time></trkpt>
<trkpt lat="42.96170800" lon="-0.25912800"><ele></ele><time>2014-6-23T8:43:10Z</time></trkpt>
<trkpt lat="42.96167300" lon="-0.25922200"><ele></ele><time>2014-6-23T8:43:13Z</time></trkpt>
<trkpt lat="42.96162700" lon="-0.25931000"><ele></ele><time>2014-6-23T8:43:16Z</time></trkpt>
<trkpt lat="42.96158200" lon="-0.25937300"><ele></ele><time>2014-6-23T8:43:19Z</time></trkpt>
<trkpt lat="42.96152200" lon="-0.25944800"><ele></ele><time>2014-6-23T8:43:22Z</time></trkpt>
<trkpt lat="42.96143500" lon="-0.25951700"><ele></ele><time>2014-6-23T8:43:25Z</time></trkpt>
<trkpt lat="42.96136500" lon="-0.25960000"><ele></ele><time>2014-6-23T8:43:28Z</time></trkpt>
<trkpt lat="42.96130800" lon="-0.25969000"><ele></ele><time>2014-6-23T8:43:31Z</time></trkpt>
<trkpt lat="42.96127800" lon="-0.25976700"><ele></ele><time>2014-6-23T8:43:34Z</time></trkpt>
<trkpt lat="42.96126800" lon="-0.25984300"><ele></ele><time>2014-6-23T8:43:37Z</time></trkpt>
<trkpt lat="42.96126200" lon="-0.25995200"><ele></ele><time>2014-6-23T8:43:40Z</time></trkpt>
<trkpt lat="42.96123800" lon="-0.26005200"><ele></ele><time>2014-6-23T8:43:43Z</time></trkpt>
<trkpt lat="42.96122200" lon="-0.26013700"><ele></ele><time>2014-6-23T8:43:46Z</time></trkpt>
<trkpt lat="42.96120500" lon="-0.26020700"><ele></ele><time>2014-6-23T8:43:49Z</time></trkpt>
<trkpt lat="42.96119200" lon="-0.26029000"><ele></ele><time>2014-6-23T8:43:52Z</time></trkpt>
<trkpt lat="42.96117800" lon="-0.26037200"><ele></ele><time>2014-6-23T8:43:55Z</time></trkpt>
<trkpt lat="42.96114300" lon="-0.26043800"><ele></ele><time>2014-6-23T8:43:58Z</time></trkpt>
<trkpt lat="42.96111700" lon="-0.26050200"><ele></ele><time>2014-6-23T8:44:1Z</time></trkpt>
<trkpt lat="42.96109800" lon="-0.26056700"><ele></ele><time>2014-6-23T8:44:4Z</time></trkpt>
<trkpt lat="42.96108300" lon="-0.26072200"><ele></ele><time>2014-6-23T8:44:7Z</time></trkpt>
<trkpt lat="42.96099300" lon="-0.26100200"><ele></ele><time>2014-6-23T8:44:10Z</time></trkpt>
<trkpt lat="42.96079000" lon="-0.26124300"><ele></ele><time>2014-6-23T8:44:13Z</time></trkpt>
<trkpt lat="42.96068800" lon="-0.26129700"><ele></ele><time>2014-6-23T8:44:16Z</time></trkpt>
<trkpt lat="42.96061800" lon="-0.26131700"><ele></ele><time>2014-6-23T8:44:19Z</time></trkpt>
<trkpt lat="42.96058500" lon="-0.26121700"><ele></ele><time>2014-6-23T8:44:22Z</time></trkpt>
<trkpt lat="42.96060300" lon="-0.26112300"><ele></ele><time>2014-6-23T8:44:25Z</time></trkpt>
<trkpt lat="42.96061300" lon="-0.26110300"><ele></ele><time>2014-6-23T8:44:28Z</time></trkpt>
<trkpt lat="42.96063800" lon="-0.26107700"><ele></ele><time>2014-6-23T8:44:31Z</time></trkpt>
<trkpt lat="42.96061800" lon="-0.26108700"><ele></ele><time>2014-6-23T8:44:34Z</time></trkpt>
<trkpt lat="42.96060000" lon="-0.26097500"><ele></ele><time>2014-6-23T8:44:37Z</time></trkpt>
<trkpt lat="42.96058700" lon="-0.26090300"><ele></ele><time>2014-6-23T8:44:40Z</time></trkpt>
<trkpt lat="42.96058800" lon="-0.26084200"><ele></ele><time>2014-6-23T8:44:43Z</time></trkpt>
<trkpt lat="42.96059200" lon="-0.26075300"><ele></ele><time>2014-6-23T8:44:46Z</time></trkpt>
<trkpt lat="42.96051500" lon="-0.26070000"><ele></ele><time>2014-6-23T8:44:49Z</time></trkpt>
<trkpt lat="42.96043300" lon="-0.26073700"><ele></ele><time>2014-6-23T8:44:52Z</time></trkpt>
<trkpt lat="42.96042200" lon="-0.26084200"><ele></ele><time>2014-6-23T8:44:55Z</time></trkpt>
<trkpt lat="42.96055700" lon="-0.26084500"><ele></ele><time>2014-6-23T8:44:58Z</time></trkpt>
<trkpt lat="42.96064800" lon="-0.26084500"><ele></ele><time>2014-6-23T8:45:1Z</time></trkpt>
<trkpt lat="42.96073000" lon="-0.26084300"><ele></ele><time>2014-6-23T8:45:4Z</time></trkpt>
<trkpt lat="42.96072300" lon="-0.26066700"><ele></ele><time>2014-6-23T8:45:7Z</time></trkpt>
<trkpt lat="42.96069800" lon="-0.26061800"><ele></ele><time>2014-6-23T8:45:10Z</time></trkpt>
<trkpt lat="42.96070800" lon="-0.26061800"><ele></ele><time>2014-6-23T8:45:13Z</time></trkpt>
<trkpt lat="42.96070500" lon="-0.26061800"><ele></ele><time>2014-6-23T8:45:16Z</time></trkpt>
<trkpt lat="42.96070000" lon="-0.26061800"><ele></ele><time>2014-6-23T8:45:19Z</time></trkpt>
<trkpt lat="42.96069700" lon="-0.26062500"><ele></ele><time>2014-6-23T8:45:22Z</time></trkpt>
<trkpt lat="42.96069800" lon="-0.26061800"><ele></ele><time>2014-6-23T8:45:25Z</time></trkpt>
<trkpt lat="42.96069800" lon="-0.26059000"><ele></ele><time>2014-6-23T8:45:28Z</time></trkpt>
<trkpt lat="42.96069800" lon="-0.26056700"><ele></ele><time>2014-6-23T8:45:31Z</time></trkpt>
<trkpt lat="42.96070700" lon="-0.26056000"><ele></ele><time>2014-6-23T8:45:34Z</time></trkpt>
<trkpt lat="42.96069300" lon="-0.26058200"><ele></ele><time>2014-6-23T8:45:37Z</time></trkpt>
<trkpt lat="42.96068800" lon="-0.26061700"><ele></ele><time>2014-6-23T8:45:40Z</time></trkpt>
<trkpt lat="42.96069200" lon="-0.26062700"><ele></ele><time>2014-6-23T8:45:43Z</time></trkpt>
<trkpt lat="42.96069800" lon="-0.26061200"><ele></ele><time>2014-6-23T8:45:46Z</time></trkpt>
<trkpt lat="42.96070300" lon="-0.26064700"><ele></ele><time>2014-6-23T8:45:49Z</time></trkpt>
<trkpt lat="42.96070300" lon="-0.26065800"><ele></ele><time>2014-6-23T8:45:52Z</time></trkpt>
<trkpt lat="42.96071000" lon="-0.26062700"><ele></ele><time>2014-6-23T8:45:55Z</time></trkpt>
<trkpt lat="42.96071300" lon="-0.26060800"><ele></ele><time>2014-6-23T8:45:58Z</time></trkpt>
<trkpt lat="42.96070500" lon="-0.26059500"><ele></ele><time>2014-6-23T8:46:1Z</time></trkpt>
<trkpt lat="42.96070000" lon="-0.26059800"><ele></ele><time>2014-6-23T8:46:4Z</time></trkpt>
<trkpt lat="42.96074000" lon="-0.26058500"><ele></ele><time>2014-6-23T8:46:7Z</time></trkpt>
<trkpt lat="42.96075300" lon="-0.26058000"><ele></ele><time>2014-6-23T8:46:10Z</time></trkpt>
<trkpt lat="42.96077800" lon="-0.26056300"><ele></ele><time>2014-6-23T8:46:13Z</time></trkpt>
<trkpt lat="42.96076300" lon="-0.26064200"><ele></ele><time>2014-6-23T8:46:16Z</time></trkpt>
<trkpt lat="42.96071800" lon="-0.26062200"><ele></ele><time>2014-6-23T8:46:19Z</time></trkpt>
<trkpt lat="42.96071500" lon="-0.26062200"><ele></ele><time>2014-6-23T8:46:22Z</time></trkpt>
<trkpt lat="42.96069800" lon="-0.26060300"><ele></ele><time>2014-6-23T8:46:25Z</time></trkpt>
<trkpt lat="42.96070700" lon="-0.26060200"><ele></ele><time>2014-6-23T8:46:28Z</time></trkpt>
<trkpt lat="42.96070300" lon="-0.26056300"><ele></ele><time>2014-6-23T8:46:31Z</time></trkpt>
<trkpt lat="42.96067300" lon="-0.26055500"><ele></ele><time>2014-6-23T8:46:34Z</time></trkpt>
<trkpt lat="42.96065300" lon="-0.26054700"><ele></ele><time>2014-6-23T8:46:37Z</time></trkpt>
<trkpt lat="42.96062000" lon="-0.26054300"><ele></ele><time>2014-6-23T8:46:40Z</time></trkpt>
<trkpt lat="42.96058300" lon="-0.26052300"><ele></ele><time>2014-6-23T8:46:43Z</time></trkpt>
<trkpt lat="42.96056000" lon="-0.26052800"><ele></ele><time>2014-6-23T8:46:46Z</time></trkpt>
<trkpt lat="42.96057500" lon="-0.26054200"><ele></ele><time>2014-6-23T8:46:49Z</time></trkpt>
<trkpt lat="42.96060200" lon="-0.26052800"><ele></ele><time>2014-6-23T8:46:52Z</time></trkpt>
<trkpt lat="42.96059700" lon="-0.26056000"><ele></ele><time>2014-6-23T8:46:55Z</time></trkpt>
<trkpt lat="42.96057300" lon="-0.26055700"><ele></ele><time>2014-6-23T8:46:58Z</time></trkpt>
<trkpt lat="42.96057800" lon="-0.26055700"><ele></ele><time>2014-6-23T8:47:1Z</time></trkpt>
<trkpt lat="42.96057000" lon="-0.26052000"><ele></ele><time>2014-6-23T8:47:4Z</time></trkpt>
<trkpt lat="42.96053300" lon="-0.26051700"><ele></ele><time>2014-6-23T8:47:7Z</time></trkpt>
<trkpt lat="42.96053200" lon="-0.26050300"><ele></ele><time>2014-6-23T8:47:10Z</time></trkpt>
<trkpt lat="42.96053300" lon="-0.26050000"><ele></ele><time>2014-6-23T8:47:13Z</time></trkpt>
<trkpt lat="42.96053200" lon="-0.26049300"><ele></ele><time>2014-6-23T8:47:16Z</time></trkpt>
<trkpt lat="42.96051700" lon="-0.26048800"><ele></ele><time>2014-6-23T8:47:19Z</time></trkpt>
<trkpt lat="42.96053200" lon="-0.26049700"><ele></ele><time>2014-6-23T8:47:22Z</time></trkpt>
<trkpt lat="42.96053800" lon="-0.26049500"><ele></ele><time>2014-6-23T8:47:25Z</time></trkpt>
<trkpt lat="42.96051500" lon="-0.26048200"><ele></ele><time>2014-6-23T8:47:28Z</time></trkpt>
<trkpt lat="42.96052800" lon="-0.26049800"><ele></ele><time>2014-6-23T8:47:31Z</time></trkpt>
<trkpt lat="42.96054200" lon="-0.26050500"><ele></ele><time>2014-6-23T8:47:34Z</time></trkpt>
<trkpt lat="42.96055300" lon="-0.26052200"><ele></ele><time>2014-6-23T8:47:37Z</time></trkpt>
<trkpt lat="42.96055300" lon="-0.26053700"><ele></ele><time>2014-6-23T8:47:40Z</time></trkpt>
<trkpt lat="42.96055000" lon="-0.26053000"><ele></ele><time>2014-6-23T8:47:43Z</time></trkpt>
<trkpt lat="42.96054200" lon="-0.26052200"><ele></ele><time>2014-6-23T8:47:46Z</time></trkpt>
<trkpt lat="42.96051800" lon="-0.26050800"><ele></ele><time>2014-6-23T8:47:49Z</time></trkpt>
<trkpt lat="42.96049300" lon="-0.26049000"><ele></ele><time>2014-6-23T8:47:52Z</time></trkpt>
<trkpt lat="42.96046800" lon="-0.26047300"><ele></ele><time>2014-6-23T8:47:55Z</time></trkpt>
<trkpt lat="42.96045800" lon="-0.26046800"><ele></ele><time>2014-6-23T8:47:58Z</time></trkpt>
<trkpt lat="42.96047200" lon="-0.26046800"><ele></ele><time>2014-6-23T8:48:1Z</time></trkpt>
<trkpt lat="42.96047200" lon="-0.26046300"><ele></ele><time>2014-6-23T8:48:4Z</time></trkpt>
<trkpt lat="42.96047800" lon="-0.26046500"><ele></ele><time>2014-6-23T8:48:7Z</time></trkpt>
<trkpt lat="42.96049700" lon="-0.26047500"><ele></ele><time>2014-6-23T8:48:10Z</time></trkpt>
<trkpt lat="42.96050300" lon="-0.26048000"><ele></ele><time>2014-6-23T8:48:13Z</time></trkpt>
<trkpt lat="42.96050300" lon="-0.26048800"><ele></ele><time>2014-6-23T8:48:16Z</time></trkpt>
<trkpt lat="42.96049300" lon="-0.26048700"><ele></ele><time>2014-6-23T8:48:19Z</time></trkpt>
<trkpt lat="42.96053700" lon="-0.26050000"><ele></ele><time>2014-6-23T8:48:22Z</time></trkpt>
<trkpt lat="42.96056300" lon="-0.26051700"><ele></ele><time>2014-6-23T8:48:25Z</time></trkpt>
<trkpt lat="42.96057700" lon="-0.26050000"><ele></ele><time>2014-6-23T8:48:28Z</time></trkpt>
<trkpt lat="42.96056300" lon="-0.26055000"><ele></ele><time>2014-6-23T8:48:31Z</time></trkpt>
<trkpt lat="42.96065800" lon="-0.26053300"><ele></ele><time>2014-6-23T8:48:34Z</time></trkpt>
<trkpt lat="42.96060800" lon="-0.26056300"><ele></ele><time>2014-6-23T8:48:37Z</time></trkpt>
<trkpt lat="42.96065000" lon="-0.26057500"><ele></ele><time>2014-6-23T8:48:40Z</time></trkpt>
<trkpt lat="42.96063000" lon="-0.26054800"><ele></ele><time>2014-6-23T8:48:43Z</time></trkpt>
<trkpt lat="42.96057700" lon="-0.26053800"><ele></ele><time>2014-6-23T8:48:46Z</time></trkpt>
<trkpt lat="42.96073500" lon="-0.26060300"><ele></ele><time>2014-6-23T8:48:49Z</time></trkpt>
<trkpt lat="42.96068700" lon="-0.26053300"><ele></ele><time>2014-6-23T8:48:52Z</time></trkpt>
<trkpt lat="42.96067200" lon="-0.26054700"><ele></ele><time>2014-6-23T8:48:55Z</time></trkpt>
<trkpt lat="42.96066700" lon="-0.26054300"><ele></ele><time>2014-6-23T8:48:58Z</time></trkpt>
<trkpt lat="42.96066800" lon="-0.26054300"><ele></ele><time>2014-6-23T8:49:1Z</time></trkpt>
<trkpt lat="42.96065700" lon="-0.26053500"><ele></ele><time>2014-6-23T8:49:4Z</time></trkpt>
<trkpt lat="42.96065300" lon="-0.26053200"><ele></ele><time>2014-6-23T8:49:7Z</time></trkpt>
<trkpt lat="42.96066000" lon="-0.26053200"><ele></ele><time>2014-6-23T8:49:10Z</time></trkpt>
<trkpt lat="42.96067300" lon="-0.26053500"><ele></ele><time>2014-6-23T8:49:13Z</time></trkpt>
<trkpt lat="42.96066700" lon="-0.26052800"><ele></ele><time>2014-6-23T8:49:16Z</time></trkpt>
<trkpt lat="42.96066200" lon="-0.26052300"><ele></ele><time>2014-6-23T8:49:19Z</time></trkpt>
<trkpt lat="42.96065300" lon="-0.26051800"><ele></ele><time>2014-6-23T8:49:22Z</time></trkpt>
<trkpt lat="42.96064700" lon="-0.26051500"><ele></ele><time>2014-6-23T8:49:25Z</time></trkpt>
<trkpt lat="42.96064800" lon="-0.26052000"><ele></ele><time>2014-6-23T8:49:28Z</time></trkpt>
<trkpt lat="42.96065200" lon="-0.26052500"><ele></ele><time>2014-6-23T8:49:31Z</time></trkpt>
<trkpt lat="42.96065500" lon="-0.26052300"><ele></ele><time>2014-6-23T8:49:34Z</time></trkpt>
<trkpt lat="42.96065700" lon="-0.26053200"><ele></ele><time>2014-6-23T8:49:37Z</time></trkpt>
<trkpt lat="42.96066000" lon="-0.26053300"><ele></ele><time>2014-6-23T8:49:40Z</time></trkpt>
<trkpt lat="42.96066500" lon="-0.26053200"><ele></ele><time>2014-6-23T8:49:43Z</time></trkpt>
<trkpt lat="42.96067200" lon="-0.26053500"><ele></ele><time>2014-6-23T8:49:46Z</time></trkpt>
<trkpt lat="42.96067700" lon="-0.26053800"><ele></ele><time>2014-6-23T8:49:49Z</time></trkpt>
<trkpt lat="42.96069200" lon="-0.26055800"><ele></ele><time>2014-6-23T8:49:52Z</time></trkpt>
<trkpt lat="42.96068700" lon="-0.26055300"><ele></ele><time>2014-6-23T8:49:55Z</time></trkpt>
<trkpt lat="42.96069000" lon="-0.26055300"><ele></ele><time>2014-6-23T8:49:58Z</time></trkpt>
<trkpt lat="42.96068800" lon="-0.26055800"><ele></ele><time>2014-6-23T8:50:1Z</time></trkpt>
<trkpt lat="42.96068800" lon="-0.26055300"><ele></ele><time>2014-6-23T8:50:4Z</time></trkpt>
<trkpt lat="42.96069700" lon="-0.26054800"><ele></ele><time>2014-6-23T8:50:7Z</time></trkpt>
<trkpt lat="42.96069800" lon="-0.26054700"><ele></ele><time>2014-6-23T8:50:10Z</time></trkpt>
<trkpt lat="42.96069800" lon="-0.26054500"><ele></ele><time>2014-6-23T8:50:13Z</time></trkpt>
<trkpt lat="42.96070200" lon="-0.26054300"><ele></ele><time>2014-6-23T8:50:16Z</time></trkpt>
<trkpt lat="42.96069700" lon="-0.26054300"><ele></ele><time>2014-6-23T8:50:19Z</time></trkpt>
<trkpt lat="42.96070200" lon="-0.26055200"><ele></ele><time>2014-6-23T8:50:22Z</time></trkpt>
<trkpt lat="42.96070800" lon="-0.26056200"><ele></ele><time>2014-6-23T8:50:25Z</time></trkpt>
<trkpt lat="42.96071800" lon="-0.26056700"><ele></ele><time>2014-6-23T8:50:28Z</time></trkpt>
<trkpt lat="42.96071200" lon="-0.26056700"><ele></ele><time>2014-6-23T8:50:31Z</time></trkpt>
<trkpt lat="42.96071800" lon="-0.26057700"><ele></ele><time>2014-6-23T8:50:34Z</time></trkpt>
<trkpt lat="42.96072800" lon="-0.26059200"><ele></ele><time>2014-6-23T8:50:37Z</time></trkpt>
<trkpt lat="42.96072800" lon="-0.26059200"><ele></ele><time>2014-6-23T8:50:40Z</time></trkpt>
<trkpt lat="42.96073700" lon="-0.26058800"><ele></ele><time>2014-6-23T8:50:43Z</time></trkpt>
<trkpt lat="42.96073700" lon="-0.26058200"><ele></ele><time>2014-6-23T8:50:46Z</time></trkpt>
<trkpt lat="42.96073200" lon="-0.26057200"><ele></ele><time>2014-6-23T8:50:49Z</time></trkpt>
<trkpt lat="42.96072800" lon="-0.26056700"><ele></ele><time>2014-6-23T8:50:52Z</time></trkpt>
<trkpt lat="42.96072800" lon="-0.26056300"><ele></ele><time>2014-6-23T8:50:55Z</time></trkpt>
<trkpt lat="42.96073000" lon="-0.26057000"><ele></ele><time>2014-6-23T8:50:58Z</time></trkpt>
<trkpt lat="42.96070500" lon="-0.26059700"><ele></ele><time>2014-6-23T8:51:1Z</time></trkpt>
<trkpt lat="42.96071700" lon="-0.26060300"><ele></ele><time>2014-6-23T8:51:4Z</time></trkpt>
<trkpt lat="42.96071700" lon="-0.26059200"><ele></ele><time>2014-6-23T8:51:7Z</time></trkpt>
<trkpt lat="42.96071000" lon="-0.26058000"><ele></ele><time>2014-6-23T8:51:10Z</time></trkpt>
<trkpt lat="42.96071800" lon="-0.26057200"><ele></ele><time>2014-6-23T8:51:13Z</time></trkpt>
<trkpt lat="42.96072300" lon="-0.26057200"><ele></ele><time>2014-6-23T8:51:16Z</time></trkpt>
<trkpt lat="42.96072300" lon="-0.26057500"><ele></ele><time>2014-6-23T8:51:19Z</time></trkpt>
<trkpt lat="42.96073800" lon="-0.26058300"><ele></ele><time>2014-6-23T8:51:22Z</time></trkpt>
<trkpt lat="42.96074300" lon="-0.26058700"><ele></ele><time>2014-6-23T8:51:25Z</time></trkpt>
<trkpt lat="42.96074000" lon="-0.26059300"><ele></ele><time>2014-6-23T8:51:28Z</time></trkpt>
<trkpt lat="42.96074200" lon="-0.26059800"><ele></ele><time>2014-6-23T8:51:31Z</time></trkpt>
<trkpt lat="42.96074700" lon="-0.26059700"><ele></ele><time>2014-6-23T8:51:34Z</time></trkpt>
<trkpt lat="42.96073700" lon="-0.26056700"><ele></ele><time>2014-6-23T8:51:37Z</time></trkpt>
<trkpt lat="42.96073800" lon="-0.26057200"><ele></ele><time>2014-6-23T8:51:40Z</time></trkpt>
<trkpt lat="42.96073200" lon="-0.26058200"><ele></ele><time>2014-6-23T8:51:43Z</time></trkpt>
<trkpt lat="42.96070700" lon="-0.26061000"><ele></ele><time>2014-6-23T8:51:46Z</time></trkpt>
<trkpt lat="42.96071200" lon="-0.26061200"><ele></ele><time>2014-6-23T8:51:49Z</time></trkpt>
<trkpt lat="42.96073500" lon="-0.26057800"><ele></ele><time>2014-6-23T8:51:52Z</time></trkpt>
<trkpt lat="42.96071300" lon="-0.26058300"><ele></ele><time>2014-6-23T8:51:55Z</time></trkpt>
<trkpt lat="42.96071300" lon="-0.26057800"><ele></ele><time>2014-6-23T8:51:58Z</time></trkpt>
<trkpt lat="42.96072500" lon="-0.26057200"><ele></ele><time>2014-6-23T8:52:1Z</time></trkpt>
<trkpt lat="42.96073200" lon="-0.26057200"><ele></ele><time>2014-6-23T8:52:4Z</time></trkpt>
<trkpt lat="42.96075500" lon="-0.26059300"><ele></ele><time>2014-6-23T8:52:7Z</time></trkpt>
<trkpt lat="42.96076300" lon="-0.26057700"><ele></ele><time>2014-6-23T8:52:10Z</time></trkpt>
<trkpt lat="42.96073200" lon="-0.26056200"><ele></ele><time>2014-6-23T8:52:13Z</time></trkpt>
<trkpt lat="42.96071800" lon="-0.26055300"><ele></ele><time>2014-6-23T8:52:16Z</time></trkpt>
<trkpt lat="42.96071700" lon="-0.26056200"><ele></ele><time>2014-6-23T8:52:19Z</time></trkpt>
<trkpt lat="42.96071800" lon="-0.26056700"><ele></ele><time>2014-6-23T8:52:22Z</time></trkpt>
<trkpt lat="42.96072200" lon="-0.26056200"><ele></ele><time>2014-6-23T8:52:25Z</time></trkpt>
<trkpt lat="42.96073000" lon="-0.26054800"><ele></ele><time>2014-6-23T8:52:28Z</time></trkpt>
<trkpt lat="42.96074200" lon="-0.26054200"><ele></ele><time>2014-6-23T8:52:31Z</time></trkpt>
<trkpt lat="42.96068700" lon="-0.26053800"><ele></ele><time>2014-6-23T8:52:34Z</time></trkpt>
<trkpt lat="42.96064800" lon="-0.26054200"><ele></ele><time>2014-6-23T8:52:37Z</time></trkpt>
<trkpt lat="42.96064200" lon="-0.26054700"><ele></ele><time>2014-6-23T8:52:40Z</time></trkpt>
<trkpt lat="42.96063300" lon="-0.26054200"><ele></ele><time>2014-6-23T8:52:43Z</time></trkpt>
<trkpt lat="42.96061500" lon="-0.26054800"><ele></ele><time>2014-6-23T8:52:46Z</time></trkpt>
<trkpt lat="42.96061000" lon="-0.26054800"><ele></ele><time>2014-6-23T8:52:49Z</time></trkpt>
<trkpt lat="42.96059700" lon="-0.26054700"><ele></ele><time>2014-6-23T8:52:52Z</time></trkpt>
<trkpt lat="42.96059700" lon="-0.26054200"><ele></ele><time>2014-6-23T8:52:55Z</time></trkpt>
<trkpt lat="42.96061700" lon="-0.26053200"><ele></ele><time>2014-6-23T8:52:58Z</time></trkpt>
<trkpt lat="42.96073500" lon="-0.26052800"><ele></ele><time>2014-6-23T8:53:1Z</time></trkpt>
<trkpt lat="42.96073700" lon="-0.26053200"><ele></ele><time>2014-6-23T8:53:4Z</time></trkpt>
<trkpt lat="42.96071300" lon="-0.26054200"><ele></ele><time>2014-6-23T8:53:7Z</time></trkpt>
<trkpt lat="42.96068300" lon="-0.26055700"><ele></ele><time>2014-6-23T8:53:10Z</time></trkpt>
<trkpt lat="42.96068000" lon="-0.26055800"><ele></ele><time>2014-6-23T8:53:13Z</time></trkpt>
<trkpt lat="42.96068500" lon="-0.26056700"><ele></ele><time>2014-6-23T8:53:16Z</time></trkpt>
<trkpt lat="42.96068200" lon="-0.26056800"><ele></ele><time>2014-6-23T8:53:19Z</time></trkpt>
<trkpt lat="42.96069800" lon="-0.26056800"><ele></ele><time>2014-6-23T8:53:22Z</time></trkpt>
<trkpt lat="42.96072500" lon="-0.26057200"><ele></ele><time>2014-6-23T8:53:25Z</time></trkpt>
<trkpt lat="42.96072200" lon="-0.26057200"><ele></ele><time>2014-6-23T8:53:28Z</time></trkpt>
<trkpt lat="42.96072300" lon="-0.26057200"><ele></ele><time>2014-6-23T8:53:31Z</time></trkpt>
<trkpt lat="42.96071300" lon="-0.26057200"><ele></ele><time>2014-6-23T8:53:34Z</time></trkpt>
<trkpt lat="42.96070300" lon="-0.26056800"><ele></ele><time>2014-6-23T8:53:37Z</time></trkpt>
<trkpt lat="42.96069700" lon="-0.26056200"><ele></ele><time>2014-6-23T8:53:40Z</time></trkpt>
<trkpt lat="42.96071500" lon="-0.26056700"><ele></ele><time>2014-6-23T8:53:43Z</time></trkpt>
<trkpt lat="42.96071300" lon="-0.26056700"><ele></ele><time>2014-6-23T8:53:46Z</time></trkpt>
<trkpt lat="42.96071500" lon="-0.26057000"><ele></ele><time>2014-6-23T8:53:49Z</time></trkpt>
<trkpt lat="42.96070800" lon="-0.26056800"><ele></ele><time>2014-6-23T8:53:52Z</time></trkpt>
<trkpt lat="42.96069500" lon="-0.26056000"><ele></ele><time>2014-6-23T8:53:55Z</time></trkpt>
<trkpt lat="42.96068500" lon="-0.26055200"><ele></ele><time>2014-6-23T8:53:58Z</time></trkpt>
<trkpt lat="42.96067800" lon="-0.26054500"><ele></ele><time>2014-6-23T8:54:1Z</time></trkpt>
<trkpt lat="42.96067700" lon="-0.26054800"><ele></ele><time>2014-6-23T8:54:4Z</time></trkpt>
<trkpt lat="42.96066800" lon="-0.26054500"><ele></ele><time>2014-6-23T8:54:7Z</time></trkpt>
<trkpt lat="42.96067200" lon="-0.26054300"><ele></ele><time>2014-6-23T8:54:10Z</time></trkpt>
<trkpt lat="42.96067300" lon="-0.26054200"><ele></ele><time>2014-6-23T8:54:13Z</time></trkpt>
<trkpt lat="42.96066500" lon="-0.26054000"><ele></ele><time>2014-6-23T8:54:16Z</time></trkpt>
<trkpt lat="42.96066200" lon="-0.26053800"><ele></ele><time>2014-6-23T8:54:19Z</time></trkpt>
<trkpt lat="42.96066300" lon="-0.26053700"><ele></ele><time>2014-6-23T8:54:22Z</time></trkpt>
<trkpt lat="42.96066000" lon="-0.26053700"><ele></ele><time>2014-6-23T8:54:25Z</time></trkpt>
<trkpt lat="42.96066300" lon="-0.26054200"><ele></ele><time>2014-6-23T8:54:28Z</time></trkpt>
<trkpt lat="42.96067300" lon="-0.26055000"><ele></ele><time>2014-6-23T8:54:31Z</time></trkpt>
<trkpt lat="42.96068000" lon="-0.26055000"><ele></ele><time>2014-6-23T8:54:34Z</time></trkpt>
<trkpt lat="42.96068300" lon="-0.26055300"><ele></ele><time>2014-6-23T8:54:37Z</time></trkpt>
<trkpt lat="42.96068700" lon="-0.26055300"><ele></ele><time>2014-6-23T8:54:40Z</time></trkpt>
<trkpt lat="42.96067700" lon="-0.26054000"><ele></ele><time>2014-6-23T8:54:43Z</time></trkpt>
<trkpt lat="42.96066200" lon="-0.26053200"><ele></ele><time>2014-6-23T8:54:46Z</time></trkpt>
<trkpt lat="42.96065300" lon="-0.26052800"><ele></ele><time>2014-6-23T8:54:49Z</time></trkpt>
<trkpt lat="42.96064200" lon="-0.26052200"><ele></ele><time>2014-6-23T8:54:52Z</time></trkpt>
<trkpt lat="42.96063200" lon="-0.26051000"><ele></ele><time>2014-6-23T8:54:55Z</time></trkpt>
<trkpt lat="42.96063000" lon="-0.26051300"><ele></ele><time>2014-6-23T8:54:58Z</time></trkpt>
<trkpt lat="42.96064200" lon="-0.26051800"><ele></ele><time>2014-6-23T8:55:1Z</time></trkpt>
<trkpt lat="42.96063800" lon="-0.26051800"><ele></ele><time>2014-6-23T8:55:4Z</time></trkpt>
<trkpt lat="42.96062800" lon="-0.26051700"><ele></ele><time>2014-6-23T8:55:7Z</time></trkpt>
<trkpt lat="42.96062800" lon="-0.26052200"><ele></ele><time>2014-6-23T8:55:10Z</time></trkpt>
<trkpt lat="42.96062700" lon="-0.26051800"><ele></ele><time>2014-6-23T8:55:13Z</time></trkpt>
<trkpt lat="42.96062800" lon="-0.26051300"><ele></ele><time>2014-6-23T8:55:16Z</time></trkpt>
<trkpt lat="42.96063700" lon="-0.26051800"><ele></ele><time>2014-6-23T8:55:19Z</time></trkpt>
<trkpt lat="42.96065000" lon="-0.26051700"><ele></ele><time>2014-6-23T8:55:22Z</time></trkpt>
<trkpt lat="42.96065700" lon="-0.26051700"><ele></ele><time>2014-6-23T8:55:25Z</time></trkpt>
<trkpt lat="42.96067200" lon="-0.26052700"><ele></ele><time>2014-6-23T8:55:28Z</time></trkpt>
<trkpt lat="42.96067200" lon="-0.26053000"><ele></ele><time>2014-6-23T8:55:31Z</time></trkpt>
<trkpt lat="42.96067700" lon="-0.26053200"><ele></ele><time>2014-6-23T8:55:34Z</time></trkpt>
<trkpt lat="42.96067000" lon="-0.26053200"><ele></ele><time>2014-6-23T8:55:37Z</time></trkpt>
<trkpt lat="42.96067200" lon="-0.26054200"><ele></ele><time>2014-6-23T8:55:40Z</time></trkpt>
<trkpt lat="42.96069200" lon="-0.26054700"><ele></ele><time>2014-6-23T8:55:43Z</time></trkpt>
<trkpt lat="42.96070700" lon="-0.26055200"><ele></ele><time>2014-6-23T8:55:46Z</time></trkpt>
<trkpt lat="42.96071300" lon="-0.26056200"><ele></ele><time>2014-6-23T8:55:49Z</time></trkpt>
<trkpt lat="42.96071800" lon="-0.26057300"><ele></ele><time>2014-6-23T8:55:52Z</time></trkpt>
<trkpt lat="42.96071500" lon="-0.26058700"><ele></ele><time>2014-6-23T8:55:55Z</time></trkpt>
<trkpt lat="42.96071800" lon="-0.26059200"><ele></ele><time>2014-6-23T8:55:58Z</time></trkpt>
<trkpt lat="42.96071000" lon="-0.26058200"><ele></ele><time>2014-6-23T8:56:1Z</time></trkpt>
<trkpt lat="42.96070200" lon="-0.26057300"><ele></ele><time>2014-6-23T8:56:4Z</time></trkpt>
<trkpt lat="42.96069300" lon="-0.26056700"><ele></ele><time>2014-6-23T8:56:7Z</time></trkpt>
<trkpt lat="42.96068700" lon="-0.26057200"><ele></ele><time>2014-6-23T8:56:10Z</time></trkpt>
<trkpt lat="42.96067500" lon="-0.26057200"><ele></ele><time>2014-6-23T8:56:13Z</time></trkpt>
<trkpt lat="42.96067000" lon="-0.26055700"><ele></ele><time>2014-6-23T8:56:16Z</time></trkpt>
<trkpt lat="42.96066700" lon="-0.26055000"><ele></ele><time>2014-6-23T8:56:19Z</time></trkpt>
<trkpt lat="42.96066300" lon="-0.26053300"><ele></ele><time>2014-6-23T8:56:22Z</time></trkpt>
<trkpt lat="42.96066300" lon="-0.26053500"><ele></ele><time>2014-6-23T8:56:25Z</time></trkpt>
<trkpt lat="42.96065800" lon="-0.26053700"><ele></ele><time>2014-6-23T8:56:28Z</time></trkpt>
<trkpt lat="42.96066300" lon="-0.26053300"><ele></ele><time>2014-6-23T8:56:31Z</time></trkpt>
<trkpt lat="42.96067800" lon="-0.26053300"><ele></ele><time>2014-6-23T8:56:34Z</time></trkpt>
<trkpt lat="42.96068800" lon="-0.26054300"><ele></ele><time>2014-6-23T8:56:37Z</time></trkpt>
<trkpt lat="42.96068800" lon="-0.26053000"><ele></ele><time>2014-6-23T8:56:40Z</time></trkpt>
<trkpt lat="42.96068300" lon="-0.26050700"><ele></ele><time>2014-6-23T8:56:43Z</time></trkpt>
<trkpt lat="42.96067800" lon="-0.26048200"><ele></ele><time>2014-6-23T8:56:46Z</time></trkpt>
<trkpt lat="42.96067200" lon="-0.26048200"><ele></ele><time>2014-6-23T8:56:49Z</time></trkpt>
<trkpt lat="42.96064700" lon="-0.26049200"><ele></ele><time>2014-6-23T8:56:52Z</time></trkpt>
<trkpt lat="42.96064800" lon="-0.26048800"><ele></ele><time>2014-6-23T8:56:55Z</time></trkpt>
<trkpt lat="42.96066700" lon="-0.26049200"><ele></ele><time>2014-6-23T8:56:58Z</time></trkpt>
<trkpt lat="42.96068000" lon="-0.26049000"><ele></ele><time>2014-6-23T8:57:1Z</time></trkpt>
<trkpt lat="42.96067500" lon="-0.26049000"><ele></ele><time>2014-6-23T8:57:4Z</time></trkpt>
<trkpt lat="42.96067000" lon="-0.26049300"><ele></ele><time>2014-6-23T8:57:7Z</time></trkpt>
<trkpt lat="42.96067300" lon="-0.26048800"><ele></ele><time>2014-6-23T8:57:10Z</time></trkpt>
<trkpt lat="42.96066700" lon="-0.26047300"><ele></ele><time>2014-6-23T8:57:13Z</time></trkpt>
<trkpt lat="42.96064800" lon="-0.26051800"><ele></ele><time>2014-6-23T8:57:16Z</time></trkpt>
<trkpt lat="42.96065200" lon="-0.26053800"><ele></ele><time>2014-6-23T8:57:19Z</time></trkpt>
<trkpt lat="42.96066800" lon="-0.26054800"><ele></ele><time>2014-6-23T8:57:22Z</time></trkpt>
<trkpt lat="42.96068700" lon="-0.26055500"><ele></ele><time>2014-6-23T8:57:25Z</time></trkpt>
<trkpt lat="42.96068700" lon="-0.26055700"><ele></ele><time>2014-6-23T8:57:28Z</time></trkpt>
<trkpt lat="42.96068500" lon="-0.26055300"><ele></ele><time>2014-6-23T8:57:31Z</time></trkpt>
<trkpt lat="42.96063200" lon="-0.26053700"><ele></ele><time>2014-6-23T8:57:34Z</time></trkpt>
<trkpt lat="42.96063800" lon="-0.26054000"><ele></ele><time>2014-6-23T8:57:37Z</time></trkpt>
<trkpt lat="42.96062300" lon="-0.26053700"><ele></ele><time>2014-6-23T8:57:40Z</time></trkpt>
<trkpt lat="42.96062200" lon="-0.26053200"><ele></ele><time>2014-6-23T8:57:43Z</time></trkpt>
<trkpt lat="42.96062000" lon="-0.26052700"><ele></ele><time>2014-6-23T8:57:46Z</time></trkpt>
<trkpt lat="42.96063000" lon="-0.26053200"><ele></ele><time>2014-6-23T8:57:49Z</time></trkpt>
<trkpt lat="42.96063700" lon="-0.26053700"><ele></ele><time>2014-6-23T8:57:52Z</time></trkpt>
<trkpt lat="42.96067500" lon="-0.26053800"><ele></ele><time>2014-6-23T8:57:55Z</time></trkpt>
<trkpt lat="42.96068500" lon="-0.26052800"><ele></ele><time>2014-6-23T8:57:58Z</time></trkpt>
<trkpt lat="42.96062500" lon="-0.26060700"><ele></ele><time>2014-6-23T8:58:1Z</time></trkpt>
<trkpt lat="42.96062200" lon="-0.26052800"><ele></ele><time>2014-6-23T8:58:4Z</time></trkpt>
<trkpt lat="42.96066000" lon="-0.26051700"><ele></ele><time>2014-6-23T8:58:7Z</time></trkpt>
<trkpt lat="42.96065700" lon="-0.26050300"><ele></ele><time>2014-6-23T8:58:10Z</time></trkpt>
<trkpt lat="42.96063000" lon="-0.26050300"><ele></ele><time>2014-6-23T8:58:13Z</time></trkpt>
<trkpt lat="42.96063300" lon="-0.26050500"><ele></ele><time>2014-6-23T8:58:16Z</time></trkpt>
<trkpt lat="42.96063300" lon="-0.26051500"><ele></ele><time>2014-6-23T8:58:19Z</time></trkpt>
<trkpt lat="42.96062200" lon="-0.26050300"><ele></ele><time>2014-6-23T8:58:22Z</time></trkpt>
<trkpt lat="42.96057300" lon="-0.26048700"><ele></ele><time>2014-6-23T8:58:25Z</time></trkpt>
<trkpt lat="42.96055800" lon="-0.26048200"><ele></ele><time>2014-6-23T8:58:28Z</time></trkpt>
<trkpt lat="42.96053300" lon="-0.26048300"><ele></ele><time>2014-6-23T8:58:31Z</time></trkpt>
<trkpt lat="42.96050800" lon="-0.26047800"><ele></ele><time>2014-6-23T8:58:34Z</time></trkpt>
<trkpt lat="42.96053500" lon="-0.26044700"><ele></ele><time>2014-6-23T8:58:37Z</time></trkpt>
<trkpt lat="42.96057700" lon="-0.26052800"><ele></ele><time>2014-6-23T8:58:40Z</time></trkpt>
<trkpt lat="42.96061200" lon="-0.26055200"><ele></ele><time>2014-6-23T8:58:43Z</time></trkpt>
<trkpt lat="42.96058200" lon="-0.26053200"><ele></ele><time>2014-6-23T8:58:46Z</time></trkpt>
<trkpt lat="42.96058200" lon="-0.26052800"><ele></ele><time>2014-6-23T8:58:49Z</time></trkpt>
<trkpt lat="42.96056300" lon="-0.26051200"><ele></ele><time>2014-6-23T8:58:52Z</time></trkpt>
<trkpt lat="42.96056200" lon="-0.26052200"><ele></ele><time>2014-6-23T8:58:55Z</time></trkpt>
<trkpt lat="42.96054700" lon="-0.26052300"><ele></ele><time>2014-6-23T8:58:58Z</time></trkpt>
<trkpt lat="42.96057200" lon="-0.26050300"><ele></ele><time>2014-6-23T8:59:1Z</time></trkpt>
<trkpt lat="42.96056500" lon="-0.26048800"><ele></ele><time>2014-6-23T8:59:4Z</time></trkpt>
<trkpt lat="42.96056500" lon="-0.26049800"><ele></ele><time>2014-6-23T8:59:7Z</time></trkpt>
<trkpt lat="42.96055700" lon="-0.26049700"><ele></ele><time>2014-6-23T8:59:10Z</time></trkpt>
<trkpt lat="42.96054800" lon="-0.26049000"><ele></ele><time>2014-6-23T8:59:13Z</time></trkpt>
<trkpt lat="42.96055300" lon="-0.26048700"><ele></ele><time>2014-6-23T8:59:16Z</time></trkpt>
<trkpt lat="42.96059700" lon="-0.26048000"><ele></ele><time>2014-6-23T8:59:19Z</time></trkpt>
<trkpt lat="42.96059700" lon="-0.26047700"><ele></ele><time>2014-6-23T8:59:22Z</time></trkpt>
<trkpt lat="42.96059800" lon="-0.26049200"><ele></ele><time>2014-6-23T8:59:25Z</time></trkpt>
<trkpt lat="42.96057300" lon="-0.26048700"><ele></ele><time>2014-6-23T8:59:28Z</time></trkpt>
<trkpt lat="42.96055000" lon="-0.26050200"><ele></ele><time>2014-6-23T8:59:31Z</time></trkpt>
<trkpt lat="42.96057200" lon="-0.26053700"><ele></ele><time>2014-6-23T8:59:34Z</time></trkpt>
<trkpt lat="42.96058200" lon="-0.26055800"><ele></ele><time>2014-6-23T8:59:37Z</time></trkpt>
<trkpt lat="42.96061700" lon="-0.26055300"><ele></ele><time>2014-6-23T8:59:40Z</time></trkpt>
<trkpt lat="42.96062700" lon="-0.26055800"><ele></ele><time>2014-6-23T8:59:43Z</time></trkpt>
<trkpt lat="42.96064000" lon="-0.26058000"><ele></ele><time>2014-6-23T8:59:46Z</time></trkpt>
<trkpt lat="42.96065800" lon="-0.26058300"><ele></ele><time>2014-6-23T8:59:49Z</time></trkpt>
<trkpt lat="42.96064500" lon="-0.26058200"><ele></ele><time>2014-6-23T8:59:52Z</time></trkpt>
<trkpt lat="42.96062800" lon="-0.26057200"><ele></ele><time>2014-6-23T8:59:55Z</time></trkpt>
<trkpt lat="42.96063000" lon="-0.26056300"><ele></ele><time>2014-6-23T8:59:58Z</time></trkpt>
<trkpt lat="42.96061800" lon="-0.26056300"><ele></ele><time>2014-6-23T9:0:1Z</time></trkpt>
<trkpt lat="42.96061500" lon="-0.26056300"><ele></ele><time>2014-6-23T9:0:4Z</time></trkpt>
<trkpt lat="42.96061700" lon="-0.26057300"><ele></ele><time>2014-6-23T9:0:7Z</time></trkpt>
<trkpt lat="42.96065200" lon="-0.26056300"><ele></ele><time>2014-6-23T9:0:10Z</time></trkpt>
<trkpt lat="42.96069700" lon="-0.26055000"><ele></ele><time>2014-6-23T9:0:13Z</time></trkpt>
<trkpt lat="42.96068200" lon="-0.26056700"><ele></ele><time>2014-6-23T9:0:16Z</time></trkpt>
<trkpt lat="42.96067200" lon="-0.26057300"><ele></ele><time>2014-6-23T9:0:19Z</time></trkpt>
<trkpt lat="42.96065700" lon="-0.26066700"><ele></ele><time>2014-6-23T9:0:22Z</time></trkpt>
<trkpt lat="42.96066500" lon="-0.26078800"><ele></ele><time>2014-6-23T9:0:25Z</time></trkpt>
<trkpt lat="42.96070000" lon="-0.26072200"><ele></ele><time>2014-6-23T9:0:28Z</time></trkpt>
<trkpt lat="42.96067800" lon="-0.26063700"><ele></ele><time>2014-6-23T9:0:31Z</time></trkpt>
<trkpt lat="42.96065500" lon="-0.26060700"><ele></ele><time>2014-6-23T9:0:34Z</time></trkpt>
<trkpt lat="42.96066800" lon="-0.26066500"><ele></ele><time>2014-6-23T9:0:37Z</time></trkpt>
<trkpt lat="42.96063200" lon="-0.26073000"><ele></ele><time>2014-6-23T9:0:40Z</time></trkpt>
<trkpt lat="42.96066200" lon="-0.26077800"><ele></ele><time>2014-6-23T9:0:43Z</time></trkpt>
<trkpt lat="42.96070200" lon="-0.26068700"><ele></ele><time>2014-6-23T9:0:46Z</time></trkpt>
<trkpt lat="42.96069200" lon="-0.26060000"><ele></ele><time>2014-6-23T9:0:49Z</time></trkpt>
<trkpt lat="42.96066000" lon="-0.26061800"><ele></ele><time>2014-6-23T9:0:52Z</time></trkpt>
<trkpt lat="42.96067800" lon="-0.26072000"><ele></ele><time>2014-6-23T9:0:55Z</time></trkpt>
<trkpt lat="42.96072200" lon="-0.26080700"><ele></ele><time>2014-6-23T9:0:58Z</time></trkpt>
<trkpt lat="42.96073700" lon="-0.26090000"><ele></ele><time>2014-6-23T9:1:1Z</time></trkpt>
<trkpt lat="42.96078500" lon="-0.26094700"><ele></ele><time>2014-6-23T9:1:4Z</time></trkpt>
<trkpt lat="42.96078500" lon="-0.26103200"><ele></ele><time>2014-6-23T9:1:7Z</time></trkpt>
<trkpt lat="42.96079500" lon="-0.26110300"><ele></ele><time>2014-6-23T9:1:10Z</time></trkpt>
<trkpt lat="42.96079000" lon="-0.26120800"><ele></ele><time>2014-6-23T9:1:13Z</time></trkpt>
<trkpt lat="42.96077200" lon="-0.26129200"><ele></ele><time>2014-6-23T9:1:16Z</time></trkpt>
<trkpt lat="42.96078000" lon="-0.26134200"><ele></ele><time>2014-6-23T9:1:19Z</time></trkpt>
<trkpt lat="42.96081200" lon="-0.26137700"><ele></ele><time>2014-6-23T9:1:22Z</time></trkpt>
<trkpt lat="42.96083700" lon="-0.26142200"><ele></ele><time>2014-6-23T9:1:25Z</time></trkpt>
<trkpt lat="42.96083500" lon="-0.26147300"><ele></ele><time>2014-6-23T9:1:28Z</time></trkpt>
<trkpt lat="42.96082700" lon="-0.26150000"><ele></ele><time>2014-6-23T9:1:31Z</time></trkpt>
<trkpt lat="42.96083700" lon="-0.26149700"><ele></ele><time>2014-6-23T9:1:34Z</time></trkpt>
<trkpt lat="42.96083200" lon="-0.26148300"><ele></ele><time>2014-6-23T9:1:37Z</time></trkpt>
<trkpt lat="42.96082000" lon="-0.26146800"><ele></ele><time>2014-6-23T9:1:40Z</time></trkpt>
<trkpt lat="42.96081800" lon="-0.26148500"><ele></ele><time>2014-6-23T9:1:43Z</time></trkpt>
<trkpt lat="42.96083000" lon="-0.26147000"><ele></ele><time>2014-6-23T9:1:46Z</time></trkpt>
<trkpt lat="42.96083200" lon="-0.26147500"><ele></ele><time>2014-6-23T9:1:49Z</time></trkpt>
<trkpt lat="42.96081800" lon="-0.26148200"><ele></ele><time>2014-6-23T9:1:52Z</time></trkpt>
<trkpt lat="42.96080300" lon="-0.26148800"><ele></ele><time>2014-6-23T9:1:55Z</time></trkpt>
<trkpt lat="42.96081700" lon="-0.26148300"><ele></ele><time>2014-6-23T9:1:58Z</time></trkpt>
<trkpt lat="42.96083000" lon="-0.26148500"><ele></ele><time>2014-6-23T9:2:1Z</time></trkpt>
<trkpt lat="42.96082300" lon="-0.26148800"><ele></ele><time>2014-6-23T9:2:4Z</time></trkpt>
<trkpt lat="42.96080700" lon="-0.26147500"><ele></ele><time>2014-6-23T9:2:7Z</time></trkpt>
<trkpt lat="42.96080700" lon="-0.26149300"><ele></ele><time>2014-6-23T9:2:10Z</time></trkpt>
<trkpt lat="42.96080300" lon="-0.26149700"><ele></ele><time>2014-6-23T9:2:13Z</time></trkpt>
<trkpt lat="42.96080500" lon="-0.26149700"><ele></ele><time>2014-6-23T9:2:16Z</time></trkpt>
<trkpt lat="42.96081300" lon="-0.26151700"><ele></ele><time>2014-6-23T9:2:19Z</time></trkpt>
<trkpt lat="42.96083300" lon="-0.26149700"><ele></ele><time>2014-6-23T9:2:22Z</time></trkpt>
<trkpt lat="42.96084700" lon="-0.26149300"><ele></ele><time>2014-6-23T9:2:25Z</time></trkpt>
<trkpt lat="42.96084300" lon="-0.26148300"><ele></ele><time>2014-6-23T9:2:28Z</time></trkpt>
<trkpt lat="42.96083800" lon="-0.26149700"><ele></ele><time>2014-6-23T9:2:31Z</time></trkpt>
<trkpt lat="42.96083200" lon="-0.26150700"><ele></ele><time>2014-6-23T9:2:34Z</time></trkpt>
<trkpt lat="42.96083800" lon="-0.26148000"><ele></ele><time>2014-6-23T9:2:37Z</time></trkpt>
<trkpt lat="42.96084300" lon="-0.26146800"><ele></ele><time>2014-6-23T9:2:40Z</time></trkpt>
<trkpt lat="42.96083000" lon="-0.26148200"><ele></ele><time>2014-6-23T9:2:43Z</time></trkpt>
<trkpt lat="42.96082300" lon="-0.26147300"><ele></ele><time>2014-6-23T9:2:46Z</time></trkpt>
<trkpt lat="42.96071800" lon="-0.26151800"><ele></ele><time>2014-6-23T9:2:49Z</time></trkpt>
<trkpt lat="42.96072200" lon="-0.26151200"><ele></ele><time>2014-6-23T9:2:52Z</time></trkpt>
<trkpt lat="42.96072200" lon="-0.26153700"><ele></ele><time>2014-6-23T9:2:55Z</time></trkpt>
<trkpt lat="42.96073700" lon="-0.26151500"><ele></ele><time>2014-6-23T9:2:58Z</time></trkpt>
<trkpt lat="42.96074300" lon="-0.26149500"><ele></ele><time>2014-6-23T9:3:1Z</time></trkpt>
<trkpt lat="42.96074300" lon="-0.26148300"><ele></ele><time>2014-6-23T9:3:4Z</time></trkpt>
<trkpt lat="42.96071300" lon="-0.26145300"><ele></ele><time>2014-6-23T9:3:7Z</time></trkpt>
<trkpt lat="42.96079700" lon="-0.26144000"><ele></ele><time>2014-6-23T9:3:10Z</time></trkpt>
<trkpt lat="42.96079700" lon="-0.26145000"><ele></ele><time>2014-6-23T9:3:13Z</time></trkpt>
<trkpt lat="42.96077500" lon="-0.26145700"><ele></ele><time>2014-6-23T9:3:16Z</time></trkpt>
<trkpt lat="42.96068800" lon="-0.26148700"><ele></ele><time>2014-6-23T9:3:19Z</time></trkpt>
<trkpt lat="42.96070200" lon="-0.26150700"><ele></ele><time>2014-6-23T9:3:22Z</time></trkpt>
<trkpt lat="42.96072200" lon="-0.26152200"><ele></ele><time>2014-6-23T9:3:25Z</time></trkpt>
<trkpt lat="42.96071800" lon="-0.26150700"><ele></ele><time>2014-6-23T9:3:28Z</time></trkpt>
<trkpt lat="42.96072700" lon="-0.26149300"><ele></ele><time>2014-6-23T9:3:31Z</time></trkpt>
<trkpt lat="42.96074700" lon="-0.26150200"><ele></ele><time>2014-6-23T9:3:34Z</time></trkpt>
<trkpt lat="42.96075500" lon="-0.26152000"><ele></ele><time>2014-6-23T9:3:37Z</time></trkpt>
<trkpt lat="42.96075200" lon="-0.26150800"><ele></ele><time>2014-6-23T9:3:40Z</time></trkpt>
<trkpt lat="42.96076200" lon="-0.26150800"><ele></ele><time>2014-6-23T9:3:43Z</time></trkpt>
<trkpt lat="42.96075000" lon="-0.26153200"><ele></ele><time>2014-6-23T9:3:46Z</time></trkpt>
<trkpt lat="42.96076300" lon="-0.26152300"><ele></ele><time>2014-6-23T9:3:49Z</time></trkpt>
<trkpt lat="42.96076000" lon="-0.26150800"><ele></ele><time>2014-6-23T9:3:52Z</time></trkpt>
<trkpt lat="42.96074800" lon="-0.26149200"><ele></ele><time>2014-6-23T9:3:55Z</time></trkpt>
<trkpt lat="42.96073700" lon="-0.26150300"><ele></ele><time>2014-6-23T9:3:58Z</time></trkpt>
<trkpt lat="42.96072800" lon="-0.26150800"><ele></ele><time>2014-6-23T9:4:1Z</time></trkpt>
<trkpt lat="42.96073500" lon="-0.26151300"><ele></ele><time>2014-6-23T9:4:4Z</time></trkpt>
<trkpt lat="42.96077000" lon="-0.26151800"><ele></ele><time>2014-6-23T9:4:7Z</time></trkpt>
<trkpt lat="42.96076800" lon="-0.26153700"><ele></ele><time>2014-6-23T9:4:10Z</time></trkpt>
<trkpt lat="42.96077000" lon="-0.26154300"><ele></ele><time>2014-6-23T9:4:13Z</time></trkpt>
<trkpt lat="42.96075300" lon="-0.26152300"><ele></ele><time>2014-6-23T9:4:16Z</time></trkpt>
<trkpt lat="42.96076200" lon="-0.26152200"><ele></ele><time>2014-6-23T9:4:19Z</time></trkpt>
<trkpt lat="42.96076800" lon="-0.26151800"><ele></ele><time>2014-6-23T9:4:22Z</time></trkpt>
<trkpt lat="42.96070800" lon="-0.26145800"><ele></ele><time>2014-6-23T9:4:25Z</time></trkpt>
<trkpt lat="42.96071500" lon="-0.26132300"><ele></ele><time>2014-6-23T9:4:28Z</time></trkpt>
<trkpt lat="42.96080500" lon="-0.26121800"><ele></ele><time>2014-6-23T9:4:31Z</time></trkpt>
<trkpt lat="42.96087300" lon="-0.26109800"><ele></ele><time>2014-6-23T9:4:34Z</time></trkpt>
<trkpt lat="42.96092300" lon="-0.26099700"><ele></ele><time>2014-6-23T9:4:37Z</time></trkpt>
<trkpt lat="42.96099200" lon="-0.26093700"><ele></ele><time>2014-6-23T9:4:40Z</time></trkpt>
<trkpt lat="42.96106300" lon="-0.26082000"><ele></ele><time>2014-6-23T9:4:43Z</time></trkpt>
<trkpt lat="42.96107700" lon="-0.26066200"><ele></ele><time>2014-6-23T9:4:46Z</time></trkpt>
<trkpt lat="42.96109200" lon="-0.26057800"><ele></ele><time>2014-6-23T9:4:49Z</time></trkpt>
<trkpt lat="42.96111700" lon="-0.26049800"><ele></ele><time>2014-6-23T9:4:52Z</time></trkpt>
<trkpt lat="42.96116500" lon="-0.26032000"><ele></ele><time>2014-6-23T9:4:55Z</time></trkpt>
<trkpt lat="42.96122800" lon="-0.26009300"><ele></ele><time>2014-6-23T9:4:58Z</time></trkpt>
<trkpt lat="42.96135200" lon="-0.25966700"><ele></ele><time>2014-6-23T9:5:1Z</time></trkpt>
<trkpt lat="42.96165300" lon="-0.25920700"><ele></ele><time>2014-6-23T9:5:4Z</time></trkpt>
<trkpt lat="42.96179800" lon="-0.25853300"><ele></ele><time>2014-6-23T9:5:7Z</time></trkpt>
<trkpt lat="42.96171200" lon="-0.25795700"><ele></ele><time>2014-6-23T9:5:10Z</time></trkpt>
<trkpt lat="42.96153200" lon="-0.25749200"><ele></ele><time>2014-6-23T9:5:13Z</time></trkpt>
<trkpt lat="42.96149800" lon="-0.25702800"><ele></ele><time>2014-6-23T9:5:16Z</time></trkpt>
<trkpt lat="42.96154800" lon="-0.25647200"><ele></ele><time>2014-6-23T9:5:19Z</time></trkpt>
<trkpt lat="42.96165200" lon="-0.25591500"><ele></ele><time>2014-6-23T9:5:22Z</time></trkpt>
<trkpt lat="42.96161700" lon="-0.25535300"><ele></ele><time>2014-6-23T9:5:25Z</time></trkpt>
<trkpt lat="42.96157300" lon="-0.25508700"><ele></ele><time>2014-6-23T9:5:28Z</time></trkpt>
<trkpt lat="42.96167000" lon="-0.25497800"><ele></ele><time>2014-6-23T9:5:31Z</time></trkpt>
<trkpt lat="42.96176200" lon="-0.25491800"><ele></ele><time>2014-6-23T9:5:34Z</time></trkpt>
<trkpt lat="42.96186500" lon="-0.25485800"><ele></ele><time>2014-6-23T9:5:37Z</time></trkpt>
<trkpt lat="42.96194500" lon="-0.25477500"><ele></ele><time>2014-6-23T9:5:40Z</time></trkpt>
<trkpt lat="42.96201000" lon="-0.25466800"><ele></ele><time>2014-6-23T9:5:43Z</time></trkpt>
<trkpt lat="42.96206700" lon="-0.25455700"><ele></ele><time>2014-6-23T9:5:46Z</time></trkpt>
<trkpt lat="42.96211700" lon="-0.25444300"><ele></ele><time>2014-6-23T9:5:49Z</time></trkpt>
<trkpt lat="42.96206700" lon="-0.25421800"><ele></ele><time>2014-6-23T9:5:52Z</time></trkpt>
<trkpt lat="42.96203700" lon="-0.25403700"><ele></ele><time>2014-6-23T9:5:55Z</time></trkpt>
<trkpt lat="42.96205700" lon="-0.25385300"><ele></ele><time>2014-6-23T9:5:58Z</time></trkpt>
<trkpt lat="42.96212500" lon="-0.25361200"><ele></ele><time>2014-6-23T9:6:1Z</time></trkpt>
<trkpt lat="42.96237800" lon="-0.25329300"><ele></ele><time>2014-6-23T9:6:4Z</time></trkpt>
<trkpt lat="42.96268800" lon="-0.25298000"><ele></ele><time>2014-6-23T9:6:7Z</time></trkpt>
<trkpt lat="42.96291800" lon="-0.25273300"><ele></ele><time>2014-6-23T9:6:10Z</time></trkpt>
<trkpt lat="42.96298800" lon="-0.25248200"><ele></ele><time>2014-6-23T9:6:13Z</time></trkpt>
<trkpt lat="42.96287200" lon="-0.25237300"><ele></ele><time>2014-6-23T9:6:16Z</time></trkpt>
<trkpt lat="42.96279300" lon="-0.25225200"><ele></ele><time>2014-6-23T9:6:19Z</time></trkpt>
<trkpt lat="42.96275000" lon="-0.25210000"><ele></ele><time>2014-6-23T9:6:22Z</time></trkpt>
<trkpt lat="42.96267500" lon="-0.25194300"><ele></ele><time>2014-6-23T9:6:25Z</time></trkpt>
<trkpt lat="42.96257700" lon="-0.25179200"><ele></ele><time>2014-6-23T9:6:28Z</time></trkpt>
<trkpt lat="42.96249700" lon="-0.25162300"><ele></ele><time>2014-6-23T9:6:31Z</time></trkpt>
<trkpt lat="42.96244000" lon="-0.25142700"><ele></ele><time>2014-6-23T9:6:34Z</time></trkpt>
<trkpt lat="42.96245200" lon="-0.25120500"><ele></ele><time>2014-6-23T9:6:37Z</time></trkpt>
<trkpt lat="42.96265200" lon="-0.25110200"><ele></ele><time>2014-6-23T9:6:40Z</time></trkpt>
<trkpt lat="42.96288500" lon="-0.25101300"><ele></ele><time>2014-6-23T9:6:43Z</time></trkpt>
<trkpt lat="42.96310800" lon="-0.25086300"><ele></ele><time>2014-6-23T9:6:46Z</time></trkpt>
<trkpt lat="42.96296300" lon="-0.25047800"><ele></ele><time>2014-6-23T9:6:49Z</time></trkpt>
<trkpt lat="42.96287200" lon="-0.25035300"><ele></ele><time>2014-6-23T9:6:52Z</time></trkpt>
<trkpt lat="42.96276200" lon="-0.25025700"><ele></ele><time>2014-6-23T9:6:55Z</time></trkpt>
<trkpt lat="42.96268700" lon="-0.25015000"><ele></ele><time>2014-6-23T9:6:58Z</time></trkpt>
<trkpt lat="42.96268500" lon="-0.25002200"><ele></ele><time>2014-6-23T9:7:1Z</time></trkpt>
<trkpt lat="42.96267800" lon="-0.24989300"><ele></ele><time>2014-6-23T9:7:4Z</time></trkpt>
<trkpt lat="42.96272700" lon="-0.24975500"><ele></ele><time>2014-6-23T9:7:7Z</time></trkpt>
<trkpt lat="42.96276300" lon="-0.24951300"><ele></ele><time>2014-6-23T9:7:10Z</time></trkpt>
<trkpt lat="42.96278700" lon="-0.24930300"><ele></ele><time>2014-6-23T9:7:13Z</time></trkpt>
<trkpt lat="42.96284800" lon="-0.24916200"><ele></ele><time>2014-6-23T9:7:16Z</time></trkpt>
<trkpt lat="42.96289200" lon="-0.24905300"><ele></ele><time>2014-6-23T9:7:19Z</time></trkpt>
<trkpt lat="42.96296500" lon="-0.24893300"><ele></ele><time>2014-6-23T9:7:22Z</time></trkpt>
<trkpt lat="42.96304800" lon="-0.24882000"><ele></ele><time>2014-6-23T9:7:25Z</time></trkpt>
<trkpt lat="42.96314500" lon="-0.24872700"><ele></ele><time>2014-6-23T9:7:28Z</time></trkpt>
<trkpt lat="42.96333700" lon="-0.24867700"><ele></ele><time>2014-6-23T9:7:31Z</time></trkpt>
<trkpt lat="42.96345200" lon="-0.24871700"><ele></ele><time>2014-6-23T9:7:34Z</time></trkpt>
<trkpt lat="42.96353200" lon="-0.24875200"><ele></ele><time>2014-6-23T9:7:37Z</time></trkpt>
<trkpt lat="42.96361000" lon="-0.24878000"><ele></ele><time>2014-6-23T9:7:40Z</time></trkpt>
<trkpt lat="42.96374200" lon="-0.24881800"><ele></ele><time>2014-6-23T9:7:43Z</time></trkpt>
<trkpt lat="42.96381000" lon="-0.24887800"><ele></ele><time>2014-6-23T9:7:46Z</time></trkpt>
<trkpt lat="42.96387300" lon="-0.24890300"><ele></ele><time>2014-6-23T9:7:49Z</time></trkpt>
<trkpt lat="42.96404500" lon="-0.24892200"><ele></ele><time>2014-6-23T9:7:52Z</time></trkpt>
<trkpt lat="42.96417300" lon="-0.24894700"><ele></ele><time>2014-6-23T9:7:55Z</time></trkpt>
<trkpt lat="42.96440500" lon="-0.24898700"><ele></ele><time>2014-6-23T9:7:58Z</time></trkpt>
<trkpt lat="42.96472700" lon="-0.24897800"><ele></ele><time>2014-6-23T9:8:1Z</time></trkpt>
<trkpt lat="42.96494800" lon="-0.24886300"><ele></ele><time>2014-6-23T9:8:4Z</time></trkpt>
<trkpt lat="42.96506200" lon="-0.24878700"><ele></ele><time>2014-6-23T9:8:7Z</time></trkpt>
<trkpt lat="42.96516700" lon="-0.24871700"><ele></ele><time>2014-6-23T9:8:10Z</time></trkpt>
<trkpt lat="42.96528700" lon="-0.24854800"><ele></ele><time>2014-6-23T9:8:13Z</time></trkpt>
<trkpt lat="42.96535500" lon="-0.24837000"><ele></ele><time>2014-6-23T9:8:16Z</time></trkpt>
<trkpt lat="42.96541200" lon="-0.24826300"><ele></ele><time>2014-6-23T9:8:19Z</time></trkpt>
<trkpt lat="42.96543300" lon="-0.24840000"><ele></ele><time>2014-6-23T9:8:22Z</time></trkpt>
<trkpt lat="42.96546500" lon="-0.24842500"><ele></ele><time>2014-6-23T9:8:25Z</time></trkpt>
<trkpt lat="42.96548700" lon="-0.24843500"><ele></ele><time>2014-6-23T9:8:28Z</time></trkpt>
<trkpt lat="42.96550500" lon="-0.24842300"><ele></ele><time>2014-6-23T9:8:31Z</time></trkpt>
<trkpt lat="42.96549000" lon="-0.24846500"><ele></ele><time>2014-6-23T9:8:34Z</time></trkpt>
<trkpt lat="42.96549300" lon="-0.24855300"><ele></ele><time>2014-6-23T9:8:37Z</time></trkpt>
<trkpt lat="42.96548200" lon="-0.24863200"><ele></ele><time>2014-6-23T9:8:40Z</time></trkpt>
<trkpt lat="42.96542200" lon="-0.24867700"><ele></ele><time>2014-6-23T9:8:43Z</time></trkpt>
<trkpt lat="42.96536300" lon="-0.24874500"><ele></ele><time>2014-6-23T9:8:46Z</time></trkpt>
<trkpt lat="42.96530000" lon="-0.24882800"><ele></ele><time>2014-6-23T9:8:49Z</time></trkpt>
<trkpt lat="42.96521000" lon="-0.24892000"><ele></ele><time>2014-6-23T9:8:52Z</time></trkpt>
<trkpt lat="42.96513300" lon="-0.24900500"><ele></ele><time>2014-6-23T9:8:55Z</time></trkpt>
<trkpt lat="42.96507200" lon="-0.24910200"><ele></ele><time>2014-6-23T9:8:58Z</time></trkpt>
<trkpt lat="42.96501200" lon="-0.24919200"><ele></ele><time>2014-6-23T9:9:1Z</time></trkpt>
<trkpt lat="42.96500800" lon="-0.24931200"><ele></ele><time>2014-6-23T9:9:4Z</time></trkpt>
<trkpt lat="42.96499300" lon="-0.24945800"><ele></ele><time>2014-6-23T9:9:7Z</time></trkpt>
<trkpt lat="42.96494500" lon="-0.24952800"><ele></ele><time>2014-6-23T9:9:10Z</time></trkpt>
<trkpt lat="42.96491200" lon="-0.24965800"><ele></ele><time>2014-6-23T9:9:13Z</time></trkpt>
<trkpt lat="42.96487200" lon="-0.24975000"><ele></ele><time>2014-6-23T9:9:16Z</time></trkpt>
<trkpt lat="42.96485200" lon="-0.24981700"><ele></ele><time>2014-6-23T9:9:19Z</time></trkpt>
<trkpt lat="42.96479800" lon="-0.24988300"><ele></ele><time>2014-6-23T9:9:22Z</time></trkpt>
<trkpt lat="42.96469200" lon="-0.24987700"><ele></ele><time>2014-6-23T9:9:25Z</time></trkpt>
<trkpt lat="42.96464500" lon="-0.24989500"><ele></ele><time>2014-6-23T9:9:28Z</time></trkpt>
<trkpt lat="42.96460200" lon="-0.24994800"><ele></ele><time>2014-6-23T9:9:31Z</time></trkpt>
<trkpt lat="42.96457300" lon="-0.25002700"><ele></ele><time>2014-6-23T9:9:34Z</time></trkpt>
<trkpt lat="42.96453300" lon="-0.25008300"><ele></ele><time>2014-6-23T9:9:37Z</time></trkpt>
<trkpt lat="42.96447800" lon="-0.25017200"><ele></ele><time>2014-6-23T9:9:40Z</time></trkpt>
<trkpt lat="42.96449700" lon="-0.25022200"><ele></ele><time>2014-6-23T9:9:43Z</time></trkpt>
<trkpt lat="42.96449000" lon="-0.25027300"><ele></ele><time>2014-6-23T9:9:46Z</time></trkpt>
<trkpt lat="42.96438200" lon="-0.25036700"><ele></ele><time>2014-6-23T9:9:49Z</time></trkpt>
<trkpt lat="42.96384300" lon="-0.25077300"><ele></ele><time>2014-6-23T9:9:52Z</time></trkpt>
<trkpt lat="42.96441200" lon="-0.25040200"><ele></ele><time>2014-6-23T9:9:55Z</time></trkpt>
<trkpt lat="42.96451000" lon="-0.25039200"><ele></ele><time>2014-6-23T9:9:58Z</time></trkpt>
<trkpt lat="42.96469200" lon="-0.25034800"><ele></ele><time>2014-6-23T9:10:1Z</time></trkpt>
<trkpt lat="42.96475000" lon="-0.25031200"><ele></ele><time>2014-6-23T9:10:4Z</time></trkpt>
<trkpt lat="42.96476200" lon="-0.25024700"><ele></ele><time>2014-6-23T9:10:7Z</time></trkpt>
<trkpt lat="42.96475200" lon="-0.25030700"><ele></ele><time>2014-6-23T9:10:10Z</time></trkpt>
<trkpt lat="42.96478500" lon="-0.25038200"><ele></ele><time>2014-6-23T9:10:13Z</time></trkpt>
<trkpt lat="42.96465800" lon="-0.25047800"><ele></ele><time>2014-6-23T9:10:16Z</time></trkpt>
<trkpt lat="42.96479200" lon="-0.25045200"><ele></ele><time>2014-6-23T9:10:19Z</time></trkpt>
<trkpt lat="42.96475300" lon="-0.25050800"><ele></ele><time>2014-6-23T9:10:22Z</time></trkpt>
<trkpt lat="42.96474800" lon="-0.25056300"><ele></ele><time>2014-6-23T9:10:25Z</time></trkpt>
<trkpt lat="42.96471800" lon="-0.25062200"><ele></ele><time>2014-6-23T9:10:28Z</time></trkpt>
<trkpt lat="42.96470800" lon="-0.25067300"><ele></ele><time>2014-6-23T9:10:31Z</time></trkpt>
<trkpt lat="42.96470700" lon="-0.25075800"><ele></ele><time>2014-6-23T9:10:34Z</time></trkpt>
<trkpt lat="42.96467200" lon="-0.25081700"><ele></ele><time>2014-6-23T9:10:37Z</time></trkpt>
<trkpt lat="42.96463000" lon="-0.25089700"><ele></ele><time>2014-6-23T9:10:40Z</time></trkpt>
<trkpt lat="42.96457800" lon="-0.25096800"><ele></ele><time>2014-6-23T9:10:43Z</time></trkpt>
<trkpt lat="42.96452500" lon="-0.25101800"><ele></ele><time>2014-6-23T9:10:46Z</time></trkpt>
<trkpt lat="42.96447700" lon="-0.25106300"><ele></ele><time>2014-6-23T9:10:49Z</time></trkpt>
<trkpt lat="42.96437200" lon="-0.25109200"><ele></ele><time>2014-6-23T9:10:52Z</time></trkpt>
<trkpt lat="42.96426800" lon="-0.25094200"><ele></ele><time>2014-6-23T9:10:55Z</time></trkpt>
<trkpt lat="42.96419300" lon="-0.25085700"><ele></ele><time>2014-6-23T9:10:58Z</time></trkpt>
<trkpt lat="42.96414300" lon="-0.25076800"><ele></ele><time>2014-6-23T9:11:1Z</time></trkpt>
<trkpt lat="42.96405200" lon="-0.25071300"><ele></ele><time>2014-6-23T9:11:4Z</time></trkpt>
<trkpt lat="42.96399200" lon="-0.25064500"><ele></ele><time>2014-6-23T9:11:7Z</time></trkpt>
<trkpt lat="42.96390800" lon="-0.25059200"><ele></ele><time>2014-6-23T9:11:10Z</time></trkpt>
<trkpt lat="42.96374700" lon="-0.25054500"><ele></ele><time>2014-6-23T9:11:13Z</time></trkpt>
<trkpt lat="42.96361500" lon="-0.25052500"><ele></ele><time>2014-6-23T9:11:16Z</time></trkpt>
<trkpt lat="42.96355800" lon="-0.25045500"><ele></ele><time>2014-6-23T9:11:19Z</time></trkpt>
<trkpt lat="42.96349700" lon="-0.25040300"><ele></ele><time>2014-6-23T9:11:22Z</time></trkpt>
<trkpt lat="42.96362800" lon="-0.25024200"><ele></ele><time>2014-6-23T9:11:25Z</time></trkpt>
<trkpt lat="42.96362700" lon="-0.25035300"><ele></ele><time>2014-6-23T9:11:28Z</time></trkpt>
<trkpt lat="42.96361500" lon="-0.25043300"><ele></ele><time>2014-6-23T9:11:31Z</time></trkpt>
<trkpt lat="42.96358300" lon="-0.25053200"><ele></ele><time>2014-6-23T9:11:34Z</time></trkpt>
<trkpt lat="42.96356800" lon="-0.25060800"><ele></ele><time>2014-6-23T9:11:37Z</time></trkpt>
<trkpt lat="42.96356200" lon="-0.25070700"><ele></ele><time>2014-6-23T9:11:40Z</time></trkpt>
<trkpt lat="42.96359000" lon="-0.25081700"><ele></ele><time>2014-6-23T9:11:43Z</time></trkpt>
<trkpt lat="42.96360300" lon="-0.25092700"><ele></ele><time>2014-6-23T9:11:46Z</time></trkpt>
<trkpt lat="42.96364200" lon="-0.25100200"><ele></ele><time>2014-6-23T9:11:49Z</time></trkpt>
<trkpt lat="42.96413000" lon="-0.25129200"><ele></ele><time>2014-6-23T9:11:52Z</time></trkpt>
<trkpt lat="42.96424800" lon="-0.25138200"><ele></ele><time>2014-6-23T9:11:55Z</time></trkpt>
<trkpt lat="42.96436500" lon="-0.25144700"><ele></ele><time>2014-6-23T9:11:58Z</time></trkpt>
<trkpt lat="42.96444800" lon="-0.25148700"><ele></ele><time>2014-6-23T9:12:1Z</time></trkpt>
<trkpt lat="42.96492800" lon="-0.25150700"><ele></ele><time>2014-6-23T9:12:4Z</time></trkpt>
<trkpt lat="42.96496200" lon="-0.25131500"><ele></ele><time>2014-6-23T9:12:7Z</time></trkpt>
<trkpt lat="42.96518700" lon="-0.25133700"><ele></ele><time>2014-6-23T9:12:10Z</time></trkpt>
<trkpt lat="42.96522000" lon="-0.25145000"><ele></ele><time>2014-6-23T9:12:13Z</time></trkpt>
<trkpt lat="42.96521800" lon="-0.25155700"><ele></ele><time>2014-6-23T9:12:16Z</time></trkpt>
<trkpt lat="42.96519200" lon="-0.25161800"><ele></ele><time>2014-6-23T9:12:19Z</time></trkpt>
<trkpt lat="42.96515300" lon="-0.25167200"><ele></ele><time>2014-6-23T9:12:22Z</time></trkpt>
<trkpt lat="42.96506200" lon="-0.25180800"><ele></ele><time>2014-6-23T9:12:25Z</time></trkpt>
<trkpt lat="42.96498800" lon="-0.25200700"><ele></ele><time>2014-6-23T9:12:28Z</time></trkpt>
<trkpt lat="42.96495000" lon="-0.25209500"><ele></ele><time>2014-6-23T9:12:31Z</time></trkpt>
<trkpt lat="42.96491300" lon="-0.25215700"><ele></ele><time>2014-6-23T9:12:34Z</time></trkpt>
<trkpt lat="42.96483200" lon="-0.25220200"><ele></ele><time>2014-6-23T9:12:37Z</time></trkpt>
<trkpt lat="42.96477300" lon="-0.25226500"><ele></ele><time>2014-6-23T9:12:40Z</time></trkpt>
<trkpt lat="42.96472000" lon="-0.25232300"><ele></ele><time>2014-6-23T9:12:43Z</time></trkpt>
<trkpt lat="42.96462800" lon="-0.25234300"><ele></ele><time>2014-6-23T9:12:46Z</time></trkpt>
<trkpt lat="42.96410300" lon="-0.25258300"><ele></ele><time>2014-6-23T9:12:49Z</time></trkpt>
<trkpt lat="42.96403000" lon="-0.25257500"><ele></ele><time>2014-6-23T9:12:52Z</time></trkpt>
<trkpt lat="42.96396000" lon="-0.25265200"><ele></ele><time>2014-6-23T9:12:55Z</time></trkpt>
<trkpt lat="42.96392700" lon="-0.25277500"><ele></ele><time>2014-6-23T9:12:58Z</time></trkpt>
<trkpt lat="42.96400500" lon="-0.25285700"><ele></ele><time>2014-6-23T9:13:1Z</time></trkpt>
<trkpt lat="42.96425800" lon="-0.25296700"><ele></ele><time>2014-6-23T9:13:4Z</time></trkpt>
<trkpt lat="42.96438700" lon="-0.25310500"><ele></ele><time>2014-6-23T9:13:7Z</time></trkpt>
<trkpt lat="42.96470000" lon="-0.25307700"><ele></ele><time>2014-6-23T9:13:10Z</time></trkpt>
<trkpt lat="42.96497500" lon="-0.25300300"><ele></ele><time>2014-6-23T9:13:13Z</time></trkpt>
<trkpt lat="42.96512300" lon="-0.25290300"><ele></ele><time>2014-6-23T9:13:16Z</time></trkpt>
<trkpt lat="42.96517500" lon="-0.25286200"><ele></ele><time>2014-6-23T9:13:19Z</time></trkpt>
<trkpt lat="42.96523500" lon="-0.25282200"><ele></ele><time>2014-6-23T9:13:22Z</time></trkpt>
<trkpt lat="42.96527200" lon="-0.25279800"><ele></ele><time>2014-6-23T9:13:25Z</time></trkpt>
<trkpt lat="42.96527500" lon="-0.25278300"><ele></ele><time>2014-6-23T9:13:28Z</time></trkpt>
<trkpt lat="42.96532200" lon="-0.25276800"><ele></ele><time>2014-6-23T9:13:31Z</time></trkpt>
<trkpt lat="42.96534300" lon="-0.25275800"><ele></ele><time>2014-6-23T9:13:34Z</time></trkpt>
<trkpt lat="42.96530800" lon="-0.25275500"><ele></ele><time>2014-6-23T9:13:37Z</time></trkpt>
<trkpt lat="42.96528700" lon="-0.25276300"><ele></ele><time>2014-6-23T9:13:40Z</time></trkpt>
<trkpt lat="42.96529800" lon="-0.25276200"><ele></ele><time>2014-6-23T9:13:43Z</time></trkpt>
<trkpt lat="42.96527000" lon="-0.25278700"><ele></ele><time>2014-6-23T9:13:46Z</time></trkpt>
<trkpt lat="42.96527200" lon="-0.25279800"><ele></ele><time>2014-6-23T9:13:49Z</time></trkpt>
<trkpt lat="42.96522700" lon="-0.25284800"><ele></ele><time>2014-6-23T9:13:52Z</time></trkpt>
<trkpt lat="42.96518700" lon="-0.25287200"><ele></ele><time>2014-6-23T9:13:55Z</time></trkpt>
<trkpt lat="42.96521200" lon="-0.25285700"><ele></ele><time>2014-6-23T9:13:58Z</time></trkpt>
<trkpt lat="42.96527700" lon="-0.25283700"><ele></ele><time>2014-6-23T9:14:1Z</time></trkpt>
<trkpt lat="42.96536700" lon="-0.25279200"><ele></ele><time>2014-6-23T9:14:4Z</time></trkpt>
<trkpt lat="42.96532700" lon="-0.25279500"><ele></ele><time>2014-6-23T9:14:7Z</time></trkpt>
<trkpt lat="42.96533200" lon="-0.25279300"><ele></ele><time>2014-6-23T9:14:10Z</time></trkpt>
<trkpt lat="42.96541300" lon="-0.25278300"><ele></ele><time>2014-6-23T9:14:13Z</time></trkpt>
<trkpt lat="42.96539000" lon="-0.25280300"><ele></ele><time>2014-6-23T9:14:16Z</time></trkpt>
<trkpt lat="42.96537300" lon="-0.25280500"><ele></ele><time>2014-6-23T9:14:19Z</time></trkpt>
<trkpt lat="42.96535800" lon="-0.25281300"><ele></ele><time>2014-6-23T9:14:22Z</time></trkpt>
<trkpt lat="42.96533700" lon="-0.25283000"><ele></ele><time>2014-6-23T9:14:25Z</time></trkpt>
<trkpt lat="42.96533700" lon="-0.25283200"><ele></ele><time>2014-6-23T9:14:28Z</time></trkpt>
<trkpt lat="42.96532200" lon="-0.25282500"><ele></ele><time>2014-6-23T9:14:31Z</time></trkpt>
<trkpt lat="42.96531200" lon="-0.25282000"><ele></ele><time>2014-6-23T9:14:34Z</time></trkpt>
<trkpt lat="42.96531800" lon="-0.25281700"><ele></ele><time>2014-6-23T9:14:37Z</time></trkpt>
<trkpt lat="42.96535700" lon="-0.25279300"><ele></ele><time>2014-6-23T9:14:40Z</time></trkpt>
<trkpt lat="42.96537700" lon="-0.25278800"><ele></ele><time>2014-6-23T9:14:43Z</time></trkpt>
<trkpt lat="42.96537500" lon="-0.25277300"><ele></ele><time>2014-6-23T9:14:46Z</time></trkpt>
<trkpt lat="42.96537000" lon="-0.25276000"><ele></ele><time>2014-6-23T9:14:49Z</time></trkpt>
<trkpt lat="42.96538700" lon="-0.25274700"><ele></ele><time>2014-6-23T9:14:52Z</time></trkpt>
<trkpt lat="42.96536500" lon="-0.25277300"><ele></ele><time>2014-6-23T9:14:55Z</time></trkpt>
<trkpt lat="42.96540700" lon="-0.25277800"><ele></ele><time>2014-6-23T9:14:58Z</time></trkpt>
<trkpt lat="42.96541200" lon="-0.25277700"><ele></ele><time>2014-6-23T9:15:1Z</time></trkpt>
<trkpt lat="42.96548300" lon="-0.25269800"><ele></ele><time>2014-6-23T9:15:4Z</time></trkpt>
<trkpt lat="42.96562300" lon="-0.25261300"><ele></ele><time>2014-6-23T9:15:7Z</time></trkpt>
<trkpt lat="42.96571300" lon="-0.25257700"><ele></ele><time>2014-6-23T9:15:10Z</time></trkpt>
<trkpt lat="42.96577200" lon="-0.25252700"><ele></ele><time>2014-6-23T9:15:13Z</time></trkpt>
<trkpt lat="42.96583700" lon="-0.25245800"><ele></ele><time>2014-6-23T9:15:16Z</time></trkpt>
<trkpt lat="42.96588700" lon="-0.25237000"><ele></ele><time>2014-6-23T9:15:19Z</time></trkpt>
<trkpt lat="42.96591500" lon="-0.25225300"><ele></ele><time>2014-6-23T9:15:22Z</time></trkpt>
<trkpt lat="42.96592800" lon="-0.25208700"><ele></ele><time>2014-6-23T9:15:25Z</time></trkpt>
<trkpt lat="42.96594200" lon="-0.25194300"><ele></ele><time>2014-6-23T9:15:28Z</time></trkpt>
<trkpt lat="42.96594800" lon="-0.25183200"><ele></ele><time>2014-6-23T9:15:31Z</time></trkpt>
<trkpt lat="42.96596700" lon="-0.25171300"><ele></ele><time>2014-6-23T9:15:34Z</time></trkpt>
<trkpt lat="42.96598800" lon="-0.25159800"><ele></ele><time>2014-6-23T9:15:37Z</time></trkpt>
<trkpt lat="42.96601800" lon="-0.25143800"><ele></ele><time>2014-6-23T9:15:40Z</time></trkpt>
<trkpt lat="42.96603000" lon="-0.25121800"><ele></ele><time>2014-6-23T9:15:43Z</time></trkpt>
<trkpt lat="42.96599800" lon="-0.25098300"><ele></ele><time>2014-6-23T9:15:46Z</time></trkpt>
<trkpt lat="42.96603200" lon="-0.25068200"><ele></ele><time>2014-6-23T9:15:49Z</time></trkpt>
<trkpt lat="42.96612300" lon="-0.25025300"><ele></ele><time>2014-6-23T9:15:52Z</time></trkpt>
<trkpt lat="42.96627300" lon="-0.25000300"><ele></ele><time>2014-6-23T9:15:55Z</time></trkpt>
<trkpt lat="42.96644300" lon="-0.24984700"><ele></ele><time>2014-6-23T9:15:58Z</time></trkpt>
<trkpt lat="42.96658300" lon="-0.24972200"><ele></ele><time>2014-6-23T9:16:1Z</time></trkpt>
<trkpt lat="42.96670700" lon="-0.24962200"><ele></ele><time>2014-6-23T9:16:4Z</time></trkpt>
<trkpt lat="42.96682300" lon="-0.24955500"><ele></ele><time>2014-6-23T9:16:7Z</time></trkpt>
<trkpt lat="42.96693700" lon="-0.24951500"><ele></ele><time>2014-6-23T9:16:10Z</time></trkpt>
<trkpt lat="42.96705500" lon="-0.24947000"><ele></ele><time>2014-6-23T9:16:13Z</time></trkpt>
<trkpt lat="42.96714200" lon="-0.24943700"><ele></ele><time>2014-6-23T9:16:16Z</time></trkpt>
<trkpt lat="42.96723500" lon="-0.24934800"><ele></ele><time>2014-6-23T9:16:19Z</time></trkpt>
<trkpt lat="42.96731700" lon="-0.24920200"><ele></ele><time>2014-6-23T9:16:22Z</time></trkpt>
<trkpt lat="42.96736200" lon="-0.24905800"><ele></ele><time>2014-6-23T9:16:25Z</time></trkpt>
<trkpt lat="42.96740300" lon="-0.24892300"><ele></ele><time>2014-6-23T9:16:28Z</time></trkpt>
<trkpt lat="42.96746200" lon="-0.24873200"><ele></ele><time>2014-6-23T9:16:31Z</time></trkpt>
<trkpt lat="42.96752200" lon="-0.24850000"><ele></ele><time>2014-6-23T9:16:34Z</time></trkpt>
<trkpt lat="42.96762200" lon="-0.24828200"><ele></ele><time>2014-6-23T9:16:37Z</time></trkpt>
<trkpt lat="42.96776500" lon="-0.24810300"><ele></ele><time>2014-6-23T9:16:40Z</time></trkpt>
<trkpt lat="42.96787300" lon="-0.24809200"><ele></ele><time>2014-6-23T9:16:43Z</time></trkpt>
<trkpt lat="42.96795000" lon="-0.24811700"><ele></ele><time>2014-6-23T9:16:46Z</time></trkpt>
<trkpt lat="42.96802800" lon="-0.24818300"><ele></ele><time>2014-6-23T9:16:49Z</time></trkpt>
<trkpt lat="42.96810000" lon="-0.24825500"><ele></ele><time>2014-6-23T9:16:52Z</time></trkpt>
<trkpt lat="42.96817200" lon="-0.24832000"><ele></ele><time>2014-6-23T9:16:55Z</time></trkpt>
<trkpt lat="42.96824700" lon="-0.24839800"><ele></ele><time>2014-6-23T9:16:58Z</time></trkpt>
<trkpt lat="42.96834800" lon="-0.24845300"><ele></ele><time>2014-6-23T9:17:1Z</time></trkpt>
<trkpt lat="42.96846000" lon="-0.24846800"><ele></ele><time>2014-6-23T9:17:4Z</time></trkpt>
<trkpt lat="42.96855200" lon="-0.24848200"><ele></ele><time>2014-6-23T9:17:7Z</time></trkpt>
<trkpt lat="42.96861200" lon="-0.24852800"><ele></ele><time>2014-6-23T9:17:10Z</time></trkpt>
<trkpt lat="42.96866700" lon="-0.24857500"><ele></ele><time>2014-6-23T9:17:13Z</time></trkpt>
<trkpt lat="42.96872700" lon="-0.24864700"><ele></ele><time>2014-6-23T9:17:16Z</time></trkpt>
<trkpt lat="42.96878700" lon="-0.24869800"><ele></ele><time>2014-6-23T9:17:19Z</time></trkpt>
<trkpt lat="42.96884200" lon="-0.24876300"><ele></ele><time>2014-6-23T9:17:22Z</time></trkpt>
<trkpt lat="42.96892000" lon="-0.24881200"><ele></ele><time>2014-6-23T9:17:25Z</time></trkpt>
<trkpt lat="42.96901300" lon="-0.24886300"><ele></ele><time>2014-6-23T9:17:28Z</time></trkpt>
<trkpt lat="42.96913200" lon="-0.24883300"><ele></ele><time>2014-6-23T9:17:31Z</time></trkpt>
<trkpt lat="42.96923700" lon="-0.24873800"><ele></ele><time>2014-6-23T9:17:34Z</time></trkpt>
<trkpt lat="42.96934700" lon="-0.24867200"><ele></ele><time>2014-6-23T9:17:37Z</time></trkpt>
<trkpt lat="42.96941800" lon="-0.24861700"><ele></ele><time>2014-6-23T9:17:40Z</time></trkpt>
<trkpt lat="42.96949000" lon="-0.24853800"><ele></ele><time>2014-6-23T9:17:43Z</time></trkpt>
<trkpt lat="42.96957800" lon="-0.24848000"><ele></ele><time>2014-6-23T9:17:46Z</time></trkpt>
<trkpt lat="42.96966200" lon="-0.24837500"><ele></ele><time>2014-6-23T9:17:49Z</time></trkpt>
<trkpt lat="42.96972800" lon="-0.24826300"><ele></ele><time>2014-6-23T9:17:52Z</time></trkpt>
<trkpt lat="42.96978000" lon="-0.24813200"><ele></ele><time>2014-6-23T9:17:55Z</time></trkpt>
<trkpt lat="42.96983000" lon="-0.24800500"><ele></ele><time>2014-6-23T9:17:58Z</time></trkpt>
<trkpt lat="42.96988200" lon="-0.24787200"><ele></ele><time>2014-6-23T9:18:1Z</time></trkpt>
<trkpt lat="42.96990800" lon="-0.24772200"><ele></ele><time>2014-6-23T9:18:4Z</time></trkpt>
<trkpt lat="42.96996200" lon="-0.24758500"><ele></ele><time>2014-6-23T9:18:7Z</time></trkpt>
<trkpt lat="42.97004200" lon="-0.24747500"><ele></ele><time>2014-6-23T9:18:10Z</time></trkpt>
<trkpt lat="42.97011800" lon="-0.24741200"><ele></ele><time>2014-6-23T9:18:13Z</time></trkpt>
<trkpt lat="42.97017700" lon="-0.24737800"><ele></ele><time>2014-6-23T9:18:16Z</time></trkpt>
<trkpt lat="42.97025500" lon="-0.24733000"><ele></ele><time>2014-6-23T9:18:19Z</time></trkpt>
<trkpt lat="42.97032200" lon="-0.24726800"><ele></ele><time>2014-6-23T9:18:22Z</time></trkpt>
<trkpt lat="42.97039200" lon="-0.24722800"><ele></ele><time>2014-6-23T9:18:25Z</time></trkpt>
<trkpt lat="42.97045200" lon="-0.24716200"><ele></ele><time>2014-6-23T9:18:28Z</time></trkpt>
<trkpt lat="42.97053200" lon="-0.24712000"><ele></ele><time>2014-6-23T9:18:31Z</time></trkpt>
<trkpt lat="42.97060300" lon="-0.24706700"><ele></ele><time>2014-6-23T9:18:34Z</time></trkpt>
<trkpt lat="42.97066200" lon="-0.24697300"><ele></ele><time>2014-6-23T9:18:37Z</time></trkpt>
<trkpt lat="42.97069200" lon="-0.24683700"><ele></ele><time>2014-6-23T9:18:40Z</time></trkpt>
<trkpt lat="42.97070500" lon="-0.24669200"><ele></ele><time>2014-6-23T9:18:43Z</time></trkpt>
<trkpt lat="42.97070000" lon="-0.24654700"><ele></ele><time>2014-6-23T9:18:46Z</time></trkpt>
<trkpt lat="42.97067700" lon="-0.24636300"><ele></ele><time>2014-6-23T9:18:49Z</time></trkpt>
<trkpt lat="42.97063800" lon="-0.24621300"><ele></ele><time>2014-6-23T9:18:52Z</time></trkpt>
<trkpt lat="42.97058500" lon="-0.24607000"><ele></ele><time>2014-6-23T9:18:55Z</time></trkpt>
<trkpt lat="42.97055300" lon="-0.24587200"><ele></ele><time>2014-6-23T9:18:58Z</time></trkpt>
<trkpt lat="42.97055800" lon="-0.24568200"><ele></ele><time>2014-6-23T9:19:1Z</time></trkpt>
<trkpt lat="42.97061500" lon="-0.24549800"><ele></ele><time>2014-6-23T9:19:4Z</time></trkpt>
<trkpt lat="42.97074500" lon="-0.24527700"><ele></ele><time>2014-6-23T9:19:7Z</time></trkpt>
<trkpt lat="42.97082700" lon="-0.24507000"><ele></ele><time>2014-6-23T9:19:10Z</time></trkpt>
<trkpt lat="42.97087300" lon="-0.24483300"><ele></ele><time>2014-6-23T9:19:13Z</time></trkpt>
<trkpt lat="42.97093300" lon="-0.24462000"><ele></ele><time>2014-6-23T9:19:16Z</time></trkpt>
<trkpt lat="42.97096700" lon="-0.24441300"><ele></ele><time>2014-6-23T9:19:19Z</time></trkpt>
<trkpt lat="42.97097800" lon="-0.24422800"><ele></ele><time>2014-6-23T9:19:22Z</time></trkpt>
<trkpt lat="42.97099300" lon="-0.24409700"><ele></ele><time>2014-6-23T9:19:25Z</time></trkpt>
<trkpt lat="42.97100200" lon="-0.24402000"><ele></ele><time>2014-6-23T9:19:28Z</time></trkpt>
<trkpt lat="42.97102800" lon="-0.24390300"><ele></ele><time>2014-6-23T9:19:31Z</time></trkpt>
<trkpt lat="42.97107200" lon="-0.24372300"><ele></ele><time>2014-6-23T9:19:34Z</time></trkpt>
<trkpt lat="42.97112300" lon="-0.24356700"><ele></ele><time>2014-6-23T9:19:37Z</time></trkpt>
<trkpt lat="42.97118200" lon="-0.24342300"><ele></ele><time>2014-6-23T9:19:40Z</time></trkpt>
<trkpt lat="42.97124700" lon="-0.24331800"><ele></ele><time>2014-6-23T9:19:43Z</time></trkpt>
<trkpt lat="42.97134500" lon="-0.24327800"><ele></ele><time>2014-6-23T9:19:46Z</time></trkpt>
<trkpt lat="42.97141200" lon="-0.24332300"><ele></ele><time>2014-6-23T9:19:49Z</time></trkpt>
<trkpt lat="42.97148800" lon="-0.24347800"><ele></ele><time>2014-6-23T9:19:52Z</time></trkpt>
<trkpt lat="42.97153700" lon="-0.24356200"><ele></ele><time>2014-6-23T9:19:55Z</time></trkpt>
<trkpt lat="42.97156800" lon="-0.24361200"><ele></ele><time>2014-6-23T9:19:58Z</time></trkpt>
<trkpt lat="42.97160800" lon="-0.24368500"><ele></ele><time>2014-6-23T9:20:1Z</time></trkpt>
<trkpt lat="42.97164800" lon="-0.24376700"><ele></ele><time>2014-6-23T9:20:4Z</time></trkpt>
<trkpt lat="42.97169700" lon="-0.24386200"><ele></ele><time>2014-6-23T9:20:7Z</time></trkpt>
<trkpt lat="42.97174800" lon="-0.24394700"><ele></ele><time>2014-6-23T9:20:10Z</time></trkpt>
<trkpt lat="42.97182700" lon="-0.24402200"><ele></ele><time>2014-6-23T9:20:13Z</time></trkpt>
<trkpt lat="42.97187700" lon="-0.24401800"><ele></ele><time>2014-6-23T9:20:16Z</time></trkpt>
<trkpt lat="42.97190000" lon="-0.24390700"><ele></ele><time>2014-6-23T9:20:19Z</time></trkpt>
<trkpt lat="42.97193800" lon="-0.24379700"><ele></ele><time>2014-6-23T9:20:22Z</time></trkpt>
<trkpt lat="42.97197800" lon="-0.24370300"><ele></ele><time>2014-6-23T9:20:25Z</time></trkpt>
<trkpt lat="42.97200300" lon="-0.24360500"><ele></ele><time>2014-6-23T9:20:28Z</time></trkpt>
<trkpt lat="42.97199700" lon="-0.24351300"><ele></ele><time>2014-6-23T9:20:31Z</time></trkpt>
<trkpt lat="42.97201200" lon="-0.24340200"><ele></ele><time>2014-6-23T9:20:34Z</time></trkpt>
<trkpt lat="42.97206700" lon="-0.24329200"><ele></ele><time>2014-6-23T9:20:37Z</time></trkpt>
<trkpt lat="42.97215700" lon="-0.24325000"><ele></ele><time>2014-6-23T9:20:40Z</time></trkpt>
<trkpt lat="42.97223200" lon="-0.24324200"><ele></ele><time>2014-6-23T9:20:43Z</time></trkpt>
<trkpt lat="42.97232000" lon="-0.24323800"><ele></ele><time>2014-6-23T9:20:46Z</time></trkpt>
<trkpt lat="42.97238300" lon="-0.24324700"><ele></ele><time>2014-6-23T9:20:49Z</time></trkpt>
<trkpt lat="42.97244800" lon="-0.24322800"><ele></ele><time>2014-6-23T9:20:52Z</time></trkpt>
<trkpt lat="42.97251300" lon="-0.24321700"><ele></ele><time>2014-6-23T9:20:55Z</time></trkpt>
<trkpt lat="42.97262500" lon="-0.24323200"><ele></ele><time>2014-6-23T9:20:58Z</time></trkpt>
<trkpt lat="42.97279200" lon="-0.24345700"><ele></ele><time>2014-6-23T9:21:1Z</time></trkpt>
<trkpt lat="42.97304500" lon="-0.24376800"><ele></ele><time>2014-6-23T9:21:4Z</time></trkpt>
<trkpt lat="42.97336700" lon="-0.24397000"><ele></ele><time>2014-6-23T9:21:7Z</time></trkpt>
<trkpt lat="42.97365300" lon="-0.24412200"><ele></ele><time>2014-6-23T9:21:10Z</time></trkpt>
<trkpt lat="42.97380300" lon="-0.24434000"><ele></ele><time>2014-6-23T9:21:13Z</time></trkpt>
<trkpt lat="42.97380800" lon="-0.24443200"><ele></ele><time>2014-6-23T9:21:16Z</time></trkpt>
<trkpt lat="42.97381800" lon="-0.24447300"><ele></ele><time>2014-6-23T9:21:19Z</time></trkpt>
<trkpt lat="42.97382300" lon="-0.24447800"><ele></ele><time>2014-6-23T9:21:22Z</time></trkpt>
<trkpt lat="42.97384500" lon="-0.24456200"><ele></ele><time>2014-6-23T9:21:25Z</time></trkpt>
<trkpt lat="42.97384700" lon="-0.24455800"><ele></ele><time>2014-6-23T9:21:28Z</time></trkpt>
<trkpt lat="42.97382200" lon="-0.24452200"><ele></ele><time>2014-6-23T9:21:31Z</time></trkpt>
<trkpt lat="42.97379700" lon="-0.24450000"><ele></ele><time>2014-6-23T9:21:34Z</time></trkpt>
<trkpt lat="42.97380000" lon="-0.24451200"><ele></ele><time>2014-6-23T9:21:37Z</time></trkpt>
<trkpt lat="42.97379300" lon="-0.24452200"><ele></ele><time>2014-6-23T9:21:40Z</time></trkpt>
<trkpt lat="42.97378800" lon="-0.24454200"><ele></ele><time>2014-6-23T9:21:43Z</time></trkpt>
<trkpt lat="42.97379300" lon="-0.24452700"><ele></ele><time>2014-6-23T9:21:46Z</time></trkpt>
<trkpt lat="42.97379000" lon="-0.24452700"><ele></ele><time>2014-6-23T9:21:49Z</time></trkpt>
<trkpt lat="42.97378500" lon="-0.24462200"><ele></ele><time>2014-6-23T9:21:52Z</time></trkpt>
<trkpt lat="42.97384800" lon="-0.24474000"><ele></ele><time>2014-6-23T9:21:55Z</time></trkpt>
<trkpt lat="42.97391800" lon="-0.24480700"><ele></ele><time>2014-6-23T9:21:58Z</time></trkpt>
<trkpt lat="42.97401800" lon="-0.24483800"><ele></ele><time>2014-6-23T9:22:1Z</time></trkpt>
<trkpt lat="42.97408200" lon="-0.24487800"><ele></ele><time>2014-6-23T9:22:4Z</time></trkpt>
<trkpt lat="42.97411500" lon="-0.24489800"><ele></ele><time>2014-6-23T9:22:7Z</time></trkpt>
<trkpt lat="42.97413500" lon="-0.24496200"><ele></ele><time>2014-6-23T9:22:10Z</time></trkpt>
<trkpt lat="42.97415800" lon="-0.24501800"><ele></ele><time>2014-6-23T9:22:13Z</time></trkpt>
<trkpt lat="42.97427800" lon="-0.24510200"><ele></ele><time>2014-6-23T9:22:16Z</time></trkpt>
<trkpt lat="42.97432800" lon="-0.24516500"><ele></ele><time>2014-6-23T9:22:19Z</time></trkpt>
<trkpt lat="42.97435300" lon="-0.24522200"><ele></ele><time>2014-6-23T9:22:22Z</time></trkpt>
<trkpt lat="42.97434000" lon="-0.24526500"><ele></ele><time>2014-6-23T9:22:25Z</time></trkpt>
<trkpt lat="42.97433300" lon="-0.24527200"><ele></ele><time>2014-6-23T9:22:28Z</time></trkpt>
<trkpt lat="42.97433000" lon="-0.24527200"><ele></ele><time>2014-6-23T9:22:31Z</time></trkpt>
<trkpt lat="42.97430700" lon="-0.24527800"><ele></ele><time>2014-6-23T9:22:34Z</time></trkpt>
<trkpt lat="42.97430200" lon="-0.24528200"><ele></ele><time>2014-6-23T9:22:37Z</time></trkpt>
<trkpt lat="42.97432200" lon="-0.24528300"><ele></ele><time>2014-6-23T9:22:40Z</time></trkpt>
<trkpt lat="42.97433700" lon="-0.24521800"><ele></ele><time>2014-6-23T9:22:43Z</time></trkpt>
<trkpt lat="42.97434300" lon="-0.24519500"><ele></ele><time>2014-6-23T9:22:46Z</time></trkpt>
<trkpt lat="42.97434200" lon="-0.24517700"><ele></ele><time>2014-6-23T9:22:49Z</time></trkpt>
<trkpt lat="42.97433500" lon="-0.24519200"><ele></ele><time>2014-6-23T9:22:52Z</time></trkpt>
<trkpt lat="42.97432800" lon="-0.24520800"><ele></ele><time>2014-6-23T9:22:55Z</time></trkpt>
<trkpt lat="42.97431800" lon="-0.24525700"><ele></ele><time>2014-6-23T9:22:58Z</time></trkpt>
<trkpt lat="42.97430700" lon="-0.24526500"><ele></ele><time>2014-6-23T9:23:1Z</time></trkpt>
<trkpt lat="42.97432200" lon="-0.24528200"><ele></ele><time>2014-6-23T9:23:4Z</time></trkpt>
<trkpt lat="42.97431200" lon="-0.24526000"><ele></ele><time>2014-6-23T9:23:7Z</time></trkpt>
<trkpt lat="42.97433700" lon="-0.24527200"><ele></ele><time>2014-6-23T9:23:10Z</time></trkpt>
<trkpt lat="42.97430200" lon="-0.24523700"><ele></ele><time>2014-6-23T9:23:13Z</time></trkpt>
<trkpt lat="42.97428200" lon="-0.24527300"><ele></ele><time>2014-6-23T9:23:16Z</time></trkpt>
<trkpt lat="42.97434300" lon="-0.24530500"><ele></ele><time>2014-6-23T9:23:19Z</time></trkpt>
<trkpt lat="42.97434300" lon="-0.24528800"><ele></ele><time>2014-6-23T9:23:22Z</time></trkpt>
<trkpt lat="42.97434700" lon="-0.24522500"><ele></ele><time>2014-6-23T9:23:25Z</time></trkpt>
<trkpt lat="42.97435500" lon="-0.24526300"><ele></ele><time>2014-6-23T9:23:28Z</time></trkpt>
<trkpt lat="42.97433800" lon="-0.24526000"><ele></ele><time>2014-6-23T9:23:31Z</time></trkpt>
<trkpt lat="42.97431800" lon="-0.24523800"><ele></ele><time>2014-6-23T9:23:34Z</time></trkpt>
<trkpt lat="42.97429300" lon="-0.24524700"><ele></ele><time>2014-6-23T9:23:37Z</time></trkpt>
<trkpt lat="42.97430800" lon="-0.24523300"><ele></ele><time>2014-6-23T9:23:40Z</time></trkpt>
<trkpt lat="42.97431200" lon="-0.24520700"><ele></ele><time>2014-6-23T9:23:43Z</time></trkpt>
<trkpt lat="42.97434300" lon="-0.24521800"><ele></ele><time>2014-6-23T9:23:46Z</time></trkpt>
<trkpt lat="42.97435300" lon="-0.24522500"><ele></ele><time>2014-6-23T9:23:49Z</time></trkpt>
<trkpt lat="42.97434200" lon="-0.24521700"><ele></ele><time>2014-6-23T9:23:52Z</time></trkpt>
<trkpt lat="42.97431800" lon="-0.24522700"><ele></ele><time>2014-6-23T9:23:55Z</time></trkpt>
<trkpt lat="42.97430300" lon="-0.24522700"><ele></ele><time>2014-6-23T9:23:58Z</time></trkpt>
<trkpt lat="42.97430500" lon="-0.24523200"><ele></ele><time>2014-6-23T9:24:1Z</time></trkpt>
<trkpt lat="42.97431300" lon="-0.24521700"><ele></ele><time>2014-6-23T9:24:4Z</time></trkpt>
<trkpt lat="42.97431700" lon="-0.24520800"><ele></ele><time>2014-6-23T9:24:7Z</time></trkpt>
<trkpt lat="42.97433300" lon="-0.24521800"><ele></ele><time>2014-6-23T9:24:10Z</time></trkpt>
<trkpt lat="42.97433800" lon="-0.24521800"><ele></ele><time>2014-6-23T9:24:13Z</time></trkpt>
<trkpt lat="42.97433700" lon="-0.24523500"><ele></ele><time>2014-6-23T9:24:16Z</time></trkpt>
<trkpt lat="42.97433300" lon="-0.24524700"><ele></ele><time>2014-6-23T9:24:19Z</time></trkpt>
<trkpt lat="42.97434200" lon="-0.24524300"><ele></ele><time>2014-6-23T9:24:22Z</time></trkpt>
<trkpt lat="42.97433000" lon="-0.24526200"><ele></ele><time>2014-6-23T9:24:25Z</time></trkpt>
<trkpt lat="42.97432300" lon="-0.24526700"><ele></ele><time>2014-6-23T9:24:28Z</time></trkpt>
<trkpt lat="42.97432800" lon="-0.24525700"><ele></ele><time>2014-6-23T9:24:31Z</time></trkpt>
<trkpt lat="42.97432000" lon="-0.24529700"><ele></ele><time>2014-6-23T9:24:34Z</time></trkpt>
<trkpt lat="42.97431700" lon="-0.24529700"><ele></ele><time>2014-6-23T9:24:37Z</time></trkpt>
<trkpt lat="42.97431800" lon="-0.24529800"><ele></ele><time>2014-6-23T9:24:40Z</time></trkpt>
<trkpt lat="42.97428200" lon="-0.24543300"><ele></ele><time>2014-6-23T9:24:43Z</time></trkpt>
<trkpt lat="42.97422500" lon="-0.24569700"><ele></ele><time>2014-6-23T9:24:46Z</time></trkpt>
<trkpt lat="42.97418700" lon="-0.24585000"><ele></ele><time>2014-6-23T9:24:49Z</time></trkpt>
<trkpt lat="42.97407500" lon="-0.24610200"><ele></ele><time>2014-6-23T9:24:52Z</time></trkpt>
<trkpt lat="42.97403200" lon="-0.24621700"><ele></ele><time>2014-6-23T9:24:55Z</time></trkpt>
<trkpt lat="42.97402300" lon="-0.24621200"><ele></ele><time>2014-6-23T9:24:58Z</time></trkpt>
<trkpt lat="42.97402200" lon="-0.24622200"><ele></ele><time>2014-6-23T9:25:1Z</time></trkpt>
<trkpt lat="42.97399800" lon="-0.24627800"><ele></ele><time>2014-6-23T9:25:4Z</time></trkpt>
<trkpt lat="42.97399000" lon="-0.24633300"><ele></ele><time>2014-6-23T9:25:7Z</time></trkpt>
<trkpt lat="42.97397700" lon="-0.24637800"><ele></ele><time>2014-6-23T9:25:10Z</time></trkpt>
<trkpt lat="42.97397200" lon="-0.24641700"><ele></ele><time>2014-6-23T9:25:13Z</time></trkpt>
<trkpt lat="42.97396700" lon="-0.24659800"><ele></ele><time>2014-6-23T9:25:16Z</time></trkpt>
<trkpt lat="42.97400200" lon="-0.24677000"><ele></ele><time>2014-6-23T9:25:19Z</time></trkpt>
<trkpt lat="42.97404300" lon="-0.24694200"><ele></ele><time>2014-6-23T9:25:22Z</time></trkpt>
<trkpt lat="42.97410000" lon="-0.24709700"><ele></ele><time>2014-6-23T9:25:25Z</time></trkpt>
<trkpt lat="42.97419500" lon="-0.24719200"><ele></ele><time>2014-6-23T9:25:28Z</time></trkpt>
<trkpt lat="42.97438300" lon="-0.24717300"><ele></ele><time>2014-6-23T9:25:31Z</time></trkpt>
<trkpt lat="42.97453700" lon="-0.24719800"><ele></ele><time>2014-6-23T9:25:34Z</time></trkpt>
<trkpt lat="42.97473500" lon="-0.24722700"><ele></ele><time>2014-6-23T9:25:37Z</time></trkpt>
<trkpt lat="42.97487500" lon="-0.24727700"><ele></ele><time>2014-6-23T9:25:40Z</time></trkpt>
<trkpt lat="42.97499200" lon="-0.24729000"><ele></ele><time>2014-6-23T9:25:43Z</time></trkpt>
<trkpt lat="42.97505800" lon="-0.24729000"><ele></ele><time>2014-6-23T9:25:46Z</time></trkpt>
<trkpt lat="42.97507200" lon="-0.24728800"><ele></ele><time>2014-6-23T9:25:49Z</time></trkpt>
<trkpt lat="42.97508200" lon="-0.24729700"><ele></ele><time>2014-6-23T9:25:52Z</time></trkpt>
<trkpt lat="42.97509300" lon="-0.24730800"><ele></ele><time>2014-6-23T9:25:55Z</time></trkpt>
<trkpt lat="42.97504700" lon="-0.24731500"><ele></ele><time>2014-6-23T9:25:58Z</time></trkpt>
<trkpt lat="42.97507000" lon="-0.24732800"><ele></ele><time>2014-6-23T9:26:1Z</time></trkpt>
<trkpt lat="42.97506200" lon="-0.24732500"><ele></ele><time>2014-6-23T9:26:4Z</time></trkpt>
<trkpt lat="42.97506500" lon="-0.24730000"><ele></ele><time>2014-6-23T9:26:7Z</time></trkpt>
<trkpt lat="42.97506800" lon="-0.24729000"><ele></ele><time>2014-6-23T9:26:10Z</time></trkpt>
<trkpt lat="42.97509000" lon="-0.24728700"><ele></ele><time>2014-6-23T9:26:13Z</time></trkpt>
<trkpt lat="42.97506500" lon="-0.24731200"><ele></ele><time>2014-6-23T9:26:16Z</time></trkpt>
<trkpt lat="42.97506300" lon="-0.24731800"><ele></ele><time>2014-6-23T9:26:19Z</time></trkpt>
<trkpt lat="42.97505700" lon="-0.24732700"><ele></ele><time>2014-6-23T9:26:22Z</time></trkpt>
<trkpt lat="42.97504200" lon="-0.24733800"><ele></ele><time>2014-6-23T9:26:25Z</time></trkpt>
<trkpt lat="42.97505800" lon="-0.24732700"><ele></ele><time>2014-6-23T9:26:28Z</time></trkpt>
<trkpt lat="42.97506000" lon="-0.24733200"><ele></ele><time>2014-6-23T9:26:31Z</time></trkpt>
<trkpt lat="42.97505800" lon="-0.24734200"><ele></ele><time>2014-6-23T9:26:34Z</time></trkpt>
<trkpt lat="42.97504200" lon="-0.24733700"><ele></ele><time>2014-6-23T9:26:37Z</time></trkpt>
<trkpt lat="42.97502700" lon="-0.24735800"><ele></ele><time>2014-6-23T9:26:40Z</time></trkpt>
<trkpt lat="42.97504200" lon="-0.24735500"><ele></ele><time>2014-6-23T9:26:43Z</time></trkpt>
<trkpt lat="42.97505700" lon="-0.24736300"><ele></ele><time>2014-6-23T9:26:46Z</time></trkpt>
<trkpt lat="42.97505800" lon="-0.24735700"><ele></ele><time>2014-6-23T9:26:49Z</time></trkpt>
<trkpt lat="42.97508700" lon="-0.24736000"><ele></ele><time>2014-6-23T9:26:52Z</time></trkpt>
<trkpt lat="42.97508300" lon="-0.24736300"><ele></ele><time>2014-6-23T9:26:55Z</time></trkpt>
<trkpt lat="42.97506800" lon="-0.24737800"><ele></ele><time>2014-6-23T9:26:58Z</time></trkpt>
<trkpt lat="42.97506200" lon="-0.24735800"><ele></ele><time>2014-6-23T9:27:1Z</time></trkpt>
<trkpt lat="42.97509200" lon="-0.24735200"><ele></ele><time>2014-6-23T9:27:4Z</time></trkpt>
<trkpt lat="42.97508300" lon="-0.24734700"><ele></ele><time>2014-6-23T9:27:7Z</time></trkpt>
<trkpt lat="42.97509700" lon="-0.24735300"><ele></ele><time>2014-6-23T9:27:10Z</time></trkpt>
<trkpt lat="42.97506800" lon="-0.24735200"><ele></ele><time>2014-6-23T9:27:13Z</time></trkpt>
<trkpt lat="42.97508200" lon="-0.24736000"><ele></ele><time>2014-6-23T9:27:16Z</time></trkpt>
<trkpt lat="42.97505800" lon="-0.24734800"><ele></ele><time>2014-6-23T9:27:19Z</time></trkpt>
<trkpt lat="42.97506200" lon="-0.24733500"><ele></ele><time>2014-6-23T9:27:22Z</time></trkpt>
<trkpt lat="42.97507800" lon="-0.24734300"><ele></ele><time>2014-6-23T9:27:25Z</time></trkpt>
<trkpt lat="42.97504000" lon="-0.24733200"><ele></ele><time>2014-6-23T9:27:28Z</time></trkpt>
<trkpt lat="42.97504000" lon="-0.24732200"><ele></ele><time>2014-6-23T9:27:31Z</time></trkpt>
<trkpt lat="42.97504800" lon="-0.24732700"><ele></ele><time>2014-6-23T9:27:34Z</time></trkpt>
<trkpt lat="42.97505700" lon="-0.24733300"><ele></ele><time>2014-6-23T9:27:37Z</time></trkpt>
<trkpt lat="42.97507700" lon="-0.24733200"><ele></ele><time>2014-6-23T9:27:40Z</time></trkpt>
<trkpt lat="42.97508000" lon="-0.24733700"><ele></ele><time>2014-6-23T9:27:43Z</time></trkpt>
<trkpt lat="42.97505500" lon="-0.24733300"><ele></ele><time>2014-6-23T9:27:46Z</time></trkpt>
<trkpt lat="42.97505800" lon="-0.24731800"><ele></ele><time>2014-6-23T9:27:49Z</time></trkpt>
<trkpt lat="42.97504800" lon="-0.24731700"><ele></ele><time>2014-6-23T9:27:52Z</time></trkpt>
<trkpt lat="42.97504800" lon="-0.24730800"><ele></ele><time>2014-6-23T9:27:55Z</time></trkpt>
<trkpt lat="42.97507800" lon="-0.24724300"><ele></ele><time>2014-6-23T9:27:58Z</time></trkpt>
<trkpt lat="42.97508300" lon="-0.24722700"><ele></ele><time>2014-6-23T9:28:1Z</time></trkpt>
<trkpt lat="42.97507200" lon="-0.24722800"><ele></ele><time>2014-6-23T9:28:4Z</time></trkpt>
<trkpt lat="42.97505300" lon="-0.24731000"><ele></ele><time>2014-6-23T9:28:7Z</time></trkpt>
<trkpt lat="42.97504200" lon="-0.24730800"><ele></ele><time>2014-6-23T9:28:10Z</time></trkpt>
<trkpt lat="42.97503700" lon="-0.24731800"><ele></ele><time>2014-6-23T9:28:13Z</time></trkpt>
<trkpt lat="42.97503200" lon="-0.24732700"><ele></ele><time>2014-6-23T9:28:16Z</time></trkpt>
<trkpt lat="42.97491300" lon="-0.24734200"><ele></ele><time>2014-6-23T9:28:19Z</time></trkpt>
<trkpt lat="42.97481200" lon="-0.24733700"><ele></ele><time>2014-6-23T9:28:22Z</time></trkpt>
<trkpt lat="42.97468300" lon="-0.24732700"><ele></ele><time>2014-6-23T9:28:25Z</time></trkpt>
<trkpt lat="42.97458200" lon="-0.24731000"><ele></ele><time>2014-6-23T9:28:28Z</time></trkpt>
<trkpt lat="42.97446000" lon="-0.24732200"><ele></ele><time>2014-6-23T9:28:31Z</time></trkpt>
<trkpt lat="42.97435800" lon="-0.24735700"><ele></ele><time>2014-6-23T9:28:34Z</time></trkpt>
<trkpt lat="42.97426700" lon="-0.24741200"><ele></ele><time>2014-6-23T9:28:37Z</time></trkpt>
<trkpt lat="42.97416700" lon="-0.24748300"><ele></ele><time>2014-6-23T9:28:40Z</time></trkpt>
<trkpt lat="42.97409300" lon="-0.24755000"><ele></ele><time>2014-6-23T9:28:43Z</time></trkpt>
<trkpt lat="42.97403200" lon="-0.24759800"><ele></ele><time>2014-6-23T9:28:46Z</time></trkpt>
<trkpt lat="42.97397300" lon="-0.24762800"><ele></ele><time>2014-6-23T9:28:49Z</time></trkpt>
<trkpt lat="42.97396700" lon="-0.24763200"><ele></ele><time>2014-6-23T9:28:52Z</time></trkpt>
<trkpt lat="42.97396500" lon="-0.24762700"><ele></ele><time>2014-6-23T9:28:55Z</time></trkpt>
<trkpt lat="42.97396300" lon="-0.24762700"><ele></ele><time>2014-6-23T9:28:58Z</time></trkpt>
<trkpt lat="42.97396200" lon="-0.24762700"><ele></ele><time>2014-6-23T9:29:1Z</time></trkpt>
<trkpt lat="42.97395300" lon="-0.24762700"><ele></ele><time>2014-6-23T9:29:4Z</time></trkpt>
<trkpt lat="42.97387800" lon="-0.24762700"><ele></ele><time>2014-6-23T9:29:7Z</time></trkpt>
<trkpt lat="42.97379700" lon="-0.24761000"><ele></ele><time>2014-6-23T9:29:10Z</time></trkpt>
<trkpt lat="42.97370300" lon="-0.24760500"><ele></ele><time>2014-6-23T9:29:13Z</time></trkpt>
<trkpt lat="42.97362300" lon="-0.24758800"><ele></ele><time>2014-6-23T9:29:16Z</time></trkpt>
<trkpt lat="42.97354800" lon="-0.24755700"><ele></ele><time>2014-6-23T9:29:19Z</time></trkpt>
<trkpt lat="42.97345500" lon="-0.24756300"><ele></ele><time>2014-6-23T9:29:22Z</time></trkpt>
<trkpt lat="42.97339000" lon="-0.24761000"><ele></ele><time>2014-6-23T9:29:25Z</time></trkpt>
<trkpt lat="42.97332800" lon="-0.24763300"><ele></ele><time>2014-6-23T9:29:28Z</time></trkpt>
<trkpt lat="42.97326800" lon="-0.24765200"><ele></ele><time>2014-6-23T9:29:31Z</time></trkpt>
<trkpt lat="42.97319800" lon="-0.24768700"><ele></ele><time>2014-6-23T9:29:34Z</time></trkpt>
<trkpt lat="42.97313300" lon="-0.24769300"><ele></ele><time>2014-6-23T9:29:37Z</time></trkpt>
<trkpt lat="42.97307500" lon="-0.24772300"><ele></ele><time>2014-6-23T9:29:40Z</time></trkpt>
<trkpt lat="42.97300800" lon="-0.24774200"><ele></ele><time>2014-6-23T9:29:43Z</time></trkpt>
<trkpt lat="42.97295700" lon="-0.24766800"><ele></ele><time>2014-6-23T9:29:46Z</time></trkpt>
<trkpt lat="42.97294300" lon="-0.24761700"><ele></ele><time>2014-6-23T9:29:49Z</time></trkpt>
<trkpt lat="42.97293000" lon="-0.24760000"><ele></ele><time>2014-6-23T9:29:52Z</time></trkpt>
<trkpt lat="42.97290300" lon="-0.24754200"><ele></ele><time>2014-6-23T9:29:55Z</time></trkpt>
<trkpt lat="42.97288200" lon="-0.24750300"><ele></ele><time>2014-6-23T9:29:58Z</time></trkpt>
<trkpt lat="42.97287800" lon="-0.24748200"><ele></ele><time>2014-6-23T9:30:1Z</time></trkpt>
<trkpt lat="42.97287500" lon="-0.24749200"><ele></ele><time>2014-6-23T9:30:4Z</time></trkpt>
<trkpt lat="42.97290300" lon="-0.24741300"><ele></ele><time>2014-6-23T9:30:7Z</time></trkpt>
<trkpt lat="42.97291800" lon="-0.24728200"><ele></ele><time>2014-6-23T9:30:10Z</time></trkpt>
<trkpt lat="42.97293700" lon="-0.24715700"><ele></ele><time>2014-6-23T9:30:13Z</time></trkpt>
<trkpt lat="42.97294800" lon="-0.24702800"><ele></ele><time>2014-6-23T9:30:16Z</time></trkpt>
<trkpt lat="42.97296300" lon="-0.24690700"><ele></ele><time>2014-6-23T9:30:19Z</time></trkpt>
<trkpt lat="42.97298000" lon="-0.24677300"><ele></ele><time>2014-6-23T9:30:22Z</time></trkpt>
<trkpt lat="42.97298800" lon="-0.24666200"><ele></ele><time>2014-6-23T9:30:25Z</time></trkpt>
<trkpt lat="42.97300000" lon="-0.24655700"><ele></ele><time>2014-6-23T9:30:28Z</time></trkpt>
<trkpt lat="42.97303800" lon="-0.24647700"><ele></ele><time>2014-6-23T9:30:31Z</time></trkpt>
<trkpt lat="42.97308200" lon="-0.24638500"><ele></ele><time>2014-6-23T9:30:34Z</time></trkpt>
<trkpt lat="42.97313300" lon="-0.24628300"><ele></ele><time>2014-6-23T9:30:37Z</time></trkpt>
<trkpt lat="42.97319700" lon="-0.24620700"><ele></ele><time>2014-6-23T9:30:40Z</time></trkpt>
<trkpt lat="42.97332000" lon="-0.24615700"><ele></ele><time>2014-6-23T9:30:43Z</time></trkpt>
<trkpt lat="42.97344800" lon="-0.24614800"><ele></ele><time>2014-6-23T9:30:46Z</time></trkpt>
<trkpt lat="42.97357200" lon="-0.24615300"><ele></ele><time>2014-6-23T9:30:49Z</time></trkpt>
<trkpt lat="42.97377800" lon="-0.24588800"><ele></ele><time>2014-6-23T9:30:52Z</time></trkpt>
<trkpt lat="42.97408000" lon="-0.24552500"><ele></ele><time>2014-6-23T9:30:55Z</time></trkpt>
<trkpt lat="42.97435000" lon="-0.24519800"><ele></ele><time>2014-6-23T9:30:58Z</time></trkpt>
<trkpt lat="42.97461700" lon="-0.24523200"><ele></ele><time>2014-6-23T9:31:1Z</time></trkpt>
<trkpt lat="42.97499200" lon="-0.24553200"><ele></ele><time>2014-6-23T9:31:4Z</time></trkpt>
<trkpt lat="42.97523700" lon="-0.24575300"><ele></ele><time>2014-6-23T9:31:7Z</time></trkpt>
<trkpt lat="42.97536200" lon="-0.24602000"><ele></ele><time>2014-6-23T9:31:10Z</time></trkpt>
<trkpt lat="42.97532200" lon="-0.24634300"><ele></ele><time>2014-6-23T9:31:13Z</time></trkpt>
<trkpt lat="42.97523800" lon="-0.24673300"><ele></ele><time>2014-6-23T9:31:16Z</time></trkpt>
<trkpt lat="42.97512500" lon="-0.24722200"><ele></ele><time>2014-6-23T9:31:19Z</time></trkpt>
<trkpt lat="42.97508700" lon="-0.24734700"><ele></ele><time>2014-6-23T9:31:22Z</time></trkpt>
<trkpt lat="42.97508200" lon="-0.24734300"><ele></ele><time>2014-6-23T9:31:25Z</time></trkpt>
<trkpt lat="42.97508000" lon="-0.24732500"><ele></ele><time>2014-6-23T9:31:28Z</time></trkpt>
<trkpt lat="42.97515300" lon="-0.24725200"><ele></ele><time>2014-6-23T9:31:31Z</time></trkpt>
<trkpt lat="42.97517300" lon="-0.24724300"><ele></ele><time>2014-6-23T9:31:34Z</time></trkpt>
<trkpt lat="42.97513000" lon="-0.24726200"><ele></ele><time>2014-6-23T9:31:37Z</time></trkpt>
<trkpt lat="42.97511700" lon="-0.24727500"><ele></ele><time>2014-6-23T9:31:40Z</time></trkpt>
<trkpt lat="42.97511000" lon="-0.24730300"><ele></ele><time>2014-6-23T9:31:43Z</time></trkpt>
<trkpt lat="42.97513500" lon="-0.24727700"><ele></ele><time>2014-6-23T9:31:46Z</time></trkpt>
<trkpt lat="42.97508700" lon="-0.24733800"><ele></ele><time>2014-6-23T9:31:49Z</time></trkpt>
<trkpt lat="42.97515700" lon="-0.24728800"><ele></ele><time>2014-6-23T9:31:52Z</time></trkpt>
<trkpt lat="42.97508300" lon="-0.24732800"><ele></ele><time>2014-6-23T9:31:55Z</time></trkpt>
<trkpt lat="42.97505800" lon="-0.24734800"><ele></ele><time>2014-6-23T9:31:58Z</time></trkpt>
<trkpt lat="42.97512000" lon="-0.24726800"><ele></ele><time>2014-6-23T9:32:1Z</time></trkpt>
<trkpt lat="42.97510500" lon="-0.24724200"><ele></ele><time>2014-6-23T9:32:4Z</time></trkpt>
<trkpt lat="42.97504200" lon="-0.24733500"><ele></ele><time>2014-6-23T9:32:7Z</time></trkpt>
<trkpt lat="42.97505500" lon="-0.24733800"><ele></ele><time>2014-6-23T9:32:10Z</time></trkpt>
<trkpt lat="42.97508700" lon="-0.24728800"><ele></ele><time>2014-6-23T9:32:13Z</time></trkpt>
<trkpt lat="42.97508300" lon="-0.24728800"><ele></ele><time>2014-6-23T9:32:16Z</time></trkpt>
<trkpt lat="42.97506200" lon="-0.24727500"><ele></ele><time>2014-6-23T9:32:19Z</time></trkpt>
<trkpt lat="42.97506300" lon="-0.24728500"><ele></ele><time>2014-6-23T9:32:22Z</time></trkpt>
<trkpt lat="42.97503700" lon="-0.24731000"><ele></ele><time>2014-6-23T9:32:25Z</time></trkpt>
<trkpt lat="42.97504200" lon="-0.24731700"><ele></ele><time>2014-6-23T9:32:28Z</time></trkpt>
<trkpt lat="42.97504700" lon="-0.24729500"><ele></ele><time>2014-6-23T9:32:31Z</time></trkpt>
<trkpt lat="42.97505000" lon="-0.24730700"><ele></ele><time>2014-6-23T9:32:34Z</time></trkpt>
<trkpt lat="42.97506300" lon="-0.24731700"><ele></ele><time>2014-6-23T9:32:37Z</time></trkpt>
<trkpt lat="42.97507200" lon="-0.24732000"><ele></ele><time>2014-6-23T9:32:40Z</time></trkpt>
<trkpt lat="42.97508500" lon="-0.24733000"><ele></ele><time>2014-6-23T9:32:43Z</time></trkpt>
<trkpt lat="42.97509200" lon="-0.24733800"><ele></ele><time>2014-6-23T9:32:46Z</time></trkpt>
<trkpt lat="42.97508500" lon="-0.24733200"><ele></ele><time>2014-6-23T9:32:49Z</time></trkpt>
<trkpt lat="42.97507300" lon="-0.24731200"><ele></ele><time>2014-6-23T9:32:52Z</time></trkpt>
<trkpt lat="42.97511500" lon="-0.24735300"><ele></ele><time>2014-6-23T9:32:55Z</time></trkpt>
<trkpt lat="42.97514700" lon="-0.24735700"><ele></ele><time>2014-6-23T9:32:58Z</time></trkpt>
<trkpt lat="42.97513700" lon="-0.24736800"><ele></ele><time>2014-6-23T9:33:1Z</time></trkpt>
<trkpt lat="42.97512800" lon="-0.24736200"><ele></ele><time>2014-6-23T9:33:4Z</time></trkpt>
<trkpt lat="42.97513300" lon="-0.24738300"><ele></ele><time>2014-6-23T9:33:7Z</time></trkpt>
<trkpt lat="42.97516300" lon="-0.24737300"><ele></ele><time>2014-6-23T9:33:10Z</time></trkpt>
<trkpt lat="42.97518700" lon="-0.24739200"><ele></ele><time>2014-6-23T9:33:13Z</time></trkpt>
<trkpt lat="42.97517300" lon="-0.24739700"><ele></ele><time>2014-6-23T9:33:16Z</time></trkpt>
<trkpt lat="42.97513000" lon="-0.24739500"><ele></ele><time>2014-6-23T9:33:19Z</time></trkpt>
<trkpt lat="42.97513200" lon="-0.24736500"><ele></ele><time>2014-6-23T9:33:22Z</time></trkpt>
<trkpt lat="42.97508200" lon="-0.24732200"><ele></ele><time>2014-6-23T9:33:25Z</time></trkpt>
<trkpt lat="42.97511300" lon="-0.24725200"><ele></ele><time>2014-6-23T9:33:28Z</time></trkpt>
<trkpt lat="42.97511700" lon="-0.24725700"><ele></ele><time>2014-6-23T9:33:31Z</time></trkpt>
<trkpt lat="42.97511800" lon="-0.24725800"><ele></ele><time>2014-6-23T9:33:34Z</time></trkpt>
<trkpt lat="42.97512300" lon="-0.24724800"><ele></ele><time>2014-6-23T9:33:37Z</time></trkpt>
<trkpt lat="42.97511700" lon="-0.24725200"><ele></ele><time>2014-6-23T9:33:40Z</time></trkpt>
<trkpt lat="42.97510800" lon="-0.24724500"><ele></ele><time>2014-6-23T9:33:43Z</time></trkpt>
<trkpt lat="42.97512800" lon="-0.24724800"><ele></ele><time>2014-6-23T9:33:46Z</time></trkpt>
<trkpt lat="42.97511300" lon="-0.24724000"><ele></ele><time>2014-6-23T9:33:49Z</time></trkpt>
<trkpt lat="42.97511000" lon="-0.24723300"><ele></ele><time>2014-6-23T9:33:52Z</time></trkpt>
<trkpt lat="42.97511300" lon="-0.24724800"><ele></ele><time>2014-6-23T9:33:55Z</time></trkpt>
<trkpt lat="42.97509500" lon="-0.24728700"><ele></ele><time>2014-6-23T9:33:58Z</time></trkpt>
<trkpt lat="42.97507200" lon="-0.24729800"><ele></ele><time>2014-6-23T9:34:1Z</time></trkpt>
<trkpt lat="42.97508300" lon="-0.24736000"><ele></ele><time>2014-6-23T9:34:4Z</time></trkpt>
<trkpt lat="42.97507300" lon="-0.24736500"><ele></ele><time>2014-6-23T9:34:7Z</time></trkpt>
<trkpt lat="42.97508800" lon="-0.24734000"><ele></ele><time>2014-6-23T9:34:10Z</time></trkpt>
<trkpt lat="42.97514000" lon="-0.24734200"><ele></ele><time>2014-6-23T9:34:13Z</time></trkpt>
<trkpt lat="42.97514200" lon="-0.24735300"><ele></ele><time>2014-6-23T9:34:16Z</time></trkpt>
<trkpt lat="42.97513700" lon="-0.24736200"><ele></ele><time>2014-6-23T9:34:19Z</time></trkpt>
<trkpt lat="42.97510200" lon="-0.24733500"><ele></ele><time>2014-6-23T9:34:22Z</time></trkpt>
<trkpt lat="42.97503500" lon="-0.24726200"><ele></ele><time>2014-6-23T9:34:25Z</time></trkpt>
<trkpt lat="42.97510300" lon="-0.24719700"><ele></ele><time>2014-6-23T9:34:28Z</time></trkpt>
<trkpt lat="42.97515200" lon="-0.24713500"><ele></ele><time>2014-6-23T9:34:31Z</time></trkpt>
<trkpt lat="42.97520200" lon="-0.24703300"><ele></ele><time>2014-6-23T9:34:34Z</time></trkpt>
<trkpt lat="42.97522200" lon="-0.24700700"><ele></ele><time>2014-6-23T9:34:37Z</time></trkpt>
<trkpt lat="42.97523800" lon="-0.24697300"><ele></ele><time>2014-6-23T9:34:40Z</time></trkpt>
<trkpt lat="42.97525200" lon="-0.24694200"><ele></ele><time>2014-6-23T9:34:43Z</time></trkpt>
<trkpt lat="42.97527300" lon="-0.24689200"><ele></ele><time>2014-6-23T9:34:46Z</time></trkpt>
<trkpt lat="42.97527700" lon="-0.24686200"><ele></ele><time>2014-6-23T9:34:49Z</time></trkpt>
<trkpt lat="42.97527700" lon="-0.24684200"><ele></ele><time>2014-6-23T9:34:52Z</time></trkpt>
<trkpt lat="42.97528000" lon="-0.24683700"><ele></ele><time>2014-6-23T9:34:55Z</time></trkpt>
<trkpt lat="42.97528200" lon="-0.24684200"><ele></ele><time>2014-6-23T9:34:58Z</time></trkpt>
<trkpt lat="42.97528700" lon="-0.24684300"><ele></ele><time>2014-6-23T9:35:1Z</time></trkpt>
<trkpt lat="42.97528700" lon="-0.24685200"><ele></ele><time>2014-6-23T9:35:4Z</time></trkpt>
<trkpt lat="42.97530300" lon="-0.24685700"><ele></ele><time>2014-6-23T9:35:7Z</time></trkpt>
<trkpt lat="42.97528500" lon="-0.24686200"><ele></ele><time>2014-6-23T9:35:10Z</time></trkpt>
<trkpt lat="42.97531000" lon="-0.24681800"><ele></ele><time>2014-6-23T9:35:13Z</time></trkpt>
<trkpt lat="42.97532700" lon="-0.24681300"><ele></ele><time>2014-6-23T9:35:16Z</time></trkpt>
<trkpt lat="42.97535800" lon="-0.24681000"><ele></ele><time>2014-6-23T9:35:19Z</time></trkpt>
<trkpt lat="42.97532300" lon="-0.24681500"><ele></ele><time>2014-6-23T9:35:22Z</time></trkpt>
<trkpt lat="42.97531000" lon="-0.24680800"><ele></ele><time>2014-6-23T9:35:25Z</time></trkpt>
<trkpt lat="42.97529000" lon="-0.24681300"><ele></ele><time>2014-6-23T9:35:28Z</time></trkpt>
<trkpt lat="42.97528700" lon="-0.24682800"><ele></ele><time>2014-6-23T9:35:31Z</time></trkpt>
<trkpt lat="42.97527200" lon="-0.24687700"><ele></ele><time>2014-6-23T9:35:34Z</time></trkpt>
<trkpt lat="42.97520300" lon="-0.24699800"><ele></ele><time>2014-6-23T9:35:37Z</time></trkpt>
<trkpt lat="42.97520800" lon="-0.24699700"><ele></ele><time>2014-6-23T9:35:40Z</time></trkpt>
<trkpt lat="42.97520800" lon="-0.24699700"><ele></ele><time>2014-6-23T9:35:43Z</time></trkpt>
<trkpt lat="42.97523200" lon="-0.24699300"><ele></ele><time>2014-6-23T9:35:46Z</time></trkpt>
<trkpt lat="42.97524700" lon="-0.24696700"><ele></ele><time>2014-6-23T9:35:49Z</time></trkpt>
<trkpt lat="42.97527000" lon="-0.24692500"><ele></ele><time>2014-6-23T9:35:52Z</time></trkpt>
<trkpt lat="42.97528000" lon="-0.24687700"><ele></ele><time>2014-6-23T9:35:55Z</time></trkpt>
<trkpt lat="42.97529700" lon="-0.24685200"><ele></ele><time>2014-6-23T9:35:58Z</time></trkpt>
<trkpt lat="42.97533700" lon="-0.24683300"><ele></ele><time>2014-6-23T9:36:1Z</time></trkpt>
<trkpt lat="42.97534000" lon="-0.24683000"><ele></ele><time>2014-6-23T9:36:4Z</time></trkpt>
<trkpt lat="42.97534300" lon="-0.24681300"><ele></ele><time>2014-6-23T9:36:7Z</time></trkpt>
<trkpt lat="42.97527300" lon="-0.24692300"><ele></ele><time>2014-6-23T9:36:10Z</time></trkpt>
<trkpt lat="42.97513300" lon="-0.24721200"><ele></ele><time>2014-6-23T9:36:13Z</time></trkpt>
<trkpt lat="42.97510200" lon="-0.24732000"><ele></ele><time>2014-6-23T9:36:16Z</time></trkpt>
<trkpt lat="42.97512700" lon="-0.24732000"><ele></ele><time>2014-6-23T9:36:19Z</time></trkpt>
<trkpt lat="42.97512700" lon="-0.24731300"><ele></ele><time>2014-6-23T9:36:22Z</time></trkpt>
<trkpt lat="42.97512800" lon="-0.24731300"><ele></ele><time>2014-6-23T9:36:25Z</time></trkpt>
<trkpt lat="42.97512700" lon="-0.24729800"><ele></ele><time>2014-6-23T9:36:28Z</time></trkpt>
<trkpt lat="42.97512300" lon="-0.24728800"><ele></ele><time>2014-6-23T9:36:31Z</time></trkpt>
<trkpt lat="42.97512200" lon="-0.24728700"><ele></ele><time>2014-6-23T9:36:34Z</time></trkpt>
<trkpt lat="42.97511700" lon="-0.24728200"><ele></ele><time>2014-6-23T9:36:37Z</time></trkpt>
<trkpt lat="42.97510800" lon="-0.24726500"><ele></ele><time>2014-6-23T9:36:40Z</time></trkpt>
<trkpt lat="42.97512200" lon="-0.24722800"><ele></ele><time>2014-6-23T9:36:43Z</time></trkpt>
<trkpt lat="42.97512800" lon="-0.24722800"><ele></ele><time>2014-6-23T9:36:46Z</time></trkpt>
<trkpt lat="42.97507700" lon="-0.24730300"><ele></ele><time>2014-6-23T9:36:49Z</time></trkpt>
<trkpt lat="42.97500800" lon="-0.24723300"><ele></ele><time>2014-6-23T9:36:52Z</time></trkpt>
<trkpt lat="42.97509200" lon="-0.24723000"><ele></ele><time>2014-6-23T9:36:55Z</time></trkpt>
<trkpt lat="42.97518800" lon="-0.24729300"><ele></ele><time>2014-6-23T9:36:58Z</time></trkpt>
<trkpt lat="42.97528200" lon="-0.24743800"><ele></ele><time>2014-6-23T9:37:1Z</time></trkpt>
<trkpt lat="42.97539200" lon="-0.24757500"><ele></ele><time>2014-6-23T9:37:4Z</time></trkpt>
<trkpt lat="42.97555700" lon="-0.24755300"><ele></ele><time>2014-6-23T9:37:7Z</time></trkpt>
<trkpt lat="42.97568300" lon="-0.24748800"><ele></ele><time>2014-6-23T9:37:10Z</time></trkpt>
<trkpt lat="42.97578300" lon="-0.24743200"><ele></ele><time>2014-6-23T9:37:13Z</time></trkpt>
<trkpt lat="42.97591800" lon="-0.24736700"><ele></ele><time>2014-6-23T9:37:16Z</time></trkpt>
<trkpt lat="42.97610300" lon="-0.24722700"><ele></ele><time>2014-6-23T9:37:19Z</time></trkpt>
<trkpt lat="42.97625800" lon="-0.24702200"><ele></ele><time>2014-6-23T9:37:22Z</time></trkpt>
<trkpt lat="42.97642500" lon="-0.24690300"><ele></ele><time>2014-6-23T9:37:25Z</time></trkpt>
<trkpt lat="42.97656800" lon="-0.24688500"><ele></ele><time>2014-6-23T9:37:28Z</time></trkpt>
<trkpt lat="42.97668200" lon="-0.24687300"><ele></ele><time>2014-6-23T9:37:31Z</time></trkpt>
<trkpt lat="42.97680700" lon="-0.24688300"><ele></ele><time>2014-6-23T9:37:34Z</time></trkpt>
<trkpt lat="42.97689800" lon="-0.24690800"><ele></ele><time>2014-6-23T9:37:37Z</time></trkpt>
<trkpt lat="42.97699300" lon="-0.24693700"><ele></ele><time>2014-6-23T9:37:40Z</time></trkpt>
<trkpt lat="42.97710200" lon="-0.24699200"><ele></ele><time>2014-6-23T9:37:43Z</time></trkpt>
<trkpt lat="42.97723000" lon="-0.24700800"><ele></ele><time>2014-6-23T9:37:46Z</time></trkpt>
<trkpt lat="42.97735700" lon="-0.24705800"><ele></ele><time>2014-6-23T9:37:49Z</time></trkpt>
<trkpt lat="42.97746700" lon="-0.24718300"><ele></ele><time>2014-6-23T9:37:52Z</time></trkpt>
<trkpt lat="42.97754700" lon="-0.24743700"><ele></ele><time>2014-6-23T9:37:55Z</time></trkpt>
<trkpt lat="42.97767700" lon="-0.24756300"><ele></ele><time>2014-6-23T9:37:58Z</time></trkpt>
<trkpt lat="42.97781300" lon="-0.24762700"><ele></ele><time>2014-6-23T9:38:1Z</time></trkpt>
<trkpt lat="42.97794800" lon="-0.24772000"><ele></ele><time>2014-6-23T9:38:4Z</time></trkpt>
<trkpt lat="42.97808800" lon="-0.24778500"><ele></ele><time>2014-6-23T9:38:7Z</time></trkpt>
<trkpt lat="42.97822700" lon="-0.24778200"><ele></ele><time>2014-6-23T9:38:10Z</time></trkpt>
<trkpt lat="42.97834800" lon="-0.24774300"><ele></ele><time>2014-6-23T9:38:13Z</time></trkpt>
<trkpt lat="42.97846800" lon="-0.24766800"><ele></ele><time>2014-6-23T9:38:16Z</time></trkpt>
<trkpt lat="42.97857800" lon="-0.24758800"><ele></ele><time>2014-6-23T9:38:19Z</time></trkpt>
<trkpt lat="42.97867800" lon="-0.24748500"><ele></ele><time>2014-6-23T9:38:22Z</time></trkpt>
<trkpt lat="42.97879700" lon="-0.24737300"><ele></ele><time>2014-6-23T9:38:25Z</time></trkpt>
<trkpt lat="42.97889700" lon="-0.24726800"><ele></ele><time>2014-6-23T9:38:28Z</time></trkpt>
<trkpt lat="42.97900200" lon="-0.24715800"><ele></ele><time>2014-6-23T9:38:31Z</time></trkpt>
<trkpt lat="42.97913700" lon="-0.24709800"><ele></ele><time>2014-6-23T9:38:34Z</time></trkpt>
<trkpt lat="42.97926800" lon="-0.24705200"><ele></ele><time>2014-6-23T9:38:37Z</time></trkpt>
<trkpt lat="42.97943200" lon="-0.24701200"><ele></ele><time>2014-6-23T9:38:40Z</time></trkpt>
<trkpt lat="42.97958300" lon="-0.24698000"><ele></ele><time>2014-6-23T9:38:43Z</time></trkpt>
<trkpt lat="42.97968800" lon="-0.24692000"><ele></ele><time>2014-6-23T9:38:46Z</time></trkpt>
<trkpt lat="42.97977300" lon="-0.24685000"><ele></ele><time>2014-6-23T9:38:49Z</time></trkpt>
<trkpt lat="42.97985000" lon="-0.24676000"><ele></ele><time>2014-6-23T9:38:52Z</time></trkpt>
<trkpt lat="42.97995500" lon="-0.24667300"><ele></ele><time>2014-6-23T9:38:55Z</time></trkpt>
<trkpt lat="42.98006700" lon="-0.24654300"><ele></ele><time>2014-6-23T9:38:58Z</time></trkpt>
<trkpt lat="42.98013700" lon="-0.24636200"><ele></ele><time>2014-6-23T9:39:1Z</time></trkpt>
<trkpt lat="42.98016700" lon="-0.24620300"><ele></ele><time>2014-6-23T9:39:4Z</time></trkpt>
<trkpt lat="42.98017700" lon="-0.24606200"><ele></ele><time>2014-6-23T9:39:7Z</time></trkpt>
<trkpt lat="42.98018800" lon="-0.24592800"><ele></ele><time>2014-6-23T9:39:10Z</time></trkpt>
<trkpt lat="42.98020200" lon="-0.24577800"><ele></ele><time>2014-6-23T9:39:13Z</time></trkpt>
<trkpt lat="42.98022700" lon="-0.24559200"><ele></ele><time>2014-6-23T9:39:16Z</time></trkpt>
<trkpt lat="42.98023700" lon="-0.24538000"><ele></ele><time>2014-6-23T9:39:19Z</time></trkpt>
<trkpt lat="42.98022200" lon="-0.24517300"><ele></ele><time>2014-6-23T9:39:22Z</time></trkpt>
<trkpt lat="42.98020300" lon="-0.24499300"><ele></ele><time>2014-6-23T9:39:25Z</time></trkpt>
<trkpt lat="42.98020800" lon="-0.24484300"><ele></ele><time>2014-6-23T9:39:28Z</time></trkpt>
<trkpt lat="42.98024500" lon="-0.24469300"><ele></ele><time>2014-6-23T9:39:31Z</time></trkpt>
<trkpt lat="42.98031300" lon="-0.24455700"><ele></ele><time>2014-6-23T9:39:34Z</time></trkpt>
<trkpt lat="42.98038500" lon="-0.24444700"><ele></ele><time>2014-6-23T9:39:37Z</time></trkpt>
<trkpt lat="42.98046700" lon="-0.24432700"><ele></ele><time>2014-6-23T9:39:40Z</time></trkpt>
<trkpt lat="42.98056300" lon="-0.24421300"><ele></ele><time>2014-6-23T9:39:43Z</time></trkpt>
<trkpt lat="42.98064800" lon="-0.24413500"><ele></ele><time>2014-6-23T9:39:46Z</time></trkpt>
<trkpt lat="42.98075800" lon="-0.24407200"><ele></ele><time>2014-6-23T9:39:49Z</time></trkpt>
<trkpt lat="42.98087800" lon="-0.24400800"><ele></ele><time>2014-6-23T9:39:52Z</time></trkpt>
<trkpt lat="42.98098300" lon="-0.24393500"><ele></ele><time>2014-6-23T9:39:55Z</time></trkpt>
<trkpt lat="42.98108000" lon="-0.24385000"><ele></ele><time>2014-6-23T9:39:58Z</time></trkpt>
<trkpt lat="42.98115800" lon="-0.24377000"><ele></ele><time>2014-6-23T9:40:1Z</time></trkpt>
<trkpt lat="42.98121500" lon="-0.24368500"><ele></ele><time>2014-6-23T9:40:4Z</time></trkpt>
<trkpt lat="42.98128700" lon="-0.24359200"><ele></ele><time>2014-6-23T9:40:7Z</time></trkpt>
<trkpt lat="42.98134200" lon="-0.24350300"><ele></ele><time>2014-6-23T9:40:10Z</time></trkpt>
<trkpt lat="42.98141200" lon="-0.24343200"><ele></ele><time>2014-6-23T9:40:13Z</time></trkpt>
<trkpt lat="42.98148200" lon="-0.24336700"><ele></ele><time>2014-6-23T9:40:16Z</time></trkpt>
<trkpt lat="42.98156200" lon="-0.24326200"><ele></ele><time>2014-6-23T9:40:19Z</time></trkpt>
<trkpt lat="42.98167700" lon="-0.24313700"><ele></ele><time>2014-6-23T9:40:22Z</time></trkpt>
<trkpt lat="42.98176800" lon="-0.24305300"><ele></ele><time>2014-6-23T9:40:25Z</time></trkpt>
<trkpt lat="42.98186200" lon="-0.24299200"><ele></ele><time>2014-6-23T9:40:28Z</time></trkpt>
<trkpt lat="42.98195300" lon="-0.24287200"><ele></ele><time>2014-6-23T9:40:31Z</time></trkpt>
<trkpt lat="42.98204700" lon="-0.24273700"><ele></ele><time>2014-6-23T9:40:34Z</time></trkpt>
<trkpt lat="42.98213500" lon="-0.24258700"><ele></ele><time>2014-6-23T9:40:37Z</time></trkpt>
<trkpt lat="42.98219700" lon="-0.24243300"><ele></ele><time>2014-6-23T9:40:40Z</time></trkpt>
<trkpt lat="42.98224300" lon="-0.24232200"><ele></ele><time>2014-6-23T9:40:43Z</time></trkpt>
<trkpt lat="42.98226300" lon="-0.24221300"><ele></ele><time>2014-6-23T9:40:46Z</time></trkpt>
<trkpt lat="42.98228300" lon="-0.24212200"><ele></ele><time>2014-6-23T9:40:49Z</time></trkpt>
<trkpt lat="42.98231200" lon="-0.24202700"><ele></ele><time>2014-6-23T9:40:52Z</time></trkpt>
<trkpt lat="42.98235300" lon="-0.24193200"><ele></ele><time>2014-6-23T9:40:55Z</time></trkpt>
<trkpt lat="42.98239200" lon="-0.24182300"><ele></ele><time>2014-6-23T9:40:58Z</time></trkpt>
<trkpt lat="42.98246700" lon="-0.24170700"><ele></ele><time>2014-6-23T9:41:1Z</time></trkpt>
<trkpt lat="42.98253800" lon="-0.24155200"><ele></ele><time>2014-6-23T9:41:4Z</time></trkpt>
<trkpt lat="42.98259700" lon="-0.24140200"><ele></ele><time>2014-6-23T9:41:7Z</time></trkpt>
<trkpt lat="42.98266700" lon="-0.24125700"><ele></ele><time>2014-6-23T9:41:10Z</time></trkpt>
<trkpt lat="42.98275000" lon="-0.24118800"><ele></ele><time>2014-6-23T9:41:13Z</time></trkpt>
<trkpt lat="42.98284800" lon="-0.24129700"><ele></ele><time>2014-6-23T9:41:16Z</time></trkpt>
<trkpt lat="42.98285700" lon="-0.24132800"><ele></ele><time>2014-6-23T9:41:19Z</time></trkpt>
<trkpt lat="42.98285800" lon="-0.24133200"><ele></ele><time>2014-6-23T9:41:22Z</time></trkpt>
<trkpt lat="42.98285800" lon="-0.24132500"><ele></ele><time>2014-6-23T9:41:25Z</time></trkpt>
<trkpt lat="42.98285500" lon="-0.24132300"><ele></ele><time>2014-6-23T9:41:28Z</time></trkpt>
<trkpt lat="42.98285300" lon="-0.24132200"><ele></ele><time>2014-6-23T9:41:31Z</time></trkpt>
<trkpt lat="42.98284300" lon="-0.24131200"><ele></ele><time>2014-6-23T9:41:34Z</time></trkpt>
<trkpt lat="42.98284000" lon="-0.24131300"><ele></ele><time>2014-6-23T9:41:37Z</time></trkpt>
<trkpt lat="42.98284000" lon="-0.24132200"><ele></ele><time>2014-6-23T9:41:40Z</time></trkpt>
<trkpt lat="42.98284700" lon="-0.24133300"><ele></ele><time>2014-6-23T9:41:43Z</time></trkpt>
<trkpt lat="42.98285300" lon="-0.24134800"><ele></ele><time>2014-6-23T9:41:46Z</time></trkpt>
<trkpt lat="42.98285500" lon="-0.24135700"><ele></ele><time>2014-6-23T9:41:49Z</time></trkpt>
<trkpt lat="42.98285300" lon="-0.24134800"><ele></ele><time>2014-6-23T9:41:52Z</time></trkpt>
<trkpt lat="42.98285000" lon="-0.24134700"><ele></ele><time>2014-6-23T9:41:55Z</time></trkpt>
<trkpt lat="42.98285800" lon="-0.24133800"><ele></ele><time>2014-6-23T9:41:58Z</time></trkpt>
<trkpt lat="42.98290800" lon="-0.24145700"><ele></ele><time>2014-6-23T9:42:1Z</time></trkpt>
<trkpt lat="42.98294700" lon="-0.24162300"><ele></ele><time>2014-6-23T9:42:4Z</time></trkpt>
<trkpt lat="42.98301200" lon="-0.24181800"><ele></ele><time>2014-6-23T9:42:7Z</time></trkpt>
<trkpt lat="42.98307000" lon="-0.24200800"><ele></ele><time>2014-6-23T9:42:10Z</time></trkpt>
<trkpt lat="42.98322800" lon="-0.24223300"><ele></ele><time>2014-6-23T9:42:13Z</time></trkpt>
<trkpt lat="42.98336200" lon="-0.24241300"><ele></ele><time>2014-6-23T9:42:16Z</time></trkpt>
<trkpt lat="42.98349300" lon="-0.24260800"><ele></ele><time>2014-6-23T9:42:19Z</time></trkpt>
<trkpt lat="42.98361800" lon="-0.24281800"><ele></ele><time>2014-6-23T9:42:22Z</time></trkpt>
<trkpt lat="42.98374200" lon="-0.24299200"><ele></ele><time>2014-6-23T9:42:25Z</time></trkpt>
<trkpt lat="42.98375300" lon="-0.24297500"><ele></ele><time>2014-6-23T9:42:28Z</time></trkpt>
<trkpt lat="42.98376200" lon="-0.24299500"><ele></ele><time>2014-6-23T9:42:31Z</time></trkpt>
<trkpt lat="42.98378200" lon="-0.24304300"><ele></ele><time>2014-6-23T9:42:34Z</time></trkpt>
<trkpt lat="42.98379300" lon="-0.24304800"><ele></ele><time>2014-6-23T9:42:37Z</time></trkpt>
<trkpt lat="42.98381200" lon="-0.24304700"><ele></ele><time>2014-6-23T9:42:40Z</time></trkpt>
<trkpt lat="42.98385300" lon="-0.24307700"><ele></ele><time>2014-6-23T9:42:43Z</time></trkpt>
<trkpt lat="42.98395200" lon="-0.24323700"><ele></ele><time>2014-6-23T9:42:46Z</time></trkpt>
<trkpt lat="42.98407700" lon="-0.24335800"><ele></ele><time>2014-6-23T9:42:49Z</time></trkpt>
<trkpt lat="42.98413700" lon="-0.24339800"><ele></ele><time>2014-6-23T9:42:52Z</time></trkpt>
<trkpt lat="42.98414200" lon="-0.24340700"><ele></ele><time>2014-6-23T9:42:55Z</time></trkpt>
<trkpt lat="42.98413300" lon="-0.24342700"><ele></ele><time>2014-6-23T9:42:58Z</time></trkpt>
<trkpt lat="42.98412800" lon="-0.24343800"><ele></ele><time>2014-6-23T9:43:1Z</time></trkpt>
<trkpt lat="42.98413200" lon="-0.24344200"><ele></ele><time>2014-6-23T9:43:4Z</time></trkpt>
<trkpt lat="42.98413200" lon="-0.24344300"><ele></ele><time>2014-6-23T9:43:7Z</time></trkpt>
<trkpt lat="42.98413700" lon="-0.24346000"><ele></ele><time>2014-6-23T9:43:10Z</time></trkpt>
<trkpt lat="42.98415200" lon="-0.24345300"><ele></ele><time>2014-6-23T9:43:13Z</time></trkpt>
<trkpt lat="42.98417300" lon="-0.24344800"><ele></ele><time>2014-6-23T9:43:16Z</time></trkpt>
<trkpt lat="42.98416700" lon="-0.24345800"><ele></ele><time>2014-6-23T9:43:19Z</time></trkpt>
<trkpt lat="42.98421200" lon="-0.24355800"><ele></ele><time>2014-6-23T9:43:22Z</time></trkpt>
<trkpt lat="42.98427800" lon="-0.24361200"><ele></ele><time>2014-6-23T9:43:25Z</time></trkpt>
<trkpt lat="42.98430300" lon="-0.24362700"><ele></ele><time>2014-6-23T9:43:28Z</time></trkpt>
<trkpt lat="42.98431300" lon="-0.24363200"><ele></ele><time>2014-6-23T9:43:31Z</time></trkpt>
<trkpt lat="42.98431700" lon="-0.24364800"><ele></ele><time>2014-6-23T9:43:34Z</time></trkpt>
<trkpt lat="42.98432800" lon="-0.24365300"><ele></ele><time>2014-6-23T9:43:37Z</time></trkpt>
<trkpt lat="42.98433300" lon="-0.24367000"><ele></ele><time>2014-6-23T9:43:40Z</time></trkpt>
<trkpt lat="42.98431800" lon="-0.24370300"><ele></ele><time>2014-6-23T9:43:43Z</time></trkpt>
<trkpt lat="42.98432200" lon="-0.24372200"><ele></ele><time>2014-6-23T9:43:46Z</time></trkpt>
<trkpt lat="42.98433700" lon="-0.24371500"><ele></ele><time>2014-6-23T9:43:49Z</time></trkpt>
<trkpt lat="42.98438200" lon="-0.24373000"><ele></ele><time>2014-6-23T9:43:52Z</time></trkpt>
<trkpt lat="42.98441200" lon="-0.24376300"><ele></ele><time>2014-6-23T9:43:55Z</time></trkpt>
<trkpt lat="42.98440700" lon="-0.24377300"><ele></ele><time>2014-6-23T9:43:58Z</time></trkpt>
<trkpt lat="42.98440200" lon="-0.24377300"><ele></ele><time>2014-6-23T9:44:1Z</time></trkpt>
<trkpt lat="42.98440000" lon="-0.24378000"><ele></ele><time>2014-6-23T9:44:4Z</time></trkpt>
<trkpt lat="42.98439800" lon="-0.24379700"><ele></ele><time>2014-6-23T9:44:7Z</time></trkpt>
<trkpt lat="42.98439200" lon="-0.24381500"><ele></ele><time>2014-6-23T9:44:10Z</time></trkpt>
<trkpt lat="42.98438000" lon="-0.24383200"><ele></ele><time>2014-6-23T9:44:13Z</time></trkpt>
<trkpt lat="42.98437000" lon="-0.24382500"><ele></ele><time>2014-6-23T9:44:16Z</time></trkpt>
<trkpt lat="42.98435800" lon="-0.24384200"><ele></ele><time>2014-6-23T9:44:19Z</time></trkpt>
<trkpt lat="42.98436800" lon="-0.24383000"><ele></ele><time>2014-6-23T9:44:22Z</time></trkpt>
<trkpt lat="42.98441300" lon="-0.24386300"><ele></ele><time>2014-6-23T9:44:25Z</time></trkpt>
<trkpt lat="42.98445200" lon="-0.24388000"><ele></ele><time>2014-6-23T9:44:28Z</time></trkpt>
<trkpt lat="42.98450500" lon="-0.24393800"><ele></ele><time>2014-6-23T9:44:31Z</time></trkpt>
<trkpt lat="42.98458200" lon="-0.24403800"><ele></ele><time>2014-6-23T9:44:34Z</time></trkpt>
<trkpt lat="42.98469300" lon="-0.24418300"><ele></ele><time>2014-6-23T9:44:37Z</time></trkpt>
<trkpt lat="42.98478300" lon="-0.24430000"><ele></ele><time>2014-6-23T9:44:40Z</time></trkpt>
<trkpt lat="42.98484200" lon="-0.24439500"><ele></ele><time>2014-6-23T9:44:43Z</time></trkpt>
<trkpt lat="42.98490300" lon="-0.24449800"><ele></ele><time>2014-6-23T9:44:46Z</time></trkpt>
<trkpt lat="42.98491800" lon="-0.24450200"><ele></ele><time>2014-6-23T9:44:49Z</time></trkpt>
<trkpt lat="42.98495200" lon="-0.24455800"><ele></ele><time>2014-6-23T9:44:52Z</time></trkpt>
<trkpt lat="42.98492200" lon="-0.24456500"><ele></ele><time>2014-6-23T9:44:55Z</time></trkpt>
<trkpt lat="42.98491800" lon="-0.24454700"><ele></ele><time>2014-6-23T9:44:58Z</time></trkpt>
<trkpt lat="42.98491200" lon="-0.24453200"><ele></ele><time>2014-6-23T9:45:1Z</time></trkpt>
<trkpt lat="42.98492000" lon="-0.24454300"><ele></ele><time>2014-6-23T9:45:4Z</time></trkpt>
<trkpt lat="42.98496000" lon="-0.24463300"><ele></ele><time>2014-6-23T9:45:7Z</time></trkpt>
<trkpt lat="42.98502800" lon="-0.24472300"><ele></ele><time>2014-6-23T9:45:10Z</time></trkpt>
<trkpt lat="42.98505800" lon="-0.24481200"><ele></ele><time>2014-6-23T9:45:13Z</time></trkpt>
<trkpt lat="42.98509700" lon="-0.24482700"><ele></ele><time>2014-6-23T9:45:16Z</time></trkpt>
<trkpt lat="42.98512700" lon="-0.24491000"><ele></ele><time>2014-6-23T9:45:19Z</time></trkpt>
<trkpt lat="42.98512700" lon="-0.24491700"><ele></ele><time>2014-6-23T9:45:22Z</time></trkpt>
<trkpt lat="42.98513200" lon="-0.24491800"><ele></ele><time>2014-6-23T9:45:25Z</time></trkpt>
<trkpt lat="42.98512700" lon="-0.24492300"><ele></ele><time>2014-6-23T9:45:28Z</time></trkpt>
<trkpt lat="42.98512700" lon="-0.24492200"><ele></ele><time>2014-6-23T9:45:31Z</time></trkpt>
<trkpt lat="42.98512800" lon="-0.24492300"><ele></ele><time>2014-6-23T9:45:34Z</time></trkpt>
<trkpt lat="42.98513200" lon="-0.24495200"><ele></ele><time>2014-6-23T9:45:37Z</time></trkpt>
<trkpt lat="42.98513000" lon="-0.24493800"><ele></ele><time>2014-6-23T9:45:40Z</time></trkpt>
<trkpt lat="42.98512700" lon="-0.24492700"><ele></ele><time>2014-6-23T9:45:43Z</time></trkpt>
<trkpt lat="42.98511800" lon="-0.24493700"><ele></ele><time>2014-6-23T9:45:46Z</time></trkpt>
<trkpt lat="42.98511700" lon="-0.24493200"><ele></ele><time>2014-6-23T9:45:49Z</time></trkpt>
<trkpt lat="42.98511300" lon="-0.24494700"><ele></ele><time>2014-6-23T9:45:52Z</time></trkpt>
<trkpt lat="42.98511500" lon="-0.24493300"><ele></ele><time>2014-6-23T9:45:55Z</time></trkpt>
<trkpt lat="42.98511700" lon="-0.24493700"><ele></ele><time>2014-6-23T9:45:58Z</time></trkpt>
<trkpt lat="42.98512700" lon="-0.24493300"><ele></ele><time>2014-6-23T9:46:1Z</time></trkpt>
<trkpt lat="42.98517700" lon="-0.24500800"><ele></ele><time>2014-6-23T9:46:4Z</time></trkpt>
<trkpt lat="42.98525500" lon="-0.24516300"><ele></ele><time>2014-6-23T9:46:7Z</time></trkpt>
<trkpt lat="42.98534200" lon="-0.24528700"><ele></ele><time>2014-6-23T9:46:10Z</time></trkpt>
<trkpt lat="42.98535700" lon="-0.24527200"><ele></ele><time>2014-6-23T9:46:13Z</time></trkpt>
<trkpt lat="42.98536500" lon="-0.24527300"><ele></ele><time>2014-6-23T9:46:16Z</time></trkpt>
<trkpt lat="42.98536300" lon="-0.24527200"><ele></ele><time>2014-6-23T9:46:19Z</time></trkpt>
<trkpt lat="42.98539000" lon="-0.24529700"><ele></ele><time>2014-6-23T9:46:22Z</time></trkpt>
<trkpt lat="42.98542200" lon="-0.24533700"><ele></ele><time>2014-6-23T9:46:25Z</time></trkpt>
<trkpt lat="42.98546200" lon="-0.24536200"><ele></ele><time>2014-6-23T9:46:28Z</time></trkpt>
<trkpt lat="42.98544800" lon="-0.24538000"><ele></ele><time>2014-6-23T9:46:31Z</time></trkpt>
<trkpt lat="42.98546700" lon="-0.24540300"><ele></ele><time>2014-6-23T9:46:34Z</time></trkpt>
<trkpt lat="42.98553700" lon="-0.24553000"><ele></ele><time>2014-6-23T9:46:37Z</time></trkpt>
<trkpt lat="42.98558200" lon="-0.24564200"><ele></ele><time>2014-6-23T9:46:40Z</time></trkpt>
<trkpt lat="42.98565300" lon="-0.24569200"><ele></ele><time>2014-6-23T9:46:43Z</time></trkpt>
<trkpt lat="42.98569500" lon="-0.24572300"><ele></ele><time>2014-6-23T9:46:46Z</time></trkpt>
<trkpt lat="42.98570700" lon="-0.24575000"><ele></ele><time>2014-6-23T9:46:49Z</time></trkpt>
<trkpt lat="42.98570700" lon="-0.24574500"><ele></ele><time>2014-6-23T9:46:52Z</time></trkpt>
<trkpt lat="42.98570300" lon="-0.24574000"><ele></ele><time>2014-6-23T9:46:55Z</time></trkpt>
<trkpt lat="42.98570300" lon="-0.24575300"><ele></ele><time>2014-6-23T9:46:58Z</time></trkpt>
<trkpt lat="42.98569800" lon="-0.24575500"><ele></ele><time>2014-6-23T9:47:1Z</time></trkpt>
<trkpt lat="42.98568800" lon="-0.24574800"><ele></ele><time>2014-6-23T9:47:4Z</time></trkpt>
<trkpt lat="42.98569700" lon="-0.24574700"><ele></ele><time>2014-6-23T9:47:7Z</time></trkpt>
<trkpt lat="42.98569700" lon="-0.24574300"><ele></ele><time>2014-6-23T9:47:10Z</time></trkpt>
<trkpt lat="42.98569300" lon="-0.24576300"><ele></ele><time>2014-6-23T9:47:13Z</time></trkpt>
<trkpt lat="42.98567300" lon="-0.24574800"><ele></ele><time>2014-6-23T9:47:16Z</time></trkpt>
<trkpt lat="42.98566000" lon="-0.24574000"><ele></ele><time>2014-6-23T9:47:19Z</time></trkpt>
<trkpt lat="42.98567000" lon="-0.24571500"><ele></ele><time>2014-6-23T9:47:22Z</time></trkpt>
<trkpt lat="42.98569500" lon="-0.24573000"><ele></ele><time>2014-6-23T9:47:25Z</time></trkpt>
<trkpt lat="42.98570800" lon="-0.24575200"><ele></ele><time>2014-6-23T9:47:28Z</time></trkpt>
<trkpt lat="42.98571700" lon="-0.24574700"><ele></ele><time>2014-6-23T9:47:31Z</time></trkpt>
<trkpt lat="42.98572300" lon="-0.24577200"><ele></ele><time>2014-6-23T9:47:34Z</time></trkpt>
<trkpt lat="42.98573800" lon="-0.24577300"><ele></ele><time>2014-6-23T9:47:37Z</time></trkpt>
<trkpt lat="42.98573200" lon="-0.24575800"><ele></ele><time>2014-6-23T9:47:40Z</time></trkpt>
<trkpt lat="42.98572300" lon="-0.24575300"><ele></ele><time>2014-6-23T9:47:43Z</time></trkpt>
<trkpt lat="42.98572300" lon="-0.24575800"><ele></ele><time>2014-6-23T9:47:46Z</time></trkpt>
<trkpt lat="42.98573000" lon="-0.24576000"><ele></ele><time>2014-6-23T9:47:49Z</time></trkpt>
<trkpt lat="42.98573800" lon="-0.24576000"><ele></ele><time>2014-6-23T9:47:52Z</time></trkpt>
<trkpt lat="42.98574700" lon="-0.24576000"><ele></ele><time>2014-6-23T9:47:55Z</time></trkpt>
<trkpt lat="42.98575200" lon="-0.24575000"><ele></ele><time>2014-6-23T9:47:58Z</time></trkpt>
<trkpt lat="42.98575000" lon="-0.24576300"><ele></ele><time>2014-6-23T9:48:1Z</time></trkpt>
<trkpt lat="42.98573700" lon="-0.24575800"><ele></ele><time>2014-6-23T9:48:4Z</time></trkpt>
<trkpt lat="42.98573800" lon="-0.24577800"><ele></ele><time>2014-6-23T9:48:7Z</time></trkpt>
<trkpt lat="42.98577200" lon="-0.24578800"><ele></ele><time>2014-6-23T9:48:10Z</time></trkpt>
<trkpt lat="42.98582300" lon="-0.24583800"><ele></ele><time>2014-6-23T9:48:13Z</time></trkpt>
<trkpt lat="42.98588700" lon="-0.24589200"><ele></ele><time>2014-6-23T9:48:16Z</time></trkpt>
<trkpt lat="42.98591200" lon="-0.24590200"><ele></ele><time>2014-6-23T9:48:19Z</time></trkpt>
<trkpt lat="42.98590800" lon="-0.24589300"><ele></ele><time>2014-6-23T9:48:22Z</time></trkpt>
<trkpt lat="42.98590300" lon="-0.24589700"><ele></ele><time>2014-6-23T9:48:25Z</time></trkpt>
<trkpt lat="42.98590300" lon="-0.24589700"><ele></ele><time>2014-6-23T9:48:28Z</time></trkpt>
<trkpt lat="42.98590700" lon="-0.24589800"><ele></ele><time>2014-6-23T9:48:31Z</time></trkpt>
<trkpt lat="42.98590800" lon="-0.24590200"><ele></ele><time>2014-6-23T9:48:34Z</time></trkpt>
<trkpt lat="42.98591000" lon="-0.24591300"><ele></ele><time>2014-6-23T9:48:37Z</time></trkpt>
<trkpt lat="42.98591000" lon="-0.24590200"><ele></ele><time>2014-6-23T9:48:40Z</time></trkpt>
<trkpt lat="42.98592000" lon="-0.24590800"><ele></ele><time>2014-6-23T9:48:43Z</time></trkpt>
<trkpt lat="42.98592800" lon="-0.24591800"><ele></ele><time>2014-6-23T9:48:46Z</time></trkpt>
<trkpt lat="42.98592800" lon="-0.24591800"><ele></ele><time>2014-6-23T9:48:49Z</time></trkpt>
<trkpt lat="42.98592300" lon="-0.24592300"><ele></ele><time>2014-6-23T9:48:52Z</time></trkpt>
<trkpt lat="42.98602000" lon="-0.24597500"><ele></ele><time>2014-6-23T9:48:55Z</time></trkpt>
<trkpt lat="42.98607200" lon="-0.24598300"><ele></ele><time>2014-6-23T9:48:58Z</time></trkpt>
<trkpt lat="42.98606700" lon="-0.24598500"><ele></ele><time>2014-6-23T9:49:1Z</time></trkpt>
<trkpt lat="42.98606300" lon="-0.24598000"><ele></ele><time>2014-6-23T9:49:4Z</time></trkpt>
<trkpt lat="42.98606300" lon="-0.24597800"><ele></ele><time>2014-6-23T9:49:7Z</time></trkpt>
<trkpt lat="42.98606000" lon="-0.24598000"><ele></ele><time>2014-6-23T9:49:10Z</time></trkpt>
<trkpt lat="42.98607500" lon="-0.24598200"><ele></ele><time>2014-6-23T9:49:13Z</time></trkpt>
<trkpt lat="42.98607300" lon="-0.24598200"><ele></ele><time>2014-6-23T9:49:16Z</time></trkpt>
<trkpt lat="42.98606800" lon="-0.24598700"><ele></ele><time>2014-6-23T9:49:19Z</time></trkpt>
<trkpt lat="42.98606700" lon="-0.24598200"><ele></ele><time>2014-6-23T9:49:22Z</time></trkpt>
<trkpt lat="42.98606300" lon="-0.24597000"><ele></ele><time>2014-6-23T9:49:25Z</time></trkpt>
<trkpt lat="42.98605800" lon="-0.24597300"><ele></ele><time>2014-6-23T9:49:28Z</time></trkpt>
<trkpt lat="42.98605300" lon="-0.24597700"><ele></ele><time>2014-6-23T9:49:31Z</time></trkpt>
<trkpt lat="42.98605300" lon="-0.24597800"><ele></ele><time>2014-6-23T9:49:34Z</time></trkpt>
<trkpt lat="42.98605800" lon="-0.24597300"><ele></ele><time>2014-6-23T9:49:37Z</time></trkpt>
<trkpt lat="42.98605700" lon="-0.24597800"><ele></ele><time>2014-6-23T9:49:40Z</time></trkpt>
<trkpt lat="42.98606300" lon="-0.24597800"><ele></ele><time>2014-6-23T9:49:43Z</time></trkpt>
<trkpt lat="42.98606700" lon="-0.24597300"><ele></ele><time>2014-6-23T9:49:46Z</time></trkpt>
<trkpt lat="42.98605700" lon="-0.24595800"><ele></ele><time>2014-6-23T9:49:49Z</time></trkpt>
<trkpt lat="42.98605800" lon="-0.24596500"><ele></ele><time>2014-6-23T9:49:52Z</time></trkpt>
<trkpt lat="42.98605800" lon="-0.24597500"><ele></ele><time>2014-6-23T9:49:55Z</time></trkpt>
<trkpt lat="42.98606200" lon="-0.24597500"><ele></ele><time>2014-6-23T9:49:58Z</time></trkpt>
<trkpt lat="42.98606200" lon="-0.24597200"><ele></ele><time>2014-6-23T9:50:1Z</time></trkpt>
<trkpt lat="42.98605700" lon="-0.24596800"><ele></ele><time>2014-6-23T9:50:4Z</time></trkpt>
<trkpt lat="42.98605500" lon="-0.24596200"><ele></ele><time>2014-6-23T9:50:7Z</time></trkpt>
<trkpt lat="42.98605300" lon="-0.24596800"><ele></ele><time>2014-6-23T9:50:10Z</time></trkpt>
<trkpt lat="42.98605300" lon="-0.24597000"><ele></ele><time>2014-6-23T9:50:13Z</time></trkpt>
<trkpt lat="42.98606200" lon="-0.24595700"><ele></ele><time>2014-6-23T9:50:16Z</time></trkpt>
<trkpt lat="42.98606200" lon="-0.24596000"><ele></ele><time>2014-6-23T9:50:19Z</time></trkpt>
<trkpt lat="42.98605800" lon="-0.24596800"><ele></ele><time>2014-6-23T9:50:22Z</time></trkpt>
<trkpt lat="42.98606300" lon="-0.24597200"><ele></ele><time>2014-6-23T9:50:25Z</time></trkpt>
<trkpt lat="42.98606200" lon="-0.24597000"><ele></ele><time>2014-6-23T9:50:28Z</time></trkpt>
<trkpt lat="42.98606200" lon="-0.24598700"><ele></ele><time>2014-6-23T9:50:31Z</time></trkpt>
<trkpt lat="42.98605700" lon="-0.24599300"><ele></ele><time>2014-6-23T9:50:34Z</time></trkpt>
<trkpt lat="42.98605300" lon="-0.24599000"><ele></ele><time>2014-6-23T9:50:37Z</time></trkpt>
<trkpt lat="42.98605300" lon="-0.24598300"><ele></ele><time>2014-6-23T9:50:40Z</time></trkpt>
<trkpt lat="42.98605300" lon="-0.24595800"><ele></ele><time>2014-6-23T9:50:43Z</time></trkpt>
<trkpt lat="42.98605800" lon="-0.24596200"><ele></ele><time>2014-6-23T9:50:46Z</time></trkpt>
<trkpt lat="42.98605300" lon="-0.24597300"><ele></ele><time>2014-6-23T9:50:49Z</time></trkpt>
<trkpt lat="42.98605200" lon="-0.24596500"><ele></ele><time>2014-6-23T9:50:52Z</time></trkpt>
<trkpt lat="42.98605700" lon="-0.24596800"><ele></ele><time>2014-6-23T9:50:55Z</time></trkpt>
<trkpt lat="42.98607200" lon="-0.24596300"><ele></ele><time>2014-6-23T9:50:58Z</time></trkpt>
<trkpt lat="42.98607200" lon="-0.24597500"><ele></ele><time>2014-6-23T9:51:1Z</time></trkpt>
<trkpt lat="42.98607200" lon="-0.24597700"><ele></ele><time>2014-6-23T9:51:4Z</time></trkpt>
<trkpt lat="42.98607300" lon="-0.24598000"><ele></ele><time>2014-6-23T9:51:7Z</time></trkpt>
<trkpt lat="42.98607300" lon="-0.24598200"><ele></ele><time>2014-6-23T9:51:10Z</time></trkpt>
<trkpt lat="42.98606700" lon="-0.24597300"><ele></ele><time>2014-6-23T9:51:13Z</time></trkpt>
<trkpt lat="42.98605800" lon="-0.24598000"><ele></ele><time>2014-6-23T9:51:16Z</time></trkpt>
<trkpt lat="42.98604500" lon="-0.24598800"><ele></ele><time>2014-6-23T9:51:19Z</time></trkpt>
<trkpt lat="42.98604200" lon="-0.24599200"><ele></ele><time>2014-6-23T9:51:22Z</time></trkpt>
<trkpt lat="42.98604000" lon="-0.24599300"><ele></ele><time>2014-6-23T9:51:25Z</time></trkpt>
<trkpt lat="42.98604000" lon="-0.24600300"><ele></ele><time>2014-6-23T9:51:28Z</time></trkpt>
<trkpt lat="42.98604200" lon="-0.24600200"><ele></ele><time>2014-6-23T9:51:31Z</time></trkpt>
<trkpt lat="42.98604500" lon="-0.24599800"><ele></ele><time>2014-6-23T9:51:34Z</time></trkpt>
<trkpt lat="42.98605200" lon="-0.24599300"><ele></ele><time>2014-6-23T9:51:37Z</time></trkpt>
<trkpt lat="42.98611300" lon="-0.24595700"><ele></ele><time>2014-6-23T9:51:40Z</time></trkpt>
<trkpt lat="42.98623200" lon="-0.24585300"><ele></ele><time>2014-6-23T9:51:43Z</time></trkpt>
<trkpt lat="42.98630800" lon="-0.24563200"><ele></ele><time>2014-6-23T9:51:46Z</time></trkpt>
<trkpt lat="42.98630800" lon="-0.24529700"><ele></ele><time>2014-6-23T9:51:49Z</time></trkpt>
<trkpt lat="42.98626500" lon="-0.24490200"><ele></ele><time>2014-6-23T9:51:52Z</time></trkpt>
<trkpt lat="42.98625300" lon="-0.24450300"><ele></ele><time>2014-6-23T9:51:55Z</time></trkpt>
<trkpt lat="42.98622800" lon="-0.24414000"><ele></ele><time>2014-6-23T9:51:58Z</time></trkpt>
<trkpt lat="42.98619300" lon="-0.24382300"><ele></ele><time>2014-6-23T9:52:1Z</time></trkpt>
<trkpt lat="42.98619700" lon="-0.24358700"><ele></ele><time>2014-6-23T9:52:4Z</time></trkpt>
<trkpt lat="42.98621700" lon="-0.24338300"><ele></ele><time>2014-6-23T9:52:7Z</time></trkpt>
<trkpt lat="42.98626300" lon="-0.24262200"><ele></ele><time>2014-6-23T9:52:10Z</time></trkpt>
<trkpt lat="42.98626700" lon="-0.24250700"><ele></ele><time>2014-6-23T9:52:13Z</time></trkpt>
<trkpt lat="42.98617800" lon="-0.24218000"><ele></ele><time>2014-6-23T9:52:16Z</time></trkpt>
<trkpt lat="42.98624800" lon="-0.24196300"><ele></ele><time>2014-6-23T9:52:19Z</time></trkpt>
<trkpt lat="42.98629000" lon="-0.24187200"><ele></ele><time>2014-6-23T9:52:22Z</time></trkpt>
<trkpt lat="42.98631800" lon="-0.24177000"><ele></ele><time>2014-6-23T9:52:25Z</time></trkpt>
<trkpt lat="42.98630500" lon="-0.24158300"><ele></ele><time>2014-6-23T9:52:28Z</time></trkpt>
<trkpt lat="42.98628500" lon="-0.24147200"><ele></ele><time>2014-6-23T9:52:31Z</time></trkpt>
<trkpt lat="42.98628700" lon="-0.24134300"><ele></ele><time>2014-6-23T9:52:34Z</time></trkpt>
<trkpt lat="42.98629300" lon="-0.24124500"><ele></ele><time>2014-6-23T9:52:37Z</time></trkpt>
<trkpt lat="42.98629500" lon="-0.24115200"><ele></ele><time>2014-6-23T9:52:40Z</time></trkpt>
<trkpt lat="42.98629200" lon="-0.24113800"><ele></ele><time>2014-6-23T9:52:43Z</time></trkpt>
<trkpt lat="42.98630000" lon="-0.24107200"><ele></ele><time>2014-6-23T9:52:46Z</time></trkpt>
<trkpt lat="42.98634700" lon="-0.24102000"><ele></ele><time>2014-6-23T9:52:49Z</time></trkpt>
<trkpt lat="42.98638000" lon="-0.24096700"><ele></ele><time>2014-6-23T9:52:52Z</time></trkpt>
<trkpt lat="42.98637200" lon="-0.24088000"><ele></ele><time>2014-6-23T9:52:55Z</time></trkpt>
<trkpt lat="42.98637800" lon="-0.24078700"><ele></ele><time>2014-6-23T9:52:58Z</time></trkpt>
<trkpt lat="42.98640200" lon="-0.24072300"><ele></ele><time>2014-6-23T9:53:1Z</time></trkpt>
<trkpt lat="42.98641700" lon="-0.24065800"><ele></ele><time>2014-6-23T9:53:4Z</time></trkpt>
<trkpt lat="42.98643200" lon="-0.24057800"><ele></ele><time>2014-6-23T9:53:7Z</time></trkpt>
<trkpt lat="42.98643500" lon="-0.24049800"><ele></ele><time>2014-6-23T9:53:10Z</time></trkpt>
<trkpt lat="42.98645200" lon="-0.24042500"><ele></ele><time>2014-6-23T9:53:13Z</time></trkpt>
<trkpt lat="42.98647300" lon="-0.24036500"><ele></ele><time>2014-6-23T9:53:16Z</time></trkpt>
<trkpt lat="42.98648700" lon="-0.24029500"><ele></ele><time>2014-6-23T9:53:19Z</time></trkpt>
<trkpt lat="42.98648800" lon="-0.24021800"><ele></ele><time>2014-6-23T9:53:22Z</time></trkpt>
<trkpt lat="42.98651800" lon="-0.24014500"><ele></ele><time>2014-6-23T9:53:25Z</time></trkpt>
<trkpt lat="42.98654300" lon="-0.24006700"><ele></ele><time>2014-6-23T9:53:28Z</time></trkpt>
<trkpt lat="42.98654800" lon="-0.23998300"><ele></ele><time>2014-6-23T9:53:31Z</time></trkpt>
<trkpt lat="42.98655700" lon="-0.23989300"><ele></ele><time>2014-6-23T9:53:34Z</time></trkpt>
<trkpt lat="42.98656800" lon="-0.23979000"><ele></ele><time>2014-6-23T9:53:37Z</time></trkpt>
<trkpt lat="42.98660000" lon="-0.23971500"><ele></ele><time>2014-6-23T9:53:40Z</time></trkpt>
<trkpt lat="42.98661800" lon="-0.23963300"><ele></ele><time>2014-6-23T9:53:43Z</time></trkpt>
<trkpt lat="42.98661800" lon="-0.23954700"><ele></ele><time>2014-6-23T9:53:46Z</time></trkpt>
<trkpt lat="42.98663200" lon="-0.23946200"><ele></ele><time>2014-6-23T9:53:49Z</time></trkpt>
<trkpt lat="42.98662000" lon="-0.23938000"><ele></ele><time>2014-6-23T9:53:52Z</time></trkpt>
<trkpt lat="42.98661800" lon="-0.23929200"><ele></ele><time>2014-6-23T9:53:55Z</time></trkpt>
<trkpt lat="42.98662200" lon="-0.23920800"><ele></ele><time>2014-6-23T9:53:58Z</time></trkpt>
<trkpt lat="42.98660300" lon="-0.23914200"><ele></ele><time>2014-6-23T9:54:1Z</time></trkpt>
<trkpt lat="42.98659200" lon="-0.23907700"><ele></ele><time>2014-6-23T9:54:4Z</time></trkpt>
<trkpt lat="42.98658700" lon="-0.23906700"><ele></ele><time>2014-6-23T9:54:7Z</time></trkpt>
<trkpt lat="42.98657700" lon="-0.23908300"><ele></ele><time>2014-6-23T9:54:10Z</time></trkpt>
<trkpt lat="42.98655200" lon="-0.23911200"><ele></ele><time>2014-6-23T9:54:13Z</time></trkpt>
<trkpt lat="42.98654300" lon="-0.23911200"><ele></ele><time>2014-6-23T9:54:16Z</time></trkpt>
<trkpt lat="42.98655700" lon="-0.23910300"><ele></ele><time>2014-6-23T9:54:19Z</time></trkpt>
<trkpt lat="42.98656200" lon="-0.23910200"><ele></ele><time>2014-6-23T9:54:22Z</time></trkpt>
<trkpt lat="42.98656200" lon="-0.23908800"><ele></ele><time>2014-6-23T9:54:25Z</time></trkpt>
<trkpt lat="42.98656300" lon="-0.23909700"><ele></ele><time>2014-6-23T9:54:28Z</time></trkpt>
<trkpt lat="42.98656200" lon="-0.23910700"><ele></ele><time>2014-6-23T9:54:31Z</time></trkpt>
<trkpt lat="42.98655700" lon="-0.23911200"><ele></ele><time>2014-6-23T9:54:34Z</time></trkpt>
<trkpt lat="42.98656000" lon="-0.23909700"><ele></ele><time>2014-6-23T9:54:37Z</time></trkpt>
<trkpt lat="42.98654700" lon="-0.23909000"><ele></ele><time>2014-6-23T9:54:40Z</time></trkpt>
<trkpt lat="42.98655200" lon="-0.23910200"><ele></ele><time>2014-6-23T9:54:43Z</time></trkpt>
<trkpt lat="42.98656200" lon="-0.23911200"><ele></ele><time>2014-6-23T9:54:46Z</time></trkpt>
<trkpt lat="42.98656500" lon="-0.23911800"><ele></ele><time>2014-6-23T9:54:49Z</time></trkpt>
<trkpt lat="42.98656800" lon="-0.23911800"><ele></ele><time>2014-6-23T9:54:52Z</time></trkpt>
<trkpt lat="42.98657200" lon="-0.23910800"><ele></ele><time>2014-6-23T9:54:55Z</time></trkpt>
<trkpt lat="42.98656800" lon="-0.23910800"><ele></ele><time>2014-6-23T9:54:58Z</time></trkpt>
<trkpt lat="42.98656500" lon="-0.23911300"><ele></ele><time>2014-6-23T9:55:1Z</time></trkpt>
<trkpt lat="42.98656700" lon="-0.23911700"><ele></ele><time>2014-6-23T9:55:4Z</time></trkpt>
<trkpt lat="42.98657200" lon="-0.23912200"><ele></ele><time>2014-6-23T9:55:7Z</time></trkpt>
<trkpt lat="42.98656700" lon="-0.23912200"><ele></ele><time>2014-6-23T9:55:10Z</time></trkpt>
<trkpt lat="42.98656700" lon="-0.23911800"><ele></ele><time>2014-6-23T9:55:13Z</time></trkpt>
<trkpt lat="42.98656700" lon="-0.23912500"><ele></ele><time>2014-6-23T9:55:16Z</time></trkpt>
<trkpt lat="42.98655500" lon="-0.23912700"><ele></ele><time>2014-6-23T9:55:19Z</time></trkpt>
<trkpt lat="42.98654500" lon="-0.23912300"><ele></ele><time>2014-6-23T9:55:22Z</time></trkpt>
<trkpt lat="42.98654700" lon="-0.23911700"><ele></ele><time>2014-6-23T9:55:25Z</time></trkpt>
<trkpt lat="42.98655200" lon="-0.23911200"><ele></ele><time>2014-6-23T9:55:28Z</time></trkpt>
<trkpt lat="42.98656700" lon="-0.23911200"><ele></ele><time>2014-6-23T9:55:31Z</time></trkpt>
<trkpt lat="42.98656200" lon="-0.23910000"><ele></ele><time>2014-6-23T9:55:34Z</time></trkpt>
<trkpt lat="42.98656700" lon="-0.23911200"><ele></ele><time>2014-6-23T9:55:37Z</time></trkpt>
<trkpt lat="42.98657700" lon="-0.23910200"><ele></ele><time>2014-6-23T9:55:40Z</time></trkpt>
<trkpt lat="42.98658700" lon="-0.23909200"><ele></ele><time>2014-6-23T9:55:43Z</time></trkpt>
<trkpt lat="42.98658700" lon="-0.23908500"><ele></ele><time>2014-6-23T9:55:46Z</time></trkpt>
<trkpt lat="42.98658700" lon="-0.23908200"><ele></ele><time>2014-6-23T9:55:49Z</time></trkpt>
<trkpt lat="42.98660300" lon="-0.23907000"><ele></ele><time>2014-6-23T9:55:52Z</time></trkpt>
<trkpt lat="42.98659800" lon="-0.23907800"><ele></ele><time>2014-6-23T9:55:55Z</time></trkpt>
<trkpt lat="42.98659200" lon="-0.23907200"><ele></ele><time>2014-6-23T9:55:58Z</time></trkpt>
<trkpt lat="42.98658000" lon="-0.23905700"><ele></ele><time>2014-6-23T9:56:1Z</time></trkpt>
<trkpt lat="42.98657700" lon="-0.23904200"><ele></ele><time>2014-6-23T9:56:4Z</time></trkpt>
<trkpt lat="42.98657300" lon="-0.23905200"><ele></ele><time>2014-6-23T9:56:7Z</time></trkpt>
<trkpt lat="42.98658000" lon="-0.23907300"><ele></ele><time>2014-6-23T9:56:10Z</time></trkpt>
<trkpt lat="42.98657200" lon="-0.23907200"><ele></ele><time>2014-6-23T9:56:13Z</time></trkpt>
<trkpt lat="42.98656300" lon="-0.23906700"><ele></ele><time>2014-6-23T9:56:16Z</time></trkpt>
<trkpt lat="42.98658000" lon="-0.23908500"><ele></ele><time>2014-6-23T9:56:19Z</time></trkpt>
<trkpt lat="42.98656700" lon="-0.23906200"><ele></ele><time>2014-6-23T9:56:22Z</time></trkpt>
<trkpt lat="42.98656800" lon="-0.23906700"><ele></ele><time>2014-6-23T9:56:25Z</time></trkpt>
<trkpt lat="42.98657000" lon="-0.23906800"><ele></ele><time>2014-6-23T9:56:28Z</time></trkpt>
<trkpt lat="42.98657200" lon="-0.23907000"><ele></ele><time>2014-6-23T9:56:31Z</time></trkpt>
<trkpt lat="42.98656800" lon="-0.23905800"><ele></ele><time>2014-6-23T9:56:34Z</time></trkpt>
<trkpt lat="42.98657200" lon="-0.23904800"><ele></ele><time>2014-6-23T9:56:37Z</time></trkpt>
<trkpt lat="42.98657800" lon="-0.23905500"><ele></ele><time>2014-6-23T9:56:40Z</time></trkpt>
<trkpt lat="42.98658200" lon="-0.23906800"><ele></ele><time>2014-6-23T9:56:43Z</time></trkpt>
<trkpt lat="42.98658300" lon="-0.23906200"><ele></ele><time>2014-6-23T9:56:46Z</time></trkpt>
<trkpt lat="42.98658200" lon="-0.23907000"><ele></ele><time>2014-6-23T9:56:49Z</time></trkpt>
<trkpt lat="42.98657800" lon="-0.23907000"><ele></ele><time>2014-6-23T9:56:52Z</time></trkpt>
<trkpt lat="42.98656500" lon="-0.23906200"><ele></ele><time>2014-6-23T9:56:55Z</time></trkpt>
<trkpt lat="42.98654300" lon="-0.23904300"><ele></ele><time>2014-6-23T9:56:58Z</time></trkpt>
<trkpt lat="42.98654200" lon="-0.23903800"><ele></ele><time>2014-6-23T9:57:1Z</time></trkpt>
<trkpt lat="42.98655700" lon="-0.23904800"><ele></ele><time>2014-6-23T9:57:4Z</time></trkpt>
<trkpt lat="42.98656700" lon="-0.23905200"><ele></ele><time>2014-6-23T9:57:7Z</time></trkpt>
<trkpt lat="42.98657200" lon="-0.23904700"><ele></ele><time>2014-6-23T9:57:10Z</time></trkpt>
<trkpt lat="42.98657700" lon="-0.23907300"><ele></ele><time>2014-6-23T9:57:13Z</time></trkpt>
<trkpt lat="42.98657200" lon="-0.23906800"><ele></ele><time>2014-6-23T9:57:16Z</time></trkpt>
<trkpt lat="42.98656700" lon="-0.23905700"><ele></ele><time>2014-6-23T9:57:19Z</time></trkpt>
<trkpt lat="42.98657700" lon="-0.23907300"><ele></ele><time>2014-6-23T9:57:22Z</time></trkpt>
<trkpt lat="42.98657800" lon="-0.23908000"><ele></ele><time>2014-6-23T9:57:25Z</time></trkpt>
<trkpt lat="42.98658700" lon="-0.23909500"><ele></ele><time>2014-6-23T9:57:28Z</time></trkpt>
<trkpt lat="42.98659700" lon="-0.23911500"><ele></ele><time>2014-6-23T9:57:31Z</time></trkpt>
<trkpt lat="42.98658800" lon="-0.23908500"><ele></ele><time>2014-6-23T9:57:34Z</time></trkpt>
<trkpt lat="42.98659500" lon="-0.23906500"><ele></ele><time>2014-6-23T9:57:37Z</time></trkpt>
<trkpt lat="42.98658800" lon="-0.23906300"><ele></ele><time>2014-6-23T9:57:40Z</time></trkpt>
<trkpt lat="42.98658200" lon="-0.23907800"><ele></ele><time>2014-6-23T9:57:43Z</time></trkpt>
<trkpt lat="42.98657300" lon="-0.23906200"><ele></ele><time>2014-6-23T9:57:46Z</time></trkpt>
<trkpt lat="42.98656500" lon="-0.23905300"><ele></ele><time>2014-6-23T9:57:49Z</time></trkpt>
<trkpt lat="42.98646300" lon="-0.23890200"><ele></ele><time>2014-6-23T9:57:52Z</time></trkpt>
<trkpt lat="42.98628700" lon="-0.23871300"><ele></ele><time>2014-6-23T9:57:55Z</time></trkpt>
<trkpt lat="42.98621700" lon="-0.23867200"><ele></ele><time>2014-6-23T9:57:58Z</time></trkpt>
<trkpt lat="42.98607300" lon="-0.23855500"><ele></ele><time>2014-6-23T9:58:1Z</time></trkpt>
<trkpt lat="42.98602000" lon="-0.23853700"><ele></ele><time>2014-6-23T9:58:4Z</time></trkpt>
<trkpt lat="42.98598300" lon="-0.23851300"><ele></ele><time>2014-6-23T9:58:7Z</time></trkpt>
<trkpt lat="42.98592300" lon="-0.23842200"><ele></ele><time>2014-6-23T9:58:10Z</time></trkpt>
<trkpt lat="42.98589200" lon="-0.23832700"><ele></ele><time>2014-6-23T9:58:13Z</time></trkpt>
<trkpt lat="42.98584800" lon="-0.23824700"><ele></ele><time>2014-6-23T9:58:16Z</time></trkpt>
<trkpt lat="42.98557800" lon="-0.23778800"><ele></ele><time>2014-6-23T9:58:19Z</time></trkpt>
<trkpt lat="42.98625700" lon="-0.23405000"><ele></ele><time>2014-6-23T9:58:22Z</time></trkpt>
<trkpt lat="42.98602000" lon="-0.23395300"><ele></ele><time>2014-6-23T9:58:25Z</time></trkpt>
<trkpt lat="42.98595700" lon="-0.23389700"><ele></ele><time>2014-6-23T9:58:28Z</time></trkpt>
<trkpt lat="42.98596500" lon="-0.23369200"><ele></ele><time>2014-6-23T9:58:31Z</time></trkpt>
<trkpt lat="42.98596800" lon="-0.23361300"><ele></ele><time>2014-6-23T9:58:34Z</time></trkpt>
<trkpt lat="42.98594300" lon="-0.23352700"><ele></ele><time>2014-6-23T9:58:37Z</time></trkpt>
<trkpt lat="42.98591500" lon="-0.23348300"><ele></ele><time>2014-6-23T9:58:40Z</time></trkpt>
<trkpt lat="42.98589200" lon="-0.23342500"><ele></ele><time>2014-6-23T9:58:43Z</time></trkpt>
<trkpt lat="42.98586700" lon="-0.23332300"><ele></ele><time>2014-6-23T9:58:46Z</time></trkpt>
<trkpt lat="42.98575500" lon="-0.23298200"><ele></ele><time>2014-6-23T9:58:49Z</time></trkpt>
<trkpt lat="42.98572800" lon="-0.23287800"><ele></ele><time>2014-6-23T9:58:52Z</time></trkpt>
<trkpt lat="42.98577300" lon="-0.23218200"><ele></ele><time>2014-6-23T9:58:55Z</time></trkpt>
<trkpt lat="42.98589700" lon="-0.23148700"><ele></ele><time>2014-6-23T9:58:58Z</time></trkpt>
<trkpt lat="42.98589800" lon="-0.23124700"><ele></ele><time>2014-6-23T9:59:1Z</time></trkpt>
<trkpt lat="42.98588500" lon="-0.23111700"><ele></ele><time>2014-6-23T9:59:4Z</time></trkpt>
<trkpt lat="42.98586700" lon="-0.23103500"><ele></ele><time>2014-6-23T9:59:7Z</time></trkpt>
<trkpt lat="42.98586700" lon="-0.23091500"><ele></ele><time>2014-6-23T9:59:10Z</time></trkpt>
<trkpt lat="42.98583300" lon="-0.23069700"><ele></ele><time>2014-6-23T9:59:13Z</time></trkpt>
<trkpt lat="42.98582300" lon="-0.23059300"><ele></ele><time>2014-6-23T9:59:16Z</time></trkpt>
<trkpt lat="42.98578700" lon="-0.23046700"><ele></ele><time>2014-6-23T9:59:19Z</time></trkpt>
<trkpt lat="42.98575700" lon="-0.23040700"><ele></ele><time>2014-6-23T9:59:22Z</time></trkpt>
<trkpt lat="42.98573700" lon="-0.23027800"><ele></ele><time>2014-6-23T9:59:25Z</time></trkpt>
<trkpt lat="42.98546200" lon="-0.23012800"><ele></ele><time>2014-6-23T9:59:28Z</time></trkpt>
<trkpt lat="42.98546200" lon="-0.23012800"><ele></ele><time>2014-6-23T9:59:31Z</time></trkpt>
<trkpt lat="42.98528300" lon="-0.22890200"><ele></ele><time>2014-6-23T9:59:34Z</time></trkpt>
<trkpt lat="42.98594000" lon="-0.22837500"><ele></ele><time>2014-6-23T9:59:37Z</time></trkpt>
<trkpt lat="42.98672000" lon="-0.22824800"><ele></ele><time>2014-6-23T9:59:40Z</time></trkpt>
<trkpt lat="42.98706700" lon="-0.22786000"><ele></ele><time>2014-6-23T9:59:43Z</time></trkpt>
<trkpt lat="42.98749300" lon="-0.22753200"><ele></ele><time>2014-6-23T9:59:46Z</time></trkpt>
<trkpt lat="42.98790700" lon="-0.22740000"><ele></ele><time>2014-6-23T9:59:49Z</time></trkpt>
<trkpt lat="42.98833700" lon="-0.22713700"><ele></ele><time>2014-6-23T9:59:52Z</time></trkpt>
<trkpt lat="42.98876200" lon="-0.22697700"><ele></ele><time>2014-6-23T9:59:55Z</time></trkpt>
<trkpt lat="42.98913700" lon="-0.22684000"><ele></ele><time>2014-6-23T9:59:58Z</time></trkpt>
<trkpt lat="42.98962700" lon="-0.22675700"><ele></ele><time>2014-6-23T10:0:1Z</time></trkpt>
<trkpt lat="42.99018700" lon="-0.22707500"><ele></ele><time>2014-6-23T10:0:4Z</time></trkpt>
<trkpt lat="42.99083000" lon="-0.22701200"><ele></ele><time>2014-6-23T10:0:7Z</time></trkpt>
<trkpt lat="42.99135200" lon="-0.22643300"><ele></ele><time>2014-6-23T10:0:10Z</time></trkpt>
<trkpt lat="42.99137500" lon="-0.22642200"><ele></ele><time>2014-6-23T10:0:13Z</time></trkpt>
<trkpt lat="42.99138200" lon="-0.22643700"><ele></ele><time>2014-6-23T10:0:16Z</time></trkpt>
<trkpt lat="42.99147700" lon="-0.22631500"><ele></ele><time>2014-6-23T10:0:19Z</time></trkpt>
<trkpt lat="42.99146000" lon="-0.22633800"><ele></ele><time>2014-6-23T10:0:22Z</time></trkpt>
<trkpt lat="42.99147200" lon="-0.22631200"><ele></ele><time>2014-6-23T10:0:25Z</time></trkpt>
<trkpt lat="42.99147200" lon="-0.22629500"><ele></ele><time>2014-6-23T10:0:28Z</time></trkpt>
<trkpt lat="42.99148500" lon="-0.22605200"><ele></ele><time>2014-6-23T10:0:31Z</time></trkpt>
<trkpt lat="42.99149800" lon="-0.22605300"><ele></ele><time>2014-6-23T10:0:34Z</time></trkpt>
<trkpt lat="42.99154700" lon="-0.22586700"><ele></ele><time>2014-6-23T10:0:37Z</time></trkpt>
<trkpt lat="42.99116200" lon="-0.22529800"><ele></ele><time>2014-6-23T10:0:40Z</time></trkpt>
<trkpt lat="42.99081300" lon="-0.22420000"><ele></ele><time>2014-6-23T10:0:43Z</time></trkpt>
<trkpt lat="42.99066800" lon="-0.22373000"><ele></ele><time>2014-6-23T10:0:46Z</time></trkpt>
<trkpt lat="42.99051800" lon="-0.22328800"><ele></ele><time>2014-6-23T10:0:49Z</time></trkpt>
<trkpt lat="42.99028500" lon="-0.22294800"><ele></ele><time>2014-6-23T10:0:52Z</time></trkpt>
<trkpt lat="42.98991800" lon="-0.22257300"><ele></ele><time>2014-6-23T10:0:55Z</time></trkpt>
<trkpt lat="42.98963000" lon="-0.22219800"><ele></ele><time>2014-6-23T10:0:58Z</time></trkpt>
<trkpt lat="42.98930700" lon="-0.22187200"><ele></ele><time>2014-6-23T10:1:1Z</time></trkpt>
<trkpt lat="42.98879700" lon="-0.22167000"><ele></ele><time>2014-6-23T10:1:4Z</time></trkpt>
<trkpt lat="42.98866500" lon="-0.22121300"><ele></ele><time>2014-6-23T10:1:7Z</time></trkpt>
<trkpt lat="42.98859700" lon="-0.22052700"><ele></ele><time>2014-6-23T10:1:10Z</time></trkpt>
<trkpt lat="42.98864700" lon="-0.22004700"><ele></ele><time>2014-6-23T10:1:13Z</time></trkpt>
<trkpt lat="42.98871800" lon="-0.21963800"><ele></ele><time>2014-6-23T10:1:16Z</time></trkpt>
<trkpt lat="42.98875800" lon="-0.21930700"><ele></ele><time>2014-6-23T10:1:19Z</time></trkpt>
<trkpt lat="42.98876000" lon="-0.21930000"><ele></ele><time>2014-6-23T10:1:22Z</time></trkpt>
<trkpt lat="42.98875300" lon="-0.21934800"><ele></ele><time>2014-6-23T10:1:25Z</time></trkpt>
<trkpt lat="42.98877300" lon="-0.21928700"><ele></ele><time>2014-6-23T10:1:28Z</time></trkpt>
<trkpt lat="42.98881800" lon="-0.21911200"><ele></ele><time>2014-6-23T10:1:31Z</time></trkpt>
<trkpt lat="42.98889300" lon="-0.21888800"><ele></ele><time>2014-6-23T10:1:34Z</time></trkpt>
<trkpt lat="42.98897300" lon="-0.21859200"><ele></ele><time>2014-6-23T10:1:37Z</time></trkpt>
<trkpt lat="42.98895500" lon="-0.21832300"><ele></ele><time>2014-6-23T10:1:40Z</time></trkpt>
<trkpt lat="42.98891200" lon="-0.21800700"><ele></ele><time>2014-6-23T10:1:43Z</time></trkpt>
<trkpt lat="42.98889800" lon="-0.21769800"><ele></ele><time>2014-6-23T10:1:46Z</time></trkpt>
<trkpt lat="42.98890300" lon="-0.21745300"><ele></ele><time>2014-6-23T10:1:49Z</time></trkpt>
<trkpt lat="42.98887800" lon="-0.21715700"><ele></ele><time>2014-6-23T10:1:52Z</time></trkpt>
<trkpt lat="42.98879700" lon="-0.21683000"><ele></ele><time>2014-6-23T10:1:55Z</time></trkpt>
<trkpt lat="42.98865200" lon="-0.21658700"><ele></ele><time>2014-6-23T10:1:58Z</time></trkpt>
<trkpt lat="42.98842800" lon="-0.21653200"><ele></ele><time>2014-6-23T10:2:1Z</time></trkpt>
<trkpt lat="42.98816300" lon="-0.21663200"><ele></ele><time>2014-6-23T10:2:4Z</time></trkpt>
<trkpt lat="42.98788300" lon="-0.21672800"><ele></ele><time>2014-6-23T10:2:7Z</time></trkpt>
<trkpt lat="42.98758700" lon="-0.21674500"><ele></ele><time>2014-6-23T10:2:10Z</time></trkpt>
<trkpt lat="42.98724000" lon="-0.21662200"><ele></ele><time>2014-6-23T10:2:13Z</time></trkpt>
<trkpt lat="42.98687700" lon="-0.21646200"><ele></ele><time>2014-6-23T10:2:16Z</time></trkpt>
<trkpt lat="42.98651200" lon="-0.21658500"><ele></ele><time>2014-6-23T10:2:19Z</time></trkpt>
<trkpt lat="42.98649800" lon="-0.21658500"><ele></ele><time>2014-6-23T10:2:22Z</time></trkpt>
<trkpt lat="42.98644500" lon="-0.21658500"><ele></ele><time>2014-6-23T10:2:25Z</time></trkpt>
<trkpt lat="42.98641200" lon="-0.21661500"><ele></ele><time>2014-6-23T10:2:28Z</time></trkpt>
<trkpt lat="42.98624700" lon="-0.21650500"><ele></ele><time>2014-6-23T10:2:31Z</time></trkpt>
<trkpt lat="42.98664300" lon="-0.21629200"><ele></ele><time>2014-6-23T10:2:34Z</time></trkpt>
<trkpt lat="42.98706800" lon="-0.21627200"><ele></ele><time>2014-6-23T10:2:37Z</time></trkpt>
<trkpt lat="42.98726800" lon="-0.21633300"><ele></ele><time>2014-6-23T10:2:40Z</time></trkpt>
<trkpt lat="42.98749500" lon="-0.21636000"><ele></ele><time>2014-6-23T10:2:43Z</time></trkpt>
<trkpt lat="42.98770800" lon="-0.21635300"><ele></ele><time>2014-6-23T10:2:46Z</time></trkpt>
<trkpt lat="42.98791300" lon="-0.21630700"><ele></ele><time>2014-6-23T10:2:49Z</time></trkpt>
<trkpt lat="42.98809200" lon="-0.21623700"><ele></ele><time>2014-6-23T10:2:52Z</time></trkpt>
<trkpt lat="42.98826200" lon="-0.21607500"><ele></ele><time>2014-6-23T10:2:55Z</time></trkpt>
<trkpt lat="42.98845000" lon="-0.21585200"><ele></ele><time>2014-6-23T10:2:58Z</time></trkpt>
<trkpt lat="42.98863700" lon="-0.21571300"><ele></ele><time>2014-6-23T10:3:1Z</time></trkpt>
<trkpt lat="42.98880200" lon="-0.21548800"><ele></ele><time>2014-6-23T10:3:4Z</time></trkpt>
<trkpt lat="42.98890800" lon="-0.21522700"><ele></ele><time>2014-6-23T10:3:7Z</time></trkpt>
<trkpt lat="42.98900000" lon="-0.21493500"><ele></ele><time>2014-6-23T10:3:10Z</time></trkpt>
<trkpt lat="42.98909800" lon="-0.21465800"><ele></ele><time>2014-6-23T10:3:13Z</time></trkpt>
<trkpt lat="42.98925700" lon="-0.21434300"><ele></ele><time>2014-6-23T10:3:16Z</time></trkpt>
<trkpt lat="42.98931500" lon="-0.21407300"><ele></ele><time>2014-6-23T10:3:19Z</time></trkpt>
<trkpt lat="42.98940300" lon="-0.21385300"><ele></ele><time>2014-6-23T10:3:22Z</time></trkpt>
<trkpt lat="42.98956800" lon="-0.21374800"><ele></ele><time>2014-6-23T10:3:25Z</time></trkpt>
<trkpt lat="42.98976200" lon="-0.21370700"><ele></ele><time>2014-6-23T10:3:28Z</time></trkpt>
<trkpt lat="42.98992000" lon="-0.21352700"><ele></ele><time>2014-6-23T10:3:31Z</time></trkpt>
<trkpt lat="42.99001200" lon="-0.21330800"><ele></ele><time>2014-6-23T10:3:34Z</time></trkpt>
<trkpt lat="42.99009700" lon="-0.21303800"><ele></ele><time>2014-6-23T10:3:37Z</time></trkpt>
<trkpt lat="42.99015500" lon="-0.21276700"><ele></ele><time>2014-6-23T10:3:40Z</time></trkpt>
<trkpt lat="42.99032200" lon="-0.21239300"><ele></ele><time>2014-6-23T10:3:43Z</time></trkpt>
<trkpt lat="42.99046200" lon="-0.21218200"><ele></ele><time>2014-6-23T10:3:46Z</time></trkpt>
<trkpt lat="42.99060000" lon="-0.21196700"><ele></ele><time>2014-6-23T10:3:49Z</time></trkpt>
<trkpt lat="42.99072800" lon="-0.21180200"><ele></ele><time>2014-6-23T10:3:52Z</time></trkpt>
<trkpt lat="42.99085300" lon="-0.21159700"><ele></ele><time>2014-6-23T10:3:55Z</time></trkpt>
<trkpt lat="42.99093200" lon="-0.21140200"><ele></ele><time>2014-6-23T10:3:58Z</time></trkpt>
<trkpt lat="42.99099800" lon="-0.21120200"><ele></ele><time>2014-6-23T10:4:1Z</time></trkpt>
<trkpt lat="42.99097300" lon="-0.21102800"><ele></ele><time>2014-6-23T10:4:4Z</time></trkpt>
<trkpt lat="42.99117700" lon="-0.21094800"><ele></ele><time>2014-6-23T10:4:7Z</time></trkpt>
<trkpt lat="42.99136700" lon="-0.21081800"><ele></ele><time>2014-6-23T10:4:10Z</time></trkpt>
<trkpt lat="42.99160300" lon="-0.21083800"><ele></ele><time>2014-6-23T10:4:13Z</time></trkpt>
<trkpt lat="42.99183300" lon="-0.21065500"><ele></ele><time>2014-6-23T10:4:16Z</time></trkpt>
<trkpt lat="42.99199300" lon="-0.21053200"><ele></ele><time>2014-6-23T10:4:19Z</time></trkpt>
<trkpt lat="42.99215000" lon="-0.21048700"><ele></ele><time>2014-6-23T10:4:22Z</time></trkpt>
<trkpt lat="42.99231800" lon="-0.21046200"><ele></ele><time>2014-6-23T10:4:25Z</time></trkpt>
<trkpt lat="42.99251800" lon="-0.21051200"><ele></ele><time>2014-6-23T10:4:28Z</time></trkpt>
<trkpt lat="42.99267800" lon="-0.21057800"><ele></ele><time>2014-6-23T10:4:31Z</time></trkpt>
<trkpt lat="42.99285300" lon="-0.21065000"><ele></ele><time>2014-6-23T10:4:34Z</time></trkpt>
<trkpt lat="42.99307300" lon="-0.21075700"><ele></ele><time>2014-6-23T10:4:37Z</time></trkpt>
<trkpt lat="42.99327800" lon="-0.21084800"><ele></ele><time>2014-6-23T10:4:40Z</time></trkpt>
<trkpt lat="42.99339700" lon="-0.21086300"><ele></ele><time>2014-6-23T10:4:43Z</time></trkpt>
<trkpt lat="42.99348300" lon="-0.21073700"><ele></ele><time>2014-6-23T10:4:46Z</time></trkpt>
<trkpt lat="42.99348200" lon="-0.21077700"><ele></ele><time>2014-6-23T10:4:49Z</time></trkpt>
<trkpt lat="42.99349300" lon="-0.21077800"><ele></ele><time>2014-6-23T10:4:52Z</time></trkpt>
<trkpt lat="42.99349800" lon="-0.21076700"><ele></ele><time>2014-6-23T10:4:55Z</time></trkpt>
<trkpt lat="42.99350500" lon="-0.21080800"><ele></ele><time>2014-6-23T10:4:58Z</time></trkpt>
<trkpt lat="42.99348200" lon="-0.21080200"><ele></ele><time>2014-6-23T10:5:1Z</time></trkpt>
<trkpt lat="42.99341300" lon="-0.21086300"><ele></ele><time>2014-6-23T10:5:4Z</time></trkpt>
<trkpt lat="42.99336300" lon="-0.21090300"><ele></ele><time>2014-6-23T10:5:7Z</time></trkpt>
<trkpt lat="42.99338300" lon="-0.21088300"><ele></ele><time>2014-6-23T10:5:10Z</time></trkpt>
<trkpt lat="42.99339800" lon="-0.21084500"><ele></ele><time>2014-6-23T10:5:13Z</time></trkpt>
<trkpt lat="42.99340500" lon="-0.21078200"><ele></ele><time>2014-6-23T10:5:16Z</time></trkpt>
<trkpt lat="42.99342800" lon="-0.21078200"><ele></ele><time>2014-6-23T10:5:19Z</time></trkpt>
<trkpt lat="42.99341200" lon="-0.21086200"><ele></ele><time>2014-6-23T10:5:22Z</time></trkpt>
<trkpt lat="42.99343300" lon="-0.21087000"><ele></ele><time>2014-6-23T10:5:25Z</time></trkpt>
<trkpt lat="42.99343800" lon="-0.21083200"><ele></ele><time>2014-6-23T10:5:28Z</time></trkpt>
<trkpt lat="42.99346000" lon="-0.21085800"><ele></ele><time>2014-6-23T10:5:31Z</time></trkpt>
<trkpt lat="42.99344300" lon="-0.21090800"><ele></ele><time>2014-6-23T10:5:34Z</time></trkpt>
<trkpt lat="42.99345500" lon="-0.21092500"><ele></ele><time>2014-6-23T10:5:37Z</time></trkpt>
<trkpt lat="42.99347300" lon="-0.21093200"><ele></ele><time>2014-6-23T10:5:40Z</time></trkpt>
<trkpt lat="42.99359700" lon="-0.21101500"><ele></ele><time>2014-6-23T10:5:43Z</time></trkpt>
<trkpt lat="42.99378300" lon="-0.21110800"><ele></ele><time>2014-6-23T10:5:46Z</time></trkpt>
<trkpt lat="42.99397700" lon="-0.21117300"><ele></ele><time>2014-6-23T10:5:49Z</time></trkpt>
<trkpt lat="42.99417700" lon="-0.21121000"><ele></ele><time>2014-6-23T10:5:52Z</time></trkpt>
<trkpt lat="42.99444700" lon="-0.21131800"><ele></ele><time>2014-6-23T10:5:55Z</time></trkpt>
<trkpt lat="42.99460000" lon="-0.21131800"><ele></ele><time>2014-6-23T10:5:58Z</time></trkpt>
<trkpt lat="42.99478700" lon="-0.21133200"><ele></ele><time>2014-6-23T10:6:1Z</time></trkpt>
<trkpt lat="42.99497700" lon="-0.21146000"><ele></ele><time>2014-6-23T10:6:4Z</time></trkpt>
<trkpt lat="42.99499800" lon="-0.21148200"><ele></ele><time>2014-6-23T10:6:7Z</time></trkpt>
<trkpt lat="42.99498200" lon="-0.21147500"><ele></ele><time>2014-6-23T10:6:10Z</time></trkpt>
<trkpt lat="42.99508800" lon="-0.21152700"><ele></ele><time>2014-6-23T10:6:13Z</time></trkpt>
<trkpt lat="42.99526000" lon="-0.21159700"><ele></ele><time>2014-6-23T10:6:16Z</time></trkpt>
<trkpt lat="42.99546700" lon="-0.21164200"><ele></ele><time>2014-6-23T10:6:19Z</time></trkpt>
<trkpt lat="42.99561800" lon="-0.21167800"><ele></ele><time>2014-6-23T10:6:22Z</time></trkpt>
<trkpt lat="42.99579700" lon="-0.21175800"><ele></ele><time>2014-6-23T10:6:25Z</time></trkpt>
<trkpt lat="42.99601700" lon="-0.21179200"><ele></ele><time>2014-6-23T10:6:28Z</time></trkpt>
<trkpt lat="42.99625300" lon="-0.21182200"><ele></ele><time>2014-6-23T10:6:31Z</time></trkpt>
<trkpt lat="42.99651700" lon="-0.21172800"><ele></ele><time>2014-6-23T10:6:34Z</time></trkpt>
<trkpt lat="42.99674800" lon="-0.21141000"><ele></ele><time>2014-6-23T10:6:37Z</time></trkpt>
<trkpt lat="42.99687700" lon="-0.21111700"><ele></ele><time>2014-6-23T10:6:40Z</time></trkpt>
<trkpt lat="42.99705300" lon="-0.21097500"><ele></ele><time>2014-6-23T10:6:43Z</time></trkpt>
<trkpt lat="42.99722500" lon="-0.21081200"><ele></ele><time>2014-6-23T10:6:46Z</time></trkpt>
<trkpt lat="42.99746200" lon="-0.21069200"><ele></ele><time>2014-6-23T10:6:49Z</time></trkpt>
<trkpt lat="42.99768200" lon="-0.21059500"><ele></ele><time>2014-6-23T10:6:52Z</time></trkpt>
<trkpt lat="42.99792500" lon="-0.21049300"><ele></ele><time>2014-6-23T10:6:55Z</time></trkpt>
<trkpt lat="42.99836300" lon="-0.21025800"><ele></ele><time>2014-6-23T10:6:58Z</time></trkpt>
<trkpt lat="42.99867000" lon="-0.20989200"><ele></ele><time>2014-6-23T10:7:1Z</time></trkpt>
<trkpt lat="42.99881700" lon="-0.20965300"><ele></ele><time>2014-6-23T10:7:4Z</time></trkpt>
<trkpt lat="42.99888500" lon="-0.20941700"><ele></ele><time>2014-6-23T10:7:7Z</time></trkpt>
<trkpt lat="42.99879200" lon="-0.20915200"><ele></ele><time>2014-6-23T10:7:10Z</time></trkpt>
<trkpt lat="42.99875800" lon="-0.20888800"><ele></ele><time>2014-6-23T10:7:13Z</time></trkpt>
<trkpt lat="42.99872200" lon="-0.20849700"><ele></ele><time>2014-6-23T10:7:16Z</time></trkpt>
<trkpt lat="42.99869200" lon="-0.20728300"><ele></ele><time>2014-6-23T10:7:19Z</time></trkpt>
<trkpt lat="42.99883300" lon="-0.20598500"><ele></ele><time>2014-6-23T10:7:22Z</time></trkpt>
<trkpt lat="42.99889200" lon="-0.20557700"><ele></ele><time>2014-6-23T10:7:25Z</time></trkpt>
<trkpt lat="42.99896800" lon="-0.20526700"><ele></ele><time>2014-6-23T10:7:28Z</time></trkpt>
<trkpt lat="42.99883800" lon="-0.20496800"><ele></ele><time>2014-6-23T10:7:31Z</time></trkpt>
<trkpt lat="42.99848300" lon="-0.20514800"><ele></ele><time>2014-6-23T10:7:34Z</time></trkpt>
<trkpt lat="42.99797700" lon="-0.20503200"><ele></ele><time>2014-6-23T10:7:37Z</time></trkpt>
<trkpt lat="42.99741700" lon="-0.20487700"><ele></ele><time>2014-6-23T10:7:40Z</time></trkpt>
<trkpt lat="42.99664300" lon="-0.20442200"><ele></ele><time>2014-6-23T10:7:43Z</time></trkpt>
<trkpt lat="42.99590000" lon="-0.20494000"><ele></ele><time>2014-6-23T10:7:46Z</time></trkpt>
<trkpt lat="42.99552800" lon="-0.20545700"><ele></ele><time>2014-6-23T10:7:49Z</time></trkpt>
<trkpt lat="42.99534000" lon="-0.20574200"><ele></ele><time>2014-6-23T10:7:52Z</time></trkpt>
<trkpt lat="42.99507800" lon="-0.20596200"><ele></ele><time>2014-6-23T10:7:55Z</time></trkpt>
<trkpt lat="42.99488800" lon="-0.20601000"><ele></ele><time>2014-6-23T10:7:58Z</time></trkpt>
<trkpt lat="42.99441800" lon="-0.20594500"><ele></ele><time>2014-6-23T10:8:1Z</time></trkpt>
<trkpt lat="42.99398200" lon="-0.20563500"><ele></ele><time>2014-6-23T10:8:4Z</time></trkpt>
<trkpt lat="42.99382000" lon="-0.20524000"><ele></ele><time>2014-6-23T10:8:7Z</time></trkpt>
<trkpt lat="42.99362000" lon="-0.20482200"><ele></ele><time>2014-6-23T10:8:10Z</time></trkpt>
<trkpt lat="42.99335300" lon="-0.20463000"><ele></ele><time>2014-6-23T10:8:13Z</time></trkpt>
<trkpt lat="42.99306700" lon="-0.20468800"><ele></ele><time>2014-6-23T10:8:16Z</time></trkpt>
<trkpt lat="42.99294700" lon="-0.20465300"><ele></ele><time>2014-6-23T10:8:19Z</time></trkpt>
<trkpt lat="42.99277200" lon="-0.20458300"><ele></ele><time>2014-6-23T10:8:22Z</time></trkpt>
<trkpt lat="42.99262200" lon="-0.20443200"><ele></ele><time>2014-6-23T10:8:25Z</time></trkpt>
<trkpt lat="42.99246700" lon="-0.20426000"><ele></ele><time>2014-6-23T10:8:28Z</time></trkpt>
<trkpt lat="42.99233000" lon="-0.20409300"><ele></ele><time>2014-6-23T10:8:31Z</time></trkpt>
<trkpt lat="42.99200800" lon="-0.20392700"><ele></ele><time>2014-6-23T10:8:34Z</time></trkpt>
<trkpt lat="42.99186000" lon="-0.20377800"><ele></ele><time>2014-6-23T10:8:37Z</time></trkpt>
<trkpt lat="42.99168000" lon="-0.20360300"><ele></ele><time>2014-6-23T10:8:40Z</time></trkpt>
<trkpt lat="42.99144700" lon="-0.20348300"><ele></ele><time>2014-6-23T10:8:43Z</time></trkpt>
<trkpt lat="42.99121700" lon="-0.20336700"><ele></ele><time>2014-6-23T10:8:46Z</time></trkpt>
</trkseg></trk></gpx>